<?xml version="1.0" encoding="UTF-8" standalone="no" ?>
<gpx xmlns="http://www.topografix.com/GPX/1/1" xmlns:xsi="http://www.w3.org/2001/XMLSchema-instance" xsi:schemaLocation="http://www.topografix.com/GPX/1/1 http://www.topografix.com/GPX/1/1/gpx.xsd" version="1.1" creator="VisuGPX - https://www.visugpx.com">
  <metadata>
    <name>La Cordiolo 2017</name>
    <desc><![CDATA[La Cordiolo 2017,  parcours 30 km]]></desc>
  </metadata>
  <trk>
    <name><![CDATA[La Cordiolo 2017_1]]></name>
    <trkseg>
      <trkpt lat="44.06647" lon="1.94032">
        <ele>128.1</ele>
        <time>2017-04-23T07:38:31Z</time>
      </trkpt>
      <trkpt lat="44.06647" lon="1.94032">
        <ele>128.1</ele>
        <time>2017-04-23T07:38:32Z</time>
      </trkpt>
      <trkpt lat="44.06651" lon="1.94023">
        <ele>161.8</ele>
        <time>2017-04-23T07:39:24Z</time>
      </trkpt>
      <trkpt lat="44.06654" lon="1.94025">
        <ele>161.9</ele>
        <time>2017-04-23T07:39:31Z</time>
      </trkpt>
      <trkpt lat="44.06647" lon="1.94028">
        <ele>162.1</ele>
        <time>2017-04-23T07:39:44Z</time>
      </trkpt>
      <trkpt lat="44.06633" lon="1.94017">
        <ele>161.8</ele>
        <time>2017-04-23T07:40:55Z</time>
      </trkpt>
      <trkpt lat="44.06641" lon="1.94022">
        <ele>160.1</ele>
        <time>2017-04-23T07:41:11Z</time>
      </trkpt>
      <trkpt lat="44.06631" lon="1.94018">
        <ele>160.4</ele>
        <time>2017-04-23T07:42:02Z</time>
      </trkpt>
      <trkpt lat="44.06634" lon="1.94028">
        <ele>156</ele>
        <time>2017-04-23T07:47:23Z</time>
      </trkpt>
      <trkpt lat="44.06642" lon="1.94026">
        <ele>157</ele>
        <time>2017-04-23T07:47:34Z</time>
      </trkpt>
      <trkpt lat="44.06649" lon="1.94026">
        <ele>157.7</ele>
        <time>2017-04-23T07:47:41Z</time>
      </trkpt>
      <trkpt lat="44.06649" lon="1.94028">
        <ele>158.3</ele>
        <time>2017-04-23T07:48:35Z</time>
      </trkpt>
      <trkpt lat="44.06647" lon="1.94015">
        <ele>160.7</ele>
        <time>2017-04-23T07:49:33Z</time>
      </trkpt>
      <trkpt lat="44.06647" lon="1.94004">
        <ele>161.7</ele>
        <time>2017-04-23T07:49:40Z</time>
      </trkpt>
      <trkpt lat="44.06647" lon="1.93993">
        <ele>162.4</ele>
        <time>2017-04-23T07:49:45Z</time>
      </trkpt>
      <trkpt lat="44.06648" lon="1.93981">
        <ele>162.4</ele>
        <time>2017-04-23T07:49:51Z</time>
      </trkpt>
      <trkpt lat="44.0665" lon="1.93969">
        <ele>162.7</ele>
        <time>2017-04-23T07:49:54Z</time>
      </trkpt>
      <trkpt lat="44.06651" lon="1.93958">
        <ele>164.1</ele>
        <time>2017-04-23T07:49:57Z</time>
      </trkpt>
      <trkpt lat="44.06653" lon="1.93944">
        <ele>165.2</ele>
        <time>2017-04-23T07:50:00Z</time>
      </trkpt>
      <trkpt lat="44.0666" lon="1.9394">
        <ele>166.5</ele>
        <time>2017-04-23T07:50:04Z</time>
      </trkpt>
      <trkpt lat="44.06667" lon="1.93942">
        <ele>166.4</ele>
        <time>2017-04-23T07:50:06Z</time>
      </trkpt>
      <trkpt lat="44.06676" lon="1.93945">
        <ele>166.3</ele>
        <time>2017-04-23T07:50:08Z</time>
      </trkpt>
      <trkpt lat="44.06687" lon="1.93949">
        <ele>166.7</ele>
        <time>2017-04-23T07:50:10Z</time>
      </trkpt>
      <trkpt lat="44.06698" lon="1.93954">
        <ele>167</ele>
        <time>2017-04-23T07:50:12Z</time>
      </trkpt>
      <trkpt lat="44.06709" lon="1.93959">
        <ele>167.4</ele>
        <time>2017-04-23T07:50:14Z</time>
      </trkpt>
      <trkpt lat="44.06718" lon="1.93965">
        <ele>168.1</ele>
        <time>2017-04-23T07:50:16Z</time>
      </trkpt>
      <trkpt lat="44.06725" lon="1.93973">
        <ele>167.3</ele>
        <time>2017-04-23T07:50:18Z</time>
      </trkpt>
      <trkpt lat="44.06731" lon="1.93981">
        <ele>166.3</ele>
        <time>2017-04-23T07:50:20Z</time>
      </trkpt>
      <trkpt lat="44.06739" lon="1.93993">
        <ele>165</ele>
        <time>2017-04-23T07:50:22Z</time>
      </trkpt>
      <trkpt lat="44.06744" lon="1.94005">
        <ele>164.1</ele>
        <time>2017-04-23T07:50:24Z</time>
      </trkpt>
      <trkpt lat="44.06751" lon="1.94013">
        <ele>163.5</ele>
        <time>2017-04-23T07:50:26Z</time>
      </trkpt>
      <trkpt lat="44.06756" lon="1.94025">
        <ele>162.5</ele>
        <time>2017-04-23T07:50:29Z</time>
      </trkpt>
      <trkpt lat="44.06763" lon="1.9403">
        <ele>161.6</ele>
        <time>2017-04-23T07:50:32Z</time>
      </trkpt>
      <trkpt lat="44.06773" lon="1.9403">
        <ele>161.5</ele>
        <time>2017-04-23T07:50:35Z</time>
      </trkpt>
      <trkpt lat="44.06781" lon="1.9403">
        <ele>161.7</ele>
        <time>2017-04-23T07:50:37Z</time>
      </trkpt>
      <trkpt lat="44.06788" lon="1.94029">
        <ele>162.7</ele>
        <time>2017-04-23T07:50:39Z</time>
      </trkpt>
      <trkpt lat="44.06796" lon="1.9403">
        <ele>163.3</ele>
        <time>2017-04-23T07:50:41Z</time>
      </trkpt>
      <trkpt lat="44.06805" lon="1.9403">
        <ele>163.8</ele>
        <time>2017-04-23T07:50:43Z</time>
      </trkpt>
      <trkpt lat="44.06814" lon="1.94037">
        <ele>163.2</ele>
        <time>2017-04-23T07:50:46Z</time>
      </trkpt>
      <trkpt lat="44.06822" lon="1.94037">
        <ele>163.3</ele>
        <time>2017-04-23T07:50:48Z</time>
      </trkpt>
      <trkpt lat="44.06833" lon="1.94038">
        <ele>163.4</ele>
        <time>2017-04-23T07:50:51Z</time>
      </trkpt>
      <trkpt lat="44.06843" lon="1.94038">
        <ele>163.5</ele>
        <time>2017-04-23T07:50:54Z</time>
      </trkpt>
      <trkpt lat="44.06851" lon="1.94036">
        <ele>163.8</ele>
        <time>2017-04-23T07:50:57Z</time>
      </trkpt>
      <trkpt lat="44.06855" lon="1.94027">
        <ele>162.8</ele>
        <time>2017-04-23T07:51:00Z</time>
      </trkpt>
      <trkpt lat="44.06858" lon="1.94014">
        <ele>162.2</ele>
        <time>2017-04-23T07:51:02Z</time>
      </trkpt>
      <trkpt lat="44.06862" lon="1.94002">
        <ele>161.5</ele>
        <time>2017-04-23T07:51:04Z</time>
      </trkpt>
      <trkpt lat="44.06867" lon="1.93988">
        <ele>161.3</ele>
        <time>2017-04-23T07:51:06Z</time>
      </trkpt>
      <trkpt lat="44.06872" lon="1.93977">
        <ele>161.5</ele>
        <time>2017-04-23T07:51:08Z</time>
      </trkpt>
      <trkpt lat="44.06878" lon="1.93967">
        <ele>161.6</ele>
        <time>2017-04-23T07:51:10Z</time>
      </trkpt>
      <trkpt lat="44.06884" lon="1.93957">
        <ele>162</ele>
        <time>2017-04-23T07:51:12Z</time>
      </trkpt>
      <trkpt lat="44.06891" lon="1.93947">
        <ele>162.2</ele>
        <time>2017-04-23T07:51:14Z</time>
      </trkpt>
      <trkpt lat="44.06895" lon="1.93936">
        <ele>162.3</ele>
        <time>2017-04-23T07:51:16Z</time>
      </trkpt>
      <trkpt lat="44.069" lon="1.93923">
        <ele>162.2</ele>
        <time>2017-04-23T07:51:18Z</time>
      </trkpt>
      <trkpt lat="44.06904" lon="1.9391">
        <ele>162.1</ele>
        <time>2017-04-23T07:51:20Z</time>
      </trkpt>
      <trkpt lat="44.06907" lon="1.93897">
        <ele>161.9</ele>
        <time>2017-04-23T07:51:22Z</time>
      </trkpt>
      <trkpt lat="44.06909" lon="1.93884">
        <ele>161.8</ele>
        <time>2017-04-23T07:51:24Z</time>
      </trkpt>
      <trkpt lat="44.06911" lon="1.93872">
        <ele>161.8</ele>
        <time>2017-04-23T07:51:26Z</time>
      </trkpt>
      <trkpt lat="44.06913" lon="1.93859">
        <ele>161.4</ele>
        <time>2017-04-23T07:51:28Z</time>
      </trkpt>
      <trkpt lat="44.06915" lon="1.93848">
        <ele>161.4</ele>
        <time>2017-04-23T07:51:30Z</time>
      </trkpt>
      <trkpt lat="44.06919" lon="1.93838">
        <ele>161.4</ele>
        <time>2017-04-23T07:51:32Z</time>
      </trkpt>
      <trkpt lat="44.06922" lon="1.93828">
        <ele>161.5</ele>
        <time>2017-04-23T07:51:34Z</time>
      </trkpt>
      <trkpt lat="44.06924" lon="1.93818">
        <ele>161.3</ele>
        <time>2017-04-23T07:51:36Z</time>
      </trkpt>
      <trkpt lat="44.06928" lon="1.93806">
        <ele>161.3</ele>
        <time>2017-04-23T07:51:39Z</time>
      </trkpt>
      <trkpt lat="44.06933" lon="1.93794">
        <ele>161.1</ele>
        <time>2017-04-23T07:51:42Z</time>
      </trkpt>
      <trkpt lat="44.06938" lon="1.93781">
        <ele>160.5</ele>
        <time>2017-04-23T07:51:45Z</time>
      </trkpt>
      <trkpt lat="44.06937" lon="1.9377">
        <ele>159.9</ele>
        <time>2017-04-23T07:51:48Z</time>
      </trkpt>
      <trkpt lat="44.06943" lon="1.93759">
        <ele>160</ele>
        <time>2017-04-23T07:51:52Z</time>
      </trkpt>
      <trkpt lat="44.0695" lon="1.93749">
        <ele>159.9</ele>
        <time>2017-04-23T07:51:55Z</time>
      </trkpt>
      <trkpt lat="44.06957" lon="1.93739">
        <ele>159.8</ele>
        <time>2017-04-23T07:51:58Z</time>
      </trkpt>
      <trkpt lat="44.06964" lon="1.93732">
        <ele>159.6</ele>
        <time>2017-04-23T07:52:01Z</time>
      </trkpt>
      <trkpt lat="44.06969" lon="1.93722">
        <ele>159.2</ele>
        <time>2017-04-23T07:52:05Z</time>
      </trkpt>
      <trkpt lat="44.06976" lon="1.93714">
        <ele>158.8</ele>
        <time>2017-04-23T07:52:08Z</time>
      </trkpt>
      <trkpt lat="44.0698" lon="1.93705">
        <ele>158.7</ele>
        <time>2017-04-23T07:52:11Z</time>
      </trkpt>
      <trkpt lat="44.06985" lon="1.93695">
        <ele>158.9</ele>
        <time>2017-04-23T07:52:14Z</time>
      </trkpt>
      <trkpt lat="44.06991" lon="1.93685">
        <ele>159.2</ele>
        <time>2017-04-23T07:52:17Z</time>
      </trkpt>
      <trkpt lat="44.06995" lon="1.93673">
        <ele>159.8</ele>
        <time>2017-04-23T07:52:20Z</time>
      </trkpt>
      <trkpt lat="44.06999" lon="1.9366">
        <ele>160</ele>
        <time>2017-04-23T07:52:23Z</time>
      </trkpt>
      <trkpt lat="44.07002" lon="1.9365">
        <ele>160</ele>
        <time>2017-04-23T07:52:25Z</time>
      </trkpt>
      <trkpt lat="44.07006" lon="1.9364">
        <ele>160.4</ele>
        <time>2017-04-23T07:52:27Z</time>
      </trkpt>
      <trkpt lat="44.07009" lon="1.93629">
        <ele>160.3</ele>
        <time>2017-04-23T07:52:29Z</time>
      </trkpt>
      <trkpt lat="44.07013" lon="1.9362">
        <ele>160.3</ele>
        <time>2017-04-23T07:52:31Z</time>
      </trkpt>
      <trkpt lat="44.07016" lon="1.93609">
        <ele>159.9</ele>
        <time>2017-04-23T07:52:33Z</time>
      </trkpt>
      <trkpt lat="44.07018" lon="1.93598">
        <ele>159.7</ele>
        <time>2017-04-23T07:52:35Z</time>
      </trkpt>
      <trkpt lat="44.07021" lon="1.93587">
        <ele>159.1</ele>
        <time>2017-04-23T07:52:37Z</time>
      </trkpt>
      <trkpt lat="44.07023" lon="1.93577">
        <ele>158.7</ele>
        <time>2017-04-23T07:52:39Z</time>
      </trkpt>
      <trkpt lat="44.0703" lon="1.93564">
        <ele>158.6</ele>
        <time>2017-04-23T07:52:42Z</time>
      </trkpt>
      <trkpt lat="44.07037" lon="1.93558">
        <ele>158.3</ele>
        <time>2017-04-23T07:52:44Z</time>
      </trkpt>
      <trkpt lat="44.07045" lon="1.93558">
        <ele>158.4</ele>
        <time>2017-04-23T07:52:46Z</time>
      </trkpt>
      <trkpt lat="44.07052" lon="1.9356">
        <ele>158</ele>
        <time>2017-04-23T07:52:50Z</time>
      </trkpt>
      <trkpt lat="44.0706" lon="1.93552">
        <ele>157.5</ele>
        <time>2017-04-23T07:52:54Z</time>
      </trkpt>
      <trkpt lat="44.07066" lon="1.93546">
        <ele>157.2</ele>
        <time>2017-04-23T07:52:57Z</time>
      </trkpt>
      <trkpt lat="44.07076" lon="1.93543">
        <ele>157</ele>
        <time>2017-04-23T07:53:00Z</time>
      </trkpt>
      <trkpt lat="44.07083" lon="1.93539">
        <ele>156.9</ele>
        <time>2017-04-23T07:53:04Z</time>
      </trkpt>
      <trkpt lat="44.0709" lon="1.93532">
        <ele>158.2</ele>
        <time>2017-04-23T07:53:07Z</time>
      </trkpt>
      <trkpt lat="44.07095" lon="1.93525">
        <ele>158.7</ele>
        <time>2017-04-23T07:53:09Z</time>
      </trkpt>
      <trkpt lat="44.07102" lon="1.93518">
        <ele>159</ele>
        <time>2017-04-23T07:53:11Z</time>
      </trkpt>
      <trkpt lat="44.07112" lon="1.93507">
        <ele>159</ele>
        <time>2017-04-23T07:53:14Z</time>
      </trkpt>
      <trkpt lat="44.07119" lon="1.93498">
        <ele>159.1</ele>
        <time>2017-04-23T07:53:16Z</time>
      </trkpt>
      <trkpt lat="44.07126" lon="1.93489">
        <ele>159.3</ele>
        <time>2017-04-23T07:53:18Z</time>
      </trkpt>
      <trkpt lat="44.07132" lon="1.93479">
        <ele>159.3</ele>
        <time>2017-04-23T07:53:20Z</time>
      </trkpt>
      <trkpt lat="44.07137" lon="1.93469">
        <ele>159.3</ele>
        <time>2017-04-23T07:53:22Z</time>
      </trkpt>
      <trkpt lat="44.07144" lon="1.93459">
        <ele>159.3</ele>
        <time>2017-04-23T07:53:24Z</time>
      </trkpt>
      <trkpt lat="44.07152" lon="1.93449">
        <ele>159</ele>
        <time>2017-04-23T07:53:26Z</time>
      </trkpt>
      <trkpt lat="44.07159" lon="1.93437">
        <ele>158.8</ele>
        <time>2017-04-23T07:53:28Z</time>
      </trkpt>
      <trkpt lat="44.07165" lon="1.93425">
        <ele>158.5</ele>
        <time>2017-04-23T07:53:30Z</time>
      </trkpt>
      <trkpt lat="44.07171" lon="1.93415">
        <ele>158.4</ele>
        <time>2017-04-23T07:53:32Z</time>
      </trkpt>
      <trkpt lat="44.07177" lon="1.93402">
        <ele>158.3</ele>
        <time>2017-04-23T07:53:34Z</time>
      </trkpt>
      <trkpt lat="44.07182" lon="1.93386">
        <ele>158.1</ele>
        <time>2017-04-23T07:53:36Z</time>
      </trkpt>
      <trkpt lat="44.07188" lon="1.93371">
        <ele>158.4</ele>
        <time>2017-04-23T07:53:38Z</time>
      </trkpt>
      <trkpt lat="44.07194" lon="1.93357">
        <ele>158.6</ele>
        <time>2017-04-23T07:53:40Z</time>
      </trkpt>
      <trkpt lat="44.072" lon="1.93342">
        <ele>158.8</ele>
        <time>2017-04-23T07:53:42Z</time>
      </trkpt>
      <trkpt lat="44.07203" lon="1.93327">
        <ele>158.7</ele>
        <time>2017-04-23T07:53:44Z</time>
      </trkpt>
      <trkpt lat="44.07204" lon="1.9331">
        <ele>158.7</ele>
        <time>2017-04-23T07:53:46Z</time>
      </trkpt>
      <trkpt lat="44.07205" lon="1.93293">
        <ele>158.8</ele>
        <time>2017-04-23T07:53:48Z</time>
      </trkpt>
      <trkpt lat="44.07206" lon="1.93277">
        <ele>158.8</ele>
        <time>2017-04-23T07:53:50Z</time>
      </trkpt>
      <trkpt lat="44.07206" lon="1.9326">
        <ele>158.7</ele>
        <time>2017-04-23T07:53:52Z</time>
      </trkpt>
      <trkpt lat="44.07207" lon="1.93243">
        <ele>158.7</ele>
        <time>2017-04-23T07:53:54Z</time>
      </trkpt>
      <trkpt lat="44.07209" lon="1.93226">
        <ele>158.4</ele>
        <time>2017-04-23T07:53:56Z</time>
      </trkpt>
      <trkpt lat="44.0721" lon="1.93209">
        <ele>158.2</ele>
        <time>2017-04-23T07:53:58Z</time>
      </trkpt>
      <trkpt lat="44.07212" lon="1.93192">
        <ele>158</ele>
        <time>2017-04-23T07:54:00Z</time>
      </trkpt>
      <trkpt lat="44.07215" lon="1.93175">
        <ele>157.9</ele>
        <time>2017-04-23T07:54:02Z</time>
      </trkpt>
      <trkpt lat="44.07216" lon="1.93159">
        <ele>157.7</ele>
        <time>2017-04-23T07:54:04Z</time>
      </trkpt>
      <trkpt lat="44.07217" lon="1.93142">
        <ele>157.5</ele>
        <time>2017-04-23T07:54:06Z</time>
      </trkpt>
      <trkpt lat="44.07218" lon="1.93125">
        <ele>157.3</ele>
        <time>2017-04-23T07:54:08Z</time>
      </trkpt>
      <trkpt lat="44.07219" lon="1.93108">
        <ele>157.2</ele>
        <time>2017-04-23T07:54:10Z</time>
      </trkpt>
      <trkpt lat="44.07222" lon="1.93092">
        <ele>157.2</ele>
        <time>2017-04-23T07:54:12Z</time>
      </trkpt>
      <trkpt lat="44.07225" lon="1.93075">
        <ele>157.2</ele>
        <time>2017-04-23T07:54:14Z</time>
      </trkpt>
      <trkpt lat="44.07229" lon="1.9306">
        <ele>157.1</ele>
        <time>2017-04-23T07:54:16Z</time>
      </trkpt>
      <trkpt lat="44.07232" lon="1.93044">
        <ele>157.1</ele>
        <time>2017-04-23T07:54:18Z</time>
      </trkpt>
      <trkpt lat="44.07236" lon="1.93029">
        <ele>156.9</ele>
        <time>2017-04-23T07:54:20Z</time>
      </trkpt>
      <trkpt lat="44.07239" lon="1.93014">
        <ele>156.4</ele>
        <time>2017-04-23T07:54:22Z</time>
      </trkpt>
      <trkpt lat="44.07241" lon="1.92998">
        <ele>156.1</ele>
        <time>2017-04-23T07:54:24Z</time>
      </trkpt>
      <trkpt lat="44.07241" lon="1.9298">
        <ele>155.6</ele>
        <time>2017-04-23T07:54:26Z</time>
      </trkpt>
      <trkpt lat="44.07242" lon="1.92962">
        <ele>155.5</ele>
        <time>2017-04-23T07:54:28Z</time>
      </trkpt>
      <trkpt lat="44.07244" lon="1.92944">
        <ele>155.3</ele>
        <time>2017-04-23T07:54:30Z</time>
      </trkpt>
      <trkpt lat="44.07245" lon="1.92927">
        <ele>154.9</ele>
        <time>2017-04-23T07:54:32Z</time>
      </trkpt>
      <trkpt lat="44.07247" lon="1.9291">
        <ele>154.6</ele>
        <time>2017-04-23T07:54:34Z</time>
      </trkpt>
      <trkpt lat="44.07249" lon="1.92893">
        <ele>154.3</ele>
        <time>2017-04-23T07:54:36Z</time>
      </trkpt>
      <trkpt lat="44.07253" lon="1.92876">
        <ele>154.1</ele>
        <time>2017-04-23T07:54:38Z</time>
      </trkpt>
      <trkpt lat="44.07254" lon="1.92858">
        <ele>153.9</ele>
        <time>2017-04-23T07:54:40Z</time>
      </trkpt>
      <trkpt lat="44.07256" lon="1.92841">
        <ele>153.8</ele>
        <time>2017-04-23T07:54:42Z</time>
      </trkpt>
      <trkpt lat="44.07258" lon="1.92824">
        <ele>153.6</ele>
        <time>2017-04-23T07:54:44Z</time>
      </trkpt>
      <trkpt lat="44.0726" lon="1.92808">
        <ele>153.5</ele>
        <time>2017-04-23T07:54:46Z</time>
      </trkpt>
      <trkpt lat="44.07262" lon="1.9279">
        <ele>153.5</ele>
        <time>2017-04-23T07:54:48Z</time>
      </trkpt>
      <trkpt lat="44.07263" lon="1.92773">
        <ele>153.6</ele>
        <time>2017-04-23T07:54:50Z</time>
      </trkpt>
      <trkpt lat="44.07263" lon="1.92756">
        <ele>153.8</ele>
        <time>2017-04-23T07:54:52Z</time>
      </trkpt>
      <trkpt lat="44.07262" lon="1.92738">
        <ele>154.2</ele>
        <time>2017-04-23T07:54:54Z</time>
      </trkpt>
      <trkpt lat="44.07262" lon="1.92719">
        <ele>154.2</ele>
        <time>2017-04-23T07:54:56Z</time>
      </trkpt>
      <trkpt lat="44.07261" lon="1.92701">
        <ele>154.5</ele>
        <time>2017-04-23T07:54:58Z</time>
      </trkpt>
      <trkpt lat="44.07261" lon="1.92683">
        <ele>154.8</ele>
        <time>2017-04-23T07:55:00Z</time>
      </trkpt>
      <trkpt lat="44.07262" lon="1.92665">
        <ele>155.1</ele>
        <time>2017-04-23T07:55:02Z</time>
      </trkpt>
      <trkpt lat="44.07264" lon="1.92648">
        <ele>155.3</ele>
        <time>2017-04-23T07:55:04Z</time>
      </trkpt>
      <trkpt lat="44.07268" lon="1.9263">
        <ele>155.6</ele>
        <time>2017-04-23T07:55:06Z</time>
      </trkpt>
      <trkpt lat="44.07271" lon="1.92613">
        <ele>155.9</ele>
        <time>2017-04-23T07:55:08Z</time>
      </trkpt>
      <trkpt lat="44.07274" lon="1.92598">
        <ele>156</ele>
        <time>2017-04-23T07:55:10Z</time>
      </trkpt>
      <trkpt lat="44.07276" lon="1.92582">
        <ele>156.1</ele>
        <time>2017-04-23T07:55:12Z</time>
      </trkpt>
      <trkpt lat="44.07277" lon="1.92566">
        <ele>156.2</ele>
        <time>2017-04-23T07:55:14Z</time>
      </trkpt>
      <trkpt lat="44.07276" lon="1.92549">
        <ele>156.2</ele>
        <time>2017-04-23T07:55:16Z</time>
      </trkpt>
      <trkpt lat="44.07275" lon="1.92532">
        <ele>156.4</ele>
        <time>2017-04-23T07:55:18Z</time>
      </trkpt>
      <trkpt lat="44.07274" lon="1.92515">
        <ele>156.5</ele>
        <time>2017-04-23T07:55:20Z</time>
      </trkpt>
      <trkpt lat="44.07273" lon="1.92498">
        <ele>156.6</ele>
        <time>2017-04-23T07:55:22Z</time>
      </trkpt>
      <trkpt lat="44.07273" lon="1.92483">
        <ele>156.9</ele>
        <time>2017-04-23T07:55:24Z</time>
      </trkpt>
      <trkpt lat="44.07271" lon="1.92468">
        <ele>157</ele>
        <time>2017-04-23T07:55:26Z</time>
      </trkpt>
      <trkpt lat="44.07265" lon="1.92454">
        <ele>156.9</ele>
        <time>2017-04-23T07:55:28Z</time>
      </trkpt>
      <trkpt lat="44.07258" lon="1.92441">
        <ele>157</ele>
        <time>2017-04-23T07:55:30Z</time>
      </trkpt>
      <trkpt lat="44.07252" lon="1.92428">
        <ele>157.1</ele>
        <time>2017-04-23T07:55:32Z</time>
      </trkpt>
      <trkpt lat="44.07248" lon="1.92415">
        <ele>157.2</ele>
        <time>2017-04-23T07:55:34Z</time>
      </trkpt>
      <trkpt lat="44.07245" lon="1.92401">
        <ele>157.2</ele>
        <time>2017-04-23T07:55:36Z</time>
      </trkpt>
      <trkpt lat="44.0724" lon="1.92388">
        <ele>157.5</ele>
        <time>2017-04-23T07:55:38Z</time>
      </trkpt>
      <trkpt lat="44.07235" lon="1.92375">
        <ele>157.8</ele>
        <time>2017-04-23T07:55:40Z</time>
      </trkpt>
      <trkpt lat="44.07227" lon="1.92362">
        <ele>157.9</ele>
        <time>2017-04-23T07:55:42Z</time>
      </trkpt>
      <trkpt lat="44.07224" lon="1.92349">
        <ele>157.9</ele>
        <time>2017-04-23T07:55:44Z</time>
      </trkpt>
      <trkpt lat="44.07222" lon="1.92339">
        <ele>157.8</ele>
        <time>2017-04-23T07:55:46Z</time>
      </trkpt>
      <trkpt lat="44.07215" lon="1.92331">
        <ele>157.7</ele>
        <time>2017-04-23T07:55:52Z</time>
      </trkpt>
      <trkpt lat="44.07205" lon="1.92331">
        <ele>157.5</ele>
        <time>2017-04-23T07:55:55Z</time>
      </trkpt>
      <trkpt lat="44.07198" lon="1.92332">
        <ele>157.2</ele>
        <time>2017-04-23T07:55:57Z</time>
      </trkpt>
      <trkpt lat="44.07188" lon="1.92334">
        <ele>157.1</ele>
        <time>2017-04-23T07:56:01Z</time>
      </trkpt>
      <trkpt lat="44.07179" lon="1.92337">
        <ele>157.1</ele>
        <time>2017-04-23T07:56:03Z</time>
      </trkpt>
      <trkpt lat="44.07172" lon="1.92344">
        <ele>156.9</ele>
        <time>2017-04-23T07:56:05Z</time>
      </trkpt>
      <trkpt lat="44.07163" lon="1.92351">
        <ele>156.2</ele>
        <time>2017-04-23T07:56:08Z</time>
      </trkpt>
      <trkpt lat="44.07156" lon="1.92354">
        <ele>155.8</ele>
        <time>2017-04-23T07:56:10Z</time>
      </trkpt>
      <trkpt lat="44.07149" lon="1.92359">
        <ele>155.6</ele>
        <time>2017-04-23T07:56:12Z</time>
      </trkpt>
      <trkpt lat="44.07141" lon="1.92367">
        <ele>155.4</ele>
        <time>2017-04-23T07:56:14Z</time>
      </trkpt>
      <trkpt lat="44.07132" lon="1.92372">
        <ele>155.1</ele>
        <time>2017-04-23T07:56:16Z</time>
      </trkpt>
      <trkpt lat="44.07124" lon="1.92377">
        <ele>154.7</ele>
        <time>2017-04-23T07:56:18Z</time>
      </trkpt>
      <trkpt lat="44.07115" lon="1.9238">
        <ele>154.5</ele>
        <time>2017-04-23T07:56:20Z</time>
      </trkpt>
      <trkpt lat="44.07107" lon="1.92384">
        <ele>154.1</ele>
        <time>2017-04-23T07:56:22Z</time>
      </trkpt>
      <trkpt lat="44.071" lon="1.92382">
        <ele>153.8</ele>
        <time>2017-04-23T07:56:24Z</time>
      </trkpt>
      <trkpt lat="44.07093" lon="1.9237">
        <ele>154.2</ele>
        <time>2017-04-23T07:56:27Z</time>
      </trkpt>
      <trkpt lat="44.0709" lon="1.92359">
        <ele>154.3</ele>
        <time>2017-04-23T07:56:29Z</time>
      </trkpt>
      <trkpt lat="44.07087" lon="1.92349">
        <ele>154.4</ele>
        <time>2017-04-23T07:56:31Z</time>
      </trkpt>
      <trkpt lat="44.07083" lon="1.92338">
        <ele>154.5</ele>
        <time>2017-04-23T07:56:33Z</time>
      </trkpt>
      <trkpt lat="44.0708" lon="1.92326">
        <ele>154.6</ele>
        <time>2017-04-23T07:56:35Z</time>
      </trkpt>
      <trkpt lat="44.07077" lon="1.92316">
        <ele>154.6</ele>
        <time>2017-04-23T07:56:37Z</time>
      </trkpt>
      <trkpt lat="44.07073" lon="1.92305">
        <ele>154.6</ele>
        <time>2017-04-23T07:56:39Z</time>
      </trkpt>
      <trkpt lat="44.0707" lon="1.92293">
        <ele>154.6</ele>
        <time>2017-04-23T07:56:41Z</time>
      </trkpt>
      <trkpt lat="44.07066" lon="1.92283">
        <ele>154.6</ele>
        <time>2017-04-23T07:56:43Z</time>
      </trkpt>
      <trkpt lat="44.07063" lon="1.92272">
        <ele>154.7</ele>
        <time>2017-04-23T07:56:45Z</time>
      </trkpt>
      <trkpt lat="44.07059" lon="1.92259">
        <ele>154.5</ele>
        <time>2017-04-23T07:56:47Z</time>
      </trkpt>
      <trkpt lat="44.07057" lon="1.92248">
        <ele>154.6</ele>
        <time>2017-04-23T07:56:49Z</time>
      </trkpt>
      <trkpt lat="44.07053" lon="1.92236">
        <ele>154.3</ele>
        <time>2017-04-23T07:56:51Z</time>
      </trkpt>
      <trkpt lat="44.0705" lon="1.92224">
        <ele>154.2</ele>
        <time>2017-04-23T07:56:53Z</time>
      </trkpt>
      <trkpt lat="44.07047" lon="1.92212">
        <ele>154.2</ele>
        <time>2017-04-23T07:56:55Z</time>
      </trkpt>
      <trkpt lat="44.07043" lon="1.92201">
        <ele>154.1</ele>
        <time>2017-04-23T07:56:57Z</time>
      </trkpt>
      <trkpt lat="44.07038" lon="1.92188">
        <ele>154</ele>
        <time>2017-04-23T07:56:59Z</time>
      </trkpt>
      <trkpt lat="44.07034" lon="1.92176">
        <ele>153.9</ele>
        <time>2017-04-23T07:57:01Z</time>
      </trkpt>
      <trkpt lat="44.0703" lon="1.92164">
        <ele>153.9</ele>
        <time>2017-04-23T07:57:03Z</time>
      </trkpt>
      <trkpt lat="44.07025" lon="1.92152">
        <ele>154.1</ele>
        <time>2017-04-23T07:57:05Z</time>
      </trkpt>
      <trkpt lat="44.0702" lon="1.9214">
        <ele>154.2</ele>
        <time>2017-04-23T07:57:07Z</time>
      </trkpt>
      <trkpt lat="44.07016" lon="1.92128">
        <ele>154.2</ele>
        <time>2017-04-23T07:57:09Z</time>
      </trkpt>
      <trkpt lat="44.07012" lon="1.92116">
        <ele>154.1</ele>
        <time>2017-04-23T07:57:11Z</time>
      </trkpt>
      <trkpt lat="44.07008" lon="1.92103">
        <ele>154</ele>
        <time>2017-04-23T07:57:13Z</time>
      </trkpt>
      <trkpt lat="44.07003" lon="1.92092">
        <ele>153.8</ele>
        <time>2017-04-23T07:57:15Z</time>
      </trkpt>
      <trkpt lat="44.06998" lon="1.92079">
        <ele>153.5</ele>
        <time>2017-04-23T07:57:17Z</time>
      </trkpt>
      <trkpt lat="44.06994" lon="1.92067">
        <ele>153.3</ele>
        <time>2017-04-23T07:57:19Z</time>
      </trkpt>
      <trkpt lat="44.0699" lon="1.92055">
        <ele>153</ele>
        <time>2017-04-23T07:57:21Z</time>
      </trkpt>
      <trkpt lat="44.06986" lon="1.92043">
        <ele>152.8</ele>
        <time>2017-04-23T07:57:23Z</time>
      </trkpt>
      <trkpt lat="44.06982" lon="1.9203">
        <ele>152.8</ele>
        <time>2017-04-23T07:57:25Z</time>
      </trkpt>
      <trkpt lat="44.06979" lon="1.92018">
        <ele>152.8</ele>
        <time>2017-04-23T07:57:27Z</time>
      </trkpt>
      <trkpt lat="44.06976" lon="1.92004">
        <ele>152.9</ele>
        <time>2017-04-23T07:57:29Z</time>
      </trkpt>
      <trkpt lat="44.06973" lon="1.91991">
        <ele>152.8</ele>
        <time>2017-04-23T07:57:31Z</time>
      </trkpt>
      <trkpt lat="44.06969" lon="1.91977">
        <ele>152.7</ele>
        <time>2017-04-23T07:57:33Z</time>
      </trkpt>
      <trkpt lat="44.06967" lon="1.91964">
        <ele>152.8</ele>
        <time>2017-04-23T07:57:35Z</time>
      </trkpt>
      <trkpt lat="44.06964" lon="1.91951">
        <ele>152.7</ele>
        <time>2017-04-23T07:57:37Z</time>
      </trkpt>
      <trkpt lat="44.06961" lon="1.91939">
        <ele>152.7</ele>
        <time>2017-04-23T07:57:39Z</time>
      </trkpt>
      <trkpt lat="44.06956" lon="1.91928">
        <ele>152.4</ele>
        <time>2017-04-23T07:57:41Z</time>
      </trkpt>
      <trkpt lat="44.06949" lon="1.91917">
        <ele>152</ele>
        <time>2017-04-23T07:57:44Z</time>
      </trkpt>
      <trkpt lat="44.06942" lon="1.91906">
        <ele>151.7</ele>
        <time>2017-04-23T07:57:46Z</time>
      </trkpt>
      <trkpt lat="44.06937" lon="1.91895">
        <ele>151.5</ele>
        <time>2017-04-23T07:57:48Z</time>
      </trkpt>
      <trkpt lat="44.06932" lon="1.91885">
        <ele>151.3</ele>
        <time>2017-04-23T07:57:50Z</time>
      </trkpt>
      <trkpt lat="44.06929" lon="1.91873">
        <ele>150.9</ele>
        <time>2017-04-23T07:57:52Z</time>
      </trkpt>
      <trkpt lat="44.06927" lon="1.91862">
        <ele>150.5</ele>
        <time>2017-04-23T07:57:54Z</time>
      </trkpt>
      <trkpt lat="44.06926" lon="1.91851">
        <ele>150.1</ele>
        <time>2017-04-23T07:57:56Z</time>
      </trkpt>
      <trkpt lat="44.06925" lon="1.9184">
        <ele>149.7</ele>
        <time>2017-04-23T07:57:58Z</time>
      </trkpt>
      <trkpt lat="44.06922" lon="1.91828">
        <ele>149.3</ele>
        <time>2017-04-23T07:58:00Z</time>
      </trkpt>
      <trkpt lat="44.06919" lon="1.91813">
        <ele>149</ele>
        <time>2017-04-23T07:58:02Z</time>
      </trkpt>
      <trkpt lat="44.06917" lon="1.91801">
        <ele>148.8</ele>
        <time>2017-04-23T07:58:04Z</time>
      </trkpt>
      <trkpt lat="44.06914" lon="1.91787">
        <ele>148.1</ele>
        <time>2017-04-23T07:58:07Z</time>
      </trkpt>
      <trkpt lat="44.06914" lon="1.91777">
        <ele>147.8</ele>
        <time>2017-04-23T07:58:09Z</time>
      </trkpt>
      <trkpt lat="44.06914" lon="1.91762">
        <ele>147.2</ele>
        <time>2017-04-23T07:58:12Z</time>
      </trkpt>
      <trkpt lat="44.06915" lon="1.91747">
        <ele>146.9</ele>
        <time>2017-04-23T07:58:15Z</time>
      </trkpt>
      <trkpt lat="44.06915" lon="1.91737">
        <ele>146.6</ele>
        <time>2017-04-23T07:58:17Z</time>
      </trkpt>
      <trkpt lat="44.06915" lon="1.91723">
        <ele>146.6</ele>
        <time>2017-04-23T07:58:20Z</time>
      </trkpt>
      <trkpt lat="44.06914" lon="1.91713">
        <ele>146.5</ele>
        <time>2017-04-23T07:58:22Z</time>
      </trkpt>
      <trkpt lat="44.06908" lon="1.91698">
        <ele>146.6</ele>
        <time>2017-04-23T07:58:25Z</time>
      </trkpt>
      <trkpt lat="44.06901" lon="1.91689">
        <ele>146.5</ele>
        <time>2017-04-23T07:58:27Z</time>
      </trkpt>
      <trkpt lat="44.06893" lon="1.9168">
        <ele>146.4</ele>
        <time>2017-04-23T07:58:29Z</time>
      </trkpt>
      <trkpt lat="44.06883" lon="1.91671">
        <ele>146.4</ele>
        <time>2017-04-23T07:58:31Z</time>
      </trkpt>
      <trkpt lat="44.06873" lon="1.91664">
        <ele>146.7</ele>
        <time>2017-04-23T07:58:33Z</time>
      </trkpt>
      <trkpt lat="44.06865" lon="1.91656">
        <ele>147</ele>
        <time>2017-04-23T07:58:35Z</time>
      </trkpt>
      <trkpt lat="44.06856" lon="1.91649">
        <ele>147.2</ele>
        <time>2017-04-23T07:58:37Z</time>
      </trkpt>
      <trkpt lat="44.06848" lon="1.9164">
        <ele>147.3</ele>
        <time>2017-04-23T07:58:39Z</time>
      </trkpt>
      <trkpt lat="44.06841" lon="1.91631">
        <ele>147.5</ele>
        <time>2017-04-23T07:58:41Z</time>
      </trkpt>
      <trkpt lat="44.06835" lon="1.91621">
        <ele>147.7</ele>
        <time>2017-04-23T07:58:43Z</time>
      </trkpt>
      <trkpt lat="44.06827" lon="1.91612">
        <ele>147.6</ele>
        <time>2017-04-23T07:58:45Z</time>
      </trkpt>
      <trkpt lat="44.06821" lon="1.91602">
        <ele>147.5</ele>
        <time>2017-04-23T07:58:47Z</time>
      </trkpt>
      <trkpt lat="44.06814" lon="1.91594">
        <ele>147.4</ele>
        <time>2017-04-23T07:58:49Z</time>
      </trkpt>
      <trkpt lat="44.06807" lon="1.91585">
        <ele>147.6</ele>
        <time>2017-04-23T07:58:51Z</time>
      </trkpt>
      <trkpt lat="44.06799" lon="1.91575">
        <ele>147.6</ele>
        <time>2017-04-23T07:58:53Z</time>
      </trkpt>
      <trkpt lat="44.06791" lon="1.91567">
        <ele>147.3</ele>
        <time>2017-04-23T07:58:55Z</time>
      </trkpt>
      <trkpt lat="44.06783" lon="1.91559">
        <ele>147.4</ele>
        <time>2017-04-23T07:58:57Z</time>
      </trkpt>
      <trkpt lat="44.06775" lon="1.9155">
        <ele>147.2</ele>
        <time>2017-04-23T07:58:59Z</time>
      </trkpt>
      <trkpt lat="44.06768" lon="1.9154">
        <ele>147.4</ele>
        <time>2017-04-23T07:59:01Z</time>
      </trkpt>
      <trkpt lat="44.06763" lon="1.91527">
        <ele>147.6</ele>
        <time>2017-04-23T07:59:03Z</time>
      </trkpt>
      <trkpt lat="44.06758" lon="1.91515">
        <ele>147.9</ele>
        <time>2017-04-23T07:59:05Z</time>
      </trkpt>
      <trkpt lat="44.06754" lon="1.91502">
        <ele>148.3</ele>
        <time>2017-04-23T07:59:07Z</time>
      </trkpt>
      <trkpt lat="44.06751" lon="1.91491">
        <ele>148.4</ele>
        <time>2017-04-23T07:59:09Z</time>
      </trkpt>
      <trkpt lat="44.06748" lon="1.91481">
        <ele>148.3</ele>
        <time>2017-04-23T07:59:11Z</time>
      </trkpt>
      <trkpt lat="44.06746" lon="1.9147">
        <ele>148.1</ele>
        <time>2017-04-23T07:59:13Z</time>
      </trkpt>
      <trkpt lat="44.06743" lon="1.91457">
        <ele>147.9</ele>
        <time>2017-04-23T07:59:15Z</time>
      </trkpt>
      <trkpt lat="44.06739" lon="1.91446">
        <ele>147.9</ele>
        <time>2017-04-23T07:59:17Z</time>
      </trkpt>
      <trkpt lat="44.06733" lon="1.91432">
        <ele>148.1</ele>
        <time>2017-04-23T07:59:19Z</time>
      </trkpt>
      <trkpt lat="44.06726" lon="1.91417">
        <ele>148.5</ele>
        <time>2017-04-23T07:59:21Z</time>
      </trkpt>
      <trkpt lat="44.0672" lon="1.91402">
        <ele>148.7</ele>
        <time>2017-04-23T07:59:23Z</time>
      </trkpt>
      <trkpt lat="44.06716" lon="1.91388">
        <ele>148.8</ele>
        <time>2017-04-23T07:59:25Z</time>
      </trkpt>
      <trkpt lat="44.0671" lon="1.91373">
        <ele>149.4</ele>
        <time>2017-04-23T07:59:27Z</time>
      </trkpt>
      <trkpt lat="44.06705" lon="1.91358">
        <ele>150</ele>
        <time>2017-04-23T07:59:29Z</time>
      </trkpt>
      <trkpt lat="44.067" lon="1.91344">
        <ele>150.1</ele>
        <time>2017-04-23T07:59:31Z</time>
      </trkpt>
      <trkpt lat="44.06692" lon="1.91332">
        <ele>150.5</ele>
        <time>2017-04-23T07:59:33Z</time>
      </trkpt>
      <trkpt lat="44.06686" lon="1.91319">
        <ele>150.7</ele>
        <time>2017-04-23T07:59:35Z</time>
      </trkpt>
      <trkpt lat="44.06679" lon="1.91306">
        <ele>150.8</ele>
        <time>2017-04-23T07:59:37Z</time>
      </trkpt>
      <trkpt lat="44.06671" lon="1.91295">
        <ele>150.9</ele>
        <time>2017-04-23T07:59:39Z</time>
      </trkpt>
      <trkpt lat="44.06663" lon="1.91286">
        <ele>151.1</ele>
        <time>2017-04-23T07:59:41Z</time>
      </trkpt>
      <trkpt lat="44.06656" lon="1.91277">
        <ele>151.1</ele>
        <time>2017-04-23T07:59:43Z</time>
      </trkpt>
      <trkpt lat="44.06648" lon="1.91267">
        <ele>151.1</ele>
        <time>2017-04-23T07:59:45Z</time>
      </trkpt>
      <trkpt lat="44.06641" lon="1.91259">
        <ele>151.7</ele>
        <time>2017-04-23T07:59:47Z</time>
      </trkpt>
      <trkpt lat="44.06632" lon="1.9125">
        <ele>151.7</ele>
        <time>2017-04-23T07:59:49Z</time>
      </trkpt>
      <trkpt lat="44.06624" lon="1.91246">
        <ele>151.7</ele>
        <time>2017-04-23T07:59:51Z</time>
      </trkpt>
      <trkpt lat="44.06616" lon="1.9125">
        <ele>151.3</ele>
        <time>2017-04-23T07:59:53Z</time>
      </trkpt>
      <trkpt lat="44.06608" lon="1.91255">
        <ele>150.9</ele>
        <time>2017-04-23T07:59:55Z</time>
      </trkpt>
      <trkpt lat="44.06601" lon="1.91259">
        <ele>150.7</ele>
        <time>2017-04-23T07:59:57Z</time>
      </trkpt>
      <trkpt lat="44.06593" lon="1.9126">
        <ele>150.8</ele>
        <time>2017-04-23T07:59:59Z</time>
      </trkpt>
      <trkpt lat="44.06587" lon="1.91254">
        <ele>150.9</ele>
        <time>2017-04-23T08:00:01Z</time>
      </trkpt>
      <trkpt lat="44.06582" lon="1.91245">
        <ele>151.1</ele>
        <time>2017-04-23T08:00:03Z</time>
      </trkpt>
      <trkpt lat="44.06578" lon="1.91235">
        <ele>151.3</ele>
        <time>2017-04-23T08:00:05Z</time>
      </trkpt>
      <trkpt lat="44.06575" lon="1.91226">
        <ele>151.3</ele>
        <time>2017-04-23T08:00:07Z</time>
      </trkpt>
      <trkpt lat="44.06566" lon="1.91218">
        <ele>151.3</ele>
        <time>2017-04-23T08:00:10Z</time>
      </trkpt>
      <trkpt lat="44.06558" lon="1.91219">
        <ele>151</ele>
        <time>2017-04-23T08:00:12Z</time>
      </trkpt>
      <trkpt lat="44.06551" lon="1.91223">
        <ele>151</ele>
        <time>2017-04-23T08:00:14Z</time>
      </trkpt>
      <trkpt lat="44.06544" lon="1.91232">
        <ele>151.4</ele>
        <time>2017-04-23T08:00:16Z</time>
      </trkpt>
      <trkpt lat="44.06537" lon="1.9124">
        <ele>151.6</ele>
        <time>2017-04-23T08:00:18Z</time>
      </trkpt>
      <trkpt lat="44.06531" lon="1.91248">
        <ele>151.6</ele>
        <time>2017-04-23T08:00:20Z</time>
      </trkpt>
      <trkpt lat="44.06525" lon="1.91256">
        <ele>151.5</ele>
        <time>2017-04-23T08:00:22Z</time>
      </trkpt>
      <trkpt lat="44.06519" lon="1.91263">
        <ele>151.5</ele>
        <time>2017-04-23T08:00:24Z</time>
      </trkpt>
      <trkpt lat="44.06512" lon="1.91273">
        <ele>151.9</ele>
        <time>2017-04-23T08:00:26Z</time>
      </trkpt>
      <trkpt lat="44.06506" lon="1.91282">
        <ele>152.2</ele>
        <time>2017-04-23T08:00:28Z</time>
      </trkpt>
      <trkpt lat="44.06499" lon="1.91287">
        <ele>152.3</ele>
        <time>2017-04-23T08:00:30Z</time>
      </trkpt>
      <trkpt lat="44.06491" lon="1.91289">
        <ele>152.4</ele>
        <time>2017-04-23T08:00:32Z</time>
      </trkpt>
      <trkpt lat="44.06481" lon="1.91287">
        <ele>152.4</ele>
        <time>2017-04-23T08:00:34Z</time>
      </trkpt>
      <trkpt lat="44.06473" lon="1.91283">
        <ele>152.4</ele>
        <time>2017-04-23T08:00:36Z</time>
      </trkpt>
      <trkpt lat="44.06465" lon="1.91278">
        <ele>152.6</ele>
        <time>2017-04-23T08:00:38Z</time>
      </trkpt>
      <trkpt lat="44.06457" lon="1.91274">
        <ele>152.6</ele>
        <time>2017-04-23T08:00:40Z</time>
      </trkpt>
      <trkpt lat="44.06449" lon="1.91269">
        <ele>153.1</ele>
        <time>2017-04-23T08:00:43Z</time>
      </trkpt>
      <trkpt lat="44.06439" lon="1.91262">
        <ele>153.4</ele>
        <time>2017-04-23T08:00:47Z</time>
      </trkpt>
      <trkpt lat="44.0643" lon="1.91257">
        <ele>153.5</ele>
        <time>2017-04-23T08:00:49Z</time>
      </trkpt>
      <trkpt lat="44.0642" lon="1.91255">
        <ele>153.5</ele>
        <time>2017-04-23T08:00:51Z</time>
      </trkpt>
      <trkpt lat="44.0641" lon="1.91255">
        <ele>153.6</ele>
        <time>2017-04-23T08:00:53Z</time>
      </trkpt>
      <trkpt lat="44.06399" lon="1.91255">
        <ele>153.7</ele>
        <time>2017-04-23T08:00:55Z</time>
      </trkpt>
      <trkpt lat="44.06387" lon="1.91255">
        <ele>153.9</ele>
        <time>2017-04-23T08:00:57Z</time>
      </trkpt>
      <trkpt lat="44.06376" lon="1.91255">
        <ele>154.1</ele>
        <time>2017-04-23T08:00:59Z</time>
      </trkpt>
      <trkpt lat="44.06364" lon="1.91254">
        <ele>154.2</ele>
        <time>2017-04-23T08:01:01Z</time>
      </trkpt>
      <trkpt lat="44.06353" lon="1.91251">
        <ele>154</ele>
        <time>2017-04-23T08:01:03Z</time>
      </trkpt>
      <trkpt lat="44.06342" lon="1.91245">
        <ele>153.7</ele>
        <time>2017-04-23T08:01:05Z</time>
      </trkpt>
      <trkpt lat="44.0633" lon="1.9124">
        <ele>153.5</ele>
        <time>2017-04-23T08:01:07Z</time>
      </trkpt>
      <trkpt lat="44.06319" lon="1.91233">
        <ele>153.5</ele>
        <time>2017-04-23T08:01:09Z</time>
      </trkpt>
      <trkpt lat="44.06307" lon="1.91228">
        <ele>153.1</ele>
        <time>2017-04-23T08:01:11Z</time>
      </trkpt>
      <trkpt lat="44.06298" lon="1.91226">
        <ele>153.1</ele>
        <time>2017-04-23T08:01:13Z</time>
      </trkpt>
      <trkpt lat="44.06291" lon="1.91219">
        <ele>153.3</ele>
        <time>2017-04-23T08:01:16Z</time>
      </trkpt>
      <trkpt lat="44.06288" lon="1.91209">
        <ele>153.4</ele>
        <time>2017-04-23T08:01:18Z</time>
      </trkpt>
      <trkpt lat="44.06286" lon="1.91198">
        <ele>153.8</ele>
        <time>2017-04-23T08:01:20Z</time>
      </trkpt>
      <trkpt lat="44.06288" lon="1.91185">
        <ele>154</ele>
        <time>2017-04-23T08:01:22Z</time>
      </trkpt>
      <trkpt lat="44.0629" lon="1.91174">
        <ele>154</ele>
        <time>2017-04-23T08:01:24Z</time>
      </trkpt>
      <trkpt lat="44.06293" lon="1.91164">
        <ele>153.9</ele>
        <time>2017-04-23T08:01:27Z</time>
      </trkpt>
      <trkpt lat="44.06291" lon="1.91151">
        <ele>153.6</ele>
        <time>2017-04-23T08:01:30Z</time>
      </trkpt>
      <trkpt lat="44.06288" lon="1.91139">
        <ele>153.3</ele>
        <time>2017-04-23T08:01:32Z</time>
      </trkpt>
      <trkpt lat="44.06282" lon="1.91127">
        <ele>153.2</ele>
        <time>2017-04-23T08:01:34Z</time>
      </trkpt>
      <trkpt lat="44.06275" lon="1.91116">
        <ele>153.1</ele>
        <time>2017-04-23T08:01:36Z</time>
      </trkpt>
      <trkpt lat="44.0627" lon="1.91105">
        <ele>153.1</ele>
        <time>2017-04-23T08:01:38Z</time>
      </trkpt>
      <trkpt lat="44.06262" lon="1.91092">
        <ele>153</ele>
        <time>2017-04-23T08:01:40Z</time>
      </trkpt>
      <trkpt lat="44.06257" lon="1.91084">
        <ele>152.9</ele>
        <time>2017-04-23T08:01:42Z</time>
      </trkpt>
      <trkpt lat="44.06252" lon="1.91076">
        <ele>152.6</ele>
        <time>2017-04-23T08:01:45Z</time>
      </trkpt>
      <trkpt lat="44.06243" lon="1.91074">
        <ele>152</ele>
        <time>2017-04-23T08:01:48Z</time>
      </trkpt>
      <trkpt lat="44.06234" lon="1.91073">
        <ele>151.7</ele>
        <time>2017-04-23T08:01:52Z</time>
      </trkpt>
      <trkpt lat="44.06225" lon="1.91079">
        <ele>151.4</ele>
        <time>2017-04-23T08:01:56Z</time>
      </trkpt>
      <trkpt lat="44.06215" lon="1.91085">
        <ele>151.1</ele>
        <time>2017-04-23T08:01:59Z</time>
      </trkpt>
      <trkpt lat="44.06206" lon="1.91089">
        <ele>152.1</ele>
        <time>2017-04-23T08:02:01Z</time>
      </trkpt>
      <trkpt lat="44.06198" lon="1.91086">
        <ele>153</ele>
        <time>2017-04-23T08:02:04Z</time>
      </trkpt>
      <trkpt lat="44.06193" lon="1.91075">
        <ele>153.1</ele>
        <time>2017-04-23T08:02:07Z</time>
      </trkpt>
      <trkpt lat="44.06191" lon="1.91062">
        <ele>152.9</ele>
        <time>2017-04-23T08:02:10Z</time>
      </trkpt>
      <trkpt lat="44.06188" lon="1.9105">
        <ele>153</ele>
        <time>2017-04-23T08:02:13Z</time>
      </trkpt>
      <trkpt lat="44.06187" lon="1.91039">
        <ele>153.1</ele>
        <time>2017-04-23T08:02:15Z</time>
      </trkpt>
      <trkpt lat="44.06183" lon="1.91031">
        <ele>152.8</ele>
        <time>2017-04-23T08:02:17Z</time>
      </trkpt>
      <trkpt lat="44.06175" lon="1.91033">
        <ele>152.5</ele>
        <time>2017-04-23T08:02:19Z</time>
      </trkpt>
      <trkpt lat="44.06169" lon="1.91038">
        <ele>152.3</ele>
        <time>2017-04-23T08:02:21Z</time>
      </trkpt>
      <trkpt lat="44.0616" lon="1.91038">
        <ele>151.7</ele>
        <time>2017-04-23T08:02:24Z</time>
      </trkpt>
      <trkpt lat="44.06153" lon="1.9103">
        <ele>151.8</ele>
        <time>2017-04-23T08:02:27Z</time>
      </trkpt>
      <trkpt lat="44.06146" lon="1.91036">
        <ele>151.8</ele>
        <time>2017-04-23T08:02:30Z</time>
      </trkpt>
      <trkpt lat="44.06139" lon="1.91046">
        <ele>151.8</ele>
        <time>2017-04-23T08:02:33Z</time>
      </trkpt>
      <trkpt lat="44.06133" lon="1.91057">
        <ele>151.8</ele>
        <time>2017-04-23T08:02:36Z</time>
      </trkpt>
      <trkpt lat="44.06125" lon="1.91067">
        <ele>151.6</ele>
        <time>2017-04-23T08:02:39Z</time>
      </trkpt>
      <trkpt lat="44.06118" lon="1.91078">
        <ele>151.7</ele>
        <time>2017-04-23T08:02:42Z</time>
      </trkpt>
      <trkpt lat="44.06112" lon="1.91086">
        <ele>151.7</ele>
        <time>2017-04-23T08:02:44Z</time>
      </trkpt>
      <trkpt lat="44.06107" lon="1.91093">
        <ele>151.5</ele>
        <time>2017-04-23T08:02:46Z</time>
      </trkpt>
      <trkpt lat="44.06101" lon="1.91099">
        <ele>151.7</ele>
        <time>2017-04-23T08:02:48Z</time>
      </trkpt>
      <trkpt lat="44.06093" lon="1.91105">
        <ele>151.6</ele>
        <time>2017-04-23T08:02:51Z</time>
      </trkpt>
      <trkpt lat="44.06084" lon="1.91106">
        <ele>152.2</ele>
        <time>2017-04-23T08:02:54Z</time>
      </trkpt>
      <trkpt lat="44.06074" lon="1.91105">
        <ele>153</ele>
        <time>2017-04-23T08:02:57Z</time>
      </trkpt>
      <trkpt lat="44.06066" lon="1.91102">
        <ele>153.2</ele>
        <time>2017-04-23T08:02:59Z</time>
      </trkpt>
      <trkpt lat="44.06058" lon="1.91099">
        <ele>153.4</ele>
        <time>2017-04-23T08:03:01Z</time>
      </trkpt>
      <trkpt lat="44.06051" lon="1.91096">
        <ele>153.3</ele>
        <time>2017-04-23T08:03:03Z</time>
      </trkpt>
      <trkpt lat="44.06042" lon="1.91093">
        <ele>153.3</ele>
        <time>2017-04-23T08:03:05Z</time>
      </trkpt>
      <trkpt lat="44.06033" lon="1.91088">
        <ele>153.3</ele>
        <time>2017-04-23T08:03:07Z</time>
      </trkpt>
      <trkpt lat="44.06026" lon="1.91084">
        <ele>153.5</ele>
        <time>2017-04-23T08:03:09Z</time>
      </trkpt>
      <trkpt lat="44.06018" lon="1.91079">
        <ele>153.4</ele>
        <time>2017-04-23T08:03:11Z</time>
      </trkpt>
      <trkpt lat="44.0601" lon="1.91076">
        <ele>153.4</ele>
        <time>2017-04-23T08:03:13Z</time>
      </trkpt>
      <trkpt lat="44.06002" lon="1.91071">
        <ele>153.5</ele>
        <time>2017-04-23T08:03:15Z</time>
      </trkpt>
      <trkpt lat="44.05995" lon="1.91068">
        <ele>153.5</ele>
        <time>2017-04-23T08:03:17Z</time>
      </trkpt>
      <trkpt lat="44.05988" lon="1.91065">
        <ele>153.5</ele>
        <time>2017-04-23T08:03:19Z</time>
      </trkpt>
      <trkpt lat="44.05979" lon="1.91062">
        <ele>153.4</ele>
        <time>2017-04-23T08:03:21Z</time>
      </trkpt>
      <trkpt lat="44.05971" lon="1.91058">
        <ele>153.2</ele>
        <time>2017-04-23T08:03:23Z</time>
      </trkpt>
      <trkpt lat="44.05963" lon="1.91047">
        <ele>153</ele>
        <time>2017-04-23T08:03:26Z</time>
      </trkpt>
      <trkpt lat="44.05957" lon="1.91041">
        <ele>152.9</ele>
        <time>2017-04-23T08:03:28Z</time>
      </trkpt>
      <trkpt lat="44.05949" lon="1.91034">
        <ele>152.7</ele>
        <time>2017-04-23T08:03:30Z</time>
      </trkpt>
      <trkpt lat="44.05939" lon="1.91029">
        <ele>152.3</ele>
        <time>2017-04-23T08:03:32Z</time>
      </trkpt>
      <trkpt lat="44.05931" lon="1.91025">
        <ele>152.1</ele>
        <time>2017-04-23T08:03:34Z</time>
      </trkpt>
      <trkpt lat="44.05921" lon="1.91022">
        <ele>151.5</ele>
        <time>2017-04-23T08:03:37Z</time>
      </trkpt>
      <trkpt lat="44.05914" lon="1.91017">
        <ele>151</ele>
        <time>2017-04-23T08:03:39Z</time>
      </trkpt>
      <trkpt lat="44.05907" lon="1.91012">
        <ele>150.7</ele>
        <time>2017-04-23T08:03:41Z</time>
      </trkpt>
      <trkpt lat="44.059" lon="1.91011">
        <ele>150.3</ele>
        <time>2017-04-23T08:03:43Z</time>
      </trkpt>
      <trkpt lat="44.05891" lon="1.91008">
        <ele>150</ele>
        <time>2017-04-23T08:03:45Z</time>
      </trkpt>
      <trkpt lat="44.05884" lon="1.91003">
        <ele>150.1</ele>
        <time>2017-04-23T08:03:47Z</time>
      </trkpt>
      <trkpt lat="44.05875" lon="1.90998">
        <ele>150</ele>
        <time>2017-04-23T08:03:49Z</time>
      </trkpt>
      <trkpt lat="44.05867" lon="1.90994">
        <ele>149.8</ele>
        <time>2017-04-23T08:03:51Z</time>
      </trkpt>
      <trkpt lat="44.0586" lon="1.9099">
        <ele>149.7</ele>
        <time>2017-04-23T08:03:54Z</time>
      </trkpt>
      <trkpt lat="44.05852" lon="1.90995">
        <ele>150.1</ele>
        <time>2017-04-23T08:03:58Z</time>
      </trkpt>
      <trkpt lat="44.05842" lon="1.91003">
        <ele>150.8</ele>
        <time>2017-04-23T08:04:01Z</time>
      </trkpt>
      <trkpt lat="44.05835" lon="1.91009">
        <ele>151.3</ele>
        <time>2017-04-23T08:04:03Z</time>
      </trkpt>
      <trkpt lat="44.05828" lon="1.91019">
        <ele>152</ele>
        <time>2017-04-23T08:04:06Z</time>
      </trkpt>
      <trkpt lat="44.05822" lon="1.91029">
        <ele>152.1</ele>
        <time>2017-04-23T08:04:09Z</time>
      </trkpt>
      <trkpt lat="44.05815" lon="1.91039">
        <ele>152.3</ele>
        <time>2017-04-23T08:04:12Z</time>
      </trkpt>
      <trkpt lat="44.05808" lon="1.91049">
        <ele>152.8</ele>
        <time>2017-04-23T08:04:15Z</time>
      </trkpt>
      <trkpt lat="44.05801" lon="1.91052">
        <ele>153.8</ele>
        <time>2017-04-23T08:04:19Z</time>
      </trkpt>
      <trkpt lat="44.05796" lon="1.91058">
        <ele>154.6</ele>
        <time>2017-04-23T08:04:23Z</time>
      </trkpt>
      <trkpt lat="44.05789" lon="1.91056">
        <ele>155.3</ele>
        <time>2017-04-23T08:04:26Z</time>
      </trkpt>
      <trkpt lat="44.05778" lon="1.91052">
        <ele>155.8</ele>
        <time>2017-04-23T08:04:29Z</time>
      </trkpt>
      <trkpt lat="44.05771" lon="1.91049">
        <ele>156</ele>
        <time>2017-04-23T08:04:31Z</time>
      </trkpt>
      <trkpt lat="44.05763" lon="1.91047">
        <ele>156.2</ele>
        <time>2017-04-23T08:04:33Z</time>
      </trkpt>
      <trkpt lat="44.05754" lon="1.91047">
        <ele>156.4</ele>
        <time>2017-04-23T08:04:35Z</time>
      </trkpt>
      <trkpt lat="44.05746" lon="1.91047">
        <ele>156.4</ele>
        <time>2017-04-23T08:04:37Z</time>
      </trkpt>
      <trkpt lat="44.05738" lon="1.91046">
        <ele>156.6</ele>
        <time>2017-04-23T08:04:39Z</time>
      </trkpt>
      <trkpt lat="44.05727" lon="1.91045">
        <ele>156.8</ele>
        <time>2017-04-23T08:04:42Z</time>
      </trkpt>
      <trkpt lat="44.05718" lon="1.91045">
        <ele>156.9</ele>
        <time>2017-04-23T08:04:44Z</time>
      </trkpt>
      <trkpt lat="44.0571" lon="1.91046">
        <ele>156.9</ele>
        <time>2017-04-23T08:04:46Z</time>
      </trkpt>
      <trkpt lat="44.05702" lon="1.91046">
        <ele>157</ele>
        <time>2017-04-23T08:04:48Z</time>
      </trkpt>
      <trkpt lat="44.05692" lon="1.91046">
        <ele>157</ele>
        <time>2017-04-23T08:04:50Z</time>
      </trkpt>
      <trkpt lat="44.05682" lon="1.91045">
        <ele>157.1</ele>
        <time>2017-04-23T08:04:52Z</time>
      </trkpt>
      <trkpt lat="44.05673" lon="1.91041">
        <ele>157.3</ele>
        <time>2017-04-23T08:04:54Z</time>
      </trkpt>
      <trkpt lat="44.05665" lon="1.91035">
        <ele>157.4</ele>
        <time>2017-04-23T08:04:56Z</time>
      </trkpt>
      <trkpt lat="44.05657" lon="1.91029">
        <ele>157.6</ele>
        <time>2017-04-23T08:04:58Z</time>
      </trkpt>
      <trkpt lat="44.05649" lon="1.91023">
        <ele>157.7</ele>
        <time>2017-04-23T08:05:00Z</time>
      </trkpt>
      <trkpt lat="44.05641" lon="1.91017">
        <ele>157.9</ele>
        <time>2017-04-23T08:05:02Z</time>
      </trkpt>
      <trkpt lat="44.05633" lon="1.91009">
        <ele>158.1</ele>
        <time>2017-04-23T08:05:04Z</time>
      </trkpt>
      <trkpt lat="44.05625" lon="1.91002">
        <ele>158.5</ele>
        <time>2017-04-23T08:05:06Z</time>
      </trkpt>
      <trkpt lat="44.05619" lon="1.90993">
        <ele>159.1</ele>
        <time>2017-04-23T08:05:08Z</time>
      </trkpt>
      <trkpt lat="44.05613" lon="1.90985">
        <ele>159.5</ele>
        <time>2017-04-23T08:05:10Z</time>
      </trkpt>
      <trkpt lat="44.05608" lon="1.90977">
        <ele>160</ele>
        <time>2017-04-23T08:05:12Z</time>
      </trkpt>
      <trkpt lat="44.05604" lon="1.90968">
        <ele>160.5</ele>
        <time>2017-04-23T08:05:14Z</time>
      </trkpt>
      <trkpt lat="44.05598" lon="1.9096">
        <ele>161.3</ele>
        <time>2017-04-23T08:05:16Z</time>
      </trkpt>
      <trkpt lat="44.05593" lon="1.9095">
        <ele>161.9</ele>
        <time>2017-04-23T08:05:19Z</time>
      </trkpt>
      <trkpt lat="44.05588" lon="1.9094">
        <ele>162.3</ele>
        <time>2017-04-23T08:05:22Z</time>
      </trkpt>
      <trkpt lat="44.05581" lon="1.9093">
        <ele>163.2</ele>
        <time>2017-04-23T08:05:25Z</time>
      </trkpt>
      <trkpt lat="44.05577" lon="1.90921">
        <ele>164.2</ele>
        <time>2017-04-23T08:05:28Z</time>
      </trkpt>
      <trkpt lat="44.05572" lon="1.90913">
        <ele>164.6</ele>
        <time>2017-04-23T08:05:31Z</time>
      </trkpt>
      <trkpt lat="44.05566" lon="1.90902">
        <ele>166.1</ele>
        <time>2017-04-23T08:05:35Z</time>
      </trkpt>
      <trkpt lat="44.05559" lon="1.90893">
        <ele>167.8</ele>
        <time>2017-04-23T08:05:39Z</time>
      </trkpt>
      <trkpt lat="44.05551" lon="1.90886">
        <ele>168.4</ele>
        <time>2017-04-23T08:05:43Z</time>
      </trkpt>
      <trkpt lat="44.05544" lon="1.90882">
        <ele>169.1</ele>
        <time>2017-04-23T08:05:46Z</time>
      </trkpt>
      <trkpt lat="44.05536" lon="1.9088">
        <ele>169.9</ele>
        <time>2017-04-23T08:05:49Z</time>
      </trkpt>
      <trkpt lat="44.05528" lon="1.90879">
        <ele>170.8</ele>
        <time>2017-04-23T08:05:52Z</time>
      </trkpt>
      <trkpt lat="44.0552" lon="1.90879">
        <ele>171.6</ele>
        <time>2017-04-23T08:05:55Z</time>
      </trkpt>
      <trkpt lat="44.05511" lon="1.90876">
        <ele>172</ele>
        <time>2017-04-23T08:05:58Z</time>
      </trkpt>
      <trkpt lat="44.05502" lon="1.90873">
        <ele>172.1</ele>
        <time>2017-04-23T08:06:01Z</time>
      </trkpt>
      <trkpt lat="44.05495" lon="1.90865">
        <ele>172.1</ele>
        <time>2017-04-23T08:06:04Z</time>
      </trkpt>
      <trkpt lat="44.05488" lon="1.90856">
        <ele>172.4</ele>
        <time>2017-04-23T08:06:07Z</time>
      </trkpt>
      <trkpt lat="44.05482" lon="1.90847">
        <ele>173.1</ele>
        <time>2017-04-23T08:06:10Z</time>
      </trkpt>
      <trkpt lat="44.05478" lon="1.90838">
        <ele>173.2</ele>
        <time>2017-04-23T08:06:13Z</time>
      </trkpt>
      <trkpt lat="44.05471" lon="1.90829">
        <ele>173.8</ele>
        <time>2017-04-23T08:06:16Z</time>
      </trkpt>
      <trkpt lat="44.05467" lon="1.90818">
        <ele>174.3</ele>
        <time>2017-04-23T08:06:19Z</time>
      </trkpt>
      <trkpt lat="44.05463" lon="1.90807">
        <ele>174.6</ele>
        <time>2017-04-23T08:06:22Z</time>
      </trkpt>
      <trkpt lat="44.05459" lon="1.90793">
        <ele>174.9</ele>
        <time>2017-04-23T08:06:25Z</time>
      </trkpt>
      <trkpt lat="44.05454" lon="1.9078">
        <ele>175.2</ele>
        <time>2017-04-23T08:06:28Z</time>
      </trkpt>
      <trkpt lat="44.0545" lon="1.90767">
        <ele>175.4</ele>
        <time>2017-04-23T08:06:32Z</time>
      </trkpt>
      <trkpt lat="44.05447" lon="1.90755">
        <ele>175.7</ele>
        <time>2017-04-23T08:06:35Z</time>
      </trkpt>
      <trkpt lat="44.05443" lon="1.90742">
        <ele>176.1</ele>
        <time>2017-04-23T08:06:38Z</time>
      </trkpt>
      <trkpt lat="44.05437" lon="1.9073">
        <ele>176.5</ele>
        <time>2017-04-23T08:06:41Z</time>
      </trkpt>
      <trkpt lat="44.05431" lon="1.90718">
        <ele>176.5</ele>
        <time>2017-04-23T08:06:44Z</time>
      </trkpt>
      <trkpt lat="44.05424" lon="1.9071">
        <ele>176.8</ele>
        <time>2017-04-23T08:06:47Z</time>
      </trkpt>
      <trkpt lat="44.05418" lon="1.90703">
        <ele>177.3</ele>
        <time>2017-04-23T08:06:49Z</time>
      </trkpt>
      <trkpt lat="44.05412" lon="1.90696">
        <ele>177.9</ele>
        <time>2017-04-23T08:06:51Z</time>
      </trkpt>
      <trkpt lat="44.05406" lon="1.90689">
        <ele>178.3</ele>
        <time>2017-04-23T08:06:53Z</time>
      </trkpt>
      <trkpt lat="44.054" lon="1.90682">
        <ele>178.7</ele>
        <time>2017-04-23T08:06:55Z</time>
      </trkpt>
      <trkpt lat="44.05395" lon="1.90674">
        <ele>179</ele>
        <time>2017-04-23T08:06:57Z</time>
      </trkpt>
      <trkpt lat="44.05391" lon="1.90666">
        <ele>179.1</ele>
        <time>2017-04-23T08:06:59Z</time>
      </trkpt>
      <trkpt lat="44.05387" lon="1.90657">
        <ele>179.4</ele>
        <time>2017-04-23T08:07:01Z</time>
      </trkpt>
      <trkpt lat="44.05383" lon="1.90649">
        <ele>179.9</ele>
        <time>2017-04-23T08:07:03Z</time>
      </trkpt>
      <trkpt lat="44.05375" lon="1.90639">
        <ele>180.4</ele>
        <time>2017-04-23T08:07:06Z</time>
      </trkpt>
      <trkpt lat="44.05367" lon="1.90632">
        <ele>181</ele>
        <time>2017-04-23T08:07:09Z</time>
      </trkpt>
      <trkpt lat="44.0536" lon="1.90629">
        <ele>180.5</ele>
        <time>2017-04-23T08:07:11Z</time>
      </trkpt>
      <trkpt lat="44.05349" lon="1.90628">
        <ele>179.9</ele>
        <time>2017-04-23T08:07:13Z</time>
      </trkpt>
      <trkpt lat="44.05336" lon="1.90628">
        <ele>178.7</ele>
        <time>2017-04-23T08:07:15Z</time>
      </trkpt>
      <trkpt lat="44.05322" lon="1.90626">
        <ele>177.6</ele>
        <time>2017-04-23T08:07:17Z</time>
      </trkpt>
      <trkpt lat="44.05314" lon="1.90626">
        <ele>177.3</ele>
        <time>2017-04-23T08:07:18Z</time>
      </trkpt>
      <trkpt lat="44.05302" lon="1.9063">
        <ele>176.9</ele>
        <time>2017-04-23T08:07:20Z</time>
      </trkpt>
      <trkpt lat="44.0529" lon="1.90637">
        <ele>176.6</ele>
        <time>2017-04-23T08:07:22Z</time>
      </trkpt>
      <trkpt lat="44.05281" lon="1.90643">
        <ele>176.4</ele>
        <time>2017-04-23T08:07:24Z</time>
      </trkpt>
      <trkpt lat="44.05272" lon="1.90644">
        <ele>176.2</ele>
        <time>2017-04-23T08:07:26Z</time>
      </trkpt>
      <trkpt lat="44.05263" lon="1.9064">
        <ele>176.3</ele>
        <time>2017-04-23T08:07:28Z</time>
      </trkpt>
      <trkpt lat="44.05257" lon="1.90636">
        <ele>176.6</ele>
        <time>2017-04-23T08:07:30Z</time>
      </trkpt>
      <trkpt lat="44.0525" lon="1.90628">
        <ele>176.9</ele>
        <time>2017-04-23T08:07:33Z</time>
      </trkpt>
      <trkpt lat="44.05244" lon="1.90622">
        <ele>177.2</ele>
        <time>2017-04-23T08:07:36Z</time>
      </trkpt>
      <trkpt lat="44.05236" lon="1.90616">
        <ele>177.1</ele>
        <time>2017-04-23T08:07:39Z</time>
      </trkpt>
      <trkpt lat="44.05229" lon="1.90609">
        <ele>177</ele>
        <time>2017-04-23T08:07:42Z</time>
      </trkpt>
      <trkpt lat="44.05221" lon="1.90602">
        <ele>176.7</ele>
        <time>2017-04-23T08:07:45Z</time>
      </trkpt>
      <trkpt lat="44.05213" lon="1.90595">
        <ele>176.3</ele>
        <time>2017-04-23T08:07:48Z</time>
      </trkpt>
      <trkpt lat="44.05204" lon="1.90588">
        <ele>176.1</ele>
        <time>2017-04-23T08:07:51Z</time>
      </trkpt>
      <trkpt lat="44.05196" lon="1.90581">
        <ele>175.9</ele>
        <time>2017-04-23T08:07:54Z</time>
      </trkpt>
      <trkpt lat="44.05187" lon="1.90573">
        <ele>175.8</ele>
        <time>2017-04-23T08:07:57Z</time>
      </trkpt>
      <trkpt lat="44.05179" lon="1.90565">
        <ele>175.4</ele>
        <time>2017-04-23T08:08:00Z</time>
      </trkpt>
      <trkpt lat="44.0517" lon="1.90559">
        <ele>175.2</ele>
        <time>2017-04-23T08:08:03Z</time>
      </trkpt>
      <trkpt lat="44.05162" lon="1.90555">
        <ele>174.8</ele>
        <time>2017-04-23T08:08:06Z</time>
      </trkpt>
      <trkpt lat="44.05153" lon="1.90548">
        <ele>174.4</ele>
        <time>2017-04-23T08:08:09Z</time>
      </trkpt>
      <trkpt lat="44.05146" lon="1.90544">
        <ele>174.3</ele>
        <time>2017-04-23T08:08:11Z</time>
      </trkpt>
      <trkpt lat="44.05135" lon="1.90539">
        <ele>174</ele>
        <time>2017-04-23T08:08:14Z</time>
      </trkpt>
      <trkpt lat="44.05127" lon="1.90536">
        <ele>173.6</ele>
        <time>2017-04-23T08:08:16Z</time>
      </trkpt>
      <trkpt lat="44.0512" lon="1.90534">
        <ele>173.3</ele>
        <time>2017-04-23T08:08:18Z</time>
      </trkpt>
      <trkpt lat="44.05111" lon="1.90531">
        <ele>173.1</ele>
        <time>2017-04-23T08:08:20Z</time>
      </trkpt>
      <trkpt lat="44.05103" lon="1.90531">
        <ele>172.7</ele>
        <time>2017-04-23T08:08:22Z</time>
      </trkpt>
      <trkpt lat="44.05095" lon="1.90529">
        <ele>172.4</ele>
        <time>2017-04-23T08:08:24Z</time>
      </trkpt>
      <trkpt lat="44.05087" lon="1.90528">
        <ele>172</ele>
        <time>2017-04-23T08:08:26Z</time>
      </trkpt>
      <trkpt lat="44.05079" lon="1.90525">
        <ele>171.5</ele>
        <time>2017-04-23T08:08:28Z</time>
      </trkpt>
      <trkpt lat="44.05068" lon="1.90522">
        <ele>170.9</ele>
        <time>2017-04-23T08:08:30Z</time>
      </trkpt>
      <trkpt lat="44.05056" lon="1.90523">
        <ele>170.3</ele>
        <time>2017-04-23T08:08:32Z</time>
      </trkpt>
      <trkpt lat="44.05044" lon="1.90522">
        <ele>169.6</ele>
        <time>2017-04-23T08:08:34Z</time>
      </trkpt>
      <trkpt lat="44.05033" lon="1.90521">
        <ele>169.2</ele>
        <time>2017-04-23T08:08:36Z</time>
      </trkpt>
      <trkpt lat="44.0502" lon="1.90517">
        <ele>168.8</ele>
        <time>2017-04-23T08:08:38Z</time>
      </trkpt>
      <trkpt lat="44.05006" lon="1.90509">
        <ele>168.3</ele>
        <time>2017-04-23T08:08:40Z</time>
      </trkpt>
      <trkpt lat="44.04997" lon="1.90495">
        <ele>168</ele>
        <time>2017-04-23T08:08:42Z</time>
      </trkpt>
      <trkpt lat="44.0499" lon="1.90478">
        <ele>167.8</ele>
        <time>2017-04-23T08:08:44Z</time>
      </trkpt>
      <trkpt lat="44.04986" lon="1.90463">
        <ele>167.7</ele>
        <time>2017-04-23T08:08:46Z</time>
      </trkpt>
      <trkpt lat="44.04983" lon="1.90452">
        <ele>168.4</ele>
        <time>2017-04-23T08:08:48Z</time>
      </trkpt>
      <trkpt lat="44.04981" lon="1.90439">
        <ele>168.9</ele>
        <time>2017-04-23T08:08:51Z</time>
      </trkpt>
      <trkpt lat="44.0498" lon="1.90428">
        <ele>169.7</ele>
        <time>2017-04-23T08:08:53Z</time>
      </trkpt>
      <trkpt lat="44.04979" lon="1.90417">
        <ele>170.7</ele>
        <time>2017-04-23T08:08:55Z</time>
      </trkpt>
      <trkpt lat="44.04976" lon="1.90406">
        <ele>171.4</ele>
        <time>2017-04-23T08:08:57Z</time>
      </trkpt>
      <trkpt lat="44.04973" lon="1.90393">
        <ele>172.6</ele>
        <time>2017-04-23T08:09:00Z</time>
      </trkpt>
      <trkpt lat="44.0497" lon="1.90381">
        <ele>173.8</ele>
        <time>2017-04-23T08:09:03Z</time>
      </trkpt>
      <trkpt lat="44.04968" lon="1.9037">
        <ele>175.2</ele>
        <time>2017-04-23T08:09:06Z</time>
      </trkpt>
      <trkpt lat="44.04965" lon="1.90359">
        <ele>176.6</ele>
        <time>2017-04-23T08:09:09Z</time>
      </trkpt>
      <trkpt lat="44.04963" lon="1.90348">
        <ele>177.7</ele>
        <time>2017-04-23T08:09:12Z</time>
      </trkpt>
      <trkpt lat="44.0496" lon="1.90339">
        <ele>178.8</ele>
        <time>2017-04-23T08:09:15Z</time>
      </trkpt>
      <trkpt lat="44.04956" lon="1.9033">
        <ele>179.9</ele>
        <time>2017-04-23T08:09:18Z</time>
      </trkpt>
      <trkpt lat="44.0495" lon="1.90321">
        <ele>181</ele>
        <time>2017-04-23T08:09:21Z</time>
      </trkpt>
      <trkpt lat="44.04945" lon="1.90313">
        <ele>182.6</ele>
        <time>2017-04-23T08:09:24Z</time>
      </trkpt>
      <trkpt lat="44.04942" lon="1.90303">
        <ele>184.1</ele>
        <time>2017-04-23T08:09:27Z</time>
      </trkpt>
      <trkpt lat="44.04939" lon="1.90291">
        <ele>185.7</ele>
        <time>2017-04-23T08:09:30Z</time>
      </trkpt>
      <trkpt lat="44.04935" lon="1.90279">
        <ele>187.1</ele>
        <time>2017-04-23T08:09:33Z</time>
      </trkpt>
      <trkpt lat="44.04932" lon="1.90267">
        <ele>188.2</ele>
        <time>2017-04-23T08:09:36Z</time>
      </trkpt>
      <trkpt lat="44.04928" lon="1.90256">
        <ele>189.4</ele>
        <time>2017-04-23T08:09:39Z</time>
      </trkpt>
      <trkpt lat="44.04923" lon="1.90243">
        <ele>190.6</ele>
        <time>2017-04-23T08:09:42Z</time>
      </trkpt>
      <trkpt lat="44.04919" lon="1.90235">
        <ele>191.3</ele>
        <time>2017-04-23T08:09:44Z</time>
      </trkpt>
      <trkpt lat="44.04914" lon="1.90222">
        <ele>192.5</ele>
        <time>2017-04-23T08:09:47Z</time>
      </trkpt>
      <trkpt lat="44.04909" lon="1.90211">
        <ele>193.5</ele>
        <time>2017-04-23T08:09:50Z</time>
      </trkpt>
      <trkpt lat="44.04903" lon="1.90199">
        <ele>194.6</ele>
        <time>2017-04-23T08:09:53Z</time>
      </trkpt>
      <trkpt lat="44.04898" lon="1.90187">
        <ele>195.8</ele>
        <time>2017-04-23T08:09:56Z</time>
      </trkpt>
      <trkpt lat="44.04894" lon="1.90174">
        <ele>197.1</ele>
        <time>2017-04-23T08:09:59Z</time>
      </trkpt>
      <trkpt lat="44.04888" lon="1.90162">
        <ele>198.3</ele>
        <time>2017-04-23T08:10:02Z</time>
      </trkpt>
      <trkpt lat="44.04884" lon="1.90151">
        <ele>199.4</ele>
        <time>2017-04-23T08:10:05Z</time>
      </trkpt>
      <trkpt lat="44.04878" lon="1.90139">
        <ele>200.7</ele>
        <time>2017-04-23T08:10:08Z</time>
      </trkpt>
      <trkpt lat="44.04874" lon="1.90131">
        <ele>201.4</ele>
        <time>2017-04-23T08:10:10Z</time>
      </trkpt>
      <trkpt lat="44.04868" lon="1.90119">
        <ele>202.2</ele>
        <time>2017-04-23T08:10:13Z</time>
      </trkpt>
      <trkpt lat="44.04861" lon="1.90109">
        <ele>203.1</ele>
        <time>2017-04-23T08:10:16Z</time>
      </trkpt>
      <trkpt lat="44.04855" lon="1.90099">
        <ele>203.8</ele>
        <time>2017-04-23T08:10:19Z</time>
      </trkpt>
      <trkpt lat="44.0485" lon="1.9009">
        <ele>204.4</ele>
        <time>2017-04-23T08:10:22Z</time>
      </trkpt>
      <trkpt lat="44.04844" lon="1.90082">
        <ele>204.9</ele>
        <time>2017-04-23T08:10:25Z</time>
      </trkpt>
      <trkpt lat="44.04839" lon="1.90073">
        <ele>205.6</ele>
        <time>2017-04-23T08:10:28Z</time>
      </trkpt>
      <trkpt lat="44.04833" lon="1.90065">
        <ele>206.1</ele>
        <time>2017-04-23T08:10:31Z</time>
      </trkpt>
      <trkpt lat="44.04828" lon="1.90056">
        <ele>206.2</ele>
        <time>2017-04-23T08:10:34Z</time>
      </trkpt>
      <trkpt lat="44.04822" lon="1.90047">
        <ele>206.5</ele>
        <time>2017-04-23T08:10:37Z</time>
      </trkpt>
      <trkpt lat="44.04816" lon="1.90038">
        <ele>206.6</ele>
        <time>2017-04-23T08:10:40Z</time>
      </trkpt>
      <trkpt lat="44.04811" lon="1.90029">
        <ele>207</ele>
        <time>2017-04-23T08:10:43Z</time>
      </trkpt>
      <trkpt lat="44.04805" lon="1.9002">
        <ele>207.2</ele>
        <time>2017-04-23T08:10:46Z</time>
      </trkpt>
      <trkpt lat="44.04799" lon="1.90011">
        <ele>207.2</ele>
        <time>2017-04-23T08:10:49Z</time>
      </trkpt>
      <trkpt lat="44.04793" lon="1.90003">
        <ele>207.6</ele>
        <time>2017-04-23T08:10:52Z</time>
      </trkpt>
      <trkpt lat="44.04787" lon="1.89994">
        <ele>207.7</ele>
        <time>2017-04-23T08:10:55Z</time>
      </trkpt>
      <trkpt lat="44.0478" lon="1.89986">
        <ele>207.8</ele>
        <time>2017-04-23T08:10:58Z</time>
      </trkpt>
      <trkpt lat="44.04773" lon="1.89977">
        <ele>207.9</ele>
        <time>2017-04-23T08:11:01Z</time>
      </trkpt>
      <trkpt lat="44.04767" lon="1.89971">
        <ele>207.8</ele>
        <time>2017-04-23T08:11:04Z</time>
      </trkpt>
      <trkpt lat="44.04761" lon="1.89965">
        <ele>207.6</ele>
        <time>2017-04-23T08:11:07Z</time>
      </trkpt>
      <trkpt lat="44.04755" lon="1.89958">
        <ele>207.4</ele>
        <time>2017-04-23T08:11:10Z</time>
      </trkpt>
      <trkpt lat="44.04748" lon="1.8995">
        <ele>207</ele>
        <time>2017-04-23T08:11:13Z</time>
      </trkpt>
      <trkpt lat="44.0474" lon="1.89942">
        <ele>206.7</ele>
        <time>2017-04-23T08:11:16Z</time>
      </trkpt>
      <trkpt lat="44.04733" lon="1.89936">
        <ele>206</ele>
        <time>2017-04-23T08:11:19Z</time>
      </trkpt>
      <trkpt lat="44.04725" lon="1.89931">
        <ele>205.6</ele>
        <time>2017-04-23T08:11:22Z</time>
      </trkpt>
      <trkpt lat="44.04716" lon="1.89923">
        <ele>204.8</ele>
        <time>2017-04-23T08:11:25Z</time>
      </trkpt>
      <trkpt lat="44.04709" lon="1.89919">
        <ele>204.6</ele>
        <time>2017-04-23T08:11:27Z</time>
      </trkpt>
      <trkpt lat="44.047" lon="1.89913">
        <ele>204.3</ele>
        <time>2017-04-23T08:11:30Z</time>
      </trkpt>
      <trkpt lat="44.04692" lon="1.89909">
        <ele>204</ele>
        <time>2017-04-23T08:11:33Z</time>
      </trkpt>
      <trkpt lat="44.04685" lon="1.89903">
        <ele>203.8</ele>
        <time>2017-04-23T08:11:36Z</time>
      </trkpt>
      <trkpt lat="44.04678" lon="1.89899">
        <ele>203.5</ele>
        <time>2017-04-23T08:11:39Z</time>
      </trkpt>
      <trkpt lat="44.04671" lon="1.89894">
        <ele>203.4</ele>
        <time>2017-04-23T08:11:42Z</time>
      </trkpt>
      <trkpt lat="44.04664" lon="1.89889">
        <ele>203.6</ele>
        <time>2017-04-23T08:11:45Z</time>
      </trkpt>
      <trkpt lat="44.04657" lon="1.89885">
        <ele>203.8</ele>
        <time>2017-04-23T08:11:48Z</time>
      </trkpt>
      <trkpt lat="44.04649" lon="1.89882">
        <ele>204</ele>
        <time>2017-04-23T08:11:51Z</time>
      </trkpt>
      <trkpt lat="44.04641" lon="1.89879">
        <ele>204.9</ele>
        <time>2017-04-23T08:11:54Z</time>
      </trkpt>
      <trkpt lat="44.04634" lon="1.89875">
        <ele>206.1</ele>
        <time>2017-04-23T08:11:57Z</time>
      </trkpt>
      <trkpt lat="44.04625" lon="1.89873">
        <ele>207.5</ele>
        <time>2017-04-23T08:12:01Z</time>
      </trkpt>
      <trkpt lat="44.04617" lon="1.8987">
        <ele>208.3</ele>
        <time>2017-04-23T08:12:04Z</time>
      </trkpt>
      <trkpt lat="44.0461" lon="1.89869">
        <ele>208.9</ele>
        <time>2017-04-23T08:12:07Z</time>
      </trkpt>
      <trkpt lat="44.04601" lon="1.89866">
        <ele>209.9</ele>
        <time>2017-04-23T08:12:11Z</time>
      </trkpt>
      <trkpt lat="44.04592" lon="1.89864">
        <ele>211.1</ele>
        <time>2017-04-23T08:12:15Z</time>
      </trkpt>
      <trkpt lat="44.04583" lon="1.8986">
        <ele>212.1</ele>
        <time>2017-04-23T08:12:19Z</time>
      </trkpt>
      <trkpt lat="44.04575" lon="1.89858">
        <ele>213</ele>
        <time>2017-04-23T08:12:23Z</time>
      </trkpt>
      <trkpt lat="44.04566" lon="1.89856">
        <ele>214.1</ele>
        <time>2017-04-23T08:12:27Z</time>
      </trkpt>
      <trkpt lat="44.04558" lon="1.89855">
        <ele>214.6</ele>
        <time>2017-04-23T08:12:30Z</time>
      </trkpt>
      <trkpt lat="44.04551" lon="1.89853">
        <ele>215.1</ele>
        <time>2017-04-23T08:12:33Z</time>
      </trkpt>
      <trkpt lat="44.04542" lon="1.89852">
        <ele>215.6</ele>
        <time>2017-04-23T08:12:36Z</time>
      </trkpt>
      <trkpt lat="44.04534" lon="1.89851">
        <ele>216.1</ele>
        <time>2017-04-23T08:12:39Z</time>
      </trkpt>
      <trkpt lat="44.04527" lon="1.89849">
        <ele>216.6</ele>
        <time>2017-04-23T08:12:42Z</time>
      </trkpt>
      <trkpt lat="44.0452" lon="1.89846">
        <ele>217</ele>
        <time>2017-04-23T08:12:45Z</time>
      </trkpt>
      <trkpt lat="44.04513" lon="1.89842">
        <ele>217.7</ele>
        <time>2017-04-23T08:12:48Z</time>
      </trkpt>
      <trkpt lat="44.04505" lon="1.89839">
        <ele>218.3</ele>
        <time>2017-04-23T08:12:51Z</time>
      </trkpt>
      <trkpt lat="44.04498" lon="1.89836">
        <ele>218.9</ele>
        <time>2017-04-23T08:12:54Z</time>
      </trkpt>
      <trkpt lat="44.04489" lon="1.89828">
        <ele>219.2</ele>
        <time>2017-04-23T08:12:58Z</time>
      </trkpt>
      <trkpt lat="44.04481" lon="1.89824">
        <ele>219.5</ele>
        <time>2017-04-23T08:13:01Z</time>
      </trkpt>
      <trkpt lat="44.04474" lon="1.89817">
        <ele>219.9</ele>
        <time>2017-04-23T08:13:05Z</time>
      </trkpt>
      <trkpt lat="44.04466" lon="1.89811">
        <ele>219.8</ele>
        <time>2017-04-23T08:13:09Z</time>
      </trkpt>
      <trkpt lat="44.04458" lon="1.89804">
        <ele>219.7</ele>
        <time>2017-04-23T08:13:13Z</time>
      </trkpt>
      <trkpt lat="44.04451" lon="1.89798">
        <ele>219.4</ele>
        <time>2017-04-23T08:13:16Z</time>
      </trkpt>
      <trkpt lat="44.04444" lon="1.89793">
        <ele>219.1</ele>
        <time>2017-04-23T08:13:19Z</time>
      </trkpt>
      <trkpt lat="44.04438" lon="1.89787">
        <ele>218.4</ele>
        <time>2017-04-23T08:13:22Z</time>
      </trkpt>
      <trkpt lat="44.04432" lon="1.89782">
        <ele>217.9</ele>
        <time>2017-04-23T08:13:25Z</time>
      </trkpt>
      <trkpt lat="44.04425" lon="1.89775">
        <ele>217.4</ele>
        <time>2017-04-23T08:13:29Z</time>
      </trkpt>
      <trkpt lat="44.04417" lon="1.8977">
        <ele>216.5</ele>
        <time>2017-04-23T08:13:33Z</time>
      </trkpt>
      <trkpt lat="44.04411" lon="1.89764">
        <ele>216</ele>
        <time>2017-04-23T08:13:36Z</time>
      </trkpt>
      <trkpt lat="44.04403" lon="1.89757">
        <ele>215.8</ele>
        <time>2017-04-23T08:13:40Z</time>
      </trkpt>
      <trkpt lat="44.04395" lon="1.8975">
        <ele>216.2</ele>
        <time>2017-04-23T08:13:44Z</time>
      </trkpt>
      <trkpt lat="44.04387" lon="1.89743">
        <ele>215.5</ele>
        <time>2017-04-23T08:13:48Z</time>
      </trkpt>
      <trkpt lat="44.0438" lon="1.89737">
        <ele>216.9</ele>
        <time>2017-04-23T08:13:52Z</time>
      </trkpt>
      <trkpt lat="44.04374" lon="1.8973">
        <ele>216.9</ele>
        <time>2017-04-23T08:13:56Z</time>
      </trkpt>
      <trkpt lat="44.04367" lon="1.89725">
        <ele>216.4</ele>
        <time>2017-04-23T08:14:00Z</time>
      </trkpt>
      <trkpt lat="44.04361" lon="1.89719">
        <ele>216.9</ele>
        <time>2017-04-23T08:14:04Z</time>
      </trkpt>
      <trkpt lat="44.04354" lon="1.89712">
        <ele>216.5</ele>
        <time>2017-04-23T08:14:08Z</time>
      </trkpt>
      <trkpt lat="44.04348" lon="1.89704">
        <ele>216.2</ele>
        <time>2017-04-23T08:14:12Z</time>
      </trkpt>
      <trkpt lat="44.04341" lon="1.89696">
        <ele>216</ele>
        <time>2017-04-23T08:14:16Z</time>
      </trkpt>
      <trkpt lat="44.04334" lon="1.89689">
        <ele>216.2</ele>
        <time>2017-04-23T08:14:20Z</time>
      </trkpt>
      <trkpt lat="44.04327" lon="1.89681">
        <ele>216.4</ele>
        <time>2017-04-23T08:14:24Z</time>
      </trkpt>
      <trkpt lat="44.0432" lon="1.89672">
        <ele>217.2</ele>
        <time>2017-04-23T08:14:28Z</time>
      </trkpt>
      <trkpt lat="44.04315" lon="1.89665">
        <ele>217.5</ele>
        <time>2017-04-23T08:14:31Z</time>
      </trkpt>
      <trkpt lat="44.04311" lon="1.89657">
        <ele>218.2</ele>
        <time>2017-04-23T08:14:34Z</time>
      </trkpt>
      <trkpt lat="44.04303" lon="1.89651">
        <ele>219.7</ele>
        <time>2017-04-23T08:14:38Z</time>
      </trkpt>
      <trkpt lat="44.04295" lon="1.89643">
        <ele>221</ele>
        <time>2017-04-23T08:14:42Z</time>
      </trkpt>
      <trkpt lat="44.04289" lon="1.89635">
        <ele>222.4</ele>
        <time>2017-04-23T08:14:45Z</time>
      </trkpt>
      <trkpt lat="44.04284" lon="1.89625">
        <ele>224</ele>
        <time>2017-04-23T08:14:49Z</time>
      </trkpt>
      <trkpt lat="44.04277" lon="1.89617">
        <ele>225.6</ele>
        <time>2017-04-23T08:14:53Z</time>
      </trkpt>
      <trkpt lat="44.04271" lon="1.8961">
        <ele>226.9</ele>
        <time>2017-04-23T08:14:56Z</time>
      </trkpt>
      <trkpt lat="44.04265" lon="1.89602">
        <ele>228.1</ele>
        <time>2017-04-23T08:15:00Z</time>
      </trkpt>
      <trkpt lat="44.04269" lon="1.89595">
        <ele>230.7</ele>
        <time>2017-04-23T08:15:07Z</time>
      </trkpt>
      <trkpt lat="44.04277" lon="1.89591">
        <ele>234.6</ele>
        <time>2017-04-23T08:15:14Z</time>
      </trkpt>
      <trkpt lat="44.04284" lon="1.8959">
        <ele>236.5</ele>
        <time>2017-04-23T08:15:17Z</time>
      </trkpt>
      <trkpt lat="44.04292" lon="1.89591">
        <ele>238.3</ele>
        <time>2017-04-23T08:15:20Z</time>
      </trkpt>
      <trkpt lat="44.04301" lon="1.89587">
        <ele>242.5</ele>
        <time>2017-04-23T08:15:24Z</time>
      </trkpt>
      <trkpt lat="44.04305" lon="1.89577">
        <ele>245.9</ele>
        <time>2017-04-23T08:15:27Z</time>
      </trkpt>
      <trkpt lat="44.04306" lon="1.89566">
        <ele>247.5</ele>
        <time>2017-04-23T08:15:30Z</time>
      </trkpt>
      <trkpt lat="44.04304" lon="1.89556">
        <ele>249.1</ele>
        <time>2017-04-23T08:15:33Z</time>
      </trkpt>
      <trkpt lat="44.04304" lon="1.89543">
        <ele>251.1</ele>
        <time>2017-04-23T08:15:37Z</time>
      </trkpt>
      <trkpt lat="44.04303" lon="1.89529">
        <ele>253.2</ele>
        <time>2017-04-23T08:15:41Z</time>
      </trkpt>
      <trkpt lat="44.043" lon="1.89518">
        <ele>254.4</ele>
        <time>2017-04-23T08:15:44Z</time>
      </trkpt>
      <trkpt lat="44.043" lon="1.89507">
        <ele>255.8</ele>
        <time>2017-04-23T08:15:47Z</time>
      </trkpt>
      <trkpt lat="44.04302" lon="1.89497">
        <ele>257.9</ele>
        <time>2017-04-23T08:15:51Z</time>
      </trkpt>
      <trkpt lat="44.04303" lon="1.89494">
        <ele>261.6</ele>
        <time>2017-04-23T08:15:58Z</time>
      </trkpt>
      <trkpt lat="44.04319" lon="1.89475">
        <ele>262.7</ele>
        <time>2017-04-23T08:17:21Z</time>
      </trkpt>
      <trkpt lat="44.0432" lon="1.89464">
        <ele>262.1</ele>
        <time>2017-04-23T08:17:25Z</time>
      </trkpt>
      <trkpt lat="44.04316" lon="1.89455">
        <ele>261.4</ele>
        <time>2017-04-23T08:17:30Z</time>
      </trkpt>
      <trkpt lat="44.04315" lon="1.89442">
        <ele>260.6</ele>
        <time>2017-04-23T08:17:34Z</time>
      </trkpt>
      <trkpt lat="44.04314" lon="1.89429">
        <ele>260.1</ele>
        <time>2017-04-23T08:17:37Z</time>
      </trkpt>
      <trkpt lat="44.04318" lon="1.89418">
        <ele>259.6</ele>
        <time>2017-04-23T08:17:40Z</time>
      </trkpt>
      <trkpt lat="44.04322" lon="1.89409">
        <ele>259.1</ele>
        <time>2017-04-23T08:17:43Z</time>
      </trkpt>
      <trkpt lat="44.0432" lon="1.89399">
        <ele>259.1</ele>
        <time>2017-04-23T08:17:45Z</time>
      </trkpt>
      <trkpt lat="44.04314" lon="1.89392">
        <ele>258.9</ele>
        <time>2017-04-23T08:17:47Z</time>
      </trkpt>
      <trkpt lat="44.04307" lon="1.89381">
        <ele>258.7</ele>
        <time>2017-04-23T08:17:50Z</time>
      </trkpt>
      <trkpt lat="44.04301" lon="1.89374">
        <ele>258.7</ele>
        <time>2017-04-23T08:17:52Z</time>
      </trkpt>
      <trkpt lat="44.04297" lon="1.89365">
        <ele>258.9</ele>
        <time>2017-04-23T08:17:54Z</time>
      </trkpt>
      <trkpt lat="44.0429" lon="1.89356">
        <ele>259.5</ele>
        <time>2017-04-23T08:17:57Z</time>
      </trkpt>
      <trkpt lat="44.04283" lon="1.89347">
        <ele>260.3</ele>
        <time>2017-04-23T08:18:00Z</time>
      </trkpt>
      <trkpt lat="44.04277" lon="1.89339">
        <ele>261.1</ele>
        <time>2017-04-23T08:18:03Z</time>
      </trkpt>
      <trkpt lat="44.04271" lon="1.8933">
        <ele>261.7</ele>
        <time>2017-04-23T08:18:06Z</time>
      </trkpt>
      <trkpt lat="44.04265" lon="1.89322">
        <ele>262.3</ele>
        <time>2017-04-23T08:18:09Z</time>
      </trkpt>
      <trkpt lat="44.0426" lon="1.89313">
        <ele>263</ele>
        <time>2017-04-23T08:18:12Z</time>
      </trkpt>
      <trkpt lat="44.04254" lon="1.89305">
        <ele>263.6</ele>
        <time>2017-04-23T08:18:15Z</time>
      </trkpt>
      <trkpt lat="44.04248" lon="1.89297">
        <ele>264.4</ele>
        <time>2017-04-23T08:18:18Z</time>
      </trkpt>
      <trkpt lat="44.04242" lon="1.89289">
        <ele>265.4</ele>
        <time>2017-04-23T08:18:21Z</time>
      </trkpt>
      <trkpt lat="44.04236" lon="1.89281">
        <ele>266.2</ele>
        <time>2017-04-23T08:18:24Z</time>
      </trkpt>
      <trkpt lat="44.04229" lon="1.89273">
        <ele>267.5</ele>
        <time>2017-04-23T08:18:28Z</time>
      </trkpt>
      <trkpt lat="44.04223" lon="1.89267">
        <ele>268.3</ele>
        <time>2017-04-23T08:18:31Z</time>
      </trkpt>
      <trkpt lat="44.04217" lon="1.89259">
        <ele>268.9</ele>
        <time>2017-04-23T08:18:35Z</time>
      </trkpt>
      <trkpt lat="44.0421" lon="1.89251">
        <ele>269.8</ele>
        <time>2017-04-23T08:18:39Z</time>
      </trkpt>
      <trkpt lat="44.04202" lon="1.89243">
        <ele>270.5</ele>
        <time>2017-04-23T08:18:43Z</time>
      </trkpt>
      <trkpt lat="44.04197" lon="1.89237">
        <ele>271.1</ele>
        <time>2017-04-23T08:18:47Z</time>
      </trkpt>
      <trkpt lat="44.04189" lon="1.89233">
        <ele>271.4</ele>
        <time>2017-04-23T08:18:50Z</time>
      </trkpt>
      <trkpt lat="44.04184" lon="1.89226">
        <ele>271.6</ele>
        <time>2017-04-23T08:18:53Z</time>
      </trkpt>
      <trkpt lat="44.04177" lon="1.89217">
        <ele>271.9</ele>
        <time>2017-04-23T08:18:57Z</time>
      </trkpt>
      <trkpt lat="44.04171" lon="1.89209">
        <ele>272</ele>
        <time>2017-04-23T08:19:00Z</time>
      </trkpt>
      <trkpt lat="44.04166" lon="1.89201">
        <ele>272.3</ele>
        <time>2017-04-23T08:19:03Z</time>
      </trkpt>
      <trkpt lat="44.04162" lon="1.89192">
        <ele>272.5</ele>
        <time>2017-04-23T08:19:06Z</time>
      </trkpt>
      <trkpt lat="44.04158" lon="1.89181">
        <ele>272.6</ele>
        <time>2017-04-23T08:19:09Z</time>
      </trkpt>
      <trkpt lat="44.04155" lon="1.8917">
        <ele>273.2</ele>
        <time>2017-04-23T08:19:12Z</time>
      </trkpt>
      <trkpt lat="44.04153" lon="1.89159">
        <ele>274.8</ele>
        <time>2017-04-23T08:19:15Z</time>
      </trkpt>
      <trkpt lat="44.04152" lon="1.89147">
        <ele>276.8</ele>
        <time>2017-04-23T08:19:18Z</time>
      </trkpt>
      <trkpt lat="44.04151" lon="1.89136">
        <ele>278</ele>
        <time>2017-04-23T08:19:21Z</time>
      </trkpt>
      <trkpt lat="44.0415" lon="1.89125">
        <ele>279</ele>
        <time>2017-04-23T08:19:24Z</time>
      </trkpt>
      <trkpt lat="44.04152" lon="1.89113">
        <ele>279.9</ele>
        <time>2017-04-23T08:19:28Z</time>
      </trkpt>
      <trkpt lat="44.04154" lon="1.89103">
        <ele>280.5</ele>
        <time>2017-04-23T08:19:31Z</time>
      </trkpt>
      <trkpt lat="44.04155" lon="1.89092">
        <ele>281.2</ele>
        <time>2017-04-23T08:19:34Z</time>
      </trkpt>
      <trkpt lat="44.04156" lon="1.89081">
        <ele>281.9</ele>
        <time>2017-04-23T08:19:37Z</time>
      </trkpt>
      <trkpt lat="44.04155" lon="1.89068">
        <ele>282.5</ele>
        <time>2017-04-23T08:19:40Z</time>
      </trkpt>
      <trkpt lat="44.04153" lon="1.89054">
        <ele>283.4</ele>
        <time>2017-04-23T08:19:43Z</time>
      </trkpt>
      <trkpt lat="44.04152" lon="1.89042">
        <ele>284.4</ele>
        <time>2017-04-23T08:19:46Z</time>
      </trkpt>
      <trkpt lat="44.04149" lon="1.8903">
        <ele>285</ele>
        <time>2017-04-23T08:19:49Z</time>
      </trkpt>
      <trkpt lat="44.04145" lon="1.89021">
        <ele>285.5</ele>
        <time>2017-04-23T08:19:51Z</time>
      </trkpt>
      <trkpt lat="44.04141" lon="1.89012">
        <ele>285.8</ele>
        <time>2017-04-23T08:19:53Z</time>
      </trkpt>
      <trkpt lat="44.04136" lon="1.89002">
        <ele>285.7</ele>
        <time>2017-04-23T08:19:55Z</time>
      </trkpt>
      <trkpt lat="44.04131" lon="1.88993">
        <ele>286</ele>
        <time>2017-04-23T08:19:57Z</time>
      </trkpt>
      <trkpt lat="44.04126" lon="1.88986">
        <ele>286.2</ele>
        <time>2017-04-23T08:19:59Z</time>
      </trkpt>
      <trkpt lat="44.0412" lon="1.8898">
        <ele>287.6</ele>
        <time>2017-04-23T08:20:01Z</time>
      </trkpt>
      <trkpt lat="44.04113" lon="1.88972">
        <ele>288.3</ele>
        <time>2017-04-23T08:20:03Z</time>
      </trkpt>
      <trkpt lat="44.04106" lon="1.88967">
        <ele>289.5</ele>
        <time>2017-04-23T08:20:05Z</time>
      </trkpt>
      <trkpt lat="44.04099" lon="1.88961">
        <ele>290.3</ele>
        <time>2017-04-23T08:20:07Z</time>
      </trkpt>
      <trkpt lat="44.04092" lon="1.88957">
        <ele>290.5</ele>
        <time>2017-04-23T08:20:09Z</time>
      </trkpt>
      <trkpt lat="44.04084" lon="1.88956">
        <ele>290.5</ele>
        <time>2017-04-23T08:20:11Z</time>
      </trkpt>
      <trkpt lat="44.04075" lon="1.88957">
        <ele>290.3</ele>
        <time>2017-04-23T08:20:13Z</time>
      </trkpt>
      <trkpt lat="44.04066" lon="1.88955">
        <ele>290</ele>
        <time>2017-04-23T08:20:15Z</time>
      </trkpt>
      <trkpt lat="44.04057" lon="1.88951">
        <ele>290</ele>
        <time>2017-04-23T08:20:17Z</time>
      </trkpt>
      <trkpt lat="44.04049" lon="1.88945">
        <ele>289.8</ele>
        <time>2017-04-23T08:20:19Z</time>
      </trkpt>
      <trkpt lat="44.04041" lon="1.88939">
        <ele>289.7</ele>
        <time>2017-04-23T08:20:21Z</time>
      </trkpt>
      <trkpt lat="44.04034" lon="1.88933">
        <ele>289.7</ele>
        <time>2017-04-23T08:20:23Z</time>
      </trkpt>
      <trkpt lat="44.04027" lon="1.88927">
        <ele>289.6</ele>
        <time>2017-04-23T08:20:25Z</time>
      </trkpt>
      <trkpt lat="44.04019" lon="1.8892">
        <ele>289.4</ele>
        <time>2017-04-23T08:20:27Z</time>
      </trkpt>
      <trkpt lat="44.04011" lon="1.88914">
        <ele>289.7</ele>
        <time>2017-04-23T08:20:29Z</time>
      </trkpt>
      <trkpt lat="44.04004" lon="1.88909">
        <ele>290.5</ele>
        <time>2017-04-23T08:20:31Z</time>
      </trkpt>
      <trkpt lat="44.03997" lon="1.88903">
        <ele>291.1</ele>
        <time>2017-04-23T08:20:33Z</time>
      </trkpt>
      <trkpt lat="44.03989" lon="1.88898">
        <ele>291.6</ele>
        <time>2017-04-23T08:20:35Z</time>
      </trkpt>
      <trkpt lat="44.03982" lon="1.88893">
        <ele>292.2</ele>
        <time>2017-04-23T08:20:37Z</time>
      </trkpt>
      <trkpt lat="44.03976" lon="1.88884">
        <ele>292.8</ele>
        <time>2017-04-23T08:20:40Z</time>
      </trkpt>
      <trkpt lat="44.0398" lon="1.88872">
        <ele>292.8</ele>
        <time>2017-04-23T08:20:43Z</time>
      </trkpt>
      <trkpt lat="44.03983" lon="1.88857">
        <ele>292.8</ele>
        <time>2017-04-23T08:20:46Z</time>
      </trkpt>
      <trkpt lat="44.03987" lon="1.88847">
        <ele>293.2</ele>
        <time>2017-04-23T08:20:48Z</time>
      </trkpt>
      <trkpt lat="44.0399" lon="1.88836">
        <ele>293.1</ele>
        <time>2017-04-23T08:20:50Z</time>
      </trkpt>
      <trkpt lat="44.03994" lon="1.88824">
        <ele>293</ele>
        <time>2017-04-23T08:20:52Z</time>
      </trkpt>
      <trkpt lat="44.03997" lon="1.88811">
        <ele>293.4</ele>
        <time>2017-04-23T08:20:54Z</time>
      </trkpt>
      <trkpt lat="44.04001" lon="1.88801">
        <ele>293.8</ele>
        <time>2017-04-23T08:20:56Z</time>
      </trkpt>
      <trkpt lat="44.04004" lon="1.8879">
        <ele>294</ele>
        <time>2017-04-23T08:20:58Z</time>
      </trkpt>
      <trkpt lat="44.04007" lon="1.88779">
        <ele>294</ele>
        <time>2017-04-23T08:21:00Z</time>
      </trkpt>
      <trkpt lat="44.04011" lon="1.88768">
        <ele>294.2</ele>
        <time>2017-04-23T08:21:02Z</time>
      </trkpt>
      <trkpt lat="44.04014" lon="1.88757">
        <ele>294.7</ele>
        <time>2017-04-23T08:21:04Z</time>
      </trkpt>
      <trkpt lat="44.04016" lon="1.88747">
        <ele>295.7</ele>
        <time>2017-04-23T08:21:06Z</time>
      </trkpt>
      <trkpt lat="44.04017" lon="1.88736">
        <ele>296.2</ele>
        <time>2017-04-23T08:21:08Z</time>
      </trkpt>
      <trkpt lat="44.04014" lon="1.88722">
        <ele>295.7</ele>
        <time>2017-04-23T08:21:11Z</time>
      </trkpt>
      <trkpt lat="44.04011" lon="1.8871">
        <ele>295.3</ele>
        <time>2017-04-23T08:21:13Z</time>
      </trkpt>
      <trkpt lat="44.04008" lon="1.88699">
        <ele>295.3</ele>
        <time>2017-04-23T08:21:15Z</time>
      </trkpt>
      <trkpt lat="44.04004" lon="1.88687">
        <ele>295.1</ele>
        <time>2017-04-23T08:21:17Z</time>
      </trkpt>
      <trkpt lat="44.04" lon="1.88674">
        <ele>295</ele>
        <time>2017-04-23T08:21:19Z</time>
      </trkpt>
      <trkpt lat="44.03995" lon="1.88663">
        <ele>295</ele>
        <time>2017-04-23T08:21:21Z</time>
      </trkpt>
      <trkpt lat="44.03992" lon="1.88653">
        <ele>294.7</ele>
        <time>2017-04-23T08:21:23Z</time>
      </trkpt>
      <trkpt lat="44.0399" lon="1.88642">
        <ele>294.7</ele>
        <time>2017-04-23T08:21:25Z</time>
      </trkpt>
      <trkpt lat="44.0399" lon="1.88632">
        <ele>294.7</ele>
        <time>2017-04-23T08:21:27Z</time>
      </trkpt>
      <trkpt lat="44.03993" lon="1.88621">
        <ele>294.4</ele>
        <time>2017-04-23T08:21:29Z</time>
      </trkpt>
      <trkpt lat="44.03996" lon="1.88611">
        <ele>293.9</ele>
        <time>2017-04-23T08:21:31Z</time>
      </trkpt>
      <trkpt lat="44.04" lon="1.88598">
        <ele>292.4</ele>
        <time>2017-04-23T08:21:33Z</time>
      </trkpt>
      <trkpt lat="44.04005" lon="1.88585">
        <ele>291.4</ele>
        <time>2017-04-23T08:21:35Z</time>
      </trkpt>
      <trkpt lat="44.04008" lon="1.88571">
        <ele>291.2</ele>
        <time>2017-04-23T08:21:37Z</time>
      </trkpt>
      <trkpt lat="44.04012" lon="1.88556">
        <ele>290.7</ele>
        <time>2017-04-23T08:21:39Z</time>
      </trkpt>
      <trkpt lat="44.04016" lon="1.88541">
        <ele>290.2</ele>
        <time>2017-04-23T08:21:41Z</time>
      </trkpt>
      <trkpt lat="44.0402" lon="1.88525">
        <ele>289.5</ele>
        <time>2017-04-23T08:21:43Z</time>
      </trkpt>
      <trkpt lat="44.04024" lon="1.88508">
        <ele>288.8</ele>
        <time>2017-04-23T08:21:45Z</time>
      </trkpt>
      <trkpt lat="44.04028" lon="1.88489">
        <ele>288</ele>
        <time>2017-04-23T08:21:47Z</time>
      </trkpt>
      <trkpt lat="44.04031" lon="1.8847">
        <ele>287.2</ele>
        <time>2017-04-23T08:21:49Z</time>
      </trkpt>
      <trkpt lat="44.04032" lon="1.88453">
        <ele>286.3</ele>
        <time>2017-04-23T08:21:51Z</time>
      </trkpt>
      <trkpt lat="44.04033" lon="1.88436">
        <ele>285.5</ele>
        <time>2017-04-23T08:21:53Z</time>
      </trkpt>
      <trkpt lat="44.04034" lon="1.8842">
        <ele>284.8</ele>
        <time>2017-04-23T08:21:55Z</time>
      </trkpt>
      <trkpt lat="44.04038" lon="1.88404">
        <ele>283.8</ele>
        <time>2017-04-23T08:21:57Z</time>
      </trkpt>
      <trkpt lat="44.04043" lon="1.88387">
        <ele>282.5</ele>
        <time>2017-04-23T08:21:59Z</time>
      </trkpt>
      <trkpt lat="44.04045" lon="1.88377">
        <ele>281.7</ele>
        <time>2017-04-23T08:22:00Z</time>
      </trkpt>
      <trkpt lat="44.04048" lon="1.88368">
        <ele>281</ele>
        <time>2017-04-23T08:22:01Z</time>
      </trkpt>
      <trkpt lat="44.0405" lon="1.88358">
        <ele>280.4</ele>
        <time>2017-04-23T08:22:02Z</time>
      </trkpt>
      <trkpt lat="44.04054" lon="1.88341">
        <ele>280.2</ele>
        <time>2017-04-23T08:22:04Z</time>
      </trkpt>
      <trkpt lat="44.04059" lon="1.88332">
        <ele>279.8</ele>
        <time>2017-04-23T08:22:06Z</time>
      </trkpt>
      <trkpt lat="44.04066" lon="1.88332">
        <ele>279.2</ele>
        <time>2017-04-23T08:22:08Z</time>
      </trkpt>
      <trkpt lat="44.04074" lon="1.88334">
        <ele>278.9</ele>
        <time>2017-04-23T08:22:10Z</time>
      </trkpt>
      <trkpt lat="44.04082" lon="1.88336">
        <ele>278.9</ele>
        <time>2017-04-23T08:22:12Z</time>
      </trkpt>
      <trkpt lat="44.04093" lon="1.88335">
        <ele>279.1</ele>
        <time>2017-04-23T08:22:15Z</time>
      </trkpt>
      <trkpt lat="44.04094" lon="1.88324">
        <ele>279</ele>
        <time>2017-04-23T08:22:18Z</time>
      </trkpt>
      <trkpt lat="44.04093" lon="1.88314">
        <ele>279.6</ele>
        <time>2017-04-23T08:22:21Z</time>
      </trkpt>
      <trkpt lat="44.04089" lon="1.88303">
        <ele>279.7</ele>
        <time>2017-04-23T08:22:24Z</time>
      </trkpt>
      <trkpt lat="44.04086" lon="1.88292">
        <ele>279.3</ele>
        <time>2017-04-23T08:22:27Z</time>
      </trkpt>
      <trkpt lat="44.04081" lon="1.88279">
        <ele>278.7</ele>
        <time>2017-04-23T08:22:30Z</time>
      </trkpt>
      <trkpt lat="44.04078" lon="1.88265">
        <ele>278.4</ele>
        <time>2017-04-23T08:22:33Z</time>
      </trkpt>
      <trkpt lat="44.04075" lon="1.88254">
        <ele>278.3</ele>
        <time>2017-04-23T08:22:35Z</time>
      </trkpt>
      <trkpt lat="44.04072" lon="1.88244">
        <ele>278</ele>
        <time>2017-04-23T08:22:37Z</time>
      </trkpt>
      <trkpt lat="44.04066" lon="1.88232">
        <ele>277.7</ele>
        <time>2017-04-23T08:22:39Z</time>
      </trkpt>
      <trkpt lat="44.04062" lon="1.88223">
        <ele>277.4</ele>
        <time>2017-04-23T08:22:41Z</time>
      </trkpt>
      <trkpt lat="44.04057" lon="1.8821">
        <ele>277.2</ele>
        <time>2017-04-23T08:22:43Z</time>
      </trkpt>
      <trkpt lat="44.04052" lon="1.88198">
        <ele>277.2</ele>
        <time>2017-04-23T08:22:45Z</time>
      </trkpt>
      <trkpt lat="44.04048" lon="1.88187">
        <ele>277.2</ele>
        <time>2017-04-23T08:22:47Z</time>
      </trkpt>
      <trkpt lat="44.04043" lon="1.88175">
        <ele>277.3</ele>
        <time>2017-04-23T08:22:49Z</time>
      </trkpt>
      <trkpt lat="44.04039" lon="1.88166">
        <ele>277.5</ele>
        <time>2017-04-23T08:22:51Z</time>
      </trkpt>
      <trkpt lat="44.04034" lon="1.88158">
        <ele>277.4</ele>
        <time>2017-04-23T08:22:53Z</time>
      </trkpt>
      <trkpt lat="44.04028" lon="1.8815">
        <ele>277.6</ele>
        <time>2017-04-23T08:22:55Z</time>
      </trkpt>
      <trkpt lat="44.04021" lon="1.8814">
        <ele>277.6</ele>
        <time>2017-04-23T08:22:58Z</time>
      </trkpt>
      <trkpt lat="44.04014" lon="1.88133">
        <ele>277.6</ele>
        <time>2017-04-23T08:23:00Z</time>
      </trkpt>
      <trkpt lat="44.04007" lon="1.88124">
        <ele>277.6</ele>
        <time>2017-04-23T08:23:03Z</time>
      </trkpt>
      <trkpt lat="44.03998" lon="1.88114">
        <ele>277.6</ele>
        <time>2017-04-23T08:23:06Z</time>
      </trkpt>
      <trkpt lat="44.03992" lon="1.88104">
        <ele>277.5</ele>
        <time>2017-04-23T08:23:08Z</time>
      </trkpt>
      <trkpt lat="44.03986" lon="1.88097">
        <ele>277.5</ele>
        <time>2017-04-23T08:23:10Z</time>
      </trkpt>
      <trkpt lat="44.03981" lon="1.88087">
        <ele>277.7</ele>
        <time>2017-04-23T08:23:12Z</time>
      </trkpt>
      <trkpt lat="44.03977" lon="1.88077">
        <ele>278</ele>
        <time>2017-04-23T08:23:14Z</time>
      </trkpt>
      <trkpt lat="44.03973" lon="1.88066">
        <ele>278.4</ele>
        <time>2017-04-23T08:23:16Z</time>
      </trkpt>
      <trkpt lat="44.03969" lon="1.88056">
        <ele>278.4</ele>
        <time>2017-04-23T08:23:18Z</time>
      </trkpt>
      <trkpt lat="44.03966" lon="1.88045">
        <ele>278.1</ele>
        <time>2017-04-23T08:23:20Z</time>
      </trkpt>
      <trkpt lat="44.03963" lon="1.88034">
        <ele>278.1</ele>
        <time>2017-04-23T08:23:22Z</time>
      </trkpt>
      <trkpt lat="44.03959" lon="1.88022">
        <ele>277.6</ele>
        <time>2017-04-23T08:23:24Z</time>
      </trkpt>
      <trkpt lat="44.03956" lon="1.88009">
        <ele>278.1</ele>
        <time>2017-04-23T08:23:26Z</time>
      </trkpt>
      <trkpt lat="44.03953" lon="1.87994">
        <ele>277.6</ele>
        <time>2017-04-23T08:23:28Z</time>
      </trkpt>
      <trkpt lat="44.0395" lon="1.87981">
        <ele>278.4</ele>
        <time>2017-04-23T08:23:30Z</time>
      </trkpt>
      <trkpt lat="44.03947" lon="1.87968">
        <ele>278.6</ele>
        <time>2017-04-23T08:23:32Z</time>
      </trkpt>
      <trkpt lat="44.03944" lon="1.87956">
        <ele>278.5</ele>
        <time>2017-04-23T08:23:34Z</time>
      </trkpt>
      <trkpt lat="44.0394" lon="1.87944">
        <ele>278.7</ele>
        <time>2017-04-23T08:23:36Z</time>
      </trkpt>
      <trkpt lat="44.03937" lon="1.87934">
        <ele>279.2</ele>
        <time>2017-04-23T08:23:38Z</time>
      </trkpt>
      <trkpt lat="44.03933" lon="1.87926">
        <ele>279.3</ele>
        <time>2017-04-23T08:23:40Z</time>
      </trkpt>
      <trkpt lat="44.03929" lon="1.87917">
        <ele>279.6</ele>
        <time>2017-04-23T08:23:42Z</time>
      </trkpt>
      <trkpt lat="44.03926" lon="1.87908">
        <ele>279.9</ele>
        <time>2017-04-23T08:23:44Z</time>
      </trkpt>
      <trkpt lat="44.03922" lon="1.87899">
        <ele>280.3</ele>
        <time>2017-04-23T08:23:46Z</time>
      </trkpt>
      <trkpt lat="44.03918" lon="1.87888">
        <ele>280.7</ele>
        <time>2017-04-23T08:23:48Z</time>
      </trkpt>
      <trkpt lat="44.03914" lon="1.87879">
        <ele>280.8</ele>
        <time>2017-04-23T08:23:50Z</time>
      </trkpt>
      <trkpt lat="44.0391" lon="1.87866">
        <ele>280.6</ele>
        <time>2017-04-23T08:23:53Z</time>
      </trkpt>
      <trkpt lat="44.03906" lon="1.87857">
        <ele>281.2</ele>
        <time>2017-04-23T08:23:55Z</time>
      </trkpt>
      <trkpt lat="44.03902" lon="1.87844">
        <ele>281.7</ele>
        <time>2017-04-23T08:23:58Z</time>
      </trkpt>
      <trkpt lat="44.03899" lon="1.87833">
        <ele>282.5</ele>
        <time>2017-04-23T08:24:01Z</time>
      </trkpt>
      <trkpt lat="44.03895" lon="1.87823">
        <ele>282.3</ele>
        <time>2017-04-23T08:24:04Z</time>
      </trkpt>
      <trkpt lat="44.03891" lon="1.87812">
        <ele>281.2</ele>
        <time>2017-04-23T08:24:07Z</time>
      </trkpt>
      <trkpt lat="44.03889" lon="1.87802">
        <ele>280.9</ele>
        <time>2017-04-23T08:24:10Z</time>
      </trkpt>
      <trkpt lat="44.03883" lon="1.87791">
        <ele>281</ele>
        <time>2017-04-23T08:24:13Z</time>
      </trkpt>
      <trkpt lat="44.03879" lon="1.87782">
        <ele>281</ele>
        <time>2017-04-23T08:24:16Z</time>
      </trkpt>
      <trkpt lat="44.03877" lon="1.87772">
        <ele>281</ele>
        <time>2017-04-23T08:24:19Z</time>
      </trkpt>
      <trkpt lat="44.03874" lon="1.87762">
        <ele>280.8</ele>
        <time>2017-04-23T08:24:22Z</time>
      </trkpt>
      <trkpt lat="44.0387" lon="1.87752">
        <ele>282.1</ele>
        <time>2017-04-23T08:24:26Z</time>
      </trkpt>
      <trkpt lat="44.03868" lon="1.87739">
        <ele>284</ele>
        <time>2017-04-23T08:24:30Z</time>
      </trkpt>
      <trkpt lat="44.03865" lon="1.8773">
        <ele>284.7</ele>
        <time>2017-04-23T08:24:33Z</time>
      </trkpt>
      <trkpt lat="44.03862" lon="1.87718">
        <ele>286.3</ele>
        <time>2017-04-23T08:24:37Z</time>
      </trkpt>
      <trkpt lat="44.03858" lon="1.87707">
        <ele>287.3</ele>
        <time>2017-04-23T08:24:41Z</time>
      </trkpt>
      <trkpt lat="44.03854" lon="1.87696">
        <ele>288.1</ele>
        <time>2017-04-23T08:24:45Z</time>
      </trkpt>
      <trkpt lat="44.03851" lon="1.87685">
        <ele>289.1</ele>
        <time>2017-04-23T08:24:48Z</time>
      </trkpt>
      <trkpt lat="44.03846" lon="1.87676">
        <ele>290.1</ele>
        <time>2017-04-23T08:24:51Z</time>
      </trkpt>
      <trkpt lat="44.03842" lon="1.87665">
        <ele>287.8</ele>
        <time>2017-04-23T08:24:54Z</time>
      </trkpt>
      <trkpt lat="44.03839" lon="1.87656">
        <ele>286.7</ele>
        <time>2017-04-23T08:24:56Z</time>
      </trkpt>
      <trkpt lat="44.03836" lon="1.87644">
        <ele>286.3</ele>
        <time>2017-04-23T08:24:58Z</time>
      </trkpt>
      <trkpt lat="44.03832" lon="1.87634">
        <ele>286.3</ele>
        <time>2017-04-23T08:25:00Z</time>
      </trkpt>
      <trkpt lat="44.03829" lon="1.87623">
        <ele>286.1</ele>
        <time>2017-04-23T08:25:02Z</time>
      </trkpt>
      <trkpt lat="44.03825" lon="1.87613">
        <ele>285.8</ele>
        <time>2017-04-23T08:25:04Z</time>
      </trkpt>
      <trkpt lat="44.03822" lon="1.87602">
        <ele>285.5</ele>
        <time>2017-04-23T08:25:06Z</time>
      </trkpt>
      <trkpt lat="44.03819" lon="1.87591">
        <ele>285.1</ele>
        <time>2017-04-23T08:25:08Z</time>
      </trkpt>
      <trkpt lat="44.03815" lon="1.8758">
        <ele>284.9</ele>
        <time>2017-04-23T08:25:10Z</time>
      </trkpt>
      <trkpt lat="44.03811" lon="1.87568">
        <ele>284.6</ele>
        <time>2017-04-23T08:25:12Z</time>
      </trkpt>
      <trkpt lat="44.03806" lon="1.87556">
        <ele>283.9</ele>
        <time>2017-04-23T08:25:14Z</time>
      </trkpt>
      <trkpt lat="44.038" lon="1.87544">
        <ele>283.3</ele>
        <time>2017-04-23T08:25:16Z</time>
      </trkpt>
      <trkpt lat="44.03795" lon="1.87531">
        <ele>282.6</ele>
        <time>2017-04-23T08:25:18Z</time>
      </trkpt>
      <trkpt lat="44.03789" lon="1.87518">
        <ele>282.3</ele>
        <time>2017-04-23T08:25:20Z</time>
      </trkpt>
      <trkpt lat="44.03782" lon="1.87505">
        <ele>282.6</ele>
        <time>2017-04-23T08:25:22Z</time>
      </trkpt>
      <trkpt lat="44.03776" lon="1.87492">
        <ele>282.5</ele>
        <time>2017-04-23T08:25:24Z</time>
      </trkpt>
      <trkpt lat="44.0377" lon="1.87481">
        <ele>282.9</ele>
        <time>2017-04-23T08:25:26Z</time>
      </trkpt>
      <trkpt lat="44.03764" lon="1.87469">
        <ele>283.3</ele>
        <time>2017-04-23T08:25:28Z</time>
      </trkpt>
      <trkpt lat="44.03758" lon="1.87457">
        <ele>283.5</ele>
        <time>2017-04-23T08:25:30Z</time>
      </trkpt>
      <trkpt lat="44.03753" lon="1.87445">
        <ele>282.8</ele>
        <time>2017-04-23T08:25:32Z</time>
      </trkpt>
      <trkpt lat="44.03747" lon="1.87431">
        <ele>282.9</ele>
        <time>2017-04-23T08:25:34Z</time>
      </trkpt>
      <trkpt lat="44.03741" lon="1.87418">
        <ele>282.6</ele>
        <time>2017-04-23T08:25:36Z</time>
      </trkpt>
      <trkpt lat="44.03734" lon="1.87405">
        <ele>282.4</ele>
        <time>2017-04-23T08:25:38Z</time>
      </trkpt>
      <trkpt lat="44.03727" lon="1.87393">
        <ele>282.4</ele>
        <time>2017-04-23T08:25:40Z</time>
      </trkpt>
      <trkpt lat="44.03719" lon="1.87381">
        <ele>282.4</ele>
        <time>2017-04-23T08:25:42Z</time>
      </trkpt>
      <trkpt lat="44.03712" lon="1.87368">
        <ele>281.6</ele>
        <time>2017-04-23T08:25:44Z</time>
      </trkpt>
      <trkpt lat="44.03703" lon="1.87355">
        <ele>281.4</ele>
        <time>2017-04-23T08:25:46Z</time>
      </trkpt>
      <trkpt lat="44.03695" lon="1.87343">
        <ele>281.1</ele>
        <time>2017-04-23T08:25:48Z</time>
      </trkpt>
      <trkpt lat="44.03687" lon="1.8733">
        <ele>280.4</ele>
        <time>2017-04-23T08:25:50Z</time>
      </trkpt>
      <trkpt lat="44.03679" lon="1.87318">
        <ele>279.9</ele>
        <time>2017-04-23T08:25:52Z</time>
      </trkpt>
      <trkpt lat="44.03671" lon="1.87306">
        <ele>279.5</ele>
        <time>2017-04-23T08:25:54Z</time>
      </trkpt>
      <trkpt lat="44.03664" lon="1.87294">
        <ele>278.7</ele>
        <time>2017-04-23T08:25:56Z</time>
      </trkpt>
      <trkpt lat="44.03658" lon="1.8728">
        <ele>277.8</ele>
        <time>2017-04-23T08:25:58Z</time>
      </trkpt>
      <trkpt lat="44.03653" lon="1.87267">
        <ele>277.6</ele>
        <time>2017-04-23T08:26:00Z</time>
      </trkpt>
      <trkpt lat="44.03648" lon="1.87255">
        <ele>277.9</ele>
        <time>2017-04-23T08:26:02Z</time>
      </trkpt>
      <trkpt lat="44.03645" lon="1.87245">
        <ele>277.9</ele>
        <time>2017-04-23T08:26:04Z</time>
      </trkpt>
      <trkpt lat="44.03641" lon="1.87235">
        <ele>278.5</ele>
        <time>2017-04-23T08:26:06Z</time>
      </trkpt>
      <trkpt lat="44.03636" lon="1.87224">
        <ele>278.8</ele>
        <time>2017-04-23T08:26:08Z</time>
      </trkpt>
      <trkpt lat="44.0363" lon="1.87214">
        <ele>279.2</ele>
        <time>2017-04-23T08:26:10Z</time>
      </trkpt>
      <trkpt lat="44.03624" lon="1.87205">
        <ele>280.5</ele>
        <time>2017-04-23T08:26:12Z</time>
      </trkpt>
      <trkpt lat="44.03618" lon="1.87197">
        <ele>280.9</ele>
        <time>2017-04-23T08:26:14Z</time>
      </trkpt>
      <trkpt lat="44.03611" lon="1.87189">
        <ele>280.9</ele>
        <time>2017-04-23T08:26:16Z</time>
      </trkpt>
      <trkpt lat="44.03606" lon="1.87179">
        <ele>281</ele>
        <time>2017-04-23T08:26:18Z</time>
      </trkpt>
      <trkpt lat="44.03601" lon="1.87169">
        <ele>280.7</ele>
        <time>2017-04-23T08:26:20Z</time>
      </trkpt>
      <trkpt lat="44.03595" lon="1.87161">
        <ele>280.5</ele>
        <time>2017-04-23T08:26:22Z</time>
      </trkpt>
      <trkpt lat="44.03589" lon="1.87152">
        <ele>280.2</ele>
        <time>2017-04-23T08:26:24Z</time>
      </trkpt>
      <trkpt lat="44.03584" lon="1.87145">
        <ele>280</ele>
        <time>2017-04-23T08:26:26Z</time>
      </trkpt>
      <trkpt lat="44.03576" lon="1.87137">
        <ele>279.7</ele>
        <time>2017-04-23T08:26:29Z</time>
      </trkpt>
      <trkpt lat="44.03571" lon="1.87129">
        <ele>279.6</ele>
        <time>2017-04-23T08:26:32Z</time>
      </trkpt>
      <trkpt lat="44.03577" lon="1.87121">
        <ele>279.2</ele>
        <time>2017-04-23T08:26:36Z</time>
      </trkpt>
      <trkpt lat="44.03578" lon="1.87109">
        <ele>279.5</ele>
        <time>2017-04-23T08:26:40Z</time>
      </trkpt>
      <trkpt lat="44.03575" lon="1.87099">
        <ele>279.1</ele>
        <time>2017-04-23T08:26:43Z</time>
      </trkpt>
      <trkpt lat="44.03572" lon="1.87086">
        <ele>278.7</ele>
        <time>2017-04-23T08:26:46Z</time>
      </trkpt>
      <trkpt lat="44.03568" lon="1.87075">
        <ele>278.8</ele>
        <time>2017-04-23T08:26:48Z</time>
      </trkpt>
      <trkpt lat="44.03563" lon="1.87066">
        <ele>279.1</ele>
        <time>2017-04-23T08:26:50Z</time>
      </trkpt>
      <trkpt lat="44.03558" lon="1.87056">
        <ele>278.8</ele>
        <time>2017-04-23T08:26:52Z</time>
      </trkpt>
      <trkpt lat="44.03553" lon="1.87045">
        <ele>278.4</ele>
        <time>2017-04-23T08:26:54Z</time>
      </trkpt>
      <trkpt lat="44.03549" lon="1.87034">
        <ele>278.1</ele>
        <time>2017-04-23T08:26:56Z</time>
      </trkpt>
      <trkpt lat="44.03547" lon="1.87024">
        <ele>277.2</ele>
        <time>2017-04-23T08:26:58Z</time>
      </trkpt>
      <trkpt lat="44.03549" lon="1.87012">
        <ele>277.1</ele>
        <time>2017-04-23T08:27:00Z</time>
      </trkpt>
      <trkpt lat="44.03555" lon="1.87002">
        <ele>276.7</ele>
        <time>2017-04-23T08:27:02Z</time>
      </trkpt>
      <trkpt lat="44.03561" lon="1.86992">
        <ele>276.9</ele>
        <time>2017-04-23T08:27:04Z</time>
      </trkpt>
      <trkpt lat="44.03565" lon="1.86984">
        <ele>277.8</ele>
        <time>2017-04-23T08:27:06Z</time>
      </trkpt>
      <trkpt lat="44.03571" lon="1.86971">
        <ele>278.5</ele>
        <time>2017-04-23T08:27:09Z</time>
      </trkpt>
      <trkpt lat="44.03576" lon="1.86964">
        <ele>278.7</ele>
        <time>2017-04-23T08:27:11Z</time>
      </trkpt>
      <trkpt lat="44.03582" lon="1.86955">
        <ele>278.9</ele>
        <time>2017-04-23T08:27:13Z</time>
      </trkpt>
      <trkpt lat="44.03588" lon="1.86948">
        <ele>278.9</ele>
        <time>2017-04-23T08:27:15Z</time>
      </trkpt>
      <trkpt lat="44.03594" lon="1.86939">
        <ele>278.8</ele>
        <time>2017-04-23T08:27:17Z</time>
      </trkpt>
      <trkpt lat="44.036" lon="1.86927">
        <ele>278.7</ele>
        <time>2017-04-23T08:27:18Z</time>
      </trkpt>
      <trkpt lat="44.03603" lon="1.86914">
        <ele>278.9</ele>
        <time>2017-04-23T08:27:20Z</time>
      </trkpt>
      <trkpt lat="44.03602" lon="1.86898">
        <ele>279.2</ele>
        <time>2017-04-23T08:27:22Z</time>
      </trkpt>
      <trkpt lat="44.03598" lon="1.86886">
        <ele>279.2</ele>
        <time>2017-04-23T08:27:24Z</time>
      </trkpt>
      <trkpt lat="44.03599" lon="1.86875">
        <ele>278.5</ele>
        <time>2017-04-23T08:27:27Z</time>
      </trkpt>
      <trkpt lat="44.03604" lon="1.86866">
        <ele>278.5</ele>
        <time>2017-04-23T08:27:29Z</time>
      </trkpt>
      <trkpt lat="44.03609" lon="1.86857">
        <ele>278.7</ele>
        <time>2017-04-23T08:27:31Z</time>
      </trkpt>
      <trkpt lat="44.03614" lon="1.86849">
        <ele>278.5</ele>
        <time>2017-04-23T08:27:33Z</time>
      </trkpt>
      <trkpt lat="44.03619" lon="1.8684">
        <ele>278.2</ele>
        <time>2017-04-23T08:27:35Z</time>
      </trkpt>
      <trkpt lat="44.03624" lon="1.8683">
        <ele>278.1</ele>
        <time>2017-04-23T08:27:37Z</time>
      </trkpt>
      <trkpt lat="44.03629" lon="1.86822">
        <ele>278</ele>
        <time>2017-04-23T08:27:39Z</time>
      </trkpt>
      <trkpt lat="44.03633" lon="1.86812">
        <ele>278</ele>
        <time>2017-04-23T08:27:41Z</time>
      </trkpt>
      <trkpt lat="44.03639" lon="1.868">
        <ele>277.8</ele>
        <time>2017-04-23T08:27:44Z</time>
      </trkpt>
      <trkpt lat="44.03643" lon="1.86792">
        <ele>278</ele>
        <time>2017-04-23T08:27:46Z</time>
      </trkpt>
      <trkpt lat="44.03647" lon="1.86782">
        <ele>278.2</ele>
        <time>2017-04-23T08:27:48Z</time>
      </trkpt>
      <trkpt lat="44.0365" lon="1.8677">
        <ele>278.5</ele>
        <time>2017-04-23T08:27:50Z</time>
      </trkpt>
      <trkpt lat="44.03654" lon="1.86758">
        <ele>278.9</ele>
        <time>2017-04-23T08:27:53Z</time>
      </trkpt>
      <trkpt lat="44.03658" lon="1.86749">
        <ele>279.4</ele>
        <time>2017-04-23T08:27:55Z</time>
      </trkpt>
      <trkpt lat="44.03663" lon="1.86739">
        <ele>279.8</ele>
        <time>2017-04-23T08:27:57Z</time>
      </trkpt>
      <trkpt lat="44.03669" lon="1.8673">
        <ele>280</ele>
        <time>2017-04-23T08:27:59Z</time>
      </trkpt>
      <trkpt lat="44.03674" lon="1.86721">
        <ele>280.2</ele>
        <time>2017-04-23T08:28:01Z</time>
      </trkpt>
      <trkpt lat="44.03682" lon="1.86714">
        <ele>280.3</ele>
        <time>2017-04-23T08:28:04Z</time>
      </trkpt>
      <trkpt lat="44.03684" lon="1.86703">
        <ele>280.6</ele>
        <time>2017-04-23T08:28:06Z</time>
      </trkpt>
      <trkpt lat="44.03683" lon="1.86689">
        <ele>280.2</ele>
        <time>2017-04-23T08:28:09Z</time>
      </trkpt>
      <trkpt lat="44.03677" lon="1.86682">
        <ele>280</ele>
        <time>2017-04-23T08:28:11Z</time>
      </trkpt>
      <trkpt lat="44.0367" lon="1.86674">
        <ele>279.9</ele>
        <time>2017-04-23T08:28:14Z</time>
      </trkpt>
      <trkpt lat="44.03665" lon="1.86668">
        <ele>279.7</ele>
        <time>2017-04-23T08:28:17Z</time>
      </trkpt>
      <trkpt lat="44.03658" lon="1.86661">
        <ele>279.7</ele>
        <time>2017-04-23T08:28:20Z</time>
      </trkpt>
      <trkpt lat="44.03651" lon="1.86654">
        <ele>279.8</ele>
        <time>2017-04-23T08:28:23Z</time>
      </trkpt>
      <trkpt lat="44.03646" lon="1.86647">
        <ele>279.7</ele>
        <time>2017-04-23T08:28:26Z</time>
      </trkpt>
      <trkpt lat="44.0364" lon="1.86639">
        <ele>279.8</ele>
        <time>2017-04-23T08:28:29Z</time>
      </trkpt>
      <trkpt lat="44.03634" lon="1.86632">
        <ele>279.9</ele>
        <time>2017-04-23T08:28:32Z</time>
      </trkpt>
      <trkpt lat="44.03627" lon="1.86623">
        <ele>280</ele>
        <time>2017-04-23T08:28:36Z</time>
      </trkpt>
      <trkpt lat="44.03621" lon="1.86617">
        <ele>280.4</ele>
        <time>2017-04-23T08:28:39Z</time>
      </trkpt>
      <trkpt lat="44.03615" lon="1.86611">
        <ele>280.7</ele>
        <time>2017-04-23T08:28:42Z</time>
      </trkpt>
      <trkpt lat="44.0361" lon="1.86602">
        <ele>281.3</ele>
        <time>2017-04-23T08:28:45Z</time>
      </trkpt>
      <trkpt lat="44.03605" lon="1.86594">
        <ele>282</ele>
        <time>2017-04-23T08:28:48Z</time>
      </trkpt>
      <trkpt lat="44.03599" lon="1.86585">
        <ele>282.8</ele>
        <time>2017-04-23T08:28:51Z</time>
      </trkpt>
      <trkpt lat="44.03596" lon="1.86575">
        <ele>283.9</ele>
        <time>2017-04-23T08:28:54Z</time>
      </trkpt>
      <trkpt lat="44.03596" lon="1.86564">
        <ele>285.4</ele>
        <time>2017-04-23T08:28:57Z</time>
      </trkpt>
      <trkpt lat="44.03596" lon="1.86554">
        <ele>286.8</ele>
        <time>2017-04-23T08:29:00Z</time>
      </trkpt>
      <trkpt lat="44.03595" lon="1.86542">
        <ele>287.7</ele>
        <time>2017-04-23T08:29:03Z</time>
      </trkpt>
      <trkpt lat="44.03594" lon="1.86531">
        <ele>288.4</ele>
        <time>2017-04-23T08:29:06Z</time>
      </trkpt>
      <trkpt lat="44.03593" lon="1.8652">
        <ele>289.2</ele>
        <time>2017-04-23T08:29:09Z</time>
      </trkpt>
      <trkpt lat="44.03589" lon="1.86509">
        <ele>289.6</ele>
        <time>2017-04-23T08:29:12Z</time>
      </trkpt>
      <trkpt lat="44.03583" lon="1.86499">
        <ele>290.5</ele>
        <time>2017-04-23T08:29:15Z</time>
      </trkpt>
      <trkpt lat="44.03575" lon="1.86491">
        <ele>291.2</ele>
        <time>2017-04-23T08:29:18Z</time>
      </trkpt>
      <trkpt lat="44.03566" lon="1.8649">
        <ele>292</ele>
        <time>2017-04-23T08:29:21Z</time>
      </trkpt>
      <trkpt lat="44.03556" lon="1.86491">
        <ele>292.5</ele>
        <time>2017-04-23T08:29:24Z</time>
      </trkpt>
      <trkpt lat="44.03546" lon="1.86495">
        <ele>293.4</ele>
        <time>2017-04-23T08:29:27Z</time>
      </trkpt>
      <trkpt lat="44.03538" lon="1.86494">
        <ele>294.1</ele>
        <time>2017-04-23T08:29:31Z</time>
      </trkpt>
      <trkpt lat="44.03531" lon="1.86496">
        <ele>294.6</ele>
        <time>2017-04-23T08:29:33Z</time>
      </trkpt>
      <trkpt lat="44.03523" lon="1.86495">
        <ele>294.8</ele>
        <time>2017-04-23T08:29:35Z</time>
      </trkpt>
      <trkpt lat="44.03517" lon="1.86488">
        <ele>294.9</ele>
        <time>2017-04-23T08:29:37Z</time>
      </trkpt>
      <trkpt lat="44.0351" lon="1.8648">
        <ele>294.7</ele>
        <time>2017-04-23T08:29:39Z</time>
      </trkpt>
      <trkpt lat="44.03504" lon="1.86471">
        <ele>294.5</ele>
        <time>2017-04-23T08:29:41Z</time>
      </trkpt>
      <trkpt lat="44.03497" lon="1.86463">
        <ele>294.4</ele>
        <time>2017-04-23T08:29:43Z</time>
      </trkpt>
      <trkpt lat="44.0349" lon="1.86452">
        <ele>294.3</ele>
        <time>2017-04-23T08:29:45Z</time>
      </trkpt>
      <trkpt lat="44.03483" lon="1.86441">
        <ele>294.8</ele>
        <time>2017-04-23T08:29:47Z</time>
      </trkpt>
      <trkpt lat="44.03475" lon="1.86431">
        <ele>294.8</ele>
        <time>2017-04-23T08:29:49Z</time>
      </trkpt>
      <trkpt lat="44.03466" lon="1.86424">
        <ele>294.8</ele>
        <time>2017-04-23T08:29:51Z</time>
      </trkpt>
      <trkpt lat="44.03458" lon="1.86421">
        <ele>294.5</ele>
        <time>2017-04-23T08:29:53Z</time>
      </trkpt>
      <trkpt lat="44.03451" lon="1.86415">
        <ele>294.7</ele>
        <time>2017-04-23T08:29:55Z</time>
      </trkpt>
      <trkpt lat="44.03449" lon="1.86402">
        <ele>295</ele>
        <time>2017-04-23T08:29:58Z</time>
      </trkpt>
      <trkpt lat="44.03445" lon="1.8639">
        <ele>294.6</ele>
        <time>2017-04-23T08:30:01Z</time>
      </trkpt>
      <trkpt lat="44.03442" lon="1.8638">
        <ele>294.1</ele>
        <time>2017-04-23T08:30:03Z</time>
      </trkpt>
      <trkpt lat="44.03439" lon="1.8637">
        <ele>293.7</ele>
        <time>2017-04-23T08:30:05Z</time>
      </trkpt>
      <trkpt lat="44.03433" lon="1.86361">
        <ele>293.6</ele>
        <time>2017-04-23T08:30:07Z</time>
      </trkpt>
      <trkpt lat="44.03426" lon="1.86353">
        <ele>293.5</ele>
        <time>2017-04-23T08:30:09Z</time>
      </trkpt>
      <trkpt lat="44.03417" lon="1.86348">
        <ele>293.4</ele>
        <time>2017-04-23T08:30:11Z</time>
      </trkpt>
      <trkpt lat="44.03408" lon="1.86345">
        <ele>293.1</ele>
        <time>2017-04-23T08:30:13Z</time>
      </trkpt>
      <trkpt lat="44.03398" lon="1.86343">
        <ele>292.7</ele>
        <time>2017-04-23T08:30:15Z</time>
      </trkpt>
      <trkpt lat="44.03388" lon="1.8634">
        <ele>292.1</ele>
        <time>2017-04-23T08:30:18Z</time>
      </trkpt>
      <trkpt lat="44.03377" lon="1.86339">
        <ele>291.6</ele>
        <time>2017-04-23T08:30:21Z</time>
      </trkpt>
      <trkpt lat="44.03365" lon="1.86342">
        <ele>291</ele>
        <time>2017-04-23T08:30:23Z</time>
      </trkpt>
      <trkpt lat="44.03352" lon="1.86348">
        <ele>290.3</ele>
        <time>2017-04-23T08:30:25Z</time>
      </trkpt>
      <trkpt lat="44.0334" lon="1.86356">
        <ele>289.4</ele>
        <time>2017-04-23T08:30:27Z</time>
      </trkpt>
      <trkpt lat="44.03329" lon="1.86361">
        <ele>288.8</ele>
        <time>2017-04-23T08:30:29Z</time>
      </trkpt>
      <trkpt lat="44.03319" lon="1.86363">
        <ele>288.1</ele>
        <time>2017-04-23T08:30:31Z</time>
      </trkpt>
      <trkpt lat="44.03311" lon="1.86361">
        <ele>286.6</ele>
        <time>2017-04-23T08:30:34Z</time>
      </trkpt>
      <trkpt lat="44.03312" lon="1.86348">
        <ele>285.4</ele>
        <time>2017-04-23T08:30:37Z</time>
      </trkpt>
      <trkpt lat="44.03315" lon="1.86336">
        <ele>284.8</ele>
        <time>2017-04-23T08:30:39Z</time>
      </trkpt>
      <trkpt lat="44.03316" lon="1.86325">
        <ele>283.9</ele>
        <time>2017-04-23T08:30:41Z</time>
      </trkpt>
      <trkpt lat="44.03321" lon="1.86313">
        <ele>283.2</ele>
        <time>2017-04-23T08:30:43Z</time>
      </trkpt>
      <trkpt lat="44.03325" lon="1.86302">
        <ele>282.2</ele>
        <time>2017-04-23T08:30:45Z</time>
      </trkpt>
      <trkpt lat="44.03331" lon="1.86291">
        <ele>280.9</ele>
        <time>2017-04-23T08:30:47Z</time>
      </trkpt>
      <trkpt lat="44.03337" lon="1.86281">
        <ele>279.7</ele>
        <time>2017-04-23T08:30:49Z</time>
      </trkpt>
      <trkpt lat="44.03342" lon="1.8627">
        <ele>278.8</ele>
        <time>2017-04-23T08:30:51Z</time>
      </trkpt>
      <trkpt lat="44.03346" lon="1.86259">
        <ele>277.7</ele>
        <time>2017-04-23T08:30:53Z</time>
      </trkpt>
      <trkpt lat="44.03349" lon="1.86248">
        <ele>276.6</ele>
        <time>2017-04-23T08:30:55Z</time>
      </trkpt>
      <trkpt lat="44.03355" lon="1.86236">
        <ele>274.9</ele>
        <time>2017-04-23T08:30:58Z</time>
      </trkpt>
      <trkpt lat="44.0336" lon="1.86225">
        <ele>273.2</ele>
        <time>2017-04-23T08:31:00Z</time>
      </trkpt>
      <trkpt lat="44.03365" lon="1.86214">
        <ele>271.9</ele>
        <time>2017-04-23T08:31:02Z</time>
      </trkpt>
      <trkpt lat="44.03369" lon="1.86202">
        <ele>270.3</ele>
        <time>2017-04-23T08:31:04Z</time>
      </trkpt>
      <trkpt lat="44.03374" lon="1.86189">
        <ele>268.7</ele>
        <time>2017-04-23T08:31:06Z</time>
      </trkpt>
      <trkpt lat="44.0338" lon="1.86173">
        <ele>267.1</ele>
        <time>2017-04-23T08:31:08Z</time>
      </trkpt>
      <trkpt lat="44.03385" lon="1.86158">
        <ele>265.1</ele>
        <time>2017-04-23T08:31:10Z</time>
      </trkpt>
      <trkpt lat="44.03389" lon="1.8614">
        <ele>262.6</ele>
        <time>2017-04-23T08:31:12Z</time>
      </trkpt>
      <trkpt lat="44.03392" lon="1.86124">
        <ele>260.1</ele>
        <time>2017-04-23T08:31:14Z</time>
      </trkpt>
      <trkpt lat="44.03395" lon="1.86109">
        <ele>257.7</ele>
        <time>2017-04-23T08:31:16Z</time>
      </trkpt>
      <trkpt lat="44.03399" lon="1.86095">
        <ele>254.6</ele>
        <time>2017-04-23T08:31:18Z</time>
      </trkpt>
      <trkpt lat="44.03404" lon="1.86081">
        <ele>252.6</ele>
        <time>2017-04-23T08:31:20Z</time>
      </trkpt>
      <trkpt lat="44.03412" lon="1.86068">
        <ele>250.8</ele>
        <time>2017-04-23T08:31:22Z</time>
      </trkpt>
      <trkpt lat="44.03422" lon="1.86056">
        <ele>248.7</ele>
        <time>2017-04-23T08:31:24Z</time>
      </trkpt>
      <trkpt lat="44.03433" lon="1.86044">
        <ele>246.7</ele>
        <time>2017-04-23T08:31:26Z</time>
      </trkpt>
      <trkpt lat="44.03439" lon="1.86036">
        <ele>245.8</ele>
        <time>2017-04-23T08:31:27Z</time>
      </trkpt>
      <trkpt lat="44.03444" lon="1.86029">
        <ele>244.7</ele>
        <time>2017-04-23T08:31:28Z</time>
      </trkpt>
      <trkpt lat="44.0345" lon="1.8602">
        <ele>243.8</ele>
        <time>2017-04-23T08:31:29Z</time>
      </trkpt>
      <trkpt lat="44.03454" lon="1.86011">
        <ele>242.9</ele>
        <time>2017-04-23T08:31:30Z</time>
      </trkpt>
      <trkpt lat="44.03461" lon="1.85995">
        <ele>241.2</ele>
        <time>2017-04-23T08:31:32Z</time>
      </trkpt>
      <trkpt lat="44.03466" lon="1.85999">
        <ele>236.1</ele>
        <time>2017-04-23T08:31:39Z</time>
      </trkpt>
      <trkpt lat="44.03465" lon="1.8601">
        <ele>234.2</ele>
        <time>2017-04-23T08:31:42Z</time>
      </trkpt>
      <trkpt lat="44.03465" lon="1.86022">
        <ele>232.1</ele>
        <time>2017-04-23T08:31:45Z</time>
      </trkpt>
      <trkpt lat="44.03462" lon="1.86035">
        <ele>229.8</ele>
        <time>2017-04-23T08:31:48Z</time>
      </trkpt>
      <trkpt lat="44.03465" lon="1.86044">
        <ele>227.5</ele>
        <time>2017-04-23T08:31:51Z</time>
      </trkpt>
      <trkpt lat="44.03468" lon="1.86054">
        <ele>225</ele>
        <time>2017-04-23T08:31:55Z</time>
      </trkpt>
      <trkpt lat="44.03475" lon="1.86062">
        <ele>224</ele>
        <time>2017-04-23T08:31:58Z</time>
      </trkpt>
      <trkpt lat="44.03482" lon="1.86069">
        <ele>223.6</ele>
        <time>2017-04-23T08:32:01Z</time>
      </trkpt>
      <trkpt lat="44.0349" lon="1.86074">
        <ele>223.4</ele>
        <time>2017-04-23T08:32:04Z</time>
      </trkpt>
      <trkpt lat="44.03497" lon="1.86079">
        <ele>222.8</ele>
        <time>2017-04-23T08:32:07Z</time>
      </trkpt>
      <trkpt lat="44.03505" lon="1.86084">
        <ele>222.5</ele>
        <time>2017-04-23T08:32:10Z</time>
      </trkpt>
      <trkpt lat="44.03512" lon="1.86087">
        <ele>222.6</ele>
        <time>2017-04-23T08:32:12Z</time>
      </trkpt>
      <trkpt lat="44.03522" lon="1.86091">
        <ele>222.4</ele>
        <time>2017-04-23T08:32:15Z</time>
      </trkpt>
      <trkpt lat="44.0353" lon="1.86095">
        <ele>222.2</ele>
        <time>2017-04-23T08:32:18Z</time>
      </trkpt>
      <trkpt lat="44.03539" lon="1.86097">
        <ele>221.8</ele>
        <time>2017-04-23T08:32:21Z</time>
      </trkpt>
      <trkpt lat="44.03546" lon="1.861">
        <ele>221.4</ele>
        <time>2017-04-23T08:32:24Z</time>
      </trkpt>
      <trkpt lat="44.03554" lon="1.86101">
        <ele>220.1</ele>
        <time>2017-04-23T08:32:29Z</time>
      </trkpt>
      <trkpt lat="44.03562" lon="1.86102">
        <ele>219.4</ele>
        <time>2017-04-23T08:32:32Z</time>
      </trkpt>
      <trkpt lat="44.03571" lon="1.86104">
        <ele>218.4</ele>
        <time>2017-04-23T08:32:36Z</time>
      </trkpt>
      <trkpt lat="44.0358" lon="1.86105">
        <ele>217.6</ele>
        <time>2017-04-23T08:32:39Z</time>
      </trkpt>
      <trkpt lat="44.03587" lon="1.86106">
        <ele>216.9</ele>
        <time>2017-04-23T08:32:43Z</time>
      </trkpt>
      <trkpt lat="44.03594" lon="1.86105">
        <ele>216.6</ele>
        <time>2017-04-23T08:32:46Z</time>
      </trkpt>
      <trkpt lat="44.03602" lon="1.86107">
        <ele>216.2</ele>
        <time>2017-04-23T08:32:51Z</time>
      </trkpt>
      <trkpt lat="44.03606" lon="1.86108">
        <ele>217.6</ele>
        <time>2017-04-23T08:32:58Z</time>
      </trkpt>
      <trkpt lat="44.03615" lon="1.86111">
        <ele>219.6</ele>
        <time>2017-04-23T08:33:07Z</time>
      </trkpt>
      <trkpt lat="44.03617" lon="1.86112">
        <ele>219.2</ele>
        <time>2017-04-23T08:33:14Z</time>
      </trkpt>
      <trkpt lat="44.03617" lon="1.861">
        <ele>219.1</ele>
        <time>2017-04-23T08:33:30Z</time>
      </trkpt>
      <trkpt lat="44.03624" lon="1.86101">
        <ele>219.6</ele>
        <time>2017-04-23T08:33:35Z</time>
      </trkpt>
      <trkpt lat="44.03633" lon="1.86102">
        <ele>220.1</ele>
        <time>2017-04-23T08:33:39Z</time>
      </trkpt>
      <trkpt lat="44.03641" lon="1.86108">
        <ele>220.4</ele>
        <time>2017-04-23T08:33:43Z</time>
      </trkpt>
      <trkpt lat="44.0365" lon="1.8611">
        <ele>220.6</ele>
        <time>2017-04-23T08:33:46Z</time>
      </trkpt>
      <trkpt lat="44.03658" lon="1.8611">
        <ele>220.8</ele>
        <time>2017-04-23T08:33:49Z</time>
      </trkpt>
      <trkpt lat="44.03666" lon="1.86111">
        <ele>221.2</ele>
        <time>2017-04-23T08:33:52Z</time>
      </trkpt>
      <trkpt lat="44.03674" lon="1.86115">
        <ele>221.3</ele>
        <time>2017-04-23T08:33:55Z</time>
      </trkpt>
      <trkpt lat="44.03684" lon="1.86118">
        <ele>220.7</ele>
        <time>2017-04-23T08:33:58Z</time>
      </trkpt>
      <trkpt lat="44.03693" lon="1.86121">
        <ele>220.5</ele>
        <time>2017-04-23T08:34:01Z</time>
      </trkpt>
      <trkpt lat="44.03702" lon="1.86124">
        <ele>219.9</ele>
        <time>2017-04-23T08:34:04Z</time>
      </trkpt>
      <trkpt lat="44.0371" lon="1.86125">
        <ele>220.3</ele>
        <time>2017-04-23T08:34:06Z</time>
      </trkpt>
      <trkpt lat="44.03718" lon="1.86125">
        <ele>219.7</ele>
        <time>2017-04-23T08:34:08Z</time>
      </trkpt>
      <trkpt lat="44.03727" lon="1.86129">
        <ele>219.2</ele>
        <time>2017-04-23T08:34:11Z</time>
      </trkpt>
      <trkpt lat="44.03737" lon="1.86131">
        <ele>218.9</ele>
        <time>2017-04-23T08:34:14Z</time>
      </trkpt>
      <trkpt lat="44.03745" lon="1.86133">
        <ele>218.7</ele>
        <time>2017-04-23T08:34:17Z</time>
      </trkpt>
      <trkpt lat="44.03752" lon="1.86133">
        <ele>221</ele>
        <time>2017-04-23T08:34:19Z</time>
      </trkpt>
      <trkpt lat="44.03762" lon="1.86135">
        <ele>221.8</ele>
        <time>2017-04-23T08:34:22Z</time>
      </trkpt>
      <trkpt lat="44.0377" lon="1.86137">
        <ele>221.8</ele>
        <time>2017-04-23T08:34:25Z</time>
      </trkpt>
      <trkpt lat="44.0378" lon="1.86141">
        <ele>221.8</ele>
        <time>2017-04-23T08:34:28Z</time>
      </trkpt>
      <trkpt lat="44.03789" lon="1.86148">
        <ele>221.8</ele>
        <time>2017-04-23T08:34:31Z</time>
      </trkpt>
      <trkpt lat="44.03796" lon="1.86153">
        <ele>221.9</ele>
        <time>2017-04-23T08:34:34Z</time>
      </trkpt>
      <trkpt lat="44.03802" lon="1.8616">
        <ele>221.5</ele>
        <time>2017-04-23T08:34:37Z</time>
      </trkpt>
      <trkpt lat="44.0381" lon="1.86165">
        <ele>221.2</ele>
        <time>2017-04-23T08:34:40Z</time>
      </trkpt>
      <trkpt lat="44.03819" lon="1.86161">
        <ele>222.9</ele>
        <time>2017-04-23T08:34:43Z</time>
      </trkpt>
      <trkpt lat="44.0382" lon="1.86148">
        <ele>223.2</ele>
        <time>2017-04-23T08:34:47Z</time>
      </trkpt>
      <trkpt lat="44.03817" lon="1.86136">
        <ele>223.4</ele>
        <time>2017-04-23T08:34:50Z</time>
      </trkpt>
      <trkpt lat="44.03813" lon="1.86128">
        <ele>223.3</ele>
        <time>2017-04-23T08:34:52Z</time>
      </trkpt>
      <trkpt lat="44.03809" lon="1.86118">
        <ele>223.3</ele>
        <time>2017-04-23T08:34:54Z</time>
      </trkpt>
      <trkpt lat="44.03804" lon="1.86106">
        <ele>223.4</ele>
        <time>2017-04-23T08:34:56Z</time>
      </trkpt>
      <trkpt lat="44.03799" lon="1.86095">
        <ele>223.5</ele>
        <time>2017-04-23T08:34:58Z</time>
      </trkpt>
      <trkpt lat="44.03795" lon="1.86084">
        <ele>223.6</ele>
        <time>2017-04-23T08:35:00Z</time>
      </trkpt>
      <trkpt lat="44.03789" lon="1.86073">
        <ele>223.7</ele>
        <time>2017-04-23T08:35:02Z</time>
      </trkpt>
      <trkpt lat="44.03784" lon="1.86062">
        <ele>224</ele>
        <time>2017-04-23T08:35:04Z</time>
      </trkpt>
      <trkpt lat="44.03778" lon="1.8605">
        <ele>225.2</ele>
        <time>2017-04-23T08:35:06Z</time>
      </trkpt>
      <trkpt lat="44.03773" lon="1.86042">
        <ele>225.7</ele>
        <time>2017-04-23T08:35:08Z</time>
      </trkpt>
      <trkpt lat="44.03769" lon="1.86034">
        <ele>226.2</ele>
        <time>2017-04-23T08:35:10Z</time>
      </trkpt>
      <trkpt lat="44.03765" lon="1.86025">
        <ele>226.7</ele>
        <time>2017-04-23T08:35:12Z</time>
      </trkpt>
      <trkpt lat="44.03761" lon="1.86012">
        <ele>227</ele>
        <time>2017-04-23T08:35:15Z</time>
      </trkpt>
      <trkpt lat="44.03765" lon="1.86002">
        <ele>227</ele>
        <time>2017-04-23T08:35:18Z</time>
      </trkpt>
      <trkpt lat="44.03773" lon="1.86004">
        <ele>227.5</ele>
        <time>2017-04-23T08:35:22Z</time>
      </trkpt>
      <trkpt lat="44.03781" lon="1.8601">
        <ele>227.7</ele>
        <time>2017-04-23T08:35:25Z</time>
      </trkpt>
      <trkpt lat="44.03789" lon="1.86013">
        <ele>227.8</ele>
        <time>2017-04-23T08:35:28Z</time>
      </trkpt>
      <trkpt lat="44.03797" lon="1.86019">
        <ele>227.5</ele>
        <time>2017-04-23T08:35:31Z</time>
      </trkpt>
      <trkpt lat="44.03804" lon="1.86023">
        <ele>227.1</ele>
        <time>2017-04-23T08:35:34Z</time>
      </trkpt>
      <trkpt lat="44.03811" lon="1.86027">
        <ele>226.6</ele>
        <time>2017-04-23T08:35:37Z</time>
      </trkpt>
      <trkpt lat="44.03818" lon="1.86031">
        <ele>226</ele>
        <time>2017-04-23T08:35:40Z</time>
      </trkpt>
      <trkpt lat="44.03825" lon="1.86037">
        <ele>225.2</ele>
        <time>2017-04-23T08:35:44Z</time>
      </trkpt>
      <trkpt lat="44.03834" lon="1.86039">
        <ele>224.7</ele>
        <time>2017-04-23T08:35:47Z</time>
      </trkpt>
      <trkpt lat="44.03841" lon="1.86045">
        <ele>224.3</ele>
        <time>2017-04-23T08:35:50Z</time>
      </trkpt>
      <trkpt lat="44.03848" lon="1.86049">
        <ele>223.9</ele>
        <time>2017-04-23T08:35:53Z</time>
      </trkpt>
      <trkpt lat="44.03855" lon="1.86056">
        <ele>223.7</ele>
        <time>2017-04-23T08:35:57Z</time>
      </trkpt>
      <trkpt lat="44.03862" lon="1.86065">
        <ele>223.3</ele>
        <time>2017-04-23T08:36:01Z</time>
      </trkpt>
      <trkpt lat="44.03869" lon="1.8607">
        <ele>223.2</ele>
        <time>2017-04-23T08:36:03Z</time>
      </trkpt>
      <trkpt lat="44.03876" lon="1.86075">
        <ele>223.2</ele>
        <time>2017-04-23T08:36:05Z</time>
      </trkpt>
      <trkpt lat="44.03882" lon="1.86081">
        <ele>223</ele>
        <time>2017-04-23T08:36:07Z</time>
      </trkpt>
      <trkpt lat="44.03889" lon="1.86087">
        <ele>222.7</ele>
        <time>2017-04-23T08:36:09Z</time>
      </trkpt>
      <trkpt lat="44.03896" lon="1.86094">
        <ele>222.1</ele>
        <time>2017-04-23T08:36:11Z</time>
      </trkpt>
      <trkpt lat="44.03903" lon="1.861">
        <ele>221.9</ele>
        <time>2017-04-23T08:36:13Z</time>
      </trkpt>
      <trkpt lat="44.03912" lon="1.86106">
        <ele>222.4</ele>
        <time>2017-04-23T08:36:16Z</time>
      </trkpt>
      <trkpt lat="44.03922" lon="1.86111">
        <ele>223.1</ele>
        <time>2017-04-23T08:36:19Z</time>
      </trkpt>
      <trkpt lat="44.03931" lon="1.86116">
        <ele>224</ele>
        <time>2017-04-23T08:36:22Z</time>
      </trkpt>
      <trkpt lat="44.0394" lon="1.8612">
        <ele>224.5</ele>
        <time>2017-04-23T08:36:25Z</time>
      </trkpt>
      <trkpt lat="44.03949" lon="1.86126">
        <ele>224.2</ele>
        <time>2017-04-23T08:36:28Z</time>
      </trkpt>
      <trkpt lat="44.03955" lon="1.8613">
        <ele>223.8</ele>
        <time>2017-04-23T08:36:30Z</time>
      </trkpt>
      <trkpt lat="44.03962" lon="1.86134">
        <ele>223.5</ele>
        <time>2017-04-23T08:36:32Z</time>
      </trkpt>
      <trkpt lat="44.03969" lon="1.86136">
        <ele>223.2</ele>
        <time>2017-04-23T08:36:34Z</time>
      </trkpt>
      <trkpt lat="44.03979" lon="1.86139">
        <ele>222.6</ele>
        <time>2017-04-23T08:36:37Z</time>
      </trkpt>
      <trkpt lat="44.03987" lon="1.86145">
        <ele>221.8</ele>
        <time>2017-04-23T08:36:40Z</time>
      </trkpt>
      <trkpt lat="44.03995" lon="1.86151">
        <ele>221.2</ele>
        <time>2017-04-23T08:36:43Z</time>
      </trkpt>
      <trkpt lat="44.04002" lon="1.86161">
        <ele>220.4</ele>
        <time>2017-04-23T08:36:46Z</time>
      </trkpt>
      <trkpt lat="44.04008" lon="1.86169">
        <ele>219.8</ele>
        <time>2017-04-23T08:36:48Z</time>
      </trkpt>
      <trkpt lat="44.04018" lon="1.86174">
        <ele>219.1</ele>
        <time>2017-04-23T08:36:50Z</time>
      </trkpt>
      <trkpt lat="44.04027" lon="1.86178">
        <ele>218.4</ele>
        <time>2017-04-23T08:36:52Z</time>
      </trkpt>
      <trkpt lat="44.04034" lon="1.86182">
        <ele>217.9</ele>
        <time>2017-04-23T08:36:54Z</time>
      </trkpt>
      <trkpt lat="44.04041" lon="1.86185">
        <ele>217.5</ele>
        <time>2017-04-23T08:36:56Z</time>
      </trkpt>
      <trkpt lat="44.04052" lon="1.86187">
        <ele>216.8</ele>
        <time>2017-04-23T08:36:59Z</time>
      </trkpt>
      <trkpt lat="44.04062" lon="1.86189">
        <ele>216</ele>
        <time>2017-04-23T08:37:02Z</time>
      </trkpt>
      <trkpt lat="44.0407" lon="1.86188">
        <ele>215.7</ele>
        <time>2017-04-23T08:37:05Z</time>
      </trkpt>
      <trkpt lat="44.04079" lon="1.86189">
        <ele>215.3</ele>
        <time>2017-04-23T08:37:08Z</time>
      </trkpt>
      <trkpt lat="44.04088" lon="1.86192">
        <ele>214.7</ele>
        <time>2017-04-23T08:37:11Z</time>
      </trkpt>
      <trkpt lat="44.04102" lon="1.86197">
        <ele>216.4</ele>
        <time>2017-04-23T08:37:14Z</time>
      </trkpt>
      <trkpt lat="44.04113" lon="1.86198">
        <ele>218.1</ele>
        <time>2017-04-23T08:37:17Z</time>
      </trkpt>
      <trkpt lat="44.04121" lon="1.86197">
        <ele>219</ele>
        <time>2017-04-23T08:37:20Z</time>
      </trkpt>
      <trkpt lat="44.0413" lon="1.86198">
        <ele>220.9</ele>
        <time>2017-04-23T08:37:23Z</time>
      </trkpt>
      <trkpt lat="44.04139" lon="1.86199">
        <ele>223.1</ele>
        <time>2017-04-23T08:37:26Z</time>
      </trkpt>
      <trkpt lat="44.04146" lon="1.86201">
        <ele>226.8</ele>
        <time>2017-04-23T08:37:29Z</time>
      </trkpt>
      <trkpt lat="44.04153" lon="1.86204">
        <ele>229.5</ele>
        <time>2017-04-23T08:37:32Z</time>
      </trkpt>
      <trkpt lat="44.04161" lon="1.86206">
        <ele>231.1</ele>
        <time>2017-04-23T08:37:35Z</time>
      </trkpt>
      <trkpt lat="44.0417" lon="1.86208">
        <ele>232.4</ele>
        <time>2017-04-23T08:37:38Z</time>
      </trkpt>
      <trkpt lat="44.04178" lon="1.86209">
        <ele>233.5</ele>
        <time>2017-04-23T08:37:41Z</time>
      </trkpt>
      <trkpt lat="44.04187" lon="1.86209">
        <ele>235.1</ele>
        <time>2017-04-23T08:37:44Z</time>
      </trkpt>
      <trkpt lat="44.04198" lon="1.86209">
        <ele>235.9</ele>
        <time>2017-04-23T08:37:47Z</time>
      </trkpt>
      <trkpt lat="44.04207" lon="1.86209">
        <ele>236.6</ele>
        <time>2017-04-23T08:37:50Z</time>
      </trkpt>
      <trkpt lat="44.04217" lon="1.86209">
        <ele>236.6</ele>
        <time>2017-04-23T08:37:53Z</time>
      </trkpt>
      <trkpt lat="44.04227" lon="1.86209">
        <ele>236.9</ele>
        <time>2017-04-23T08:37:56Z</time>
      </trkpt>
      <trkpt lat="44.04237" lon="1.8621">
        <ele>238.1</ele>
        <time>2017-04-23T08:37:59Z</time>
      </trkpt>
      <trkpt lat="44.04247" lon="1.86212">
        <ele>238.7</ele>
        <time>2017-04-23T08:38:02Z</time>
      </trkpt>
      <trkpt lat="44.04258" lon="1.86213">
        <ele>239.1</ele>
        <time>2017-04-23T08:38:05Z</time>
      </trkpt>
      <trkpt lat="44.04266" lon="1.86215">
        <ele>239.2</ele>
        <time>2017-04-23T08:38:07Z</time>
      </trkpt>
      <trkpt lat="44.04273" lon="1.86216">
        <ele>239.3</ele>
        <time>2017-04-23T08:38:09Z</time>
      </trkpt>
      <trkpt lat="44.04281" lon="1.86218">
        <ele>239.8</ele>
        <time>2017-04-23T08:38:11Z</time>
      </trkpt>
      <trkpt lat="44.04289" lon="1.86219">
        <ele>240.3</ele>
        <time>2017-04-23T08:38:13Z</time>
      </trkpt>
      <trkpt lat="44.04297" lon="1.86221">
        <ele>240.3</ele>
        <time>2017-04-23T08:38:15Z</time>
      </trkpt>
      <trkpt lat="44.04306" lon="1.86224">
        <ele>240.6</ele>
        <time>2017-04-23T08:38:17Z</time>
      </trkpt>
      <trkpt lat="44.04316" lon="1.86226">
        <ele>241.3</ele>
        <time>2017-04-23T08:38:19Z</time>
      </trkpt>
      <trkpt lat="44.04325" lon="1.86228">
        <ele>241.2</ele>
        <time>2017-04-23T08:38:21Z</time>
      </trkpt>
      <trkpt lat="44.04334" lon="1.86229">
        <ele>241.3</ele>
        <time>2017-04-23T08:38:23Z</time>
      </trkpt>
      <trkpt lat="44.04343" lon="1.8623">
        <ele>241.3</ele>
        <time>2017-04-23T08:38:25Z</time>
      </trkpt>
      <trkpt lat="44.04351" lon="1.86231">
        <ele>241.2</ele>
        <time>2017-04-23T08:38:27Z</time>
      </trkpt>
      <trkpt lat="44.04358" lon="1.86233">
        <ele>241.2</ele>
        <time>2017-04-23T08:38:29Z</time>
      </trkpt>
      <trkpt lat="44.04365" lon="1.86235">
        <ele>241.7</ele>
        <time>2017-04-23T08:38:31Z</time>
      </trkpt>
      <trkpt lat="44.04373" lon="1.86236">
        <ele>242.4</ele>
        <time>2017-04-23T08:38:33Z</time>
      </trkpt>
      <trkpt lat="44.04381" lon="1.86238">
        <ele>242.8</ele>
        <time>2017-04-23T08:38:35Z</time>
      </trkpt>
      <trkpt lat="44.04388" lon="1.8624">
        <ele>243.2</ele>
        <time>2017-04-23T08:38:37Z</time>
      </trkpt>
      <trkpt lat="44.04396" lon="1.86243">
        <ele>243.2</ele>
        <time>2017-04-23T08:38:39Z</time>
      </trkpt>
      <trkpt lat="44.04404" lon="1.86246">
        <ele>243</ele>
        <time>2017-04-23T08:38:41Z</time>
      </trkpt>
      <trkpt lat="44.04412" lon="1.8625">
        <ele>242.7</ele>
        <time>2017-04-23T08:38:43Z</time>
      </trkpt>
      <trkpt lat="44.04422" lon="1.86253">
        <ele>242.6</ele>
        <time>2017-04-23T08:38:45Z</time>
      </trkpt>
      <trkpt lat="44.0443" lon="1.86256">
        <ele>243</ele>
        <time>2017-04-23T08:38:47Z</time>
      </trkpt>
      <trkpt lat="44.04439" lon="1.8626">
        <ele>242.9</ele>
        <time>2017-04-23T08:38:49Z</time>
      </trkpt>
      <trkpt lat="44.04448" lon="1.86263">
        <ele>242.9</ele>
        <time>2017-04-23T08:38:51Z</time>
      </trkpt>
      <trkpt lat="44.04457" lon="1.86267">
        <ele>243.1</ele>
        <time>2017-04-23T08:38:53Z</time>
      </trkpt>
      <trkpt lat="44.04466" lon="1.86269">
        <ele>243</ele>
        <time>2017-04-23T08:38:55Z</time>
      </trkpt>
      <trkpt lat="44.04475" lon="1.86271">
        <ele>242.8</ele>
        <time>2017-04-23T08:38:57Z</time>
      </trkpt>
      <trkpt lat="44.04483" lon="1.86272">
        <ele>242.8</ele>
        <time>2017-04-23T08:38:59Z</time>
      </trkpt>
      <trkpt lat="44.04492" lon="1.86273">
        <ele>243</ele>
        <time>2017-04-23T08:39:01Z</time>
      </trkpt>
      <trkpt lat="44.045" lon="1.86276">
        <ele>242.4</ele>
        <time>2017-04-23T08:39:03Z</time>
      </trkpt>
      <trkpt lat="44.04508" lon="1.8628">
        <ele>241.2</ele>
        <time>2017-04-23T08:39:05Z</time>
      </trkpt>
      <trkpt lat="44.04514" lon="1.86286">
        <ele>240.8</ele>
        <time>2017-04-23T08:39:07Z</time>
      </trkpt>
      <trkpt lat="44.0452" lon="1.8629">
        <ele>240.1</ele>
        <time>2017-04-23T08:39:09Z</time>
      </trkpt>
      <trkpt lat="44.04528" lon="1.86296">
        <ele>239.8</ele>
        <time>2017-04-23T08:39:11Z</time>
      </trkpt>
      <trkpt lat="44.04535" lon="1.86303">
        <ele>239.3</ele>
        <time>2017-04-23T08:39:13Z</time>
      </trkpt>
      <trkpt lat="44.04542" lon="1.86309">
        <ele>239.3</ele>
        <time>2017-04-23T08:39:15Z</time>
      </trkpt>
      <trkpt lat="44.04551" lon="1.86317">
        <ele>239.1</ele>
        <time>2017-04-23T08:39:17Z</time>
      </trkpt>
      <trkpt lat="44.04558" lon="1.86324">
        <ele>239.8</ele>
        <time>2017-04-23T08:39:19Z</time>
      </trkpt>
      <trkpt lat="44.04564" lon="1.86332">
        <ele>239.7</ele>
        <time>2017-04-23T08:39:21Z</time>
      </trkpt>
      <trkpt lat="44.04569" lon="1.8634">
        <ele>239.9</ele>
        <time>2017-04-23T08:39:23Z</time>
      </trkpt>
      <trkpt lat="44.04571" lon="1.86353">
        <ele>240.5</ele>
        <time>2017-04-23T08:39:26Z</time>
      </trkpt>
      <trkpt lat="44.04573" lon="1.86363">
        <ele>240.4</ele>
        <time>2017-04-23T08:39:28Z</time>
      </trkpt>
      <trkpt lat="44.04575" lon="1.86377">
        <ele>240.7</ele>
        <time>2017-04-23T08:39:31Z</time>
      </trkpt>
      <trkpt lat="44.0458" lon="1.86388">
        <ele>240.9</ele>
        <time>2017-04-23T08:39:34Z</time>
      </trkpt>
      <trkpt lat="44.04585" lon="1.86397">
        <ele>241.2</ele>
        <time>2017-04-23T08:39:37Z</time>
      </trkpt>
      <trkpt lat="44.0459" lon="1.86404">
        <ele>241.4</ele>
        <time>2017-04-23T08:39:40Z</time>
      </trkpt>
      <trkpt lat="44.04596" lon="1.86411">
        <ele>241.2</ele>
        <time>2017-04-23T08:39:43Z</time>
      </trkpt>
      <trkpt lat="44.04604" lon="1.86419">
        <ele>241</ele>
        <time>2017-04-23T08:39:46Z</time>
      </trkpt>
      <trkpt lat="44.04612" lon="1.86428">
        <ele>241</ele>
        <time>2017-04-23T08:39:49Z</time>
      </trkpt>
      <trkpt lat="44.04618" lon="1.86436">
        <ele>240.9</ele>
        <time>2017-04-23T08:39:52Z</time>
      </trkpt>
      <trkpt lat="44.04624" lon="1.86442">
        <ele>240.9</ele>
        <time>2017-04-23T08:39:54Z</time>
      </trkpt>
      <trkpt lat="44.04631" lon="1.86449">
        <ele>240.8</ele>
        <time>2017-04-23T08:39:56Z</time>
      </trkpt>
      <trkpt lat="44.04639" lon="1.86459">
        <ele>240.7</ele>
        <time>2017-04-23T08:39:59Z</time>
      </trkpt>
      <trkpt lat="44.04647" lon="1.86468">
        <ele>240.6</ele>
        <time>2017-04-23T08:40:02Z</time>
      </trkpt>
      <trkpt lat="44.04656" lon="1.86476">
        <ele>240.9</ele>
        <time>2017-04-23T08:40:05Z</time>
      </trkpt>
      <trkpt lat="44.04663" lon="1.86484">
        <ele>240.9</ele>
        <time>2017-04-23T08:40:08Z</time>
      </trkpt>
      <trkpt lat="44.04671" lon="1.86491">
        <ele>240.8</ele>
        <time>2017-04-23T08:40:11Z</time>
      </trkpt>
      <trkpt lat="44.04678" lon="1.86495">
        <ele>240.9</ele>
        <time>2017-04-23T08:40:13Z</time>
      </trkpt>
      <trkpt lat="44.04688" lon="1.86499">
        <ele>240.8</ele>
        <time>2017-04-23T08:40:16Z</time>
      </trkpt>
      <trkpt lat="44.04698" lon="1.86501">
        <ele>240.8</ele>
        <time>2017-04-23T08:40:19Z</time>
      </trkpt>
      <trkpt lat="44.04705" lon="1.86501">
        <ele>240.7</ele>
        <time>2017-04-23T08:40:22Z</time>
      </trkpt>
      <trkpt lat="44.04712" lon="1.865">
        <ele>240.9</ele>
        <time>2017-04-23T08:40:25Z</time>
      </trkpt>
      <trkpt lat="44.04721" lon="1.86501">
        <ele>241.1</ele>
        <time>2017-04-23T08:40:29Z</time>
      </trkpt>
      <trkpt lat="44.04729" lon="1.86497">
        <ele>242.8</ele>
        <time>2017-04-23T08:40:33Z</time>
      </trkpt>
      <trkpt lat="44.04738" lon="1.86498">
        <ele>245.2</ele>
        <time>2017-04-23T08:40:38Z</time>
      </trkpt>
      <trkpt lat="44.04748" lon="1.86498">
        <ele>248</ele>
        <time>2017-04-23T08:40:42Z</time>
      </trkpt>
      <trkpt lat="44.04756" lon="1.86497">
        <ele>252.4</ele>
        <time>2017-04-23T08:40:47Z</time>
      </trkpt>
      <trkpt lat="44.04764" lon="1.865">
        <ele>256.6</ele>
        <time>2017-04-23T08:40:52Z</time>
      </trkpt>
      <trkpt lat="44.04773" lon="1.86502">
        <ele>258.5</ele>
        <time>2017-04-23T08:40:56Z</time>
      </trkpt>
      <trkpt lat="44.04781" lon="1.86505">
        <ele>260.2</ele>
        <time>2017-04-23T08:40:59Z</time>
      </trkpt>
      <trkpt lat="44.04787" lon="1.86511">
        <ele>261.1</ele>
        <time>2017-04-23T08:41:03Z</time>
      </trkpt>
      <trkpt lat="44.04794" lon="1.86521">
        <ele>262.5</ele>
        <time>2017-04-23T08:41:07Z</time>
      </trkpt>
      <trkpt lat="44.048" lon="1.86533">
        <ele>263.6</ele>
        <time>2017-04-23T08:41:10Z</time>
      </trkpt>
      <trkpt lat="44.04804" lon="1.86542">
        <ele>264.2</ele>
        <time>2017-04-23T08:41:12Z</time>
      </trkpt>
      <trkpt lat="44.04807" lon="1.86551">
        <ele>264.7</ele>
        <time>2017-04-23T08:41:14Z</time>
      </trkpt>
      <trkpt lat="44.04808" lon="1.86563">
        <ele>265.9</ele>
        <time>2017-04-23T08:41:17Z</time>
      </trkpt>
      <trkpt lat="44.04811" lon="1.86575">
        <ele>266.9</ele>
        <time>2017-04-23T08:41:20Z</time>
      </trkpt>
      <trkpt lat="44.0481" lon="1.86589">
        <ele>268.4</ele>
        <time>2017-04-23T08:41:23Z</time>
      </trkpt>
      <trkpt lat="44.04809" lon="1.86601">
        <ele>269.8</ele>
        <time>2017-04-23T08:41:26Z</time>
      </trkpt>
      <trkpt lat="44.04808" lon="1.86617">
        <ele>270.8</ele>
        <time>2017-04-23T08:41:29Z</time>
      </trkpt>
      <trkpt lat="44.04809" lon="1.8663">
        <ele>270.8</ele>
        <time>2017-04-23T08:41:31Z</time>
      </trkpt>
      <trkpt lat="44.04811" lon="1.86639">
        <ele>271.1</ele>
        <time>2017-04-23T08:41:33Z</time>
      </trkpt>
      <trkpt lat="44.04811" lon="1.86653">
        <ele>271.7</ele>
        <time>2017-04-23T08:41:36Z</time>
      </trkpt>
      <trkpt lat="44.04814" lon="1.86665">
        <ele>271.2</ele>
        <time>2017-04-23T08:41:39Z</time>
      </trkpt>
      <trkpt lat="44.04819" lon="1.86675">
        <ele>270</ele>
        <time>2017-04-23T08:41:42Z</time>
      </trkpt>
      <trkpt lat="44.04827" lon="1.86684">
        <ele>269.9</ele>
        <time>2017-04-23T08:41:45Z</time>
      </trkpt>
      <trkpt lat="44.04834" lon="1.86691">
        <ele>270</ele>
        <time>2017-04-23T08:41:47Z</time>
      </trkpt>
      <trkpt lat="44.04843" lon="1.86697">
        <ele>270.1</ele>
        <time>2017-04-23T08:41:49Z</time>
      </trkpt>
      <trkpt lat="44.04851" lon="1.86704">
        <ele>270.4</ele>
        <time>2017-04-23T08:41:52Z</time>
      </trkpt>
      <trkpt lat="44.04858" lon="1.86715">
        <ele>270.9</ele>
        <time>2017-04-23T08:41:55Z</time>
      </trkpt>
      <trkpt lat="44.04865" lon="1.86727">
        <ele>270.5</ele>
        <time>2017-04-23T08:41:58Z</time>
      </trkpt>
      <trkpt lat="44.04872" lon="1.86736">
        <ele>270.3</ele>
        <time>2017-04-23T08:42:00Z</time>
      </trkpt>
      <trkpt lat="44.04878" lon="1.86745">
        <ele>270.7</ele>
        <time>2017-04-23T08:42:02Z</time>
      </trkpt>
      <trkpt lat="44.04885" lon="1.86755">
        <ele>271.5</ele>
        <time>2017-04-23T08:42:05Z</time>
      </trkpt>
      <trkpt lat="44.04891" lon="1.86765">
        <ele>271.8</ele>
        <time>2017-04-23T08:42:08Z</time>
      </trkpt>
      <trkpt lat="44.04895" lon="1.86774">
        <ele>272.2</ele>
        <time>2017-04-23T08:42:11Z</time>
      </trkpt>
      <trkpt lat="44.04901" lon="1.86782">
        <ele>272.7</ele>
        <time>2017-04-23T08:42:15Z</time>
      </trkpt>
      <trkpt lat="44.04905" lon="1.86792">
        <ele>273.3</ele>
        <time>2017-04-23T08:42:19Z</time>
      </trkpt>
      <trkpt lat="44.0491" lon="1.86801">
        <ele>274.2</ele>
        <time>2017-04-23T08:42:22Z</time>
      </trkpt>
      <trkpt lat="44.04912" lon="1.86811">
        <ele>274.3</ele>
        <time>2017-04-23T08:42:25Z</time>
      </trkpt>
      <trkpt lat="44.04917" lon="1.8682">
        <ele>274.4</ele>
        <time>2017-04-23T08:42:28Z</time>
      </trkpt>
      <trkpt lat="44.04923" lon="1.86827">
        <ele>274.2</ele>
        <time>2017-04-23T08:42:31Z</time>
      </trkpt>
      <trkpt lat="44.0493" lon="1.8683">
        <ele>274.5</ele>
        <time>2017-04-23T08:42:34Z</time>
      </trkpt>
      <trkpt lat="44.04937" lon="1.86826">
        <ele>275</ele>
        <time>2017-04-23T08:42:37Z</time>
      </trkpt>
      <trkpt lat="44.04942" lon="1.86819">
        <ele>275.5</ele>
        <time>2017-04-23T08:42:41Z</time>
      </trkpt>
      <trkpt lat="44.04949" lon="1.86811">
        <ele>276.9</ele>
        <time>2017-04-23T08:42:45Z</time>
      </trkpt>
      <trkpt lat="44.04954" lon="1.86804">
        <ele>277.1</ele>
        <time>2017-04-23T08:42:48Z</time>
      </trkpt>
      <trkpt lat="44.04961" lon="1.86796">
        <ele>276.8</ele>
        <time>2017-04-23T08:42:52Z</time>
      </trkpt>
      <trkpt lat="44.04966" lon="1.86788">
        <ele>277.8</ele>
        <time>2017-04-23T08:42:56Z</time>
      </trkpt>
      <trkpt lat="44.04972" lon="1.8678">
        <ele>278.6</ele>
        <time>2017-04-23T08:42:59Z</time>
      </trkpt>
      <trkpt lat="44.04978" lon="1.86772">
        <ele>278.9</ele>
        <time>2017-04-23T08:43:03Z</time>
      </trkpt>
      <trkpt lat="44.04984" lon="1.86765">
        <ele>279.5</ele>
        <time>2017-04-23T08:43:06Z</time>
      </trkpt>
      <trkpt lat="44.0499" lon="1.86757">
        <ele>280.6</ele>
        <time>2017-04-23T08:43:10Z</time>
      </trkpt>
      <trkpt lat="44.04996" lon="1.86751">
        <ele>281.3</ele>
        <time>2017-04-23T08:43:15Z</time>
      </trkpt>
      <trkpt lat="44.05004" lon="1.86745">
        <ele>281.4</ele>
        <time>2017-04-23T08:43:19Z</time>
      </trkpt>
      <trkpt lat="44.05011" lon="1.8674">
        <ele>281.3</ele>
        <time>2017-04-23T08:43:23Z</time>
      </trkpt>
      <trkpt lat="44.05019" lon="1.86737">
        <ele>281.8</ele>
        <time>2017-04-23T08:43:27Z</time>
      </trkpt>
      <trkpt lat="44.05028" lon="1.86737">
        <ele>281.4</ele>
        <time>2017-04-23T08:43:31Z</time>
      </trkpt>
      <trkpt lat="44.05038" lon="1.86735">
        <ele>280.1</ele>
        <time>2017-04-23T08:43:34Z</time>
      </trkpt>
      <trkpt lat="44.05047" lon="1.86733">
        <ele>279.7</ele>
        <time>2017-04-23T08:43:36Z</time>
      </trkpt>
      <trkpt lat="44.05054" lon="1.8673">
        <ele>279.1</ele>
        <time>2017-04-23T08:43:38Z</time>
      </trkpt>
      <trkpt lat="44.05062" lon="1.8673">
        <ele>279.2</ele>
        <time>2017-04-23T08:43:40Z</time>
      </trkpt>
      <trkpt lat="44.05072" lon="1.8673">
        <ele>278.8</ele>
        <time>2017-04-23T08:43:43Z</time>
      </trkpt>
      <trkpt lat="44.05082" lon="1.8673">
        <ele>280</ele>
        <time>2017-04-23T08:43:46Z</time>
      </trkpt>
      <trkpt lat="44.05092" lon="1.86732">
        <ele>281.2</ele>
        <time>2017-04-23T08:43:49Z</time>
      </trkpt>
      <trkpt lat="44.05099" lon="1.86733">
        <ele>282.1</ele>
        <time>2017-04-23T08:43:51Z</time>
      </trkpt>
      <trkpt lat="44.05106" lon="1.86734">
        <ele>282.6</ele>
        <time>2017-04-23T08:43:53Z</time>
      </trkpt>
      <trkpt lat="44.05113" lon="1.86735">
        <ele>282.8</ele>
        <time>2017-04-23T08:43:55Z</time>
      </trkpt>
      <trkpt lat="44.05124" lon="1.86738">
        <ele>282.7</ele>
        <time>2017-04-23T08:43:58Z</time>
      </trkpt>
      <trkpt lat="44.05133" lon="1.86741">
        <ele>283.4</ele>
        <time>2017-04-23T08:44:01Z</time>
      </trkpt>
      <trkpt lat="44.05142" lon="1.86744">
        <ele>283.2</ele>
        <time>2017-04-23T08:44:04Z</time>
      </trkpt>
      <trkpt lat="44.0515" lon="1.86748">
        <ele>282.6</ele>
        <time>2017-04-23T08:44:07Z</time>
      </trkpt>
      <trkpt lat="44.05158" lon="1.86752">
        <ele>281.9</ele>
        <time>2017-04-23T08:44:10Z</time>
      </trkpt>
      <trkpt lat="44.05167" lon="1.86753">
        <ele>281.2</ele>
        <time>2017-04-23T08:44:13Z</time>
      </trkpt>
      <trkpt lat="44.05174" lon="1.86753">
        <ele>281.1</ele>
        <time>2017-04-23T08:44:16Z</time>
      </trkpt>
      <trkpt lat="44.05184" lon="1.86749">
        <ele>280.6</ele>
        <time>2017-04-23T08:44:19Z</time>
      </trkpt>
      <trkpt lat="44.05193" lon="1.86745">
        <ele>279.9</ele>
        <time>2017-04-23T08:44:22Z</time>
      </trkpt>
      <trkpt lat="44.05202" lon="1.86742">
        <ele>279.3</ele>
        <time>2017-04-23T08:44:25Z</time>
      </trkpt>
      <trkpt lat="44.0521" lon="1.86738">
        <ele>279.3</ele>
        <time>2017-04-23T08:44:28Z</time>
      </trkpt>
      <trkpt lat="44.0522" lon="1.86736">
        <ele>280.1</ele>
        <time>2017-04-23T08:44:31Z</time>
      </trkpt>
      <trkpt lat="44.05228" lon="1.86733">
        <ele>280.6</ele>
        <time>2017-04-23T08:44:34Z</time>
      </trkpt>
      <trkpt lat="44.05239" lon="1.86728">
        <ele>281</ele>
        <time>2017-04-23T08:44:37Z</time>
      </trkpt>
      <trkpt lat="44.05248" lon="1.86722">
        <ele>281.7</ele>
        <time>2017-04-23T08:44:40Z</time>
      </trkpt>
      <trkpt lat="44.05254" lon="1.86719">
        <ele>282</ele>
        <time>2017-04-23T08:44:44Z</time>
      </trkpt>
      <trkpt lat="44.05261" lon="1.86714">
        <ele>282.8</ele>
        <time>2017-04-23T08:44:50Z</time>
      </trkpt>
      <trkpt lat="44.05263" lon="1.86714">
        <ele>282.6</ele>
        <time>2017-04-23T08:44:57Z</time>
      </trkpt>
      <trkpt lat="44.0527" lon="1.86717">
        <ele>282</ele>
        <time>2017-04-23T08:45:00Z</time>
      </trkpt>
      <trkpt lat="44.05279" lon="1.8672">
        <ele>282.2</ele>
        <time>2017-04-23T08:45:03Z</time>
      </trkpt>
      <trkpt lat="44.05287" lon="1.8672">
        <ele>281.4</ele>
        <time>2017-04-23T08:45:05Z</time>
      </trkpt>
      <trkpt lat="44.05297" lon="1.8672">
        <ele>280.6</ele>
        <time>2017-04-23T08:45:07Z</time>
      </trkpt>
      <trkpt lat="44.05305" lon="1.8672">
        <ele>279.8</ele>
        <time>2017-04-23T08:45:09Z</time>
      </trkpt>
      <trkpt lat="44.05312" lon="1.86721">
        <ele>279.3</ele>
        <time>2017-04-23T08:45:11Z</time>
      </trkpt>
      <trkpt lat="44.05322" lon="1.86722">
        <ele>279</ele>
        <time>2017-04-23T08:45:14Z</time>
      </trkpt>
      <trkpt lat="44.05332" lon="1.86724">
        <ele>277.7</ele>
        <time>2017-04-23T08:45:17Z</time>
      </trkpt>
      <trkpt lat="44.05341" lon="1.86724">
        <ele>277.3</ele>
        <time>2017-04-23T08:45:19Z</time>
      </trkpt>
      <trkpt lat="44.05349" lon="1.86725">
        <ele>277.3</ele>
        <time>2017-04-23T08:45:21Z</time>
      </trkpt>
      <trkpt lat="44.05357" lon="1.86727">
        <ele>277.7</ele>
        <time>2017-04-23T08:45:23Z</time>
      </trkpt>
      <trkpt lat="44.05364" lon="1.86729">
        <ele>278.1</ele>
        <time>2017-04-23T08:45:25Z</time>
      </trkpt>
      <trkpt lat="44.05374" lon="1.86731">
        <ele>279</ele>
        <time>2017-04-23T08:45:28Z</time>
      </trkpt>
      <trkpt lat="44.05384" lon="1.86734">
        <ele>279.5</ele>
        <time>2017-04-23T08:45:31Z</time>
      </trkpt>
      <trkpt lat="44.05392" lon="1.86738">
        <ele>281</ele>
        <time>2017-04-23T08:45:35Z</time>
      </trkpt>
      <trkpt lat="44.054" lon="1.86741">
        <ele>282</ele>
        <time>2017-04-23T08:45:39Z</time>
      </trkpt>
      <trkpt lat="44.05408" lon="1.86744">
        <ele>282.4</ele>
        <time>2017-04-23T08:45:42Z</time>
      </trkpt>
      <trkpt lat="44.05417" lon="1.86747">
        <ele>282.8</ele>
        <time>2017-04-23T08:45:45Z</time>
      </trkpt>
      <trkpt lat="44.05426" lon="1.86747">
        <ele>283.2</ele>
        <time>2017-04-23T08:45:47Z</time>
      </trkpt>
      <trkpt lat="44.05433" lon="1.8675">
        <ele>283.3</ele>
        <time>2017-04-23T08:45:49Z</time>
      </trkpt>
      <trkpt lat="44.05441" lon="1.86752">
        <ele>282.8</ele>
        <time>2017-04-23T08:45:51Z</time>
      </trkpt>
      <trkpt lat="44.05449" lon="1.86753">
        <ele>283</ele>
        <time>2017-04-23T08:45:53Z</time>
      </trkpt>
      <trkpt lat="44.05456" lon="1.86755">
        <ele>283.2</ele>
        <time>2017-04-23T08:45:55Z</time>
      </trkpt>
      <trkpt lat="44.05464" lon="1.86758">
        <ele>283.3</ele>
        <time>2017-04-23T08:45:57Z</time>
      </trkpt>
      <trkpt lat="44.05471" lon="1.86761">
        <ele>283.4</ele>
        <time>2017-04-23T08:45:59Z</time>
      </trkpt>
      <trkpt lat="44.05482" lon="1.86764">
        <ele>283.8</ele>
        <time>2017-04-23T08:46:02Z</time>
      </trkpt>
      <trkpt lat="44.05489" lon="1.86767">
        <ele>284.3</ele>
        <time>2017-04-23T08:46:04Z</time>
      </trkpt>
      <trkpt lat="44.05498" lon="1.8677">
        <ele>284.5</ele>
        <time>2017-04-23T08:46:07Z</time>
      </trkpt>
      <trkpt lat="44.05507" lon="1.86772">
        <ele>285</ele>
        <time>2017-04-23T08:46:11Z</time>
      </trkpt>
      <trkpt lat="44.05517" lon="1.86763">
        <ele>282.7</ele>
        <time>2017-04-23T08:48:28Z</time>
      </trkpt>
      <trkpt lat="44.05522" lon="1.86753">
        <ele>283.1</ele>
        <time>2017-04-23T08:48:31Z</time>
      </trkpt>
      <trkpt lat="44.05528" lon="1.86743">
        <ele>283.5</ele>
        <time>2017-04-23T08:48:34Z</time>
      </trkpt>
      <trkpt lat="44.05536" lon="1.86733">
        <ele>284.1</ele>
        <time>2017-04-23T08:48:37Z</time>
      </trkpt>
      <trkpt lat="44.05543" lon="1.86724">
        <ele>284.9</ele>
        <time>2017-04-23T08:48:40Z</time>
      </trkpt>
      <trkpt lat="44.05551" lon="1.86716">
        <ele>285.7</ele>
        <time>2017-04-23T08:48:43Z</time>
      </trkpt>
      <trkpt lat="44.05559" lon="1.86707">
        <ele>286.6</ele>
        <time>2017-04-23T08:48:46Z</time>
      </trkpt>
      <trkpt lat="44.05566" lon="1.86703">
        <ele>287.1</ele>
        <time>2017-04-23T08:48:48Z</time>
      </trkpt>
      <trkpt lat="44.05573" lon="1.86698">
        <ele>287.7</ele>
        <time>2017-04-23T08:48:50Z</time>
      </trkpt>
      <trkpt lat="44.0558" lon="1.86689">
        <ele>288.5</ele>
        <time>2017-04-23T08:48:53Z</time>
      </trkpt>
      <trkpt lat="44.05588" lon="1.86682">
        <ele>289.1</ele>
        <time>2017-04-23T08:48:56Z</time>
      </trkpt>
      <trkpt lat="44.05593" lon="1.86674">
        <ele>290.1</ele>
        <time>2017-04-23T08:48:59Z</time>
      </trkpt>
      <trkpt lat="44.05599" lon="1.86666">
        <ele>291.5</ele>
        <time>2017-04-23T08:49:03Z</time>
      </trkpt>
      <trkpt lat="44.05607" lon="1.8666">
        <ele>292.8</ele>
        <time>2017-04-23T08:49:07Z</time>
      </trkpt>
      <trkpt lat="44.05615" lon="1.86654">
        <ele>293.9</ele>
        <time>2017-04-23T08:49:10Z</time>
      </trkpt>
      <trkpt lat="44.05623" lon="1.86647">
        <ele>295.3</ele>
        <time>2017-04-23T08:49:13Z</time>
      </trkpt>
      <trkpt lat="44.0563" lon="1.86643">
        <ele>296.9</ele>
        <time>2017-04-23T08:49:16Z</time>
      </trkpt>
      <trkpt lat="44.05637" lon="1.8664">
        <ele>298.1</ele>
        <time>2017-04-23T08:49:23Z</time>
      </trkpt>
      <trkpt lat="44.05642" lon="1.86633">
        <ele>299.4</ele>
        <time>2017-04-23T08:49:30Z</time>
      </trkpt>
      <trkpt lat="44.05646" lon="1.86627">
        <ele>300.7</ele>
        <time>2017-04-23T08:49:37Z</time>
      </trkpt>
      <trkpt lat="44.05651" lon="1.86622">
        <ele>302.2</ele>
        <time>2017-04-23T08:49:44Z</time>
      </trkpt>
      <trkpt lat="44.05657" lon="1.86616">
        <ele>303.7</ele>
        <time>2017-04-23T08:49:51Z</time>
      </trkpt>
      <trkpt lat="44.05664" lon="1.86611">
        <ele>304.1</ele>
        <time>2017-04-23T08:49:57Z</time>
      </trkpt>
      <trkpt lat="44.0567" lon="1.86602">
        <ele>305.5</ele>
        <time>2017-04-23T08:50:11Z</time>
      </trkpt>
      <trkpt lat="44.0567" lon="1.86599">
        <ele>305.7</ele>
        <time>2017-04-23T08:50:18Z</time>
      </trkpt>
      <trkpt lat="44.05664" lon="1.86608">
        <ele>310.1</ele>
        <time>2017-04-23T08:54:42Z</time>
      </trkpt>
      <trkpt lat="44.05666" lon="1.86615">
        <ele>310</ele>
        <time>2017-04-23T08:54:49Z</time>
      </trkpt>
      <trkpt lat="44.05664" lon="1.86609">
        <ele>310</ele>
        <time>2017-04-23T08:54:56Z</time>
      </trkpt>
      <trkpt lat="44.0566" lon="1.86616">
        <ele>310</ele>
        <time>2017-04-23T08:55:32Z</time>
      </trkpt>
      <trkpt lat="44.05666" lon="1.86608">
        <ele>310</ele>
        <time>2017-04-23T08:55:49Z</time>
      </trkpt>
      <trkpt lat="44.0567" lon="1.86604">
        <ele>309.9</ele>
        <time>2017-04-23T08:56:06Z</time>
      </trkpt>
      <trkpt lat="44.05671" lon="1.86602">
        <ele>309.9</ele>
        <time>2017-04-23T08:56:13Z</time>
      </trkpt>
      <trkpt lat="44.05661" lon="1.8661">
        <ele>312.4</ele>
        <time>2017-04-23T08:58:24Z</time>
      </trkpt>
      <trkpt lat="44.05653" lon="1.86617">
        <ele>312.1</ele>
        <time>2017-04-23T08:58:27Z</time>
      </trkpt>
      <trkpt lat="44.05645" lon="1.86622">
        <ele>311.5</ele>
        <time>2017-04-23T08:58:31Z</time>
      </trkpt>
      <trkpt lat="44.05642" lon="1.86612">
        <ele>310.7</ele>
        <time>2017-04-23T08:58:35Z</time>
      </trkpt>
      <trkpt lat="44.05642" lon="1.866">
        <ele>310.3</ele>
        <time>2017-04-23T08:58:38Z</time>
      </trkpt>
      <trkpt lat="44.05641" lon="1.86587">
        <ele>310.2</ele>
        <time>2017-04-23T08:58:41Z</time>
      </trkpt>
      <trkpt lat="44.05639" lon="1.86575">
        <ele>308.9</ele>
        <time>2017-04-23T08:58:44Z</time>
      </trkpt>
      <trkpt lat="44.05634" lon="1.86564">
        <ele>307.7</ele>
        <time>2017-04-23T08:58:47Z</time>
      </trkpt>
      <trkpt lat="44.05627" lon="1.86551">
        <ele>306.5</ele>
        <time>2017-04-23T08:58:50Z</time>
      </trkpt>
      <trkpt lat="44.05622" lon="1.86539">
        <ele>306.9</ele>
        <time>2017-04-23T08:58:52Z</time>
      </trkpt>
      <trkpt lat="44.05621" lon="1.86524">
        <ele>306.7</ele>
        <time>2017-04-23T08:58:54Z</time>
      </trkpt>
      <trkpt lat="44.05621" lon="1.8651">
        <ele>306.6</ele>
        <time>2017-04-23T08:58:56Z</time>
      </trkpt>
      <trkpt lat="44.05623" lon="1.86497">
        <ele>306.5</ele>
        <time>2017-04-23T08:58:58Z</time>
      </trkpt>
      <trkpt lat="44.05624" lon="1.86488">
        <ele>306.6</ele>
        <time>2017-04-23T08:59:00Z</time>
      </trkpt>
      <trkpt lat="44.05626" lon="1.86477">
        <ele>306.7</ele>
        <time>2017-04-23T08:59:03Z</time>
      </trkpt>
      <trkpt lat="44.05628" lon="1.86466">
        <ele>306</ele>
        <time>2017-04-23T08:59:07Z</time>
      </trkpt>
      <trkpt lat="44.05624" lon="1.86454">
        <ele>305.7</ele>
        <time>2017-04-23T08:59:10Z</time>
      </trkpt>
      <trkpt lat="44.05619" lon="1.86443">
        <ele>305.1</ele>
        <time>2017-04-23T08:59:12Z</time>
      </trkpt>
      <trkpt lat="44.0561" lon="1.86436">
        <ele>304.5</ele>
        <time>2017-04-23T08:59:14Z</time>
      </trkpt>
      <trkpt lat="44.05597" lon="1.86428">
        <ele>304</ele>
        <time>2017-04-23T08:59:16Z</time>
      </trkpt>
      <trkpt lat="44.05586" lon="1.86423">
        <ele>303.6</ele>
        <time>2017-04-23T08:59:18Z</time>
      </trkpt>
      <trkpt lat="44.05575" lon="1.8642">
        <ele>303.1</ele>
        <time>2017-04-23T08:59:20Z</time>
      </trkpt>
      <trkpt lat="44.05565" lon="1.86416">
        <ele>303.3</ele>
        <time>2017-04-23T08:59:22Z</time>
      </trkpt>
      <trkpt lat="44.05558" lon="1.86415">
        <ele>303.6</ele>
        <time>2017-04-23T08:59:24Z</time>
      </trkpt>
      <trkpt lat="44.05549" lon="1.86412">
        <ele>304.6</ele>
        <time>2017-04-23T08:59:27Z</time>
      </trkpt>
      <trkpt lat="44.05543" lon="1.86406">
        <ele>306.2</ele>
        <time>2017-04-23T08:59:31Z</time>
      </trkpt>
      <trkpt lat="44.05541" lon="1.86395">
        <ele>307.4</ele>
        <time>2017-04-23T08:59:35Z</time>
      </trkpt>
      <trkpt lat="44.05538" lon="1.86382">
        <ele>308.4</ele>
        <time>2017-04-23T08:59:38Z</time>
      </trkpt>
      <trkpt lat="44.05535" lon="1.86371">
        <ele>309.1</ele>
        <time>2017-04-23T08:59:41Z</time>
      </trkpt>
      <trkpt lat="44.05532" lon="1.86361">
        <ele>309.7</ele>
        <time>2017-04-23T08:59:44Z</time>
      </trkpt>
      <trkpt lat="44.05528" lon="1.86348">
        <ele>310.3</ele>
        <time>2017-04-23T08:59:47Z</time>
      </trkpt>
      <trkpt lat="44.05525" lon="1.86337">
        <ele>310.5</ele>
        <time>2017-04-23T08:59:49Z</time>
      </trkpt>
      <trkpt lat="44.05521" lon="1.86326">
        <ele>310.8</ele>
        <time>2017-04-23T08:59:51Z</time>
      </trkpt>
      <trkpt lat="44.05518" lon="1.86313">
        <ele>311.1</ele>
        <time>2017-04-23T08:59:53Z</time>
      </trkpt>
      <trkpt lat="44.05515" lon="1.86301">
        <ele>310.9</ele>
        <time>2017-04-23T08:59:55Z</time>
      </trkpt>
      <trkpt lat="44.05511" lon="1.8629">
        <ele>310.6</ele>
        <time>2017-04-23T08:59:57Z</time>
      </trkpt>
      <trkpt lat="44.05509" lon="1.86279">
        <ele>310.5</ele>
        <time>2017-04-23T08:59:59Z</time>
      </trkpt>
      <trkpt lat="44.05506" lon="1.86269">
        <ele>310.1</ele>
        <time>2017-04-23T09:00:01Z</time>
      </trkpt>
      <trkpt lat="44.05506" lon="1.86257">
        <ele>309.4</ele>
        <time>2017-04-23T09:00:03Z</time>
      </trkpt>
      <trkpt lat="44.05507" lon="1.86245">
        <ele>308.7</ele>
        <time>2017-04-23T09:00:05Z</time>
      </trkpt>
      <trkpt lat="44.05509" lon="1.86232">
        <ele>308.8</ele>
        <time>2017-04-23T09:00:07Z</time>
      </trkpt>
      <trkpt lat="44.0551" lon="1.86221">
        <ele>308.8</ele>
        <time>2017-04-23T09:00:09Z</time>
      </trkpt>
      <trkpt lat="44.05511" lon="1.86208">
        <ele>308.8</ele>
        <time>2017-04-23T09:00:12Z</time>
      </trkpt>
      <trkpt lat="44.05513" lon="1.86196">
        <ele>308.3</ele>
        <time>2017-04-23T09:00:15Z</time>
      </trkpt>
      <trkpt lat="44.05515" lon="1.86185">
        <ele>308</ele>
        <time>2017-04-23T09:00:18Z</time>
      </trkpt>
      <trkpt lat="44.05517" lon="1.86174">
        <ele>308.2</ele>
        <time>2017-04-23T09:00:21Z</time>
      </trkpt>
      <trkpt lat="44.05521" lon="1.86162">
        <ele>308.1</ele>
        <time>2017-04-23T09:00:25Z</time>
      </trkpt>
      <trkpt lat="44.05525" lon="1.8615">
        <ele>308.3</ele>
        <time>2017-04-23T09:00:29Z</time>
      </trkpt>
      <trkpt lat="44.05528" lon="1.86137">
        <ele>308.8</ele>
        <time>2017-04-23T09:00:33Z</time>
      </trkpt>
      <trkpt lat="44.05532" lon="1.86126">
        <ele>308.8</ele>
        <time>2017-04-23T09:00:37Z</time>
      </trkpt>
      <trkpt lat="44.05536" lon="1.86116">
        <ele>309.1</ele>
        <time>2017-04-23T09:00:41Z</time>
      </trkpt>
      <trkpt lat="44.05541" lon="1.86106">
        <ele>309.4</ele>
        <time>2017-04-23T09:00:44Z</time>
      </trkpt>
      <trkpt lat="44.05547" lon="1.86099">
        <ele>310</ele>
        <time>2017-04-23T09:00:47Z</time>
      </trkpt>
      <trkpt lat="44.05553" lon="1.86093">
        <ele>310.4</ele>
        <time>2017-04-23T09:00:50Z</time>
      </trkpt>
      <trkpt lat="44.05562" lon="1.86089">
        <ele>311.2</ele>
        <time>2017-04-23T09:00:54Z</time>
      </trkpt>
      <trkpt lat="44.0557" lon="1.86084">
        <ele>311.4</ele>
        <time>2017-04-23T09:00:57Z</time>
      </trkpt>
      <trkpt lat="44.05576" lon="1.86077">
        <ele>311.8</ele>
        <time>2017-04-23T09:01:00Z</time>
      </trkpt>
      <trkpt lat="44.05581" lon="1.8607">
        <ele>312.5</ele>
        <time>2017-04-23T09:01:03Z</time>
      </trkpt>
      <trkpt lat="44.05587" lon="1.86064">
        <ele>313</ele>
        <time>2017-04-23T09:01:06Z</time>
      </trkpt>
      <trkpt lat="44.05592" lon="1.86057">
        <ele>313.8</ele>
        <time>2017-04-23T09:01:09Z</time>
      </trkpt>
      <trkpt lat="44.056" lon="1.8605">
        <ele>314.9</ele>
        <time>2017-04-23T09:01:13Z</time>
      </trkpt>
      <trkpt lat="44.05607" lon="1.86041">
        <ele>316</ele>
        <time>2017-04-23T09:01:17Z</time>
      </trkpt>
      <trkpt lat="44.05614" lon="1.86033">
        <ele>316.4</ele>
        <time>2017-04-23T09:01:21Z</time>
      </trkpt>
      <trkpt lat="44.05622" lon="1.86027">
        <ele>317.4</ele>
        <time>2017-04-23T09:01:25Z</time>
      </trkpt>
      <trkpt lat="44.05631" lon="1.86022">
        <ele>318.2</ele>
        <time>2017-04-23T09:01:29Z</time>
      </trkpt>
      <trkpt lat="44.05639" lon="1.86017">
        <ele>319.6</ele>
        <time>2017-04-23T09:01:33Z</time>
      </trkpt>
      <trkpt lat="44.05646" lon="1.86015">
        <ele>321.3</ele>
        <time>2017-04-23T09:01:36Z</time>
      </trkpt>
      <trkpt lat="44.05654" lon="1.86012">
        <ele>323.1</ele>
        <time>2017-04-23T09:01:39Z</time>
      </trkpt>
      <trkpt lat="44.05661" lon="1.86011">
        <ele>324.2</ele>
        <time>2017-04-23T09:01:42Z</time>
      </trkpt>
      <trkpt lat="44.05671" lon="1.8601">
        <ele>326</ele>
        <time>2017-04-23T09:01:46Z</time>
      </trkpt>
      <trkpt lat="44.05679" lon="1.8601">
        <ele>328.5</ele>
        <time>2017-04-23T09:01:50Z</time>
      </trkpt>
      <trkpt lat="44.05689" lon="1.86011">
        <ele>329.8</ele>
        <time>2017-04-23T09:01:54Z</time>
      </trkpt>
      <trkpt lat="44.05697" lon="1.86009">
        <ele>331.6</ele>
        <time>2017-04-23T09:01:58Z</time>
      </trkpt>
      <trkpt lat="44.05704" lon="1.86004">
        <ele>332.1</ele>
        <time>2017-04-23T09:02:02Z</time>
      </trkpt>
      <trkpt lat="44.05713" lon="1.86001">
        <ele>333.3</ele>
        <time>2017-04-23T09:02:06Z</time>
      </trkpt>
      <trkpt lat="44.05721" lon="1.85999">
        <ele>334.5</ele>
        <time>2017-04-23T09:02:10Z</time>
      </trkpt>
      <trkpt lat="44.0573" lon="1.86001">
        <ele>335.1</ele>
        <time>2017-04-23T09:02:14Z</time>
      </trkpt>
      <trkpt lat="44.05739" lon="1.86002">
        <ele>336.1</ele>
        <time>2017-04-23T09:02:18Z</time>
      </trkpt>
      <trkpt lat="44.05747" lon="1.86002">
        <ele>336.1</ele>
        <time>2017-04-23T09:02:21Z</time>
      </trkpt>
      <trkpt lat="44.05756" lon="1.86002">
        <ele>336.1</ele>
        <time>2017-04-23T09:02:25Z</time>
      </trkpt>
      <trkpt lat="44.05763" lon="1.85998">
        <ele>336.7</ele>
        <time>2017-04-23T09:02:29Z</time>
      </trkpt>
      <trkpt lat="44.0577" lon="1.85994">
        <ele>336</ele>
        <time>2017-04-23T09:02:34Z</time>
      </trkpt>
      <trkpt lat="44.05778" lon="1.85988">
        <ele>338</ele>
        <time>2017-04-23T09:03:43Z</time>
      </trkpt>
      <trkpt lat="44.05784" lon="1.85982">
        <ele>337.8</ele>
        <time>2017-04-23T09:03:47Z</time>
      </trkpt>
      <trkpt lat="44.0579" lon="1.85976">
        <ele>337.8</ele>
        <time>2017-04-23T09:03:51Z</time>
      </trkpt>
      <trkpt lat="44.05796" lon="1.8597">
        <ele>338.2</ele>
        <time>2017-04-23T09:03:55Z</time>
      </trkpt>
      <trkpt lat="44.05803" lon="1.85963">
        <ele>339.1</ele>
        <time>2017-04-23T09:03:59Z</time>
      </trkpt>
      <trkpt lat="44.05809" lon="1.85956">
        <ele>339.6</ele>
        <time>2017-04-23T09:04:03Z</time>
      </trkpt>
      <trkpt lat="44.05816" lon="1.8595">
        <ele>339.4</ele>
        <time>2017-04-23T09:04:07Z</time>
      </trkpt>
      <trkpt lat="44.05822" lon="1.85942">
        <ele>339.5</ele>
        <time>2017-04-23T09:04:11Z</time>
      </trkpt>
      <trkpt lat="44.05829" lon="1.85936">
        <ele>340.2</ele>
        <time>2017-04-23T09:04:15Z</time>
      </trkpt>
      <trkpt lat="44.05837" lon="1.85929">
        <ele>340.1</ele>
        <time>2017-04-23T09:04:19Z</time>
      </trkpt>
      <trkpt lat="44.05844" lon="1.85922">
        <ele>339.7</ele>
        <time>2017-04-23T09:04:23Z</time>
      </trkpt>
      <trkpt lat="44.05852" lon="1.85921">
        <ele>339.3</ele>
        <time>2017-04-23T09:04:27Z</time>
      </trkpt>
      <trkpt lat="44.05859" lon="1.85924">
        <ele>339.5</ele>
        <time>2017-04-23T09:04:30Z</time>
      </trkpt>
      <trkpt lat="44.05867" lon="1.85931">
        <ele>339.8</ele>
        <time>2017-04-23T09:04:33Z</time>
      </trkpt>
      <trkpt lat="44.05876" lon="1.85938">
        <ele>338.7</ele>
        <time>2017-04-23T09:04:36Z</time>
      </trkpt>
      <trkpt lat="44.05882" lon="1.85944">
        <ele>338.4</ele>
        <time>2017-04-23T09:04:38Z</time>
      </trkpt>
      <trkpt lat="44.0589" lon="1.85952">
        <ele>337.7</ele>
        <time>2017-04-23T09:04:40Z</time>
      </trkpt>
      <trkpt lat="44.05898" lon="1.85961">
        <ele>336.2</ele>
        <time>2017-04-23T09:04:42Z</time>
      </trkpt>
      <trkpt lat="44.05906" lon="1.85972">
        <ele>334.8</ele>
        <time>2017-04-23T09:04:44Z</time>
      </trkpt>
      <trkpt lat="44.05916" lon="1.85982">
        <ele>334.1</ele>
        <time>2017-04-23T09:04:46Z</time>
      </trkpt>
      <trkpt lat="44.05927" lon="1.85993">
        <ele>333.9</ele>
        <time>2017-04-23T09:04:48Z</time>
      </trkpt>
      <trkpt lat="44.05937" lon="1.86004">
        <ele>333.7</ele>
        <time>2017-04-23T09:04:50Z</time>
      </trkpt>
      <trkpt lat="44.05945" lon="1.86015">
        <ele>333.6</ele>
        <time>2017-04-23T09:04:52Z</time>
      </trkpt>
      <trkpt lat="44.05951" lon="1.86026">
        <ele>333.8</ele>
        <time>2017-04-23T09:04:54Z</time>
      </trkpt>
      <trkpt lat="44.05956" lon="1.86036">
        <ele>334.3</ele>
        <time>2017-04-23T09:04:56Z</time>
      </trkpt>
      <trkpt lat="44.05961" lon="1.86044">
        <ele>335.2</ele>
        <time>2017-04-23T09:04:58Z</time>
      </trkpt>
      <trkpt lat="44.05968" lon="1.86054">
        <ele>336</ele>
        <time>2017-04-23T09:05:01Z</time>
      </trkpt>
      <trkpt lat="44.05975" lon="1.86063">
        <ele>337</ele>
        <time>2017-04-23T09:05:04Z</time>
      </trkpt>
      <trkpt lat="44.0598" lon="1.8607">
        <ele>337.5</ele>
        <time>2017-04-23T09:05:07Z</time>
      </trkpt>
      <trkpt lat="44.05987" lon="1.8608">
        <ele>338</ele>
        <time>2017-04-23T09:05:11Z</time>
      </trkpt>
      <trkpt lat="44.05992" lon="1.86087">
        <ele>338.3</ele>
        <time>2017-04-23T09:05:14Z</time>
      </trkpt>
      <trkpt lat="44.05997" lon="1.86093">
        <ele>338.9</ele>
        <time>2017-04-23T09:05:17Z</time>
      </trkpt>
      <trkpt lat="44.06004" lon="1.86103">
        <ele>340.3</ele>
        <time>2017-04-23T09:05:21Z</time>
      </trkpt>
      <trkpt lat="44.06011" lon="1.8611">
        <ele>340.9</ele>
        <time>2017-04-23T09:05:25Z</time>
      </trkpt>
      <trkpt lat="44.06017" lon="1.86117">
        <ele>341.2</ele>
        <time>2017-04-23T09:05:27Z</time>
      </trkpt>
      <trkpt lat="44.06025" lon="1.86124">
        <ele>341.7</ele>
        <time>2017-04-23T09:05:30Z</time>
      </trkpt>
      <trkpt lat="44.06033" lon="1.8613">
        <ele>342.4</ele>
        <time>2017-04-23T09:05:33Z</time>
      </trkpt>
      <trkpt lat="44.06041" lon="1.86136">
        <ele>342.8</ele>
        <time>2017-04-23T09:05:36Z</time>
      </trkpt>
      <trkpt lat="44.0605" lon="1.86141">
        <ele>342.9</ele>
        <time>2017-04-23T09:05:39Z</time>
      </trkpt>
      <trkpt lat="44.06058" lon="1.86146">
        <ele>342.9</ele>
        <time>2017-04-23T09:05:42Z</time>
      </trkpt>
      <trkpt lat="44.06068" lon="1.86154">
        <ele>342.5</ele>
        <time>2017-04-23T09:05:45Z</time>
      </trkpt>
      <trkpt lat="44.06077" lon="1.86162">
        <ele>342.2</ele>
        <time>2017-04-23T09:05:48Z</time>
      </trkpt>
      <trkpt lat="44.06083" lon="1.86168">
        <ele>341.5</ele>
        <time>2017-04-23T09:05:50Z</time>
      </trkpt>
      <trkpt lat="44.06089" lon="1.86175">
        <ele>340.8</ele>
        <time>2017-04-23T09:05:52Z</time>
      </trkpt>
      <trkpt lat="44.06096" lon="1.86183">
        <ele>340.3</ele>
        <time>2017-04-23T09:05:54Z</time>
      </trkpt>
      <trkpt lat="44.06103" lon="1.86192">
        <ele>340.1</ele>
        <time>2017-04-23T09:05:56Z</time>
      </trkpt>
      <trkpt lat="44.06111" lon="1.86201">
        <ele>339.6</ele>
        <time>2017-04-23T09:05:58Z</time>
      </trkpt>
      <trkpt lat="44.06121" lon="1.86209">
        <ele>338.8</ele>
        <time>2017-04-23T09:06:00Z</time>
      </trkpt>
      <trkpt lat="44.0613" lon="1.86218">
        <ele>338.2</ele>
        <time>2017-04-23T09:06:02Z</time>
      </trkpt>
      <trkpt lat="44.0614" lon="1.86226">
        <ele>337.7</ele>
        <time>2017-04-23T09:06:04Z</time>
      </trkpt>
      <trkpt lat="44.06148" lon="1.86236">
        <ele>337.6</ele>
        <time>2017-04-23T09:06:06Z</time>
      </trkpt>
      <trkpt lat="44.06156" lon="1.86246">
        <ele>336.7</ele>
        <time>2017-04-23T09:06:08Z</time>
      </trkpt>
      <trkpt lat="44.06162" lon="1.86256">
        <ele>335.7</ele>
        <time>2017-04-23T09:06:10Z</time>
      </trkpt>
      <trkpt lat="44.06169" lon="1.86266">
        <ele>334.7</ele>
        <time>2017-04-23T09:06:12Z</time>
      </trkpt>
      <trkpt lat="44.06175" lon="1.86276">
        <ele>333.9</ele>
        <time>2017-04-23T09:06:14Z</time>
      </trkpt>
      <trkpt lat="44.06186" lon="1.86285">
        <ele>333.1</ele>
        <time>2017-04-23T09:06:16Z</time>
      </trkpt>
      <trkpt lat="44.06199" lon="1.86291">
        <ele>332.6</ele>
        <time>2017-04-23T09:06:18Z</time>
      </trkpt>
      <trkpt lat="44.06213" lon="1.86294">
        <ele>332.3</ele>
        <time>2017-04-23T09:06:20Z</time>
      </trkpt>
      <trkpt lat="44.06226" lon="1.863">
        <ele>332.4</ele>
        <time>2017-04-23T09:06:22Z</time>
      </trkpt>
      <trkpt lat="44.06235" lon="1.8631">
        <ele>332.7</ele>
        <time>2017-04-23T09:06:24Z</time>
      </trkpt>
      <trkpt lat="44.06242" lon="1.86319">
        <ele>333.1</ele>
        <time>2017-04-23T09:06:26Z</time>
      </trkpt>
      <trkpt lat="44.06247" lon="1.86327">
        <ele>333.5</ele>
        <time>2017-04-23T09:06:28Z</time>
      </trkpt>
      <trkpt lat="44.06252" lon="1.86337">
        <ele>334.2</ele>
        <time>2017-04-23T09:06:31Z</time>
      </trkpt>
      <trkpt lat="44.06258" lon="1.86348">
        <ele>335.3</ele>
        <time>2017-04-23T09:06:35Z</time>
      </trkpt>
      <trkpt lat="44.06263" lon="1.86358">
        <ele>336.1</ele>
        <time>2017-04-23T09:06:39Z</time>
      </trkpt>
      <trkpt lat="44.06268" lon="1.86368">
        <ele>336.7</ele>
        <time>2017-04-23T09:06:43Z</time>
      </trkpt>
      <trkpt lat="44.06272" lon="1.86378">
        <ele>336.9</ele>
        <time>2017-04-23T09:06:47Z</time>
      </trkpt>
      <trkpt lat="44.06277" lon="1.86388">
        <ele>337.7</ele>
        <time>2017-04-23T09:06:51Z</time>
      </trkpt>
      <trkpt lat="44.06282" lon="1.86399">
        <ele>338</ele>
        <time>2017-04-23T09:06:54Z</time>
      </trkpt>
      <trkpt lat="44.06287" lon="1.86409">
        <ele>338.3</ele>
        <time>2017-04-23T09:06:58Z</time>
      </trkpt>
      <trkpt lat="44.06292" lon="1.86419">
        <ele>338.9</ele>
        <time>2017-04-23T09:07:02Z</time>
      </trkpt>
      <trkpt lat="44.06298" lon="1.86429">
        <ele>340.5</ele>
        <time>2017-04-23T09:07:06Z</time>
      </trkpt>
      <trkpt lat="44.06304" lon="1.8644">
        <ele>340.8</ele>
        <time>2017-04-23T09:07:10Z</time>
      </trkpt>
      <trkpt lat="44.06308" lon="1.86449">
        <ele>341.9</ele>
        <time>2017-04-23T09:07:13Z</time>
      </trkpt>
      <trkpt lat="44.06311" lon="1.86459">
        <ele>342.6</ele>
        <time>2017-04-23T09:07:16Z</time>
      </trkpt>
      <trkpt lat="44.06314" lon="1.86468">
        <ele>343.3</ele>
        <time>2017-04-23T09:07:19Z</time>
      </trkpt>
      <trkpt lat="44.06316" lon="1.8648">
        <ele>344.3</ele>
        <time>2017-04-23T09:07:23Z</time>
      </trkpt>
      <trkpt lat="44.06318" lon="1.86491">
        <ele>344.2</ele>
        <time>2017-04-23T09:07:27Z</time>
      </trkpt>
      <trkpt lat="44.06322" lon="1.86502">
        <ele>344.3</ele>
        <time>2017-04-23T09:07:31Z</time>
      </trkpt>
      <trkpt lat="44.06328" lon="1.86505">
        <ele>344.3</ele>
        <time>2017-04-23T09:07:37Z</time>
      </trkpt>
      <trkpt lat="44.06337" lon="1.86505">
        <ele>344.5</ele>
        <time>2017-04-23T09:07:43Z</time>
      </trkpt>
      <trkpt lat="44.06345" lon="1.86505">
        <ele>344.5</ele>
        <time>2017-04-23T09:07:47Z</time>
      </trkpt>
      <trkpt lat="44.06353" lon="1.86509">
        <ele>345.4</ele>
        <time>2017-04-23T09:07:51Z</time>
      </trkpt>
      <trkpt lat="44.06361" lon="1.86512">
        <ele>346.4</ele>
        <time>2017-04-23T09:07:55Z</time>
      </trkpt>
      <trkpt lat="44.06368" lon="1.86515">
        <ele>347.5</ele>
        <time>2017-04-23T09:07:59Z</time>
      </trkpt>
      <trkpt lat="44.06376" lon="1.8652">
        <ele>348</ele>
        <time>2017-04-23T09:08:02Z</time>
      </trkpt>
      <trkpt lat="44.06384" lon="1.86526">
        <ele>348.8</ele>
        <time>2017-04-23T09:08:05Z</time>
      </trkpt>
      <trkpt lat="44.06392" lon="1.86533">
        <ele>349.7</ele>
        <time>2017-04-23T09:08:08Z</time>
      </trkpt>
      <trkpt lat="44.064" lon="1.8654">
        <ele>350.6</ele>
        <time>2017-04-23T09:08:11Z</time>
      </trkpt>
      <trkpt lat="44.06409" lon="1.86548">
        <ele>351.4</ele>
        <time>2017-04-23T09:08:14Z</time>
      </trkpt>
      <trkpt lat="44.06416" lon="1.86554">
        <ele>351.7</ele>
        <time>2017-04-23T09:08:17Z</time>
      </trkpt>
      <trkpt lat="44.06424" lon="1.8656">
        <ele>351.7</ele>
        <time>2017-04-23T09:08:20Z</time>
      </trkpt>
      <trkpt lat="44.0643" lon="1.86571">
        <ele>351.1</ele>
        <time>2017-04-23T09:08:23Z</time>
      </trkpt>
      <trkpt lat="44.06428" lon="1.86581">
        <ele>350.6</ele>
        <time>2017-04-23T09:08:25Z</time>
      </trkpt>
      <trkpt lat="44.06426" lon="1.86595">
        <ele>350.2</ele>
        <time>2017-04-23T09:08:27Z</time>
      </trkpt>
      <trkpt lat="44.06423" lon="1.8661">
        <ele>349.7</ele>
        <time>2017-04-23T09:08:29Z</time>
      </trkpt>
      <trkpt lat="44.06419" lon="1.86626">
        <ele>349.1</ele>
        <time>2017-04-23T09:08:31Z</time>
      </trkpt>
      <trkpt lat="44.06415" lon="1.86643">
        <ele>348.3</ele>
        <time>2017-04-23T09:08:33Z</time>
      </trkpt>
      <trkpt lat="44.06411" lon="1.8666">
        <ele>347.3</ele>
        <time>2017-04-23T09:08:35Z</time>
      </trkpt>
      <trkpt lat="44.06407" lon="1.86676">
        <ele>346.6</ele>
        <time>2017-04-23T09:08:37Z</time>
      </trkpt>
      <trkpt lat="44.0641" lon="1.8669">
        <ele>345.8</ele>
        <time>2017-04-23T09:08:39Z</time>
      </trkpt>
      <trkpt lat="44.06417" lon="1.86697">
        <ele>346.2</ele>
        <time>2017-04-23T09:08:41Z</time>
      </trkpt>
      <trkpt lat="44.06426" lon="1.867">
        <ele>346.3</ele>
        <time>2017-04-23T09:08:43Z</time>
      </trkpt>
      <trkpt lat="44.06434" lon="1.86701">
        <ele>346.3</ele>
        <time>2017-04-23T09:08:45Z</time>
      </trkpt>
      <trkpt lat="44.06442" lon="1.86703">
        <ele>346.5</ele>
        <time>2017-04-23T09:08:47Z</time>
      </trkpt>
      <trkpt lat="44.0645" lon="1.86711">
        <ele>346.7</ele>
        <time>2017-04-23T09:08:50Z</time>
      </trkpt>
      <trkpt lat="44.06451" lon="1.86725">
        <ele>346.7</ele>
        <time>2017-04-23T09:08:53Z</time>
      </trkpt>
      <trkpt lat="44.0645" lon="1.86739">
        <ele>346.7</ele>
        <time>2017-04-23T09:08:56Z</time>
      </trkpt>
      <trkpt lat="44.06446" lon="1.86753">
        <ele>346.8</ele>
        <time>2017-04-23T09:08:59Z</time>
      </trkpt>
      <trkpt lat="44.06442" lon="1.86762">
        <ele>346.8</ele>
        <time>2017-04-23T09:09:01Z</time>
      </trkpt>
      <trkpt lat="44.06437" lon="1.86769">
        <ele>347</ele>
        <time>2017-04-23T09:09:03Z</time>
      </trkpt>
      <trkpt lat="44.0643" lon="1.86776">
        <ele>346.8</ele>
        <time>2017-04-23T09:09:05Z</time>
      </trkpt>
      <trkpt lat="44.06423" lon="1.86781">
        <ele>345.9</ele>
        <time>2017-04-23T09:09:07Z</time>
      </trkpt>
      <trkpt lat="44.06414" lon="1.86783">
        <ele>344.9</ele>
        <time>2017-04-23T09:09:09Z</time>
      </trkpt>
      <trkpt lat="44.06406" lon="1.86785">
        <ele>344.3</ele>
        <time>2017-04-23T09:09:11Z</time>
      </trkpt>
      <trkpt lat="44.06399" lon="1.8679">
        <ele>343.6</ele>
        <time>2017-04-23T09:09:13Z</time>
      </trkpt>
      <trkpt lat="44.06395" lon="1.86799">
        <ele>343</ele>
        <time>2017-04-23T09:09:15Z</time>
      </trkpt>
      <trkpt lat="44.06391" lon="1.86809">
        <ele>341.6</ele>
        <time>2017-04-23T09:09:17Z</time>
      </trkpt>
      <trkpt lat="44.06381" lon="1.86809">
        <ele>340.3</ele>
        <time>2017-04-23T09:09:19Z</time>
      </trkpt>
      <trkpt lat="44.06371" lon="1.86801">
        <ele>339.3</ele>
        <time>2017-04-23T09:09:21Z</time>
      </trkpt>
      <trkpt lat="44.06363" lon="1.868">
        <ele>338.4</ele>
        <time>2017-04-23T09:09:23Z</time>
      </trkpt>
      <trkpt lat="44.06357" lon="1.86807">
        <ele>337.9</ele>
        <time>2017-04-23T09:09:25Z</time>
      </trkpt>
      <trkpt lat="44.06354" lon="1.86817">
        <ele>337.6</ele>
        <time>2017-04-23T09:09:27Z</time>
      </trkpt>
      <trkpt lat="44.06354" lon="1.86828">
        <ele>337.3</ele>
        <time>2017-04-23T09:09:29Z</time>
      </trkpt>
      <trkpt lat="44.06357" lon="1.86841">
        <ele>336.9</ele>
        <time>2017-04-23T09:09:32Z</time>
      </trkpt>
      <trkpt lat="44.06362" lon="1.8685">
        <ele>336.3</ele>
        <time>2017-04-23T09:09:35Z</time>
      </trkpt>
      <trkpt lat="44.06367" lon="1.86858">
        <ele>335.9</ele>
        <time>2017-04-23T09:09:38Z</time>
      </trkpt>
      <trkpt lat="44.06375" lon="1.86861">
        <ele>335.6</ele>
        <time>2017-04-23T09:09:42Z</time>
      </trkpt>
      <trkpt lat="44.0638" lon="1.86868">
        <ele>335.1</ele>
        <time>2017-04-23T09:09:48Z</time>
      </trkpt>
      <trkpt lat="44.06376" lon="1.86869">
        <ele>334.3</ele>
        <time>2017-04-23T09:09:55Z</time>
      </trkpt>
      <trkpt lat="44.06376" lon="1.86876">
        <ele>334.1</ele>
        <time>2017-04-23T09:10:02Z</time>
      </trkpt>
      <trkpt lat="44.06375" lon="1.86888">
        <ele>333.8</ele>
        <time>2017-04-23T09:10:06Z</time>
      </trkpt>
      <trkpt lat="44.06378" lon="1.86899">
        <ele>333.8</ele>
        <time>2017-04-23T09:10:09Z</time>
      </trkpt>
      <trkpt lat="44.06387" lon="1.86904">
        <ele>333.8</ele>
        <time>2017-04-23T09:10:12Z</time>
      </trkpt>
      <trkpt lat="44.06395" lon="1.86906">
        <ele>333.1</ele>
        <time>2017-04-23T09:10:14Z</time>
      </trkpt>
      <trkpt lat="44.06401" lon="1.86917">
        <ele>331.9</ele>
        <time>2017-04-23T09:10:19Z</time>
      </trkpt>
      <trkpt lat="44.06406" lon="1.86929">
        <ele>331.1</ele>
        <time>2017-04-23T09:10:21Z</time>
      </trkpt>
      <trkpt lat="44.06414" lon="1.86943">
        <ele>330.3</ele>
        <time>2017-04-23T09:10:23Z</time>
      </trkpt>
      <trkpt lat="44.06421" lon="1.86956">
        <ele>329.3</ele>
        <time>2017-04-23T09:10:25Z</time>
      </trkpt>
      <trkpt lat="44.06427" lon="1.8697">
        <ele>328.9</ele>
        <time>2017-04-23T09:10:27Z</time>
      </trkpt>
      <trkpt lat="44.0643" lon="1.86984">
        <ele>328.1</ele>
        <time>2017-04-23T09:10:29Z</time>
      </trkpt>
      <trkpt lat="44.0643" lon="1.86998">
        <ele>328.2</ele>
        <time>2017-04-23T09:10:31Z</time>
      </trkpt>
      <trkpt lat="44.0643" lon="1.87009">
        <ele>328.9</ele>
        <time>2017-04-23T09:10:33Z</time>
      </trkpt>
      <trkpt lat="44.0643" lon="1.87022">
        <ele>329.4</ele>
        <time>2017-04-23T09:10:36Z</time>
      </trkpt>
      <trkpt lat="44.0643" lon="1.87034">
        <ele>329.9</ele>
        <time>2017-04-23T09:10:39Z</time>
      </trkpt>
      <trkpt lat="44.06434" lon="1.87046">
        <ele>330.8</ele>
        <time>2017-04-23T09:10:42Z</time>
      </trkpt>
      <trkpt lat="44.06439" lon="1.87056">
        <ele>331.8</ele>
        <time>2017-04-23T09:10:45Z</time>
      </trkpt>
      <trkpt lat="44.06445" lon="1.87063">
        <ele>333.4</ele>
        <time>2017-04-23T09:10:48Z</time>
      </trkpt>
      <trkpt lat="44.06453" lon="1.87069">
        <ele>334.9</ele>
        <time>2017-04-23T09:10:51Z</time>
      </trkpt>
      <trkpt lat="44.06459" lon="1.87076">
        <ele>335.6</ele>
        <time>2017-04-23T09:10:54Z</time>
      </trkpt>
      <trkpt lat="44.06466" lon="1.87081">
        <ele>336.3</ele>
        <time>2017-04-23T09:10:57Z</time>
      </trkpt>
      <trkpt lat="44.06472" lon="1.87087">
        <ele>336.8</ele>
        <time>2017-04-23T09:11:00Z</time>
      </trkpt>
      <trkpt lat="44.06478" lon="1.87092">
        <ele>337</ele>
        <time>2017-04-23T09:11:03Z</time>
      </trkpt>
      <trkpt lat="44.06485" lon="1.87096">
        <ele>337.8</ele>
        <time>2017-04-23T09:11:06Z</time>
      </trkpt>
      <trkpt lat="44.06492" lon="1.871">
        <ele>338.6</ele>
        <time>2017-04-23T09:11:09Z</time>
      </trkpt>
      <trkpt lat="44.065" lon="1.87103">
        <ele>338.9</ele>
        <time>2017-04-23T09:11:12Z</time>
      </trkpt>
      <trkpt lat="44.06508" lon="1.87106">
        <ele>339.8</ele>
        <time>2017-04-23T09:11:15Z</time>
      </trkpt>
      <trkpt lat="44.06517" lon="1.87107">
        <ele>340.5</ele>
        <time>2017-04-23T09:11:18Z</time>
      </trkpt>
      <trkpt lat="44.06526" lon="1.8711">
        <ele>340.9</ele>
        <time>2017-04-23T09:11:22Z</time>
      </trkpt>
      <trkpt lat="44.06536" lon="1.87109">
        <ele>341.3</ele>
        <time>2017-04-23T09:11:26Z</time>
      </trkpt>
      <trkpt lat="44.06544" lon="1.87105">
        <ele>341.9</ele>
        <time>2017-04-23T09:11:30Z</time>
      </trkpt>
      <trkpt lat="44.06552" lon="1.87099">
        <ele>342.7</ele>
        <time>2017-04-23T09:11:34Z</time>
      </trkpt>
      <trkpt lat="44.06559" lon="1.87095">
        <ele>343.1</ele>
        <time>2017-04-23T09:11:37Z</time>
      </trkpt>
      <trkpt lat="44.06568" lon="1.87089">
        <ele>343.7</ele>
        <time>2017-04-23T09:11:41Z</time>
      </trkpt>
      <trkpt lat="44.06576" lon="1.87084">
        <ele>343.8</ele>
        <time>2017-04-23T09:11:44Z</time>
      </trkpt>
      <trkpt lat="44.06584" lon="1.8708">
        <ele>342.8</ele>
        <time>2017-04-23T09:11:47Z</time>
      </trkpt>
      <trkpt lat="44.06592" lon="1.87078">
        <ele>343.8</ele>
        <time>2017-04-23T09:11:50Z</time>
      </trkpt>
      <trkpt lat="44.06601" lon="1.87078">
        <ele>345.3</ele>
        <time>2017-04-23T09:11:53Z</time>
      </trkpt>
      <trkpt lat="44.06608" lon="1.87079">
        <ele>347.1</ele>
        <time>2017-04-23T09:11:56Z</time>
      </trkpt>
      <trkpt lat="44.06616" lon="1.87078">
        <ele>348.2</ele>
        <time>2017-04-23T09:12:00Z</time>
      </trkpt>
      <trkpt lat="44.06624" lon="1.87078">
        <ele>348.3</ele>
        <time>2017-04-23T09:12:06Z</time>
      </trkpt>
      <trkpt lat="44.06625" lon="1.87078">
        <ele>348.6</ele>
        <time>2017-04-23T09:12:13Z</time>
      </trkpt>
      <trkpt lat="44.06631" lon="1.87084">
        <ele>349.6</ele>
        <time>2017-04-23T09:12:25Z</time>
      </trkpt>
      <trkpt lat="44.06637" lon="1.87092">
        <ele>350.2</ele>
        <time>2017-04-23T09:12:30Z</time>
      </trkpt>
      <trkpt lat="44.06644" lon="1.87098">
        <ele>351</ele>
        <time>2017-04-23T09:12:34Z</time>
      </trkpt>
      <trkpt lat="44.06649" lon="1.87107">
        <ele>351.4</ele>
        <time>2017-04-23T09:12:38Z</time>
      </trkpt>
      <trkpt lat="44.06651" lon="1.87118">
        <ele>351.2</ele>
        <time>2017-04-23T09:12:42Z</time>
      </trkpt>
      <trkpt lat="44.06653" lon="1.87128">
        <ele>351.4</ele>
        <time>2017-04-23T09:12:46Z</time>
      </trkpt>
      <trkpt lat="44.06655" lon="1.87138">
        <ele>351.8</ele>
        <time>2017-04-23T09:12:50Z</time>
      </trkpt>
      <trkpt lat="44.06657" lon="1.87151">
        <ele>352.5</ele>
        <time>2017-04-23T09:12:55Z</time>
      </trkpt>
      <trkpt lat="44.0666" lon="1.8716">
        <ele>352.6</ele>
        <time>2017-04-23T09:12:59Z</time>
      </trkpt>
      <trkpt lat="44.06663" lon="1.87171">
        <ele>353.2</ele>
        <time>2017-04-23T09:13:03Z</time>
      </trkpt>
      <trkpt lat="44.06669" lon="1.87181">
        <ele>354.5</ele>
        <time>2017-04-23T09:13:08Z</time>
      </trkpt>
      <trkpt lat="44.06675" lon="1.87187">
        <ele>354.7</ele>
        <time>2017-04-23T09:13:12Z</time>
      </trkpt>
      <trkpt lat="44.06682" lon="1.87192">
        <ele>355.7</ele>
        <time>2017-04-23T09:13:16Z</time>
      </trkpt>
      <trkpt lat="44.06689" lon="1.87197">
        <ele>356</ele>
        <time>2017-04-23T09:13:20Z</time>
      </trkpt>
      <trkpt lat="44.06696" lon="1.87201">
        <ele>356.9</ele>
        <time>2017-04-23T09:13:24Z</time>
      </trkpt>
      <trkpt lat="44.06703" lon="1.87204">
        <ele>357.5</ele>
        <time>2017-04-23T09:13:28Z</time>
      </trkpt>
      <trkpt lat="44.06712" lon="1.87208">
        <ele>359.1</ele>
        <time>2017-04-23T09:13:32Z</time>
      </trkpt>
      <trkpt lat="44.06718" lon="1.87212">
        <ele>360.6</ele>
        <time>2017-04-23T09:13:36Z</time>
      </trkpt>
      <trkpt lat="44.06727" lon="1.87216">
        <ele>361.2</ele>
        <time>2017-04-23T09:13:40Z</time>
      </trkpt>
      <trkpt lat="44.06734" lon="1.87222">
        <ele>361.9</ele>
        <time>2017-04-23T09:13:44Z</time>
      </trkpt>
      <trkpt lat="44.06742" lon="1.87226">
        <ele>362.3</ele>
        <time>2017-04-23T09:13:48Z</time>
      </trkpt>
      <trkpt lat="44.06749" lon="1.8723">
        <ele>363.4</ele>
        <time>2017-04-23T09:13:52Z</time>
      </trkpt>
      <trkpt lat="44.06757" lon="1.87233">
        <ele>363.3</ele>
        <time>2017-04-23T09:13:56Z</time>
      </trkpt>
      <trkpt lat="44.06764" lon="1.87236">
        <ele>363</ele>
        <time>2017-04-23T09:14:00Z</time>
      </trkpt>
      <trkpt lat="44.06772" lon="1.87238">
        <ele>362.9</ele>
        <time>2017-04-23T09:14:04Z</time>
      </trkpt>
      <trkpt lat="44.06782" lon="1.87238">
        <ele>363.7</ele>
        <time>2017-04-23T09:14:08Z</time>
      </trkpt>
      <trkpt lat="44.06789" lon="1.87237">
        <ele>364.6</ele>
        <time>2017-04-23T09:14:11Z</time>
      </trkpt>
      <trkpt lat="44.06797" lon="1.87236">
        <ele>364.7</ele>
        <time>2017-04-23T09:14:15Z</time>
      </trkpt>
      <trkpt lat="44.06805" lon="1.87237">
        <ele>364.2</ele>
        <time>2017-04-23T09:14:19Z</time>
      </trkpt>
      <trkpt lat="44.06815" lon="1.8724">
        <ele>364.7</ele>
        <time>2017-04-23T09:14:23Z</time>
      </trkpt>
      <trkpt lat="44.06824" lon="1.87245">
        <ele>364.7</ele>
        <time>2017-04-23T09:14:27Z</time>
      </trkpt>
      <trkpt lat="44.06831" lon="1.8725">
        <ele>365.3</ele>
        <time>2017-04-23T09:14:30Z</time>
      </trkpt>
      <trkpt lat="44.06839" lon="1.87257">
        <ele>365.6</ele>
        <time>2017-04-23T09:14:33Z</time>
      </trkpt>
      <trkpt lat="44.06848" lon="1.87265">
        <ele>364.7</ele>
        <time>2017-04-23T09:14:36Z</time>
      </trkpt>
      <trkpt lat="44.06854" lon="1.87271">
        <ele>363.9</ele>
        <time>2017-04-23T09:14:38Z</time>
      </trkpt>
      <trkpt lat="44.06862" lon="1.87279">
        <ele>362.5</ele>
        <time>2017-04-23T09:14:40Z</time>
      </trkpt>
      <trkpt lat="44.06871" lon="1.87289">
        <ele>361.7</ele>
        <time>2017-04-23T09:14:42Z</time>
      </trkpt>
      <trkpt lat="44.06878" lon="1.873">
        <ele>361.5</ele>
        <time>2017-04-23T09:14:44Z</time>
      </trkpt>
      <trkpt lat="44.06884" lon="1.87312">
        <ele>361.3</ele>
        <time>2017-04-23T09:14:46Z</time>
      </trkpt>
      <trkpt lat="44.06886" lon="1.87326">
        <ele>361.3</ele>
        <time>2017-04-23T09:14:48Z</time>
      </trkpt>
      <trkpt lat="44.06887" lon="1.87341">
        <ele>360.8</ele>
        <time>2017-04-23T09:14:50Z</time>
      </trkpt>
      <trkpt lat="44.06886" lon="1.87357">
        <ele>360</ele>
        <time>2017-04-23T09:14:52Z</time>
      </trkpt>
      <trkpt lat="44.06886" lon="1.87375">
        <ele>359.6</ele>
        <time>2017-04-23T09:14:54Z</time>
      </trkpt>
      <trkpt lat="44.06888" lon="1.87392">
        <ele>358.5</ele>
        <time>2017-04-23T09:14:56Z</time>
      </trkpt>
      <trkpt lat="44.06889" lon="1.87408">
        <ele>358</ele>
        <time>2017-04-23T09:14:58Z</time>
      </trkpt>
      <trkpt lat="44.06889" lon="1.87422">
        <ele>357.6</ele>
        <time>2017-04-23T09:15:00Z</time>
      </trkpt>
      <trkpt lat="44.0689" lon="1.87436">
        <ele>357.3</ele>
        <time>2017-04-23T09:15:02Z</time>
      </trkpt>
      <trkpt lat="44.06891" lon="1.8745">
        <ele>357.5</ele>
        <time>2017-04-23T09:15:04Z</time>
      </trkpt>
      <trkpt lat="44.06893" lon="1.87463">
        <ele>357.3</ele>
        <time>2017-04-23T09:15:06Z</time>
      </trkpt>
      <trkpt lat="44.06895" lon="1.87473">
        <ele>357.4</ele>
        <time>2017-04-23T09:15:08Z</time>
      </trkpt>
      <trkpt lat="44.06895" lon="1.87485">
        <ele>357.3</ele>
        <time>2017-04-23T09:15:10Z</time>
      </trkpt>
      <trkpt lat="44.06896" lon="1.87496">
        <ele>357.9</ele>
        <time>2017-04-23T09:15:12Z</time>
      </trkpt>
      <trkpt lat="44.06896" lon="1.87507">
        <ele>358</ele>
        <time>2017-04-23T09:15:14Z</time>
      </trkpt>
      <trkpt lat="44.06895" lon="1.87517">
        <ele>358.1</ele>
        <time>2017-04-23T09:15:16Z</time>
      </trkpt>
      <trkpt lat="44.06893" lon="1.8753">
        <ele>357.9</ele>
        <time>2017-04-23T09:15:18Z</time>
      </trkpt>
      <trkpt lat="44.06889" lon="1.87544">
        <ele>357.4</ele>
        <time>2017-04-23T09:15:20Z</time>
      </trkpt>
      <trkpt lat="44.06885" lon="1.8756">
        <ele>356.7</ele>
        <time>2017-04-23T09:15:22Z</time>
      </trkpt>
      <trkpt lat="44.06882" lon="1.87577">
        <ele>356.3</ele>
        <time>2017-04-23T09:15:24Z</time>
      </trkpt>
      <trkpt lat="44.06881" lon="1.87592">
        <ele>355.9</ele>
        <time>2017-04-23T09:15:26Z</time>
      </trkpt>
      <trkpt lat="44.0688" lon="1.87606">
        <ele>356.1</ele>
        <time>2017-04-23T09:15:29Z</time>
      </trkpt>
      <trkpt lat="44.0688" lon="1.87618">
        <ele>356</ele>
        <time>2017-04-23T09:15:30Z</time>
      </trkpt>
      <trkpt lat="44.0688" lon="1.87629">
        <ele>355.9</ele>
        <time>2017-04-23T09:15:32Z</time>
      </trkpt>
      <trkpt lat="44.06881" lon="1.8764">
        <ele>355</ele>
        <time>2017-04-23T09:15:34Z</time>
      </trkpt>
      <trkpt lat="44.06881" lon="1.8765">
        <ele>354.7</ele>
        <time>2017-04-23T09:15:36Z</time>
      </trkpt>
      <trkpt lat="44.0688" lon="1.87661">
        <ele>354.5</ele>
        <time>2017-04-23T09:15:38Z</time>
      </trkpt>
      <trkpt lat="44.0688" lon="1.87675">
        <ele>354.2</ele>
        <time>2017-04-23T09:15:41Z</time>
      </trkpt>
      <trkpt lat="44.0688" lon="1.87689">
        <ele>353.6</ele>
        <time>2017-04-23T09:15:44Z</time>
      </trkpt>
      <trkpt lat="44.0688" lon="1.87704">
        <ele>353.7</ele>
        <time>2017-04-23T09:15:47Z</time>
      </trkpt>
      <trkpt lat="44.0688" lon="1.87718">
        <ele>353.9</ele>
        <time>2017-04-23T09:15:50Z</time>
      </trkpt>
      <trkpt lat="44.0688" lon="1.87733">
        <ele>354.1</ele>
        <time>2017-04-23T09:15:53Z</time>
      </trkpt>
      <trkpt lat="44.06878" lon="1.87747">
        <ele>354.3</ele>
        <time>2017-04-23T09:15:56Z</time>
      </trkpt>
      <trkpt lat="44.06877" lon="1.87758">
        <ele>354.4</ele>
        <time>2017-04-23T09:15:58Z</time>
      </trkpt>
      <trkpt lat="44.06875" lon="1.8777">
        <ele>354.5</ele>
        <time>2017-04-23T09:16:00Z</time>
      </trkpt>
      <trkpt lat="44.06871" lon="1.87783">
        <ele>354.6</ele>
        <time>2017-04-23T09:16:02Z</time>
      </trkpt>
      <trkpt lat="44.06868" lon="1.87797">
        <ele>354.6</ele>
        <time>2017-04-23T09:16:04Z</time>
      </trkpt>
      <trkpt lat="44.06865" lon="1.87807">
        <ele>354.6</ele>
        <time>2017-04-23T09:16:06Z</time>
      </trkpt>
      <trkpt lat="44.06863" lon="1.87818">
        <ele>354.6</ele>
        <time>2017-04-23T09:16:08Z</time>
      </trkpt>
      <trkpt lat="44.06861" lon="1.8783">
        <ele>354.4</ele>
        <time>2017-04-23T09:16:12Z</time>
      </trkpt>
      <trkpt lat="44.06859" lon="1.87837">
        <ele>353.5</ele>
        <time>2017-04-23T09:16:18Z</time>
      </trkpt>
      <trkpt lat="44.06857" lon="1.87849">
        <ele>353.8</ele>
        <time>2017-04-23T09:16:25Z</time>
      </trkpt>
      <trkpt lat="44.06857" lon="1.8786">
        <ele>353.3</ele>
        <time>2017-04-23T09:16:28Z</time>
      </trkpt>
      <trkpt lat="44.06858" lon="1.8787">
        <ele>353</ele>
        <time>2017-04-23T09:16:30Z</time>
      </trkpt>
      <trkpt lat="44.06855" lon="1.87884">
        <ele>352.7</ele>
        <time>2017-04-23T09:16:33Z</time>
      </trkpt>
      <trkpt lat="44.06848" lon="1.87892">
        <ele>352.3</ele>
        <time>2017-04-23T09:16:36Z</time>
      </trkpt>
      <trkpt lat="44.06843" lon="1.879">
        <ele>351.8</ele>
        <time>2017-04-23T09:16:39Z</time>
      </trkpt>
      <trkpt lat="44.06839" lon="1.87914">
        <ele>351.3</ele>
        <time>2017-04-23T09:16:42Z</time>
      </trkpt>
      <trkpt lat="44.06838" lon="1.87926">
        <ele>350.7</ele>
        <time>2017-04-23T09:16:44Z</time>
      </trkpt>
      <trkpt lat="44.06838" lon="1.87937">
        <ele>350</ele>
        <time>2017-04-23T09:16:46Z</time>
      </trkpt>
      <trkpt lat="44.06837" lon="1.8795">
        <ele>349.4</ele>
        <time>2017-04-23T09:16:48Z</time>
      </trkpt>
      <trkpt lat="44.06838" lon="1.87962">
        <ele>348</ele>
        <time>2017-04-23T09:16:50Z</time>
      </trkpt>
      <trkpt lat="44.0684" lon="1.87973">
        <ele>346.9</ele>
        <time>2017-04-23T09:16:52Z</time>
      </trkpt>
      <trkpt lat="44.06846" lon="1.87983">
        <ele>345.7</ele>
        <time>2017-04-23T09:16:54Z</time>
      </trkpt>
      <trkpt lat="44.0685" lon="1.87994">
        <ele>344.5</ele>
        <time>2017-04-23T09:16:56Z</time>
      </trkpt>
      <trkpt lat="44.06855" lon="1.88004">
        <ele>342.8</ele>
        <time>2017-04-23T09:16:58Z</time>
      </trkpt>
      <trkpt lat="44.06857" lon="1.88016">
        <ele>341.3</ele>
        <time>2017-04-23T09:17:00Z</time>
      </trkpt>
      <trkpt lat="44.06859" lon="1.88029">
        <ele>339.4</ele>
        <time>2017-04-23T09:17:02Z</time>
      </trkpt>
      <trkpt lat="44.0686" lon="1.88042">
        <ele>337.7</ele>
        <time>2017-04-23T09:17:04Z</time>
      </trkpt>
      <trkpt lat="44.06861" lon="1.88054">
        <ele>336.2</ele>
        <time>2017-04-23T09:17:06Z</time>
      </trkpt>
      <trkpt lat="44.06862" lon="1.88065">
        <ele>334.7</ele>
        <time>2017-04-23T09:17:08Z</time>
      </trkpt>
      <trkpt lat="44.06862" lon="1.88077">
        <ele>332.9</ele>
        <time>2017-04-23T09:17:10Z</time>
      </trkpt>
      <trkpt lat="44.06863" lon="1.88089">
        <ele>331.3</ele>
        <time>2017-04-23T09:17:12Z</time>
      </trkpt>
      <trkpt lat="44.06865" lon="1.881">
        <ele>329.2</ele>
        <time>2017-04-23T09:17:14Z</time>
      </trkpt>
      <trkpt lat="44.06867" lon="1.88112">
        <ele>327.2</ele>
        <time>2017-04-23T09:17:16Z</time>
      </trkpt>
      <trkpt lat="44.0687" lon="1.88124">
        <ele>325.2</ele>
        <time>2017-04-23T09:17:18Z</time>
      </trkpt>
      <trkpt lat="44.06872" lon="1.88137">
        <ele>323.2</ele>
        <time>2017-04-23T09:17:20Z</time>
      </trkpt>
      <trkpt lat="44.06873" lon="1.88149">
        <ele>321.2</ele>
        <time>2017-04-23T09:17:22Z</time>
      </trkpt>
      <trkpt lat="44.06875" lon="1.88162">
        <ele>319.3</ele>
        <time>2017-04-23T09:17:24Z</time>
      </trkpt>
      <trkpt lat="44.06878" lon="1.88173">
        <ele>316.5</ele>
        <time>2017-04-23T09:17:26Z</time>
      </trkpt>
      <trkpt lat="44.06881" lon="1.88185">
        <ele>314.2</ele>
        <time>2017-04-23T09:17:28Z</time>
      </trkpt>
      <trkpt lat="44.06883" lon="1.88198">
        <ele>311.8</ele>
        <time>2017-04-23T09:17:30Z</time>
      </trkpt>
      <trkpt lat="44.06884" lon="1.88211">
        <ele>309.6</ele>
        <time>2017-04-23T09:17:32Z</time>
      </trkpt>
      <trkpt lat="44.06885" lon="1.88224">
        <ele>307.4</ele>
        <time>2017-04-23T09:17:34Z</time>
      </trkpt>
      <trkpt lat="44.06885" lon="1.88236">
        <ele>305.6</ele>
        <time>2017-04-23T09:17:36Z</time>
      </trkpt>
      <trkpt lat="44.06884" lon="1.8825">
        <ele>303.8</ele>
        <time>2017-04-23T09:17:38Z</time>
      </trkpt>
      <trkpt lat="44.06884" lon="1.88264">
        <ele>302</ele>
        <time>2017-04-23T09:17:41Z</time>
      </trkpt>
      <trkpt lat="44.06884" lon="1.88278">
        <ele>300.2</ele>
        <time>2017-04-23T09:17:42Z</time>
      </trkpt>
      <trkpt lat="44.06883" lon="1.8829">
        <ele>298.4</ele>
        <time>2017-04-23T09:17:44Z</time>
      </trkpt>
      <trkpt lat="44.06882" lon="1.88301">
        <ele>296.5</ele>
        <time>2017-04-23T09:17:46Z</time>
      </trkpt>
      <trkpt lat="44.0688" lon="1.88313">
        <ele>295</ele>
        <time>2017-04-23T09:17:48Z</time>
      </trkpt>
      <trkpt lat="44.06879" lon="1.88325">
        <ele>293.4</ele>
        <time>2017-04-23T09:17:50Z</time>
      </trkpt>
      <trkpt lat="44.06876" lon="1.88335">
        <ele>291.5</ele>
        <time>2017-04-23T09:17:53Z</time>
      </trkpt>
      <trkpt lat="44.06878" lon="1.88342">
        <ele>288.3</ele>
        <time>2017-04-23T09:18:00Z</time>
      </trkpt>
      <trkpt lat="44.06879" lon="1.88348">
        <ele>286.4</ele>
        <time>2017-04-23T09:18:07Z</time>
      </trkpt>
      <trkpt lat="44.06879" lon="1.88357">
        <ele>284.8</ele>
        <time>2017-04-23T09:18:14Z</time>
      </trkpt>
      <trkpt lat="44.06879" lon="1.88368">
        <ele>282.6</ele>
        <time>2017-04-23T09:18:21Z</time>
      </trkpt>
      <trkpt lat="44.06877" lon="1.8838">
        <ele>281.3</ele>
        <time>2017-04-23T09:18:25Z</time>
      </trkpt>
      <trkpt lat="44.06876" lon="1.88392">
        <ele>280.2</ele>
        <time>2017-04-23T09:18:28Z</time>
      </trkpt>
      <trkpt lat="44.06875" lon="1.88405">
        <ele>278.4</ele>
        <time>2017-04-23T09:18:31Z</time>
      </trkpt>
      <trkpt lat="44.06873" lon="1.88417">
        <ele>277.2</ele>
        <time>2017-04-23T09:18:34Z</time>
      </trkpt>
      <trkpt lat="44.06873" lon="1.88423">
        <ele>276.8</ele>
        <time>2017-04-23T09:18:41Z</time>
      </trkpt>
      <trkpt lat="44.06871" lon="1.88433">
        <ele>277.1</ele>
        <time>2017-04-23T09:19:02Z</time>
      </trkpt>
      <trkpt lat="44.06873" lon="1.88433">
        <ele>277</ele>
        <time>2017-04-23T09:19:08Z</time>
      </trkpt>
      <trkpt lat="44.06874" lon="1.88426">
        <ele>276.9</ele>
        <time>2017-04-23T09:19:15Z</time>
      </trkpt>
      <trkpt lat="44.06869" lon="1.88434">
        <ele>276.9</ele>
        <time>2017-04-23T09:19:21Z</time>
      </trkpt>
      <trkpt lat="44.06868" lon="1.88444">
        <ele>276.9</ele>
        <time>2017-04-23T09:19:23Z</time>
      </trkpt>
      <trkpt lat="44.06866" lon="1.88455">
        <ele>276.7</ele>
        <time>2017-04-23T09:19:25Z</time>
      </trkpt>
      <trkpt lat="44.06862" lon="1.8847">
        <ele>276.3</ele>
        <time>2017-04-23T09:19:28Z</time>
      </trkpt>
      <trkpt lat="44.06861" lon="1.88481">
        <ele>276</ele>
        <time>2017-04-23T09:19:30Z</time>
      </trkpt>
      <trkpt lat="44.06859" lon="1.88492">
        <ele>275.8</ele>
        <time>2017-04-23T09:19:32Z</time>
      </trkpt>
      <trkpt lat="44.06856" lon="1.88502">
        <ele>275.5</ele>
        <time>2017-04-23T09:19:34Z</time>
      </trkpt>
      <trkpt lat="44.06852" lon="1.88513">
        <ele>275.2</ele>
        <time>2017-04-23T09:19:36Z</time>
      </trkpt>
      <trkpt lat="44.06851" lon="1.88523">
        <ele>274</ele>
        <time>2017-04-23T09:19:39Z</time>
      </trkpt>
      <trkpt lat="44.06851" lon="1.88534">
        <ele>272.9</ele>
        <time>2017-04-23T09:19:42Z</time>
      </trkpt>
      <trkpt lat="44.06851" lon="1.88548">
        <ele>269.8</ele>
        <time>2017-04-23T09:19:45Z</time>
      </trkpt>
      <trkpt lat="44.06851" lon="1.88561">
        <ele>264.6</ele>
        <time>2017-04-23T09:19:48Z</time>
      </trkpt>
      <trkpt lat="44.0685" lon="1.88576">
        <ele>260.9</ele>
        <time>2017-04-23T09:19:51Z</time>
      </trkpt>
      <trkpt lat="44.0685" lon="1.8859">
        <ele>256.7</ele>
        <time>2017-04-23T09:19:54Z</time>
      </trkpt>
      <trkpt lat="44.06848" lon="1.88602">
        <ele>254.5</ele>
        <time>2017-04-23T09:19:56Z</time>
      </trkpt>
      <trkpt lat="44.06848" lon="1.88613">
        <ele>251.3</ele>
        <time>2017-04-23T09:19:58Z</time>
      </trkpt>
      <trkpt lat="44.06848" lon="1.88625">
        <ele>248.8</ele>
        <time>2017-04-23T09:20:00Z</time>
      </trkpt>
      <trkpt lat="44.06849" lon="1.88639">
        <ele>245.8</ele>
        <time>2017-04-23T09:20:03Z</time>
      </trkpt>
      <trkpt lat="44.06849" lon="1.88648">
        <ele>244.2</ele>
        <time>2017-04-23T09:20:10Z</time>
      </trkpt>
      <trkpt lat="44.06848" lon="1.88646">
        <ele>243.4</ele>
        <time>2017-04-23T09:20:17Z</time>
      </trkpt>
      <trkpt lat="44.0685" lon="1.88646">
        <ele>243.2</ele>
        <time>2017-04-23T09:20:29Z</time>
      </trkpt>
      <trkpt lat="44.06857" lon="1.88657">
        <ele>242.1</ele>
        <time>2017-04-23T09:20:59Z</time>
      </trkpt>
      <trkpt lat="44.06865" lon="1.88662">
        <ele>241.9</ele>
        <time>2017-04-23T09:21:01Z</time>
      </trkpt>
      <trkpt lat="44.06874" lon="1.88665">
        <ele>241.7</ele>
        <time>2017-04-23T09:21:03Z</time>
      </trkpt>
      <trkpt lat="44.06881" lon="1.88675">
        <ele>241.2</ele>
        <time>2017-04-23T09:21:05Z</time>
      </trkpt>
      <trkpt lat="44.06884" lon="1.88689">
        <ele>240.7</ele>
        <time>2017-04-23T09:21:07Z</time>
      </trkpt>
      <trkpt lat="44.06888" lon="1.88703">
        <ele>239.5</ele>
        <time>2017-04-23T09:21:09Z</time>
      </trkpt>
      <trkpt lat="44.06891" lon="1.88718">
        <ele>238.8</ele>
        <time>2017-04-23T09:21:11Z</time>
      </trkpt>
      <trkpt lat="44.06894" lon="1.8873">
        <ele>237.9</ele>
        <time>2017-04-23T09:21:13Z</time>
      </trkpt>
      <trkpt lat="44.06897" lon="1.88742">
        <ele>238.2</ele>
        <time>2017-04-23T09:21:15Z</time>
      </trkpt>
      <trkpt lat="44.069" lon="1.88753">
        <ele>238.2</ele>
        <time>2017-04-23T09:21:18Z</time>
      </trkpt>
      <trkpt lat="44.069" lon="1.88767">
        <ele>238.3</ele>
        <time>2017-04-23T09:21:22Z</time>
      </trkpt>
      <trkpt lat="44.06894" lon="1.88779">
        <ele>238.2</ele>
        <time>2017-04-23T09:21:25Z</time>
      </trkpt>
      <trkpt lat="44.06887" lon="1.88785">
        <ele>238</ele>
        <time>2017-04-23T09:21:27Z</time>
      </trkpt>
      <trkpt lat="44.0688" lon="1.88791">
        <ele>236.8</ele>
        <time>2017-04-23T09:21:29Z</time>
      </trkpt>
      <trkpt lat="44.06872" lon="1.88798">
        <ele>235.8</ele>
        <time>2017-04-23T09:21:31Z</time>
      </trkpt>
      <trkpt lat="44.06864" lon="1.88806">
        <ele>233.8</ele>
        <time>2017-04-23T09:21:33Z</time>
      </trkpt>
      <trkpt lat="44.06858" lon="1.88818">
        <ele>232.4</ele>
        <time>2017-04-23T09:21:35Z</time>
      </trkpt>
      <trkpt lat="44.06853" lon="1.88833">
        <ele>230.8</ele>
        <time>2017-04-23T09:21:38Z</time>
      </trkpt>
      <trkpt lat="44.06852" lon="1.88846">
        <ele>229.6</ele>
        <time>2017-04-23T09:21:39Z</time>
      </trkpt>
      <trkpt lat="44.06852" lon="1.88856">
        <ele>228.8</ele>
        <time>2017-04-23T09:21:42Z</time>
      </trkpt>
      <trkpt lat="44.0686" lon="1.88856">
        <ele>227.5</ele>
        <time>2017-04-23T09:21:47Z</time>
      </trkpt>
      <trkpt lat="44.06868" lon="1.8885">
        <ele>226.7</ele>
        <time>2017-04-23T09:21:51Z</time>
      </trkpt>
      <trkpt lat="44.06876" lon="1.88845">
        <ele>225.7</ele>
        <time>2017-04-23T09:21:54Z</time>
      </trkpt>
      <trkpt lat="44.06883" lon="1.88841">
        <ele>225.1</ele>
        <time>2017-04-23T09:21:56Z</time>
      </trkpt>
      <trkpt lat="44.06891" lon="1.88836">
        <ele>224.7</ele>
        <time>2017-04-23T09:21:58Z</time>
      </trkpt>
      <trkpt lat="44.06899" lon="1.88832">
        <ele>223.5</ele>
        <time>2017-04-23T09:22:00Z</time>
      </trkpt>
      <trkpt lat="44.06905" lon="1.88828">
        <ele>223</ele>
        <time>2017-04-23T09:22:02Z</time>
      </trkpt>
      <trkpt lat="44.06913" lon="1.88824">
        <ele>222.2</ele>
        <time>2017-04-23T09:22:04Z</time>
      </trkpt>
      <trkpt lat="44.06922" lon="1.88819">
        <ele>221.1</ele>
        <time>2017-04-23T09:22:07Z</time>
      </trkpt>
      <trkpt lat="44.0693" lon="1.88812">
        <ele>220.9</ele>
        <time>2017-04-23T09:22:10Z</time>
      </trkpt>
      <trkpt lat="44.06937" lon="1.88808">
        <ele>221.1</ele>
        <time>2017-04-23T09:22:12Z</time>
      </trkpt>
      <trkpt lat="44.06945" lon="1.88802">
        <ele>220.9</ele>
        <time>2017-04-23T09:22:14Z</time>
      </trkpt>
      <trkpt lat="44.06952" lon="1.88794">
        <ele>220.8</ele>
        <time>2017-04-23T09:22:16Z</time>
      </trkpt>
      <trkpt lat="44.06959" lon="1.88786">
        <ele>220.6</ele>
        <time>2017-04-23T09:22:18Z</time>
      </trkpt>
      <trkpt lat="44.06967" lon="1.88781">
        <ele>220.1</ele>
        <time>2017-04-23T09:22:20Z</time>
      </trkpt>
      <trkpt lat="44.06976" lon="1.88774">
        <ele>218.5</ele>
        <time>2017-04-23T09:22:23Z</time>
      </trkpt>
      <trkpt lat="44.06983" lon="1.8877">
        <ele>218</ele>
        <time>2017-04-23T09:22:25Z</time>
      </trkpt>
      <trkpt lat="44.06987" lon="1.88761">
        <ele>216.8</ele>
        <time>2017-04-23T09:22:27Z</time>
      </trkpt>
      <trkpt lat="44.06989" lon="1.88748">
        <ele>216</ele>
        <time>2017-04-23T09:22:29Z</time>
      </trkpt>
      <trkpt lat="44.06989" lon="1.88737">
        <ele>215.4</ele>
        <time>2017-04-23T09:22:31Z</time>
      </trkpt>
      <trkpt lat="44.06992" lon="1.88725">
        <ele>214.6</ele>
        <time>2017-04-23T09:22:34Z</time>
      </trkpt>
      <trkpt lat="44.07" lon="1.88714">
        <ele>213.9</ele>
        <time>2017-04-23T09:22:37Z</time>
      </trkpt>
      <trkpt lat="44.07005" lon="1.88707">
        <ele>213</ele>
        <time>2017-04-23T09:22:39Z</time>
      </trkpt>
      <trkpt lat="44.07011" lon="1.88701">
        <ele>212.3</ele>
        <time>2017-04-23T09:22:41Z</time>
      </trkpt>
      <trkpt lat="44.07017" lon="1.88692">
        <ele>211.4</ele>
        <time>2017-04-23T09:22:44Z</time>
      </trkpt>
      <trkpt lat="44.07024" lon="1.88686">
        <ele>210.7</ele>
        <time>2017-04-23T09:22:48Z</time>
      </trkpt>
      <trkpt lat="44.07033" lon="1.88684">
        <ele>211</ele>
        <time>2017-04-23T09:22:52Z</time>
      </trkpt>
      <trkpt lat="44.07043" lon="1.88682">
        <ele>211.5</ele>
        <time>2017-04-23T09:22:55Z</time>
      </trkpt>
      <trkpt lat="44.07052" lon="1.88681">
        <ele>212.4</ele>
        <time>2017-04-23T09:22:58Z</time>
      </trkpt>
      <trkpt lat="44.07061" lon="1.8868">
        <ele>212.3</ele>
        <time>2017-04-23T09:23:00Z</time>
      </trkpt>
      <trkpt lat="44.07069" lon="1.88677">
        <ele>211.8</ele>
        <time>2017-04-23T09:23:02Z</time>
      </trkpt>
      <trkpt lat="44.07076" lon="1.88675">
        <ele>212.2</ele>
        <time>2017-04-23T09:23:04Z</time>
      </trkpt>
      <trkpt lat="44.07083" lon="1.88673">
        <ele>211.4</ele>
        <time>2017-04-23T09:23:06Z</time>
      </trkpt>
      <trkpt lat="44.07091" lon="1.88673">
        <ele>211.5</ele>
        <time>2017-04-23T09:23:08Z</time>
      </trkpt>
      <trkpt lat="44.07101" lon="1.88674">
        <ele>213.2</ele>
        <time>2017-04-23T09:23:11Z</time>
      </trkpt>
      <trkpt lat="44.07109" lon="1.88677">
        <ele>215</ele>
        <time>2017-04-23T09:23:14Z</time>
      </trkpt>
      <trkpt lat="44.0712" lon="1.8868">
        <ele>216</ele>
        <time>2017-04-23T09:23:17Z</time>
      </trkpt>
      <trkpt lat="44.07128" lon="1.8868">
        <ele>216.6</ele>
        <time>2017-04-23T09:23:19Z</time>
      </trkpt>
      <trkpt lat="44.07135" lon="1.88679">
        <ele>216.9</ele>
        <time>2017-04-23T09:23:21Z</time>
      </trkpt>
      <trkpt lat="44.07145" lon="1.88676">
        <ele>216.5</ele>
        <time>2017-04-23T09:23:24Z</time>
      </trkpt>
      <trkpt lat="44.07154" lon="1.88673">
        <ele>216.7</ele>
        <time>2017-04-23T09:23:26Z</time>
      </trkpt>
      <trkpt lat="44.07162" lon="1.88668">
        <ele>216.4</ele>
        <time>2017-04-23T09:23:28Z</time>
      </trkpt>
      <trkpt lat="44.07171" lon="1.88664">
        <ele>215.9</ele>
        <time>2017-04-23T09:23:30Z</time>
      </trkpt>
      <trkpt lat="44.07181" lon="1.88661">
        <ele>215.9</ele>
        <time>2017-04-23T09:23:32Z</time>
      </trkpt>
      <trkpt lat="44.0719" lon="1.88656">
        <ele>215.7</ele>
        <time>2017-04-23T09:23:34Z</time>
      </trkpt>
      <trkpt lat="44.07198" lon="1.8865">
        <ele>214.9</ele>
        <time>2017-04-23T09:23:36Z</time>
      </trkpt>
      <trkpt lat="44.07206" lon="1.88647">
        <ele>213.2</ele>
        <time>2017-04-23T09:23:38Z</time>
      </trkpt>
      <trkpt lat="44.07216" lon="1.88645">
        <ele>212.3</ele>
        <time>2017-04-23T09:23:40Z</time>
      </trkpt>
      <trkpt lat="44.07225" lon="1.88639">
        <ele>212.4</ele>
        <time>2017-04-23T09:23:42Z</time>
      </trkpt>
      <trkpt lat="44.07233" lon="1.88628">
        <ele>211.7</ele>
        <time>2017-04-23T09:23:44Z</time>
      </trkpt>
      <trkpt lat="44.0724" lon="1.88616">
        <ele>211.8</ele>
        <time>2017-04-23T09:23:46Z</time>
      </trkpt>
      <trkpt lat="44.07246" lon="1.88606">
        <ele>211.6</ele>
        <time>2017-04-23T09:23:48Z</time>
      </trkpt>
      <trkpt lat="44.07254" lon="1.88596">
        <ele>211.1</ele>
        <time>2017-04-23T09:23:50Z</time>
      </trkpt>
      <trkpt lat="44.07261" lon="1.88589">
        <ele>211.5</ele>
        <time>2017-04-23T09:23:52Z</time>
      </trkpt>
      <trkpt lat="44.07268" lon="1.8858">
        <ele>211.6</ele>
        <time>2017-04-23T09:23:54Z</time>
      </trkpt>
      <trkpt lat="44.07275" lon="1.88571">
        <ele>211</ele>
        <time>2017-04-23T09:23:56Z</time>
      </trkpt>
      <trkpt lat="44.07282" lon="1.88562">
        <ele>210.4</ele>
        <time>2017-04-23T09:23:58Z</time>
      </trkpt>
      <trkpt lat="44.07288" lon="1.88553">
        <ele>210.2</ele>
        <time>2017-04-23T09:24:00Z</time>
      </trkpt>
      <trkpt lat="44.07295" lon="1.88544">
        <ele>209.1</ele>
        <time>2017-04-23T09:24:03Z</time>
      </trkpt>
      <trkpt lat="44.073" lon="1.88536">
        <ele>209.1</ele>
        <time>2017-04-23T09:24:06Z</time>
      </trkpt>
      <trkpt lat="44.07304" lon="1.88524">
        <ele>210</ele>
        <time>2017-04-23T09:24:09Z</time>
      </trkpt>
      <trkpt lat="44.07311" lon="1.88515">
        <ele>210.1</ele>
        <time>2017-04-23T09:24:12Z</time>
      </trkpt>
      <trkpt lat="44.07321" lon="1.88511">
        <ele>209.8</ele>
        <time>2017-04-23T09:24:15Z</time>
      </trkpt>
      <trkpt lat="44.07327" lon="1.88507">
        <ele>209.4</ele>
        <time>2017-04-23T09:24:17Z</time>
      </trkpt>
      <trkpt lat="44.07335" lon="1.88502">
        <ele>209.1</ele>
        <time>2017-04-23T09:24:20Z</time>
      </trkpt>
      <trkpt lat="44.07342" lon="1.88491">
        <ele>208.4</ele>
        <time>2017-04-23T09:24:23Z</time>
      </trkpt>
      <trkpt lat="44.07347" lon="1.88481">
        <ele>207.8</ele>
        <time>2017-04-23T09:24:26Z</time>
      </trkpt>
      <trkpt lat="44.07352" lon="1.88471">
        <ele>207.7</ele>
        <time>2017-04-23T09:24:33Z</time>
      </trkpt>
      <trkpt lat="44.07355" lon="1.88469">
        <ele>208.5</ele>
        <time>2017-04-23T09:24:40Z</time>
      </trkpt>
      <trkpt lat="44.0736" lon="1.8846">
        <ele>210.1</ele>
        <time>2017-04-23T09:24:49Z</time>
      </trkpt>
      <trkpt lat="44.07364" lon="1.88451">
        <ele>210.1</ele>
        <time>2017-04-23T09:24:54Z</time>
      </trkpt>
      <trkpt lat="44.0737" lon="1.88446">
        <ele>210.5</ele>
        <time>2017-04-23T09:24:58Z</time>
      </trkpt>
      <trkpt lat="44.07377" lon="1.88442">
        <ele>211.4</ele>
        <time>2017-04-23T09:25:01Z</time>
      </trkpt>
      <trkpt lat="44.07385" lon="1.88433">
        <ele>211.6</ele>
        <time>2017-04-23T09:25:04Z</time>
      </trkpt>
      <trkpt lat="44.07389" lon="1.88422">
        <ele>211.3</ele>
        <time>2017-04-23T09:25:07Z</time>
      </trkpt>
      <trkpt lat="44.07395" lon="1.88415">
        <ele>210.9</ele>
        <time>2017-04-23T09:25:09Z</time>
      </trkpt>
      <trkpt lat="44.07404" lon="1.88405">
        <ele>210.9</ele>
        <time>2017-04-23T09:25:11Z</time>
      </trkpt>
      <trkpt lat="44.07413" lon="1.88396">
        <ele>210.5</ele>
        <time>2017-04-23T09:25:13Z</time>
      </trkpt>
      <trkpt lat="44.07421" lon="1.88387">
        <ele>210</ele>
        <time>2017-04-23T09:25:15Z</time>
      </trkpt>
      <trkpt lat="44.07428" lon="1.88379">
        <ele>209.6</ele>
        <time>2017-04-23T09:25:17Z</time>
      </trkpt>
      <trkpt lat="44.07435" lon="1.8837">
        <ele>209.4</ele>
        <time>2017-04-23T09:25:19Z</time>
      </trkpt>
      <trkpt lat="44.07442" lon="1.88364">
        <ele>209.3</ele>
        <time>2017-04-23T09:25:23Z</time>
      </trkpt>
      <trkpt lat="44.0745" lon="1.88361">
        <ele>209.1</ele>
        <time>2017-04-23T09:25:28Z</time>
      </trkpt>
      <trkpt lat="44.07457" lon="1.88361">
        <ele>207.7</ele>
        <time>2017-04-23T09:25:32Z</time>
      </trkpt>
      <trkpt lat="44.07459" lon="1.88358">
        <ele>208</ele>
        <time>2017-04-23T09:25:39Z</time>
      </trkpt>
      <trkpt lat="44.07462" lon="1.88356">
        <ele>207.9</ele>
        <time>2017-04-23T09:26:03Z</time>
      </trkpt>
      <trkpt lat="44.07461" lon="1.88357">
        <ele>207.8</ele>
        <time>2017-04-23T09:26:10Z</time>
      </trkpt>
      <trkpt lat="44.07462" lon="1.88347">
        <ele>209.3</ele>
        <time>2017-04-23T09:26:36Z</time>
      </trkpt>
      <trkpt lat="44.07466" lon="1.88337">
        <ele>207.5</ele>
        <time>2017-04-23T09:26:40Z</time>
      </trkpt>
      <trkpt lat="44.07473" lon="1.8833">
        <ele>205.1</ele>
        <time>2017-04-23T09:26:44Z</time>
      </trkpt>
      <trkpt lat="44.07479" lon="1.88325">
        <ele>203.2</ele>
        <time>2017-04-23T09:26:50Z</time>
      </trkpt>
      <trkpt lat="44.07488" lon="1.88318">
        <ele>202.4</ele>
        <time>2017-04-23T09:26:55Z</time>
      </trkpt>
      <trkpt lat="44.07496" lon="1.88317">
        <ele>202.3</ele>
        <time>2017-04-23T09:27:00Z</time>
      </trkpt>
      <trkpt lat="44.07494" lon="1.88315">
        <ele>202.8</ele>
        <time>2017-04-23T09:27:07Z</time>
      </trkpt>
      <trkpt lat="44.07498" lon="1.8831">
        <ele>203.8</ele>
        <time>2017-04-23T09:27:14Z</time>
      </trkpt>
      <trkpt lat="44.07502" lon="1.88306">
        <ele>205.2</ele>
        <time>2017-04-23T09:27:21Z</time>
      </trkpt>
      <trkpt lat="44.07507" lon="1.88311">
        <ele>208</ele>
        <time>2017-04-23T09:27:35Z</time>
      </trkpt>
      <trkpt lat="44.07514" lon="1.88314">
        <ele>209.1</ele>
        <time>2017-04-23T09:27:56Z</time>
      </trkpt>
      <trkpt lat="44.07521" lon="1.88309">
        <ele>210.3</ele>
        <time>2017-04-23T09:28:11Z</time>
      </trkpt>
      <trkpt lat="44.07528" lon="1.88303">
        <ele>209.5</ele>
        <time>2017-04-23T09:28:16Z</time>
      </trkpt>
      <trkpt lat="44.07532" lon="1.88294">
        <ele>208.5</ele>
        <time>2017-04-23T09:28:20Z</time>
      </trkpt>
      <trkpt lat="44.07532" lon="1.88282">
        <ele>207.3</ele>
        <time>2017-04-23T09:28:24Z</time>
      </trkpt>
      <trkpt lat="44.07532" lon="1.88278">
        <ele>206.9</ele>
        <time>2017-04-23T09:28:31Z</time>
      </trkpt>
      <trkpt lat="44.0754" lon="1.88272">
        <ele>206.7</ele>
        <time>2017-04-23T09:28:43Z</time>
      </trkpt>
      <trkpt lat="44.07546" lon="1.88266">
        <ele>205.5</ele>
        <time>2017-04-23T09:28:47Z</time>
      </trkpt>
      <trkpt lat="44.07551" lon="1.88259">
        <ele>204.6</ele>
        <time>2017-04-23T09:28:51Z</time>
      </trkpt>
      <trkpt lat="44.07552" lon="1.88257">
        <ele>203.7</ele>
        <time>2017-04-23T09:28:58Z</time>
      </trkpt>
      <trkpt lat="44.07545" lon="1.88261">
        <ele>203.2</ele>
        <time>2017-04-23T09:29:21Z</time>
      </trkpt>
      <trkpt lat="44.07539" lon="1.88267">
        <ele>203.6</ele>
        <time>2017-04-23T09:29:28Z</time>
      </trkpt>
      <trkpt lat="44.07533" lon="1.88274">
        <ele>204.8</ele>
        <time>2017-04-23T09:29:35Z</time>
      </trkpt>
      <trkpt lat="44.07532" lon="1.88276">
        <ele>205.1</ele>
        <time>2017-04-23T09:29:42Z</time>
      </trkpt>
      <trkpt lat="44.07531" lon="1.88287">
        <ele>205.7</ele>
        <time>2017-04-23T09:30:05Z</time>
      </trkpt>
      <trkpt lat="44.07529" lon="1.88298">
        <ele>206.5</ele>
        <time>2017-04-23T09:30:10Z</time>
      </trkpt>
      <trkpt lat="44.07524" lon="1.88307">
        <ele>207.2</ele>
        <time>2017-04-23T09:30:15Z</time>
      </trkpt>
      <trkpt lat="44.07518" lon="1.88312">
        <ele>208.7</ele>
        <time>2017-04-23T09:30:20Z</time>
      </trkpt>
      <trkpt lat="44.07514" lon="1.88321">
        <ele>209.9</ele>
        <time>2017-04-23T09:30:25Z</time>
      </trkpt>
      <trkpt lat="44.0751" lon="1.88331">
        <ele>210.3</ele>
        <time>2017-04-23T09:30:30Z</time>
      </trkpt>
      <trkpt lat="44.07506" lon="1.88341">
        <ele>210.5</ele>
        <time>2017-04-23T09:30:35Z</time>
      </trkpt>
      <trkpt lat="44.07505" lon="1.88352">
        <ele>210.8</ele>
        <time>2017-04-23T09:30:41Z</time>
      </trkpt>
      <trkpt lat="44.07505" lon="1.88365">
        <ele>210.8</ele>
        <time>2017-04-23T09:30:45Z</time>
      </trkpt>
      <trkpt lat="44.07507" lon="1.88376">
        <ele>211.7</ele>
        <time>2017-04-23T09:30:48Z</time>
      </trkpt>
      <trkpt lat="44.07513" lon="1.88385">
        <ele>212.5</ele>
        <time>2017-04-23T09:30:52Z</time>
      </trkpt>
      <trkpt lat="44.0752" lon="1.88395">
        <ele>214.3</ele>
        <time>2017-04-23T09:30:56Z</time>
      </trkpt>
      <trkpt lat="44.0752" lon="1.88406">
        <ele>214.9</ele>
        <time>2017-04-23T09:31:00Z</time>
      </trkpt>
      <trkpt lat="44.07513" lon="1.88415">
        <ele>214.3</ele>
        <time>2017-04-23T09:31:04Z</time>
      </trkpt>
      <trkpt lat="44.07509" lon="1.88424">
        <ele>213.9</ele>
        <time>2017-04-23T09:31:07Z</time>
      </trkpt>
      <trkpt lat="44.07507" lon="1.88435">
        <ele>213.7</ele>
        <time>2017-04-23T09:31:10Z</time>
      </trkpt>
      <trkpt lat="44.07503" lon="1.88445">
        <ele>213.6</ele>
        <time>2017-04-23T09:31:13Z</time>
      </trkpt>
      <trkpt lat="44.07501" lon="1.88459">
        <ele>213.9</ele>
        <time>2017-04-23T09:31:16Z</time>
      </trkpt>
      <trkpt lat="44.07506" lon="1.88469">
        <ele>215</ele>
        <time>2017-04-23T09:31:20Z</time>
      </trkpt>
      <trkpt lat="44.07509" lon="1.88478">
        <ele>215.9</ele>
        <time>2017-04-23T09:31:23Z</time>
      </trkpt>
      <trkpt lat="44.07512" lon="1.8849">
        <ele>214.5</ele>
        <time>2017-04-23T09:31:27Z</time>
      </trkpt>
      <trkpt lat="44.07511" lon="1.885">
        <ele>214.1</ele>
        <time>2017-04-23T09:31:31Z</time>
      </trkpt>
      <trkpt lat="44.07515" lon="1.8851">
        <ele>214.8</ele>
        <time>2017-04-23T09:31:35Z</time>
      </trkpt>
      <trkpt lat="44.07522" lon="1.8852">
        <ele>216.6</ele>
        <time>2017-04-23T09:31:38Z</time>
      </trkpt>
      <trkpt lat="44.0753" lon="1.88524">
        <ele>218.4</ele>
        <time>2017-04-23T09:31:41Z</time>
      </trkpt>
      <trkpt lat="44.07536" lon="1.88529">
        <ele>222.3</ele>
        <time>2017-04-23T09:31:44Z</time>
      </trkpt>
      <trkpt lat="44.07546" lon="1.88531">
        <ele>225</ele>
        <time>2017-04-23T09:31:48Z</time>
      </trkpt>
      <trkpt lat="44.07553" lon="1.8853">
        <ele>226.3</ele>
        <time>2017-04-23T09:31:52Z</time>
      </trkpt>
      <trkpt lat="44.07551" lon="1.88518">
        <ele>226.2</ele>
        <time>2017-04-23T09:32:17Z</time>
      </trkpt>
      <trkpt lat="44.07559" lon="1.88515">
        <ele>224</ele>
        <time>2017-04-23T09:32:24Z</time>
      </trkpt>
      <trkpt lat="44.07566" lon="1.8852">
        <ele>224.8</ele>
        <time>2017-04-23T09:32:29Z</time>
      </trkpt>
      <trkpt lat="44.07574" lon="1.88519">
        <ele>226.6</ele>
        <time>2017-04-23T09:32:34Z</time>
      </trkpt>
      <trkpt lat="44.07584" lon="1.88515">
        <ele>227.1</ele>
        <time>2017-04-23T09:32:39Z</time>
      </trkpt>
      <trkpt lat="44.07591" lon="1.88509">
        <ele>228.1</ele>
        <time>2017-04-23T09:32:43Z</time>
      </trkpt>
      <trkpt lat="44.07597" lon="1.88501">
        <ele>228.4</ele>
        <time>2017-04-23T09:32:48Z</time>
      </trkpt>
      <trkpt lat="44.076" lon="1.88498">
        <ele>228.2</ele>
        <time>2017-04-23T09:32:55Z</time>
      </trkpt>
      <trkpt lat="44.07602" lon="1.88497">
        <ele>228.6</ele>
        <time>2017-04-23T09:33:02Z</time>
      </trkpt>
      <trkpt lat="44.07599" lon="1.88496">
        <ele>228.8</ele>
        <time>2017-04-23T09:33:26Z</time>
      </trkpt>
      <trkpt lat="44.07602" lon="1.88498">
        <ele>228.9</ele>
        <time>2017-04-23T09:34:30Z</time>
      </trkpt>
      <trkpt lat="44.07602" lon="1.88502">
        <ele>229</ele>
        <time>2017-04-23T09:34:37Z</time>
      </trkpt>
      <trkpt lat="44.07603" lon="1.88491">
        <ele>230.3</ele>
        <time>2017-04-23T09:34:59Z</time>
      </trkpt>
      <trkpt lat="44.07609" lon="1.88485">
        <ele>231.3</ele>
        <time>2017-04-23T09:35:04Z</time>
      </trkpt>
      <trkpt lat="44.07614" lon="1.88477">
        <ele>231.6</ele>
        <time>2017-04-23T09:35:08Z</time>
      </trkpt>
      <trkpt lat="44.07618" lon="1.88468">
        <ele>232.2</ele>
        <time>2017-04-23T09:35:12Z</time>
      </trkpt>
      <trkpt lat="44.0762" lon="1.88458">
        <ele>232.5</ele>
        <time>2017-04-23T09:35:16Z</time>
      </trkpt>
      <trkpt lat="44.07625" lon="1.88449">
        <ele>232.9</ele>
        <time>2017-04-23T09:35:20Z</time>
      </trkpt>
      <trkpt lat="44.07627" lon="1.88438">
        <ele>233.3</ele>
        <time>2017-04-23T09:35:24Z</time>
      </trkpt>
      <trkpt lat="44.0763" lon="1.88427">
        <ele>233.1</ele>
        <time>2017-04-23T09:35:28Z</time>
      </trkpt>
      <trkpt lat="44.07635" lon="1.88419">
        <ele>233.4</ele>
        <time>2017-04-23T09:35:32Z</time>
      </trkpt>
      <trkpt lat="44.07635" lon="1.88416">
        <ele>232.3</ele>
        <time>2017-04-23T09:35:39Z</time>
      </trkpt>
      <trkpt lat="44.07638" lon="1.88406">
        <ele>231.8</ele>
        <time>2017-04-23T09:35:44Z</time>
      </trkpt>
      <trkpt lat="44.07646" lon="1.88406">
        <ele>232.8</ele>
        <time>2017-04-23T09:35:50Z</time>
      </trkpt>
      <trkpt lat="44.0765" lon="1.88406">
        <ele>232.7</ele>
        <time>2017-04-23T09:35:57Z</time>
      </trkpt>
      <trkpt lat="44.07654" lon="1.88415">
        <ele>233.7</ele>
        <time>2017-04-23T09:36:09Z</time>
      </trkpt>
      <trkpt lat="44.07661" lon="1.88421">
        <ele>233.3</ele>
        <time>2017-04-23T09:36:15Z</time>
      </trkpt>
      <trkpt lat="44.07665" lon="1.88431">
        <ele>231.7</ele>
        <time>2017-04-23T09:36:20Z</time>
      </trkpt>
      <trkpt lat="44.0767" lon="1.8844">
        <ele>228.7</ele>
        <time>2017-04-23T09:36:25Z</time>
      </trkpt>
      <trkpt lat="44.0768" lon="1.88437">
        <ele>226.2</ele>
        <time>2017-04-23T09:36:29Z</time>
      </trkpt>
      <trkpt lat="44.07689" lon="1.88433">
        <ele>224.1</ele>
        <time>2017-04-23T09:36:32Z</time>
      </trkpt>
      <trkpt lat="44.07699" lon="1.88432">
        <ele>222.1</ele>
        <time>2017-04-23T09:36:35Z</time>
      </trkpt>
      <trkpt lat="44.07706" lon="1.88429">
        <ele>220.5</ele>
        <time>2017-04-23T09:36:38Z</time>
      </trkpt>
      <trkpt lat="44.07713" lon="1.88421">
        <ele>219.2</ele>
        <time>2017-04-23T09:36:43Z</time>
      </trkpt>
      <trkpt lat="44.07716" lon="1.88412">
        <ele>218.7</ele>
        <time>2017-04-23T09:36:48Z</time>
      </trkpt>
      <trkpt lat="44.07721" lon="1.88402">
        <ele>217.5</ele>
        <time>2017-04-23T09:36:52Z</time>
      </trkpt>
      <trkpt lat="44.07718" lon="1.88392">
        <ele>216.2</ele>
        <time>2017-04-23T09:36:55Z</time>
      </trkpt>
      <trkpt lat="44.07714" lon="1.88384">
        <ele>215.7</ele>
        <time>2017-04-23T09:36:58Z</time>
      </trkpt>
      <trkpt lat="44.07712" lon="1.88372">
        <ele>215.6</ele>
        <time>2017-04-23T09:37:02Z</time>
      </trkpt>
      <trkpt lat="44.07712" lon="1.88361">
        <ele>213.9</ele>
        <time>2017-04-23T09:37:05Z</time>
      </trkpt>
      <trkpt lat="44.07712" lon="1.88348">
        <ele>212.5</ele>
        <time>2017-04-23T09:37:08Z</time>
      </trkpt>
      <trkpt lat="44.07712" lon="1.88335">
        <ele>212.2</ele>
        <time>2017-04-23T09:37:11Z</time>
      </trkpt>
      <trkpt lat="44.07712" lon="1.88326">
        <ele>212.5</ele>
        <time>2017-04-23T09:37:14Z</time>
      </trkpt>
      <trkpt lat="44.07712" lon="1.88314">
        <ele>212.3</ele>
        <time>2017-04-23T09:37:17Z</time>
      </trkpt>
      <trkpt lat="44.07709" lon="1.88301">
        <ele>212.6</ele>
        <time>2017-04-23T09:37:20Z</time>
      </trkpt>
      <trkpt lat="44.07705" lon="1.88292">
        <ele>212.2</ele>
        <time>2017-04-23T09:37:25Z</time>
      </trkpt>
      <trkpt lat="44.07698" lon="1.88295">
        <ele>211.4</ele>
        <time>2017-04-23T09:37:31Z</time>
      </trkpt>
      <trkpt lat="44.07691" lon="1.88301">
        <ele>212.2</ele>
        <time>2017-04-23T09:37:35Z</time>
      </trkpt>
      <trkpt lat="44.07685" lon="1.88307">
        <ele>213.4</ele>
        <time>2017-04-23T09:37:41Z</time>
      </trkpt>
      <trkpt lat="44.07683" lon="1.88317">
        <ele>216.3</ele>
        <time>2017-04-23T09:37:48Z</time>
      </trkpt>
      <trkpt lat="44.07681" lon="1.88323">
        <ele>218</ele>
        <time>2017-04-23T09:37:55Z</time>
      </trkpt>
      <trkpt lat="44.07675" lon="1.88327">
        <ele>220.3</ele>
        <time>2017-04-23T09:38:50Z</time>
      </trkpt>
      <trkpt lat="44.07674" lon="1.88328">
        <ele>220.3</ele>
        <time>2017-04-23T09:38:57Z</time>
      </trkpt>
      <trkpt lat="44.07668" lon="1.88325">
        <ele>219.7</ele>
        <time>2017-04-23T09:39:12Z</time>
      </trkpt>
      <trkpt lat="44.0766" lon="1.88321">
        <ele>220.7</ele>
        <time>2017-04-23T09:39:17Z</time>
      </trkpt>
      <trkpt lat="44.07657" lon="1.88322">
        <ele>221.1</ele>
        <time>2017-04-23T09:39:24Z</time>
      </trkpt>
      <trkpt lat="44.07652" lon="1.88313">
        <ele>218.7</ele>
        <time>2017-04-23T09:39:51Z</time>
      </trkpt>
      <trkpt lat="44.07647" lon="1.88306">
        <ele>218</ele>
        <time>2017-04-23T09:39:54Z</time>
      </trkpt>
      <trkpt lat="44.07647" lon="1.88293">
        <ele>216.9</ele>
        <time>2017-04-23T09:39:59Z</time>
      </trkpt>
      <trkpt lat="44.07643" lon="1.8828">
        <ele>215.8</ele>
        <time>2017-04-23T09:40:02Z</time>
      </trkpt>
      <trkpt lat="44.07645" lon="1.8827">
        <ele>213.2</ele>
        <time>2017-04-23T09:40:05Z</time>
      </trkpt>
      <trkpt lat="44.07652" lon="1.88262">
        <ele>211.4</ele>
        <time>2017-04-23T09:40:08Z</time>
      </trkpt>
      <trkpt lat="44.07654" lon="1.88252">
        <ele>210.4</ele>
        <time>2017-04-23T09:40:11Z</time>
      </trkpt>
      <trkpt lat="44.07658" lon="1.88239">
        <ele>208.6</ele>
        <time>2017-04-23T09:40:15Z</time>
      </trkpt>
      <trkpt lat="44.07662" lon="1.88229">
        <ele>206.7</ele>
        <time>2017-04-23T09:40:19Z</time>
      </trkpt>
      <trkpt lat="44.07659" lon="1.88217">
        <ele>205.6</ele>
        <time>2017-04-23T09:40:23Z</time>
      </trkpt>
      <trkpt lat="44.07661" lon="1.88204">
        <ele>202.8</ele>
        <time>2017-04-23T09:40:27Z</time>
      </trkpt>
      <trkpt lat="44.07666" lon="1.88196">
        <ele>201.4</ele>
        <time>2017-04-23T09:40:29Z</time>
      </trkpt>
      <trkpt lat="44.07673" lon="1.88188">
        <ele>201.2</ele>
        <time>2017-04-23T09:40:32Z</time>
      </trkpt>
      <trkpt lat="44.07679" lon="1.8818">
        <ele>199.9</ele>
        <time>2017-04-23T09:40:35Z</time>
      </trkpt>
      <trkpt lat="44.07685" lon="1.88176">
        <ele>197.6</ele>
        <time>2017-04-23T09:40:40Z</time>
      </trkpt>
      <trkpt lat="44.07694" lon="1.88178">
        <ele>195.4</ele>
        <time>2017-04-23T09:40:45Z</time>
      </trkpt>
      <trkpt lat="44.07699" lon="1.88168">
        <ele>193.9</ele>
        <time>2017-04-23T09:40:50Z</time>
      </trkpt>
      <trkpt lat="44.077" lon="1.88158">
        <ele>191.9</ele>
        <time>2017-04-23T09:40:57Z</time>
      </trkpt>
      <trkpt lat="44.07699" lon="1.88146">
        <ele>190.7</ele>
        <time>2017-04-23T09:41:01Z</time>
      </trkpt>
      <trkpt lat="44.07696" lon="1.88135">
        <ele>189.2</ele>
        <time>2017-04-23T09:41:04Z</time>
      </trkpt>
      <trkpt lat="44.07693" lon="1.88124">
        <ele>187.5</ele>
        <time>2017-04-23T09:41:08Z</time>
      </trkpt>
      <trkpt lat="44.07687" lon="1.88121">
        <ele>185.2</ele>
        <time>2017-04-23T09:41:15Z</time>
      </trkpt>
      <trkpt lat="44.07679" lon="1.88115">
        <ele>184.9</ele>
        <time>2017-04-23T09:41:28Z</time>
      </trkpt>
      <trkpt lat="44.07679" lon="1.88101">
        <ele>183.4</ele>
        <time>2017-04-23T09:41:41Z</time>
      </trkpt>
      <trkpt lat="44.07677" lon="1.88097">
        <ele>182.6</ele>
        <time>2017-04-23T09:41:48Z</time>
      </trkpt>
      <trkpt lat="44.07674" lon="1.88103">
        <ele>182</ele>
        <time>2017-04-23T09:42:13Z</time>
      </trkpt>
      <trkpt lat="44.07676" lon="1.88097">
        <ele>182</ele>
        <time>2017-04-23T09:42:20Z</time>
      </trkpt>
      <trkpt lat="44.07674" lon="1.88104">
        <ele>181.7</ele>
        <time>2017-04-23T09:42:27Z</time>
      </trkpt>
      <trkpt lat="44.07677" lon="1.88104">
        <ele>181</ele>
        <time>2017-04-23T09:42:40Z</time>
      </trkpt>
      <trkpt lat="44.07678" lon="1.88106">
        <ele>180.7</ele>
        <time>2017-04-23T09:42:47Z</time>
      </trkpt>
      <trkpt lat="44.07678" lon="1.88104">
        <ele>180.6</ele>
        <time>2017-04-23T09:42:54Z</time>
      </trkpt>
      <trkpt lat="44.07684" lon="1.88099">
        <ele>180.4</ele>
        <time>2017-04-23T09:45:13Z</time>
      </trkpt>
      <trkpt lat="44.07688" lon="1.88091">
        <ele>179.7</ele>
        <time>2017-04-23T09:45:20Z</time>
      </trkpt>
      <trkpt lat="44.07695" lon="1.88089">
        <ele>179.1</ele>
        <time>2017-04-23T09:45:25Z</time>
      </trkpt>
      <trkpt lat="44.07695" lon="1.88087">
        <ele>179.2</ele>
        <time>2017-04-23T09:45:32Z</time>
      </trkpt>
      <trkpt lat="44.07708" lon="1.8808">
        <ele>179.9</ele>
        <time>2017-04-23T09:45:48Z</time>
      </trkpt>
      <trkpt lat="44.07715" lon="1.88074">
        <ele>179.9</ele>
        <time>2017-04-23T09:45:52Z</time>
      </trkpt>
      <trkpt lat="44.07721" lon="1.88067">
        <ele>179.6</ele>
        <time>2017-04-23T09:45:56Z</time>
      </trkpt>
      <trkpt lat="44.07728" lon="1.88062">
        <ele>179.3</ele>
        <time>2017-04-23T09:46:00Z</time>
      </trkpt>
      <trkpt lat="44.07735" lon="1.8806">
        <ele>178.7</ele>
        <time>2017-04-23T09:46:04Z</time>
      </trkpt>
      <trkpt lat="44.07748" lon="1.88054">
        <ele>178.2</ele>
        <time>2017-04-23T09:46:36Z</time>
      </trkpt>
      <trkpt lat="44.07757" lon="1.88049">
        <ele>178.3</ele>
        <time>2017-04-23T09:46:39Z</time>
      </trkpt>
      <trkpt lat="44.07759" lon="1.88038">
        <ele>178.1</ele>
        <time>2017-04-23T09:46:43Z</time>
      </trkpt>
      <trkpt lat="44.07763" lon="1.88029">
        <ele>177.3</ele>
        <time>2017-04-23T09:46:47Z</time>
      </trkpt>
      <trkpt lat="44.07764" lon="1.88016">
        <ele>176.9</ele>
        <time>2017-04-23T09:46:51Z</time>
      </trkpt>
      <trkpt lat="44.07769" lon="1.88007">
        <ele>176.3</ele>
        <time>2017-04-23T09:46:56Z</time>
      </trkpt>
      <trkpt lat="44.0777" lon="1.87996">
        <ele>176</ele>
        <time>2017-04-23T09:47:01Z</time>
      </trkpt>
      <trkpt lat="44.07777" lon="1.87994">
        <ele>175.9</ele>
        <time>2017-04-23T09:47:07Z</time>
      </trkpt>
      <trkpt lat="44.07785" lon="1.87996">
        <ele>175.5</ele>
        <time>2017-04-23T09:47:13Z</time>
      </trkpt>
      <trkpt lat="44.07793" lon="1.87996">
        <ele>176.3</ele>
        <time>2017-04-23T09:47:19Z</time>
      </trkpt>
      <trkpt lat="44.07801" lon="1.88">
        <ele>176.5</ele>
        <time>2017-04-23T09:47:24Z</time>
      </trkpt>
      <trkpt lat="44.07809" lon="1.88">
        <ele>175.4</ele>
        <time>2017-04-23T09:47:28Z</time>
      </trkpt>
      <trkpt lat="44.07817" lon="1.87998">
        <ele>174.6</ele>
        <time>2017-04-23T09:47:32Z</time>
      </trkpt>
      <trkpt lat="44.07825" lon="1.87996">
        <ele>173.7</ele>
        <time>2017-04-23T09:47:36Z</time>
      </trkpt>
      <trkpt lat="44.07834" lon="1.87994">
        <ele>174</ele>
        <time>2017-04-23T09:47:41Z</time>
      </trkpt>
      <trkpt lat="44.07842" lon="1.87995">
        <ele>173.5</ele>
        <time>2017-04-23T09:47:45Z</time>
      </trkpt>
      <trkpt lat="44.0784" lon="1.88007">
        <ele>172.8</ele>
        <time>2017-04-23T09:47:50Z</time>
      </trkpt>
      <trkpt lat="44.0784" lon="1.8802">
        <ele>171.6</ele>
        <time>2017-04-23T09:47:55Z</time>
      </trkpt>
      <trkpt lat="44.07844" lon="1.8803">
        <ele>170.9</ele>
        <time>2017-04-23T09:47:58Z</time>
      </trkpt>
      <trkpt lat="44.07849" lon="1.88037">
        <ele>169.9</ele>
        <time>2017-04-23T09:48:02Z</time>
      </trkpt>
      <trkpt lat="44.07853" lon="1.88046">
        <ele>170.4</ele>
        <time>2017-04-23T09:48:06Z</time>
      </trkpt>
      <trkpt lat="44.07859" lon="1.88055">
        <ele>170.3</ele>
        <time>2017-04-23T09:48:12Z</time>
      </trkpt>
      <trkpt lat="44.07866" lon="1.8806">
        <ele>170.3</ele>
        <time>2017-04-23T09:48:14Z</time>
      </trkpt>
      <trkpt lat="44.07875" lon="1.88057">
        <ele>170.1</ele>
        <time>2017-04-23T09:48:17Z</time>
      </trkpt>
      <trkpt lat="44.07882" lon="1.88054">
        <ele>170.1</ele>
        <time>2017-04-23T09:48:20Z</time>
      </trkpt>
      <trkpt lat="44.07891" lon="1.88048">
        <ele>169.1</ele>
        <time>2017-04-23T09:48:24Z</time>
      </trkpt>
      <trkpt lat="44.07898" lon="1.88047">
        <ele>167.3</ele>
        <time>2017-04-23T09:48:28Z</time>
      </trkpt>
      <trkpt lat="44.07907" lon="1.88045">
        <ele>165.3</ele>
        <time>2017-04-23T09:48:32Z</time>
      </trkpt>
      <trkpt lat="44.07915" lon="1.88039">
        <ele>164.9</ele>
        <time>2017-04-23T09:48:36Z</time>
      </trkpt>
      <trkpt lat="44.07922" lon="1.88032">
        <ele>165.1</ele>
        <time>2017-04-23T09:48:39Z</time>
      </trkpt>
      <trkpt lat="44.07928" lon="1.88027">
        <ele>165.1</ele>
        <time>2017-04-23T09:48:42Z</time>
      </trkpt>
      <trkpt lat="44.07937" lon="1.88023">
        <ele>163.7</ele>
        <time>2017-04-23T09:48:45Z</time>
      </trkpt>
      <trkpt lat="44.07943" lon="1.88015">
        <ele>164.5</ele>
        <time>2017-04-23T09:48:48Z</time>
      </trkpt>
      <trkpt lat="44.07949" lon="1.8801">
        <ele>165.8</ele>
        <time>2017-04-23T09:48:54Z</time>
      </trkpt>
      <trkpt lat="44.07952" lon="1.88003">
        <ele>166.5</ele>
        <time>2017-04-23T09:49:02Z</time>
      </trkpt>
      <trkpt lat="44.07953" lon="1.88003">
        <ele>166.9</ele>
        <time>2017-04-23T09:49:09Z</time>
      </trkpt>
      <trkpt lat="44.07954" lon="1.87991">
        <ele>168.6</ele>
        <time>2017-04-23T09:49:15Z</time>
      </trkpt>
      <trkpt lat="44.07956" lon="1.87996">
        <ele>170.5</ele>
        <time>2017-04-23T09:49:22Z</time>
      </trkpt>
      <trkpt lat="44.07965" lon="1.88012">
        <ele>172</ele>
        <time>2017-04-23T09:50:27Z</time>
      </trkpt>
      <trkpt lat="44.07966" lon="1.88022">
        <ele>172.1</ele>
        <time>2017-04-23T09:50:32Z</time>
      </trkpt>
      <trkpt lat="44.07969" lon="1.88033">
        <ele>172.3</ele>
        <time>2017-04-23T09:50:37Z</time>
      </trkpt>
      <trkpt lat="44.07972" lon="1.88043">
        <ele>172.9</ele>
        <time>2017-04-23T09:50:41Z</time>
      </trkpt>
      <trkpt lat="44.07975" lon="1.88054">
        <ele>172.7</ele>
        <time>2017-04-23T09:50:45Z</time>
      </trkpt>
      <trkpt lat="44.07978" lon="1.88065">
        <ele>173</ele>
        <time>2017-04-23T09:50:48Z</time>
      </trkpt>
      <trkpt lat="44.07981" lon="1.88075">
        <ele>173</ele>
        <time>2017-04-23T09:50:51Z</time>
      </trkpt>
      <trkpt lat="44.07984" lon="1.88084">
        <ele>173.1</ele>
        <time>2017-04-23T09:50:54Z</time>
      </trkpt>
      <trkpt lat="44.07988" lon="1.88095">
        <ele>173</ele>
        <time>2017-04-23T09:50:57Z</time>
      </trkpt>
      <trkpt lat="44.07994" lon="1.88105">
        <ele>173.4</ele>
        <time>2017-04-23T09:51:00Z</time>
      </trkpt>
      <trkpt lat="44.08" lon="1.88115">
        <ele>173.4</ele>
        <time>2017-04-23T09:51:03Z</time>
      </trkpt>
      <trkpt lat="44.08005" lon="1.88123">
        <ele>174.2</ele>
        <time>2017-04-23T09:51:06Z</time>
      </trkpt>
      <trkpt lat="44.08013" lon="1.88133">
        <ele>173.3</ele>
        <time>2017-04-23T09:51:09Z</time>
      </trkpt>
      <trkpt lat="44.08018" lon="1.88141">
        <ele>172.5</ele>
        <time>2017-04-23T09:51:11Z</time>
      </trkpt>
      <trkpt lat="44.08024" lon="1.88147">
        <ele>171.4</ele>
        <time>2017-04-23T09:51:13Z</time>
      </trkpt>
      <trkpt lat="44.0803" lon="1.88154">
        <ele>171.8</ele>
        <time>2017-04-23T09:51:15Z</time>
      </trkpt>
      <trkpt lat="44.08036" lon="1.88161">
        <ele>171.6</ele>
        <time>2017-04-23T09:51:17Z</time>
      </trkpt>
      <trkpt lat="44.08041" lon="1.8817">
        <ele>171.4</ele>
        <time>2017-04-23T09:51:19Z</time>
      </trkpt>
      <trkpt lat="44.08045" lon="1.88182">
        <ele>171.6</ele>
        <time>2017-04-23T09:51:21Z</time>
      </trkpt>
      <trkpt lat="44.08047" lon="1.88197">
        <ele>171.6</ele>
        <time>2017-04-23T09:51:23Z</time>
      </trkpt>
      <trkpt lat="44.0805" lon="1.88212">
        <ele>170.9</ele>
        <time>2017-04-23T09:51:25Z</time>
      </trkpt>
      <trkpt lat="44.08056" lon="1.88227">
        <ele>171.1</ele>
        <time>2017-04-23T09:51:27Z</time>
      </trkpt>
      <trkpt lat="44.08064" lon="1.88244">
        <ele>170.4</ele>
        <time>2017-04-23T09:51:29Z</time>
      </trkpt>
      <trkpt lat="44.08072" lon="1.8826">
        <ele>169.4</ele>
        <time>2017-04-23T09:51:31Z</time>
      </trkpt>
      <trkpt lat="44.08077" lon="1.88269">
        <ele>168.7</ele>
        <time>2017-04-23T09:51:32Z</time>
      </trkpt>
      <trkpt lat="44.08082" lon="1.88278">
        <ele>167</ele>
        <time>2017-04-23T09:51:33Z</time>
      </trkpt>
      <trkpt lat="44.08086" lon="1.88287">
        <ele>166.3</ele>
        <time>2017-04-23T09:51:34Z</time>
      </trkpt>
      <trkpt lat="44.08091" lon="1.88297">
        <ele>165.6</ele>
        <time>2017-04-23T09:51:35Z</time>
      </trkpt>
      <trkpt lat="44.08096" lon="1.88307">
        <ele>165</ele>
        <time>2017-04-23T09:51:36Z</time>
      </trkpt>
      <trkpt lat="44.081" lon="1.88317">
        <ele>164.7</ele>
        <time>2017-04-23T09:51:37Z</time>
      </trkpt>
      <trkpt lat="44.08104" lon="1.88328">
        <ele>164.9</ele>
        <time>2017-04-23T09:51:38Z</time>
      </trkpt>
      <trkpt lat="44.08107" lon="1.88339">
        <ele>164.8</ele>
        <time>2017-04-23T09:51:39Z</time>
      </trkpt>
      <trkpt lat="44.0811" lon="1.8835">
        <ele>165</ele>
        <time>2017-04-23T09:51:40Z</time>
      </trkpt>
      <trkpt lat="44.08113" lon="1.88361">
        <ele>164.8</ele>
        <time>2017-04-23T09:51:41Z</time>
      </trkpt>
      <trkpt lat="44.08116" lon="1.88371">
        <ele>165.1</ele>
        <time>2017-04-23T09:51:42Z</time>
      </trkpt>
      <trkpt lat="44.08119" lon="1.88381">
        <ele>165.3</ele>
        <time>2017-04-23T09:51:43Z</time>
      </trkpt>
      <trkpt lat="44.0812" lon="1.88391">
        <ele>164.9</ele>
        <time>2017-04-23T09:51:44Z</time>
      </trkpt>
      <trkpt lat="44.08122" lon="1.88401">
        <ele>165.3</ele>
        <time>2017-04-23T09:51:45Z</time>
      </trkpt>
      <trkpt lat="44.08125" lon="1.8842">
        <ele>165.3</ele>
        <time>2017-04-23T09:51:47Z</time>
      </trkpt>
      <trkpt lat="44.0813" lon="1.88439">
        <ele>165.1</ele>
        <time>2017-04-23T09:51:49Z</time>
      </trkpt>
      <trkpt lat="44.08134" lon="1.88455">
        <ele>165</ele>
        <time>2017-04-23T09:51:51Z</time>
      </trkpt>
      <trkpt lat="44.08141" lon="1.88471">
        <ele>165</ele>
        <time>2017-04-23T09:51:53Z</time>
      </trkpt>
      <trkpt lat="44.08149" lon="1.88486">
        <ele>164.7</ele>
        <time>2017-04-23T09:51:55Z</time>
      </trkpt>
      <trkpt lat="44.08158" lon="1.88499">
        <ele>164.4</ele>
        <time>2017-04-23T09:51:57Z</time>
      </trkpt>
      <trkpt lat="44.08166" lon="1.88512">
        <ele>164.4</ele>
        <time>2017-04-23T09:51:59Z</time>
      </trkpt>
      <trkpt lat="44.08173" lon="1.88523">
        <ele>165.4</ele>
        <time>2017-04-23T09:52:01Z</time>
      </trkpt>
      <trkpt lat="44.08181" lon="1.88534">
        <ele>165.9</ele>
        <time>2017-04-23T09:52:03Z</time>
      </trkpt>
      <trkpt lat="44.08187" lon="1.88548">
        <ele>166.4</ele>
        <time>2017-04-23T09:52:05Z</time>
      </trkpt>
      <trkpt lat="44.08189" lon="1.88563">
        <ele>167</ele>
        <time>2017-04-23T09:52:07Z</time>
      </trkpt>
      <trkpt lat="44.08191" lon="1.88576">
        <ele>167.6</ele>
        <time>2017-04-23T09:52:09Z</time>
      </trkpt>
      <trkpt lat="44.08191" lon="1.88589">
        <ele>168.2</ele>
        <time>2017-04-23T09:52:11Z</time>
      </trkpt>
      <trkpt lat="44.08189" lon="1.88601">
        <ele>167.9</ele>
        <time>2017-04-23T09:52:13Z</time>
      </trkpt>
      <trkpt lat="44.08188" lon="1.88613">
        <ele>168.2</ele>
        <time>2017-04-23T09:52:15Z</time>
      </trkpt>
      <trkpt lat="44.08187" lon="1.88625">
        <ele>168.1</ele>
        <time>2017-04-23T09:52:17Z</time>
      </trkpt>
      <trkpt lat="44.08186" lon="1.88637">
        <ele>167.9</ele>
        <time>2017-04-23T09:52:19Z</time>
      </trkpt>
      <trkpt lat="44.08185" lon="1.88648">
        <ele>168</ele>
        <time>2017-04-23T09:52:21Z</time>
      </trkpt>
      <trkpt lat="44.08184" lon="1.8866">
        <ele>167.8</ele>
        <time>2017-04-23T09:52:23Z</time>
      </trkpt>
      <trkpt lat="44.08183" lon="1.88672">
        <ele>167.4</ele>
        <time>2017-04-23T09:52:25Z</time>
      </trkpt>
      <trkpt lat="44.08182" lon="1.88685">
        <ele>167.8</ele>
        <time>2017-04-23T09:52:27Z</time>
      </trkpt>
      <trkpt lat="44.0818" lon="1.88698">
        <ele>168.1</ele>
        <time>2017-04-23T09:52:29Z</time>
      </trkpt>
      <trkpt lat="44.08179" lon="1.88709">
        <ele>168.1</ele>
        <time>2017-04-23T09:52:31Z</time>
      </trkpt>
      <trkpt lat="44.08177" lon="1.8872">
        <ele>168.9</ele>
        <time>2017-04-23T09:52:33Z</time>
      </trkpt>
      <trkpt lat="44.08176" lon="1.88731">
        <ele>169.3</ele>
        <time>2017-04-23T09:52:35Z</time>
      </trkpt>
      <trkpt lat="44.08174" lon="1.88741">
        <ele>169.8</ele>
        <time>2017-04-23T09:52:37Z</time>
      </trkpt>
      <trkpt lat="44.08173" lon="1.88753">
        <ele>170.1</ele>
        <time>2017-04-23T09:52:39Z</time>
      </trkpt>
      <trkpt lat="44.08173" lon="1.88765">
        <ele>170.7</ele>
        <time>2017-04-23T09:52:41Z</time>
      </trkpt>
      <trkpt lat="44.0817" lon="1.88776">
        <ele>170.8</ele>
        <time>2017-04-23T09:52:43Z</time>
      </trkpt>
      <trkpt lat="44.08169" lon="1.88789">
        <ele>170.9</ele>
        <time>2017-04-23T09:52:45Z</time>
      </trkpt>
      <trkpt lat="44.08168" lon="1.88801">
        <ele>170.6</ele>
        <time>2017-04-23T09:52:47Z</time>
      </trkpt>
      <trkpt lat="44.08167" lon="1.88816">
        <ele>171.3</ele>
        <time>2017-04-23T09:52:49Z</time>
      </trkpt>
      <trkpt lat="44.08166" lon="1.88829">
        <ele>171.6</ele>
        <time>2017-04-23T09:52:51Z</time>
      </trkpt>
      <trkpt lat="44.08164" lon="1.88843">
        <ele>171.9</ele>
        <time>2017-04-23T09:52:53Z</time>
      </trkpt>
      <trkpt lat="44.08163" lon="1.88855">
        <ele>171.7</ele>
        <time>2017-04-23T09:52:55Z</time>
      </trkpt>
      <trkpt lat="44.08162" lon="1.88867">
        <ele>172</ele>
        <time>2017-04-23T09:52:57Z</time>
      </trkpt>
      <trkpt lat="44.0816" lon="1.8888">
        <ele>172</ele>
        <time>2017-04-23T09:52:59Z</time>
      </trkpt>
      <trkpt lat="44.08158" lon="1.88894">
        <ele>172.3</ele>
        <time>2017-04-23T09:53:01Z</time>
      </trkpt>
      <trkpt lat="44.08157" lon="1.88907">
        <ele>172.6</ele>
        <time>2017-04-23T09:53:03Z</time>
      </trkpt>
      <trkpt lat="44.08155" lon="1.88919">
        <ele>172.9</ele>
        <time>2017-04-23T09:53:05Z</time>
      </trkpt>
      <trkpt lat="44.08154" lon="1.88932">
        <ele>173</ele>
        <time>2017-04-23T09:53:07Z</time>
      </trkpt>
      <trkpt lat="44.08152" lon="1.88945">
        <ele>172.4</ele>
        <time>2017-04-23T09:53:09Z</time>
      </trkpt>
      <trkpt lat="44.08151" lon="1.8896">
        <ele>171.9</ele>
        <time>2017-04-23T09:53:11Z</time>
      </trkpt>
      <trkpt lat="44.0815" lon="1.88975">
        <ele>171.7</ele>
        <time>2017-04-23T09:53:13Z</time>
      </trkpt>
      <trkpt lat="44.08148" lon="1.8899">
        <ele>171.2</ele>
        <time>2017-04-23T09:53:15Z</time>
      </trkpt>
      <trkpt lat="44.08146" lon="1.89005">
        <ele>171</ele>
        <time>2017-04-23T09:53:17Z</time>
      </trkpt>
      <trkpt lat="44.08144" lon="1.89021">
        <ele>170.5</ele>
        <time>2017-04-23T09:53:19Z</time>
      </trkpt>
      <trkpt lat="44.08142" lon="1.89035">
        <ele>170.2</ele>
        <time>2017-04-23T09:53:21Z</time>
      </trkpt>
      <trkpt lat="44.08141" lon="1.89048">
        <ele>169.5</ele>
        <time>2017-04-23T09:53:23Z</time>
      </trkpt>
      <trkpt lat="44.0814" lon="1.89061">
        <ele>169.2</ele>
        <time>2017-04-23T09:53:25Z</time>
      </trkpt>
      <trkpt lat="44.08138" lon="1.89075">
        <ele>169</ele>
        <time>2017-04-23T09:53:27Z</time>
      </trkpt>
      <trkpt lat="44.08135" lon="1.89089">
        <ele>168.2</ele>
        <time>2017-04-23T09:53:29Z</time>
      </trkpt>
      <trkpt lat="44.08134" lon="1.89102">
        <ele>167.9</ele>
        <time>2017-04-23T09:53:31Z</time>
      </trkpt>
      <trkpt lat="44.08134" lon="1.89113">
        <ele>167.4</ele>
        <time>2017-04-23T09:53:33Z</time>
      </trkpt>
      <trkpt lat="44.08133" lon="1.89124">
        <ele>167.3</ele>
        <time>2017-04-23T09:53:36Z</time>
      </trkpt>
      <trkpt lat="44.08134" lon="1.89133">
        <ele>166.9</ele>
        <time>2017-04-23T09:53:39Z</time>
      </trkpt>
      <trkpt lat="44.08136" lon="1.89144">
        <ele>166.9</ele>
        <time>2017-04-23T09:53:45Z</time>
      </trkpt>
      <trkpt lat="44.08141" lon="1.89152">
        <ele>164.8</ele>
        <time>2017-04-23T09:54:28Z</time>
      </trkpt>
      <trkpt lat="44.08144" lon="1.8916">
        <ele>164.4</ele>
        <time>2017-04-23T09:54:35Z</time>
      </trkpt>
      <trkpt lat="44.08145" lon="1.89162">
        <ele>164.5</ele>
        <time>2017-04-23T09:54:42Z</time>
      </trkpt>
      <trkpt lat="44.08142" lon="1.89172">
        <ele>165.4</ele>
        <time>2017-04-23T09:54:52Z</time>
      </trkpt>
      <trkpt lat="44.08142" lon="1.8918">
        <ele>164</ele>
        <time>2017-04-23T09:55:21Z</time>
      </trkpt>
      <trkpt lat="44.08142" lon="1.89188">
        <ele>162.6</ele>
        <time>2017-04-23T09:55:28Z</time>
      </trkpt>
      <trkpt lat="44.08142" lon="1.89195">
        <ele>161.8</ele>
        <time>2017-04-23T09:55:35Z</time>
      </trkpt>
      <trkpt lat="44.08144" lon="1.89205">
        <ele>161.1</ele>
        <time>2017-04-23T09:55:49Z</time>
      </trkpt>
      <trkpt lat="44.08147" lon="1.89215">
        <ele>160.9</ele>
        <time>2017-04-23T09:55:54Z</time>
      </trkpt>
      <trkpt lat="44.08146" lon="1.89226">
        <ele>160.8</ele>
        <time>2017-04-23T09:56:00Z</time>
      </trkpt>
      <trkpt lat="44.08146" lon="1.89231">
        <ele>160.9</ele>
        <time>2017-04-23T09:56:07Z</time>
      </trkpt>
      <trkpt lat="44.08143" lon="1.8924">
        <ele>160.7</ele>
        <time>2017-04-23T09:56:23Z</time>
      </trkpt>
      <trkpt lat="44.0814" lon="1.89249">
        <ele>159.9</ele>
        <time>2017-04-23T09:56:27Z</time>
      </trkpt>
      <trkpt lat="44.08134" lon="1.89256">
        <ele>159.6</ele>
        <time>2017-04-23T09:56:32Z</time>
      </trkpt>
      <trkpt lat="44.08128" lon="1.89262">
        <ele>159.1</ele>
        <time>2017-04-23T09:56:36Z</time>
      </trkpt>
      <trkpt lat="44.0812" lon="1.89262">
        <ele>158.1</ele>
        <time>2017-04-23T09:56:41Z</time>
      </trkpt>
      <trkpt lat="44.08112" lon="1.89268">
        <ele>156.6</ele>
        <time>2017-04-23T09:56:46Z</time>
      </trkpt>
      <trkpt lat="44.08106" lon="1.89276">
        <ele>155.4</ele>
        <time>2017-04-23T09:56:51Z</time>
      </trkpt>
      <trkpt lat="44.08095" lon="1.8928">
        <ele>155.1</ele>
        <time>2017-04-23T09:56:55Z</time>
      </trkpt>
      <trkpt lat="44.08088" lon="1.89286">
        <ele>154.6</ele>
        <time>2017-04-23T09:56:59Z</time>
      </trkpt>
      <trkpt lat="44.08082" lon="1.89294">
        <ele>154</ele>
        <time>2017-04-23T09:57:03Z</time>
      </trkpt>
      <trkpt lat="44.08074" lon="1.89302">
        <ele>154.5</ele>
        <time>2017-04-23T09:57:07Z</time>
      </trkpt>
      <trkpt lat="44.08069" lon="1.8931">
        <ele>154.3</ele>
        <time>2017-04-23T09:57:11Z</time>
      </trkpt>
      <trkpt lat="44.08065" lon="1.89321">
        <ele>154.8</ele>
        <time>2017-04-23T09:57:14Z</time>
      </trkpt>
      <trkpt lat="44.08061" lon="1.89329">
        <ele>156</ele>
        <time>2017-04-23T09:57:17Z</time>
      </trkpt>
      <trkpt lat="44.08056" lon="1.89337">
        <ele>158.5</ele>
        <time>2017-04-23T09:57:24Z</time>
      </trkpt>
      <trkpt lat="44.08061" lon="1.89348">
        <ele>158.9</ele>
        <time>2017-04-23T09:57:49Z</time>
      </trkpt>
      <trkpt lat="44.08062" lon="1.89358">
        <ele>158.8</ele>
        <time>2017-04-23T09:57:52Z</time>
      </trkpt>
      <trkpt lat="44.08065" lon="1.89369">
        <ele>158.4</ele>
        <time>2017-04-23T09:57:55Z</time>
      </trkpt>
      <trkpt lat="44.08067" lon="1.8938">
        <ele>158.9</ele>
        <time>2017-04-23T09:57:58Z</time>
      </trkpt>
      <trkpt lat="44.08071" lon="1.89391">
        <ele>158.7</ele>
        <time>2017-04-23T09:58:01Z</time>
      </trkpt>
      <trkpt lat="44.08074" lon="1.89402">
        <ele>158.8</ele>
        <time>2017-04-23T09:58:04Z</time>
      </trkpt>
      <trkpt lat="44.08073" lon="1.89415">
        <ele>157.3</ele>
        <time>2017-04-23T09:58:08Z</time>
      </trkpt>
      <trkpt lat="44.08072" lon="1.89428">
        <ele>157</ele>
        <time>2017-04-23T09:58:10Z</time>
      </trkpt>
      <trkpt lat="44.08071" lon="1.89439">
        <ele>156</ele>
        <time>2017-04-23T09:58:12Z</time>
      </trkpt>
      <trkpt lat="44.0807" lon="1.89451">
        <ele>154.7</ele>
        <time>2017-04-23T09:58:15Z</time>
      </trkpt>
      <trkpt lat="44.08075" lon="1.89458">
        <ele>154</ele>
        <time>2017-04-23T09:58:18Z</time>
      </trkpt>
      <trkpt lat="44.08082" lon="1.89459">
        <ele>153</ele>
        <time>2017-04-23T09:58:20Z</time>
      </trkpt>
      <trkpt lat="44.08093" lon="1.8946">
        <ele>151.2</ele>
        <time>2017-04-23T09:58:23Z</time>
      </trkpt>
      <trkpt lat="44.08104" lon="1.89458">
        <ele>149.8</ele>
        <time>2017-04-23T09:58:26Z</time>
      </trkpt>
      <trkpt lat="44.0811" lon="1.89455">
        <ele>149.2</ele>
        <time>2017-04-23T09:58:28Z</time>
      </trkpt>
      <trkpt lat="44.08121" lon="1.89451">
        <ele>149</ele>
        <time>2017-04-23T09:58:31Z</time>
      </trkpt>
      <trkpt lat="44.08129" lon="1.8945">
        <ele>150.1</ele>
        <time>2017-04-23T09:58:33Z</time>
      </trkpt>
      <trkpt lat="44.08139" lon="1.89454">
        <ele>149.9</ele>
        <time>2017-04-23T09:58:36Z</time>
      </trkpt>
      <trkpt lat="44.08146" lon="1.89457">
        <ele>150.1</ele>
        <time>2017-04-23T09:58:38Z</time>
      </trkpt>
      <trkpt lat="44.08153" lon="1.89459">
        <ele>150.2</ele>
        <time>2017-04-23T09:58:40Z</time>
      </trkpt>
      <trkpt lat="44.08161" lon="1.89458">
        <ele>151.4</ele>
        <time>2017-04-23T09:58:42Z</time>
      </trkpt>
      <trkpt lat="44.08169" lon="1.89455">
        <ele>151.8</ele>
        <time>2017-04-23T09:58:45Z</time>
      </trkpt>
      <trkpt lat="44.08178" lon="1.89452">
        <ele>151</ele>
        <time>2017-04-23T09:58:50Z</time>
      </trkpt>
      <trkpt lat="44.08186" lon="1.89446">
        <ele>151.7</ele>
        <time>2017-04-23T09:58:54Z</time>
      </trkpt>
      <trkpt lat="44.08194" lon="1.89438">
        <ele>153</ele>
        <time>2017-04-23T09:58:58Z</time>
      </trkpt>
      <trkpt lat="44.08196" lon="1.89427">
        <ele>153.9</ele>
        <time>2017-04-23T09:59:01Z</time>
      </trkpt>
      <trkpt lat="44.08205" lon="1.8942">
        <ele>154.3</ele>
        <time>2017-04-23T09:59:05Z</time>
      </trkpt>
      <trkpt lat="44.08215" lon="1.89423">
        <ele>154.8</ele>
        <time>2017-04-23T09:59:08Z</time>
      </trkpt>
      <trkpt lat="44.08224" lon="1.89425">
        <ele>155.1</ele>
        <time>2017-04-23T09:59:10Z</time>
      </trkpt>
      <trkpt lat="44.08236" lon="1.89426">
        <ele>155</ele>
        <time>2017-04-23T09:59:12Z</time>
      </trkpt>
      <trkpt lat="44.08246" lon="1.89428">
        <ele>154.8</ele>
        <time>2017-04-23T09:59:14Z</time>
      </trkpt>
      <trkpt lat="44.08256" lon="1.89429">
        <ele>155.4</ele>
        <time>2017-04-23T09:59:16Z</time>
      </trkpt>
      <trkpt lat="44.08265" lon="1.89429">
        <ele>154.9</ele>
        <time>2017-04-23T09:59:19Z</time>
      </trkpt>
      <trkpt lat="44.08272" lon="1.89431">
        <ele>153.8</ele>
        <time>2017-04-23T09:59:21Z</time>
      </trkpt>
      <trkpt lat="44.08281" lon="1.89433">
        <ele>153.6</ele>
        <time>2017-04-23T09:59:24Z</time>
      </trkpt>
      <trkpt lat="44.08286" lon="1.89444">
        <ele>153.7</ele>
        <time>2017-04-23T09:59:28Z</time>
      </trkpt>
      <trkpt lat="44.08285" lon="1.89457">
        <ele>154.1</ele>
        <time>2017-04-23T09:59:32Z</time>
      </trkpt>
      <trkpt lat="44.08284" lon="1.89471">
        <ele>154.3</ele>
        <time>2017-04-23T09:59:35Z</time>
      </trkpt>
      <trkpt lat="44.08282" lon="1.89483">
        <ele>154.4</ele>
        <time>2017-04-23T09:59:38Z</time>
      </trkpt>
      <trkpt lat="44.08281" lon="1.89497">
        <ele>154.2</ele>
        <time>2017-04-23T09:59:41Z</time>
      </trkpt>
      <trkpt lat="44.0828" lon="1.89507">
        <ele>154</ele>
        <time>2017-04-23T09:59:43Z</time>
      </trkpt>
      <trkpt lat="44.08279" lon="1.89517">
        <ele>154.1</ele>
        <time>2017-04-23T09:59:45Z</time>
      </trkpt>
      <trkpt lat="44.08278" lon="1.89527">
        <ele>154.2</ele>
        <time>2017-04-23T09:59:47Z</time>
      </trkpt>
      <trkpt lat="44.08277" lon="1.89537">
        <ele>154.2</ele>
        <time>2017-04-23T09:59:49Z</time>
      </trkpt>
      <trkpt lat="44.08275" lon="1.89548">
        <ele>154.3</ele>
        <time>2017-04-23T09:59:51Z</time>
      </trkpt>
      <trkpt lat="44.08274" lon="1.89559">
        <ele>154.3</ele>
        <time>2017-04-23T09:59:53Z</time>
      </trkpt>
      <trkpt lat="44.08273" lon="1.89569">
        <ele>154.1</ele>
        <time>2017-04-23T09:59:55Z</time>
      </trkpt>
      <trkpt lat="44.08272" lon="1.8958">
        <ele>153.8</ele>
        <time>2017-04-23T09:59:57Z</time>
      </trkpt>
      <trkpt lat="44.08271" lon="1.8959">
        <ele>153.4</ele>
        <time>2017-04-23T09:59:59Z</time>
      </trkpt>
      <trkpt lat="44.08269" lon="1.89601">
        <ele>153.6</ele>
        <time>2017-04-23T10:00:01Z</time>
      </trkpt>
      <trkpt lat="44.08268" lon="1.89611">
        <ele>153.8</ele>
        <time>2017-04-23T10:00:03Z</time>
      </trkpt>
      <trkpt lat="44.08267" lon="1.89621">
        <ele>154.1</ele>
        <time>2017-04-23T10:00:05Z</time>
      </trkpt>
      <trkpt lat="44.08265" lon="1.89636">
        <ele>154.2</ele>
        <time>2017-04-23T10:00:08Z</time>
      </trkpt>
      <trkpt lat="44.08264" lon="1.89647">
        <ele>153.6</ele>
        <time>2017-04-23T10:00:10Z</time>
      </trkpt>
      <trkpt lat="44.08263" lon="1.89657">
        <ele>153</ele>
        <time>2017-04-23T10:00:12Z</time>
      </trkpt>
      <trkpt lat="44.08261" lon="1.89672">
        <ele>153.3</ele>
        <time>2017-04-23T10:00:15Z</time>
      </trkpt>
      <trkpt lat="44.0826" lon="1.89685">
        <ele>153.5</ele>
        <time>2017-04-23T10:00:17Z</time>
      </trkpt>
      <trkpt lat="44.08258" lon="1.89696">
        <ele>153.8</ele>
        <time>2017-04-23T10:00:19Z</time>
      </trkpt>
      <trkpt lat="44.08257" lon="1.89707">
        <ele>153.7</ele>
        <time>2017-04-23T10:00:21Z</time>
      </trkpt>
      <trkpt lat="44.08256" lon="1.89718">
        <ele>153.6</ele>
        <time>2017-04-23T10:00:23Z</time>
      </trkpt>
      <trkpt lat="44.08255" lon="1.8973">
        <ele>153.4</ele>
        <time>2017-04-23T10:00:25Z</time>
      </trkpt>
      <trkpt lat="44.08254" lon="1.89741">
        <ele>153.2</ele>
        <time>2017-04-23T10:00:27Z</time>
      </trkpt>
      <trkpt lat="44.08253" lon="1.89753">
        <ele>153.2</ele>
        <time>2017-04-23T10:00:29Z</time>
      </trkpt>
      <trkpt lat="44.08253" lon="1.89764">
        <ele>153.6</ele>
        <time>2017-04-23T10:00:31Z</time>
      </trkpt>
      <trkpt lat="44.08256" lon="1.89775">
        <ele>154.3</ele>
        <time>2017-04-23T10:00:34Z</time>
      </trkpt>
      <trkpt lat="44.08265" lon="1.89771">
        <ele>154.5</ele>
        <time>2017-04-23T10:00:38Z</time>
      </trkpt>
      <trkpt lat="44.08274" lon="1.89764">
        <ele>154.2</ele>
        <time>2017-04-23T10:00:41Z</time>
      </trkpt>
      <trkpt lat="44.0828" lon="1.89758">
        <ele>154</ele>
        <time>2017-04-23T10:00:43Z</time>
      </trkpt>
      <trkpt lat="44.08286" lon="1.89752">
        <ele>153.9</ele>
        <time>2017-04-23T10:00:45Z</time>
      </trkpt>
      <trkpt lat="44.08293" lon="1.89744">
        <ele>153.9</ele>
        <time>2017-04-23T10:00:47Z</time>
      </trkpt>
      <trkpt lat="44.083" lon="1.89737">
        <ele>154</ele>
        <time>2017-04-23T10:00:49Z</time>
      </trkpt>
      <trkpt lat="44.08307" lon="1.8973">
        <ele>154.1</ele>
        <time>2017-04-23T10:00:51Z</time>
      </trkpt>
      <trkpt lat="44.08313" lon="1.89723">
        <ele>153.9</ele>
        <time>2017-04-23T10:00:53Z</time>
      </trkpt>
      <trkpt lat="44.08321" lon="1.89715">
        <ele>153.7</ele>
        <time>2017-04-23T10:00:55Z</time>
      </trkpt>
      <trkpt lat="44.08327" lon="1.89708">
        <ele>153.4</ele>
        <time>2017-04-23T10:00:57Z</time>
      </trkpt>
      <trkpt lat="44.08335" lon="1.89701">
        <ele>153.1</ele>
        <time>2017-04-23T10:00:59Z</time>
      </trkpt>
      <trkpt lat="44.08342" lon="1.89693">
        <ele>153</ele>
        <time>2017-04-23T10:01:01Z</time>
      </trkpt>
      <trkpt lat="44.08349" lon="1.89686">
        <ele>152.7</ele>
        <time>2017-04-23T10:01:03Z</time>
      </trkpt>
      <trkpt lat="44.08357" lon="1.89678">
        <ele>152.6</ele>
        <time>2017-04-23T10:01:05Z</time>
      </trkpt>
      <trkpt lat="44.08365" lon="1.8967">
        <ele>152.3</ele>
        <time>2017-04-23T10:01:07Z</time>
      </trkpt>
      <trkpt lat="44.08372" lon="1.89662">
        <ele>151.9</ele>
        <time>2017-04-23T10:01:09Z</time>
      </trkpt>
      <trkpt lat="44.08379" lon="1.89655">
        <ele>151.8</ele>
        <time>2017-04-23T10:01:11Z</time>
      </trkpt>
      <trkpt lat="44.08387" lon="1.89646">
        <ele>151.8</ele>
        <time>2017-04-23T10:01:13Z</time>
      </trkpt>
      <trkpt lat="44.08395" lon="1.89638">
        <ele>151.7</ele>
        <time>2017-04-23T10:01:15Z</time>
      </trkpt>
      <trkpt lat="44.08404" lon="1.8963">
        <ele>151.3</ele>
        <time>2017-04-23T10:01:17Z</time>
      </trkpt>
      <trkpt lat="44.08413" lon="1.89622">
        <ele>151</ele>
        <time>2017-04-23T10:01:19Z</time>
      </trkpt>
      <trkpt lat="44.08421" lon="1.89614">
        <ele>150.8</ele>
        <time>2017-04-23T10:01:21Z</time>
      </trkpt>
      <trkpt lat="44.0843" lon="1.89608">
        <ele>150.7</ele>
        <time>2017-04-23T10:01:23Z</time>
      </trkpt>
      <trkpt lat="44.08438" lon="1.89603">
        <ele>150.4</ele>
        <time>2017-04-23T10:01:25Z</time>
      </trkpt>
      <trkpt lat="44.08448" lon="1.89598">
        <ele>150.3</ele>
        <time>2017-04-23T10:01:27Z</time>
      </trkpt>
      <trkpt lat="44.08457" lon="1.89592">
        <ele>150.3</ele>
        <time>2017-04-23T10:01:29Z</time>
      </trkpt>
      <trkpt lat="44.08465" lon="1.89586">
        <ele>150.2</ele>
        <time>2017-04-23T10:01:31Z</time>
      </trkpt>
      <trkpt lat="44.08474" lon="1.89578">
        <ele>150</ele>
        <time>2017-04-23T10:01:33Z</time>
      </trkpt>
      <trkpt lat="44.08482" lon="1.89571">
        <ele>150</ele>
        <time>2017-04-23T10:01:35Z</time>
      </trkpt>
      <trkpt lat="44.08491" lon="1.89562">
        <ele>149.8</ele>
        <time>2017-04-23T10:01:37Z</time>
      </trkpt>
      <trkpt lat="44.085" lon="1.89554">
        <ele>149.6</ele>
        <time>2017-04-23T10:01:39Z</time>
      </trkpt>
      <trkpt lat="44.08509" lon="1.89546">
        <ele>149.5</ele>
        <time>2017-04-23T10:01:41Z</time>
      </trkpt>
      <trkpt lat="44.08518" lon="1.89539">
        <ele>149.3</ele>
        <time>2017-04-23T10:01:43Z</time>
      </trkpt>
      <trkpt lat="44.08526" lon="1.89531">
        <ele>149.2</ele>
        <time>2017-04-23T10:01:45Z</time>
      </trkpt>
      <trkpt lat="44.08534" lon="1.89521">
        <ele>149.2</ele>
        <time>2017-04-23T10:01:47Z</time>
      </trkpt>
      <trkpt lat="44.08542" lon="1.8951">
        <ele>149.1</ele>
        <time>2017-04-23T10:01:49Z</time>
      </trkpt>
      <trkpt lat="44.0855" lon="1.89501">
        <ele>149</ele>
        <time>2017-04-23T10:01:51Z</time>
      </trkpt>
      <trkpt lat="44.08559" lon="1.89496">
        <ele>148.3</ele>
        <time>2017-04-23T10:01:53Z</time>
      </trkpt>
      <trkpt lat="44.0857" lon="1.89493">
        <ele>148.1</ele>
        <time>2017-04-23T10:01:55Z</time>
      </trkpt>
      <trkpt lat="44.0858" lon="1.89492">
        <ele>147.9</ele>
        <time>2017-04-23T10:01:57Z</time>
      </trkpt>
      <trkpt lat="44.08591" lon="1.89491">
        <ele>147.9</ele>
        <time>2017-04-23T10:01:59Z</time>
      </trkpt>
      <trkpt lat="44.08602" lon="1.8949">
        <ele>147.8</ele>
        <time>2017-04-23T10:02:01Z</time>
      </trkpt>
      <trkpt lat="44.08613" lon="1.89489">
        <ele>147.7</ele>
        <time>2017-04-23T10:02:03Z</time>
      </trkpt>
      <trkpt lat="44.08624" lon="1.89486">
        <ele>147.4</ele>
        <time>2017-04-23T10:02:05Z</time>
      </trkpt>
      <trkpt lat="44.08634" lon="1.89483">
        <ele>147.2</ele>
        <time>2017-04-23T10:02:07Z</time>
      </trkpt>
      <trkpt lat="44.08644" lon="1.89479">
        <ele>147.1</ele>
        <time>2017-04-23T10:02:09Z</time>
      </trkpt>
      <trkpt lat="44.08654" lon="1.89474">
        <ele>147.1</ele>
        <time>2017-04-23T10:02:11Z</time>
      </trkpt>
      <trkpt lat="44.08663" lon="1.8947">
        <ele>147.1</ele>
        <time>2017-04-23T10:02:13Z</time>
      </trkpt>
      <trkpt lat="44.08673" lon="1.89465">
        <ele>146.9</ele>
        <time>2017-04-23T10:02:15Z</time>
      </trkpt>
      <trkpt lat="44.08683" lon="1.89461">
        <ele>146.9</ele>
        <time>2017-04-23T10:02:17Z</time>
      </trkpt>
      <trkpt lat="44.08692" lon="1.89457">
        <ele>147</ele>
        <time>2017-04-23T10:02:19Z</time>
      </trkpt>
      <trkpt lat="44.08701" lon="1.89452">
        <ele>147.2</ele>
        <time>2017-04-23T10:02:21Z</time>
      </trkpt>
      <trkpt lat="44.08709" lon="1.89447">
        <ele>147.2</ele>
        <time>2017-04-23T10:02:23Z</time>
      </trkpt>
      <trkpt lat="44.08717" lon="1.89441">
        <ele>147.1</ele>
        <time>2017-04-23T10:02:25Z</time>
      </trkpt>
      <trkpt lat="44.08726" lon="1.89436">
        <ele>146.9</ele>
        <time>2017-04-23T10:02:27Z</time>
      </trkpt>
      <trkpt lat="44.08736" lon="1.89429">
        <ele>146.8</ele>
        <time>2017-04-23T10:02:29Z</time>
      </trkpt>
      <trkpt lat="44.08745" lon="1.89425">
        <ele>146.8</ele>
        <time>2017-04-23T10:02:31Z</time>
      </trkpt>
      <trkpt lat="44.08755" lon="1.89423">
        <ele>146.7</ele>
        <time>2017-04-23T10:02:33Z</time>
      </trkpt>
      <trkpt lat="44.08764" lon="1.8942">
        <ele>146.1</ele>
        <time>2017-04-23T10:02:35Z</time>
      </trkpt>
      <trkpt lat="44.08773" lon="1.8942">
        <ele>145.7</ele>
        <time>2017-04-23T10:02:37Z</time>
      </trkpt>
      <trkpt lat="44.08781" lon="1.89419">
        <ele>146.4</ele>
        <time>2017-04-23T10:02:39Z</time>
      </trkpt>
      <trkpt lat="44.08789" lon="1.8942">
        <ele>147</ele>
        <time>2017-04-23T10:02:41Z</time>
      </trkpt>
      <trkpt lat="44.08797" lon="1.89424">
        <ele>146.7</ele>
        <time>2017-04-23T10:02:43Z</time>
      </trkpt>
      <trkpt lat="44.08805" lon="1.89429">
        <ele>146.5</ele>
        <time>2017-04-23T10:02:45Z</time>
      </trkpt>
      <trkpt lat="44.08813" lon="1.89434">
        <ele>146.5</ele>
        <time>2017-04-23T10:02:47Z</time>
      </trkpt>
      <trkpt lat="44.08823" lon="1.8944">
        <ele>147.4</ele>
        <time>2017-04-23T10:02:49Z</time>
      </trkpt>
      <trkpt lat="44.08832" lon="1.89447">
        <ele>148.4</ele>
        <time>2017-04-23T10:02:51Z</time>
      </trkpt>
      <trkpt lat="44.08841" lon="1.89452">
        <ele>149.3</ele>
        <time>2017-04-23T10:02:53Z</time>
      </trkpt>
      <trkpt lat="44.0885" lon="1.89455">
        <ele>149.5</ele>
        <time>2017-04-23T10:02:55Z</time>
      </trkpt>
      <trkpt lat="44.08859" lon="1.89456">
        <ele>149.4</ele>
        <time>2017-04-23T10:02:57Z</time>
      </trkpt>
      <trkpt lat="44.08868" lon="1.89456">
        <ele>149.9</ele>
        <time>2017-04-23T10:02:59Z</time>
      </trkpt>
      <trkpt lat="44.08876" lon="1.89452">
        <ele>149.8</ele>
        <time>2017-04-23T10:03:01Z</time>
      </trkpt>
      <trkpt lat="44.08884" lon="1.89447">
        <ele>149.9</ele>
        <time>2017-04-23T10:03:03Z</time>
      </trkpt>
      <trkpt lat="44.08891" lon="1.8944">
        <ele>150</ele>
        <time>2017-04-23T10:03:05Z</time>
      </trkpt>
      <trkpt lat="44.08897" lon="1.89433">
        <ele>150.2</ele>
        <time>2017-04-23T10:03:07Z</time>
      </trkpt>
      <trkpt lat="44.08904" lon="1.89427">
        <ele>150.7</ele>
        <time>2017-04-23T10:03:09Z</time>
      </trkpt>
      <trkpt lat="44.08911" lon="1.89419">
        <ele>151</ele>
        <time>2017-04-23T10:03:11Z</time>
      </trkpt>
      <trkpt lat="44.08917" lon="1.89413">
        <ele>150.8</ele>
        <time>2017-04-23T10:03:13Z</time>
      </trkpt>
      <trkpt lat="44.08925" lon="1.89408">
        <ele>149.9</ele>
        <time>2017-04-23T10:03:15Z</time>
      </trkpt>
      <trkpt lat="44.08934" lon="1.89402">
        <ele>149.8</ele>
        <time>2017-04-23T10:03:17Z</time>
      </trkpt>
      <trkpt lat="44.08944" lon="1.89398">
        <ele>149.1</ele>
        <time>2017-04-23T10:03:19Z</time>
      </trkpt>
      <trkpt lat="44.08953" lon="1.89397">
        <ele>148.6</ele>
        <time>2017-04-23T10:03:21Z</time>
      </trkpt>
      <trkpt lat="44.08963" lon="1.89396">
        <ele>148.1</ele>
        <time>2017-04-23T10:03:23Z</time>
      </trkpt>
      <trkpt lat="44.08972" lon="1.89398">
        <ele>147.7</ele>
        <time>2017-04-23T10:03:25Z</time>
      </trkpt>
      <trkpt lat="44.0898" lon="1.89401">
        <ele>146.8</ele>
        <time>2017-04-23T10:03:27Z</time>
      </trkpt>
      <trkpt lat="44.08987" lon="1.89405">
        <ele>146.8</ele>
        <time>2017-04-23T10:03:29Z</time>
      </trkpt>
      <trkpt lat="44.08995" lon="1.8941">
        <ele>146.8</ele>
        <time>2017-04-23T10:03:31Z</time>
      </trkpt>
      <trkpt lat="44.09003" lon="1.89417">
        <ele>146.5</ele>
        <time>2017-04-23T10:03:33Z</time>
      </trkpt>
      <trkpt lat="44.0901" lon="1.89425">
        <ele>146.9</ele>
        <time>2017-04-23T10:03:35Z</time>
      </trkpt>
      <trkpt lat="44.09016" lon="1.89435">
        <ele>146.3</ele>
        <time>2017-04-23T10:03:37Z</time>
      </trkpt>
      <trkpt lat="44.09022" lon="1.89445">
        <ele>146.4</ele>
        <time>2017-04-23T10:03:39Z</time>
      </trkpt>
      <trkpt lat="44.09026" lon="1.89456">
        <ele>146.3</ele>
        <time>2017-04-23T10:03:41Z</time>
      </trkpt>
      <trkpt lat="44.09028" lon="1.89465">
        <ele>146.7</ele>
        <time>2017-04-23T10:03:43Z</time>
      </trkpt>
      <trkpt lat="44.0903" lon="1.89475">
        <ele>147.2</ele>
        <time>2017-04-23T10:03:45Z</time>
      </trkpt>
      <trkpt lat="44.09031" lon="1.89486">
        <ele>147.9</ele>
        <time>2017-04-23T10:03:47Z</time>
      </trkpt>
      <trkpt lat="44.09032" lon="1.89497">
        <ele>147.8</ele>
        <time>2017-04-23T10:03:49Z</time>
      </trkpt>
      <trkpt lat="44.09034" lon="1.89509">
        <ele>148.8</ele>
        <time>2017-04-23T10:03:51Z</time>
      </trkpt>
      <trkpt lat="44.09035" lon="1.8952">
        <ele>149.5</ele>
        <time>2017-04-23T10:03:53Z</time>
      </trkpt>
      <trkpt lat="44.09035" lon="1.89532">
        <ele>150</ele>
        <time>2017-04-23T10:03:55Z</time>
      </trkpt>
      <trkpt lat="44.09036" lon="1.89544">
        <ele>150.3</ele>
        <time>2017-04-23T10:03:57Z</time>
      </trkpt>
      <trkpt lat="44.09036" lon="1.89554">
        <ele>150.9</ele>
        <time>2017-04-23T10:03:59Z</time>
      </trkpt>
      <trkpt lat="44.09036" lon="1.89564">
        <ele>151.5</ele>
        <time>2017-04-23T10:04:01Z</time>
      </trkpt>
      <trkpt lat="44.09036" lon="1.89574">
        <ele>152.3</ele>
        <time>2017-04-23T10:04:03Z</time>
      </trkpt>
      <trkpt lat="44.09036" lon="1.89584">
        <ele>152.7</ele>
        <time>2017-04-23T10:04:05Z</time>
      </trkpt>
      <trkpt lat="44.09037" lon="1.89595">
        <ele>153.3</ele>
        <time>2017-04-23T10:04:07Z</time>
      </trkpt>
      <trkpt lat="44.09039" lon="1.89605">
        <ele>154.4</ele>
        <time>2017-04-23T10:04:09Z</time>
      </trkpt>
      <trkpt lat="44.0904" lon="1.89619">
        <ele>155.2</ele>
        <time>2017-04-23T10:04:12Z</time>
      </trkpt>
      <trkpt lat="44.09039" lon="1.89635">
        <ele>155.4</ele>
        <time>2017-04-23T10:04:15Z</time>
      </trkpt>
      <trkpt lat="44.0904" lon="1.89645">
        <ele>156.6</ele>
        <time>2017-04-23T10:04:17Z</time>
      </trkpt>
      <trkpt lat="44.09046" lon="1.89656">
        <ele>158</ele>
        <time>2017-04-23T10:04:20Z</time>
      </trkpt>
      <trkpt lat="44.09053" lon="1.89664">
        <ele>158.7</ele>
        <time>2017-04-23T10:04:23Z</time>
      </trkpt>
      <trkpt lat="44.09054" lon="1.89667">
        <ele>159.4</ele>
        <time>2017-04-23T10:04:30Z</time>
      </trkpt>
      <trkpt lat="44.09054" lon="1.89679">
        <ele>160.1</ele>
        <time>2017-04-23T10:04:42Z</time>
      </trkpt>
      <trkpt lat="44.09054" lon="1.8969">
        <ele>160</ele>
        <time>2017-04-23T10:04:45Z</time>
      </trkpt>
      <trkpt lat="44.09055" lon="1.897">
        <ele>159.8</ele>
        <time>2017-04-23T10:04:48Z</time>
      </trkpt>
      <trkpt lat="44.09057" lon="1.8971">
        <ele>160.1</ele>
        <time>2017-04-23T10:04:51Z</time>
      </trkpt>
      <trkpt lat="44.09058" lon="1.89721">
        <ele>159.9</ele>
        <time>2017-04-23T10:04:54Z</time>
      </trkpt>
      <trkpt lat="44.09059" lon="1.89734">
        <ele>159.5</ele>
        <time>2017-04-23T10:04:57Z</time>
      </trkpt>
      <trkpt lat="44.09056" lon="1.89747">
        <ele>159.1</ele>
        <time>2017-04-23T10:05:00Z</time>
      </trkpt>
      <trkpt lat="44.0905" lon="1.89759">
        <ele>160.9</ele>
        <time>2017-04-23T10:05:03Z</time>
      </trkpt>
      <trkpt lat="44.09046" lon="1.89768">
        <ele>162.1</ele>
        <time>2017-04-23T10:05:05Z</time>
      </trkpt>
      <trkpt lat="44.09041" lon="1.89779">
        <ele>163</ele>
        <time>2017-04-23T10:05:08Z</time>
      </trkpt>
      <trkpt lat="44.09039" lon="1.8979">
        <ele>163.4</ele>
        <time>2017-04-23T10:05:10Z</time>
      </trkpt>
      <trkpt lat="44.09039" lon="1.898">
        <ele>163.8</ele>
        <time>2017-04-23T10:05:12Z</time>
      </trkpt>
      <trkpt lat="44.09037" lon="1.8981">
        <ele>165.5</ele>
        <time>2017-04-23T10:05:15Z</time>
      </trkpt>
      <trkpt lat="44.09037" lon="1.8982">
        <ele>167</ele>
        <time>2017-04-23T10:05:18Z</time>
      </trkpt>
      <trkpt lat="44.09038" lon="1.89831">
        <ele>168.2</ele>
        <time>2017-04-23T10:05:21Z</time>
      </trkpt>
      <trkpt lat="44.09039" lon="1.89842">
        <ele>170.3</ele>
        <time>2017-04-23T10:05:25Z</time>
      </trkpt>
      <trkpt lat="44.09042" lon="1.89854">
        <ele>172.2</ele>
        <time>2017-04-23T10:05:29Z</time>
      </trkpt>
      <trkpt lat="44.09044" lon="1.89866">
        <ele>173.4</ele>
        <time>2017-04-23T10:05:34Z</time>
      </trkpt>
      <trkpt lat="44.09046" lon="1.89876">
        <ele>175.3</ele>
        <time>2017-04-23T10:05:40Z</time>
      </trkpt>
      <trkpt lat="44.09048" lon="1.89886">
        <ele>177.3</ele>
        <time>2017-04-23T10:05:47Z</time>
      </trkpt>
      <trkpt lat="44.0905" lon="1.89895">
        <ele>178.7</ele>
        <time>2017-04-23T10:05:53Z</time>
      </trkpt>
      <trkpt lat="44.09051" lon="1.89907">
        <ele>180.5</ele>
        <time>2017-04-23T10:06:00Z</time>
      </trkpt>
      <trkpt lat="44.09053" lon="1.89917">
        <ele>182.6</ele>
        <time>2017-04-23T10:06:07Z</time>
      </trkpt>
      <trkpt lat="44.09055" lon="1.89927">
        <ele>184.4</ele>
        <time>2017-04-23T10:06:13Z</time>
      </trkpt>
      <trkpt lat="44.09055" lon="1.89936">
        <ele>186.3</ele>
        <time>2017-04-23T10:06:20Z</time>
      </trkpt>
      <trkpt lat="44.09055" lon="1.89948">
        <ele>187</ele>
        <time>2017-04-23T10:06:26Z</time>
      </trkpt>
      <trkpt lat="44.09053" lon="1.89958">
        <ele>187.4</ele>
        <time>2017-04-23T10:06:32Z</time>
      </trkpt>
      <trkpt lat="44.09053" lon="1.89969">
        <ele>187.8</ele>
        <time>2017-04-23T10:06:35Z</time>
      </trkpt>
      <trkpt lat="44.09054" lon="1.89979">
        <ele>187.5</ele>
        <time>2017-04-23T10:06:38Z</time>
      </trkpt>
      <trkpt lat="44.09053" lon="1.89992">
        <ele>188.3</ele>
        <time>2017-04-23T10:06:41Z</time>
      </trkpt>
      <trkpt lat="44.09053" lon="1.90006">
        <ele>189.6</ele>
        <time>2017-04-23T10:06:44Z</time>
      </trkpt>
      <trkpt lat="44.09048" lon="1.90018">
        <ele>190.8</ele>
        <time>2017-04-23T10:06:47Z</time>
      </trkpt>
      <trkpt lat="44.09041" lon="1.90029">
        <ele>191.1</ele>
        <time>2017-04-23T10:06:50Z</time>
      </trkpt>
      <trkpt lat="44.09036" lon="1.90038">
        <ele>191.4</ele>
        <time>2017-04-23T10:06:52Z</time>
      </trkpt>
      <trkpt lat="44.09031" lon="1.90047">
        <ele>192.1</ele>
        <time>2017-04-23T10:06:54Z</time>
      </trkpt>
      <trkpt lat="44.09027" lon="1.90056">
        <ele>192.3</ele>
        <time>2017-04-23T10:06:56Z</time>
      </trkpt>
      <trkpt lat="44.09021" lon="1.90066">
        <ele>193.5</ele>
        <time>2017-04-23T10:06:59Z</time>
      </trkpt>
      <trkpt lat="44.09014" lon="1.90076">
        <ele>194.3</ele>
        <time>2017-04-23T10:07:02Z</time>
      </trkpt>
      <trkpt lat="44.09009" lon="1.90087">
        <ele>195.2</ele>
        <time>2017-04-23T10:07:05Z</time>
      </trkpt>
      <trkpt lat="44.09007" lon="1.901">
        <ele>196.2</ele>
        <time>2017-04-23T10:07:08Z</time>
      </trkpt>
      <trkpt lat="44.09008" lon="1.90114">
        <ele>197.6</ele>
        <time>2017-04-23T10:07:11Z</time>
      </trkpt>
      <trkpt lat="44.0901" lon="1.90124">
        <ele>197.5</ele>
        <time>2017-04-23T10:07:14Z</time>
      </trkpt>
      <trkpt lat="44.09013" lon="1.90136">
        <ele>198</ele>
        <time>2017-04-23T10:07:18Z</time>
      </trkpt>
      <trkpt lat="44.09018" lon="1.90146">
        <ele>199.9</ele>
        <time>2017-04-23T10:07:21Z</time>
      </trkpt>
      <trkpt lat="44.09022" lon="1.90157">
        <ele>203</ele>
        <time>2017-04-23T10:07:25Z</time>
      </trkpt>
      <trkpt lat="44.09025" lon="1.90169">
        <ele>205.5</ele>
        <time>2017-04-23T10:07:29Z</time>
      </trkpt>
      <trkpt lat="44.09028" lon="1.9018">
        <ele>207.6</ele>
        <time>2017-04-23T10:07:32Z</time>
      </trkpt>
      <trkpt lat="44.09028" lon="1.9019">
        <ele>208.9</ele>
        <time>2017-04-23T10:07:35Z</time>
      </trkpt>
      <trkpt lat="44.09026" lon="1.902">
        <ele>209.9</ele>
        <time>2017-04-23T10:07:38Z</time>
      </trkpt>
      <trkpt lat="44.09026" lon="1.90212">
        <ele>210.9</ele>
        <time>2017-04-23T10:07:41Z</time>
      </trkpt>
      <trkpt lat="44.09026" lon="1.90222">
        <ele>212.4</ele>
        <time>2017-04-23T10:07:44Z</time>
      </trkpt>
      <trkpt lat="44.09024" lon="1.90235">
        <ele>215</ele>
        <time>2017-04-23T10:07:47Z</time>
      </trkpt>
      <trkpt lat="44.09021" lon="1.90247">
        <ele>218.2</ele>
        <time>2017-04-23T10:07:50Z</time>
      </trkpt>
      <trkpt lat="44.09017" lon="1.90255">
        <ele>221.6</ele>
        <time>2017-04-23T10:07:53Z</time>
      </trkpt>
      <trkpt lat="44.09011" lon="1.90263">
        <ele>225.7</ele>
        <time>2017-04-23T10:07:57Z</time>
      </trkpt>
      <trkpt lat="44.09002" lon="1.90264">
        <ele>229.1</ele>
        <time>2017-04-23T10:08:01Z</time>
      </trkpt>
      <trkpt lat="44.08993" lon="1.90265">
        <ele>230.2</ele>
        <time>2017-04-23T10:08:05Z</time>
      </trkpt>
      <trkpt lat="44.08993" lon="1.90275">
        <ele>230.6</ele>
        <time>2017-04-23T10:08:09Z</time>
      </trkpt>
      <trkpt lat="44.09002" lon="1.90274">
        <ele>230.4</ele>
        <time>2017-04-23T10:11:01Z</time>
      </trkpt>
      <trkpt lat="44.09008" lon="1.9028">
        <ele>231.1</ele>
        <time>2017-04-23T10:11:06Z</time>
      </trkpt>
      <trkpt lat="44.09015" lon="1.90285">
        <ele>231.9</ele>
        <time>2017-04-23T10:11:12Z</time>
      </trkpt>
      <trkpt lat="44.09021" lon="1.90291">
        <ele>232.9</ele>
        <time>2017-04-23T10:11:17Z</time>
      </trkpt>
      <trkpt lat="44.09028" lon="1.90295">
        <ele>234.1</ele>
        <time>2017-04-23T10:11:22Z</time>
      </trkpt>
      <trkpt lat="44.09036" lon="1.90298">
        <ele>235.4</ele>
        <time>2017-04-23T10:11:28Z</time>
      </trkpt>
      <trkpt lat="44.09044" lon="1.903">
        <ele>237.3</ele>
        <time>2017-04-23T10:11:34Z</time>
      </trkpt>
      <trkpt lat="44.09052" lon="1.903">
        <ele>239.1</ele>
        <time>2017-04-23T10:11:39Z</time>
      </trkpt>
      <trkpt lat="44.09058" lon="1.90305">
        <ele>239</ele>
        <time>2017-04-23T10:11:44Z</time>
      </trkpt>
      <trkpt lat="44.09066" lon="1.90307">
        <ele>239.5</ele>
        <time>2017-04-23T10:11:49Z</time>
      </trkpt>
      <trkpt lat="44.09074" lon="1.9031">
        <ele>239.6</ele>
        <time>2017-04-23T10:11:54Z</time>
      </trkpt>
      <trkpt lat="44.09081" lon="1.9031">
        <ele>240.6</ele>
        <time>2017-04-23T10:11:59Z</time>
      </trkpt>
      <trkpt lat="44.0909" lon="1.90309">
        <ele>242.1</ele>
        <time>2017-04-23T10:12:04Z</time>
      </trkpt>
      <trkpt lat="44.09099" lon="1.90308">
        <ele>243</ele>
        <time>2017-04-23T10:12:09Z</time>
      </trkpt>
      <trkpt lat="44.09107" lon="1.90306">
        <ele>243.6</ele>
        <time>2017-04-23T10:12:14Z</time>
      </trkpt>
      <trkpt lat="44.09115" lon="1.90301">
        <ele>245.2</ele>
        <time>2017-04-23T10:12:19Z</time>
      </trkpt>
      <trkpt lat="44.09121" lon="1.90294">
        <ele>245.7</ele>
        <time>2017-04-23T10:12:24Z</time>
      </trkpt>
      <trkpt lat="44.09128" lon="1.90286">
        <ele>246.5</ele>
        <time>2017-04-23T10:12:29Z</time>
      </trkpt>
      <trkpt lat="44.09135" lon="1.9028">
        <ele>247.4</ele>
        <time>2017-04-23T10:12:34Z</time>
      </trkpt>
      <trkpt lat="44.09142" lon="1.90272">
        <ele>248.5</ele>
        <time>2017-04-23T10:12:39Z</time>
      </trkpt>
      <trkpt lat="44.09148" lon="1.90266">
        <ele>249.4</ele>
        <time>2017-04-23T10:12:43Z</time>
      </trkpt>
      <trkpt lat="44.09154" lon="1.90259">
        <ele>250.1</ele>
        <time>2017-04-23T10:12:47Z</time>
      </trkpt>
      <trkpt lat="44.0916" lon="1.9025">
        <ele>251.1</ele>
        <time>2017-04-23T10:12:52Z</time>
      </trkpt>
      <trkpt lat="44.09165" lon="1.90243">
        <ele>251.9</ele>
        <time>2017-04-23T10:12:56Z</time>
      </trkpt>
      <trkpt lat="44.09171" lon="1.90234">
        <ele>253.2</ele>
        <time>2017-04-23T10:13:01Z</time>
      </trkpt>
      <trkpt lat="44.09175" lon="1.90225">
        <ele>254.2</ele>
        <time>2017-04-23T10:13:05Z</time>
      </trkpt>
      <trkpt lat="44.09181" lon="1.90219">
        <ele>255.2</ele>
        <time>2017-04-23T10:13:09Z</time>
      </trkpt>
      <trkpt lat="44.09188" lon="1.90221">
        <ele>258.4</ele>
        <time>2017-04-23T10:13:16Z</time>
      </trkpt>
      <trkpt lat="44.09185" lon="1.90231">
        <ele>259.7</ele>
        <time>2017-04-23T10:13:21Z</time>
      </trkpt>
      <trkpt lat="44.09183" lon="1.90243">
        <ele>260.3</ele>
        <time>2017-04-23T10:13:26Z</time>
      </trkpt>
      <trkpt lat="44.09181" lon="1.90253">
        <ele>260.9</ele>
        <time>2017-04-23T10:13:30Z</time>
      </trkpt>
      <trkpt lat="44.0918" lon="1.90264">
        <ele>261.8</ele>
        <time>2017-04-23T10:13:35Z</time>
      </trkpt>
      <trkpt lat="44.09177" lon="1.90281">
        <ele>264.1</ele>
        <time>2017-04-23T10:13:55Z</time>
      </trkpt>
      <trkpt lat="44.09175" lon="1.9029">
        <ele>264</ele>
        <time>2017-04-23T10:14:00Z</time>
      </trkpt>
      <trkpt lat="44.09172" lon="1.90302">
        <ele>264.4</ele>
        <time>2017-04-23T10:14:05Z</time>
      </trkpt>
      <trkpt lat="44.09169" lon="1.90312">
        <ele>265.1</ele>
        <time>2017-04-23T10:14:09Z</time>
      </trkpt>
      <trkpt lat="44.09167" lon="1.90322">
        <ele>265.8</ele>
        <time>2017-04-23T10:14:13Z</time>
      </trkpt>
      <trkpt lat="44.09164" lon="1.90332">
        <ele>266.1</ele>
        <time>2017-04-23T10:14:18Z</time>
      </trkpt>
      <trkpt lat="44.09165" lon="1.90343">
        <ele>266.1</ele>
        <time>2017-04-23T10:14:23Z</time>
      </trkpt>
      <trkpt lat="44.09164" lon="1.90353">
        <ele>266</ele>
        <time>2017-04-23T10:14:27Z</time>
      </trkpt>
      <trkpt lat="44.0916" lon="1.90362">
        <ele>265.8</ele>
        <time>2017-04-23T10:14:31Z</time>
      </trkpt>
      <trkpt lat="44.09156" lon="1.90372">
        <ele>265.5</ele>
        <time>2017-04-23T10:14:36Z</time>
      </trkpt>
      <trkpt lat="44.09152" lon="1.9038">
        <ele>265.8</ele>
        <time>2017-04-23T10:14:40Z</time>
      </trkpt>
      <trkpt lat="44.09147" lon="1.90388">
        <ele>266.1</ele>
        <time>2017-04-23T10:14:44Z</time>
      </trkpt>
      <trkpt lat="44.09141" lon="1.90396">
        <ele>266.7</ele>
        <time>2017-04-23T10:14:48Z</time>
      </trkpt>
      <trkpt lat="44.09135" lon="1.90402">
        <ele>267.2</ele>
        <time>2017-04-23T10:14:52Z</time>
      </trkpt>
      <trkpt lat="44.0913" lon="1.90409">
        <ele>267.7</ele>
        <time>2017-04-23T10:14:56Z</time>
      </trkpt>
      <trkpt lat="44.09124" lon="1.90416">
        <ele>268.3</ele>
        <time>2017-04-23T10:15:00Z</time>
      </trkpt>
      <trkpt lat="44.09115" lon="1.90418">
        <ele>269.9</ele>
        <time>2017-04-23T10:15:04Z</time>
      </trkpt>
      <trkpt lat="44.09108" lon="1.9042">
        <ele>271</ele>
        <time>2017-04-23T10:15:07Z</time>
      </trkpt>
      <trkpt lat="44.09098" lon="1.90423">
        <ele>273.8</ele>
        <time>2017-04-23T10:15:10Z</time>
      </trkpt>
      <trkpt lat="44.0909" lon="1.90424">
        <ele>274.6</ele>
        <time>2017-04-23T10:15:13Z</time>
      </trkpt>
      <trkpt lat="44.09082" lon="1.90425">
        <ele>275.2</ele>
        <time>2017-04-23T10:15:16Z</time>
      </trkpt>
      <trkpt lat="44.09073" lon="1.90424">
        <ele>276.5</ele>
        <time>2017-04-23T10:15:19Z</time>
      </trkpt>
      <trkpt lat="44.09066" lon="1.90422">
        <ele>277.4</ele>
        <time>2017-04-23T10:15:22Z</time>
      </trkpt>
      <trkpt lat="44.09057" lon="1.90419">
        <ele>278</ele>
        <time>2017-04-23T10:15:26Z</time>
      </trkpt>
      <trkpt lat="44.09047" lon="1.90416">
        <ele>278.9</ele>
        <time>2017-04-23T10:15:30Z</time>
      </trkpt>
      <trkpt lat="44.0904" lon="1.90415">
        <ele>279.1</ele>
        <time>2017-04-23T10:15:33Z</time>
      </trkpt>
      <trkpt lat="44.09033" lon="1.90413">
        <ele>279.8</ele>
        <time>2017-04-23T10:15:36Z</time>
      </trkpt>
      <trkpt lat="44.09024" lon="1.90412">
        <ele>282</ele>
        <time>2017-04-23T10:15:39Z</time>
      </trkpt>
      <trkpt lat="44.09016" lon="1.90411">
        <ele>283</ele>
        <time>2017-04-23T10:15:42Z</time>
      </trkpt>
      <trkpt lat="44.09007" lon="1.90412">
        <ele>284.8</ele>
        <time>2017-04-23T10:15:45Z</time>
      </trkpt>
      <trkpt lat="44.08998" lon="1.90413">
        <ele>286.3</ele>
        <time>2017-04-23T10:15:48Z</time>
      </trkpt>
      <trkpt lat="44.08989" lon="1.90415">
        <ele>287.5</ele>
        <time>2017-04-23T10:15:51Z</time>
      </trkpt>
      <trkpt lat="44.08982" lon="1.90422">
        <ele>287.9</ele>
        <time>2017-04-23T10:15:55Z</time>
      </trkpt>
      <trkpt lat="44.08981" lon="1.90433">
        <ele>288.2</ele>
        <time>2017-04-23T10:15:59Z</time>
      </trkpt>
      <trkpt lat="44.08984" lon="1.90445">
        <ele>288.4</ele>
        <time>2017-04-23T10:16:03Z</time>
      </trkpt>
      <trkpt lat="44.08987" lon="1.90454">
        <ele>288.6</ele>
        <time>2017-04-23T10:16:09Z</time>
      </trkpt>
      <trkpt lat="44.08993" lon="1.90463">
        <ele>287.6</ele>
        <time>2017-04-23T10:16:36Z</time>
      </trkpt>
      <trkpt lat="44.08995" lon="1.90474">
        <ele>288.3</ele>
        <time>2017-04-23T10:16:41Z</time>
      </trkpt>
      <trkpt lat="44.0899" lon="1.90485">
        <ele>288.1</ele>
        <time>2017-04-23T10:16:46Z</time>
      </trkpt>
      <trkpt lat="44.08982" lon="1.90497">
        <ele>287.1</ele>
        <time>2017-04-23T10:16:49Z</time>
      </trkpt>
      <trkpt lat="44.08977" lon="1.9051">
        <ele>286.6</ele>
        <time>2017-04-23T10:16:51Z</time>
      </trkpt>
      <trkpt lat="44.08976" lon="1.90529">
        <ele>286.1</ele>
        <time>2017-04-23T10:16:53Z</time>
      </trkpt>
      <trkpt lat="44.08977" lon="1.90539">
        <ele>286.1</ele>
        <time>2017-04-23T10:16:54Z</time>
      </trkpt>
      <trkpt lat="44.0898" lon="1.90549">
        <ele>285.6</ele>
        <time>2017-04-23T10:16:55Z</time>
      </trkpt>
      <trkpt lat="44.08982" lon="1.90558">
        <ele>285.5</ele>
        <time>2017-04-23T10:16:56Z</time>
      </trkpt>
      <trkpt lat="44.08984" lon="1.90568">
        <ele>285.1</ele>
        <time>2017-04-23T10:16:57Z</time>
      </trkpt>
      <trkpt lat="44.08988" lon="1.90587">
        <ele>284.9</ele>
        <time>2017-04-23T10:16:59Z</time>
      </trkpt>
      <trkpt lat="44.08991" lon="1.90605">
        <ele>284.6</ele>
        <time>2017-04-23T10:17:01Z</time>
      </trkpt>
      <trkpt lat="44.08995" lon="1.90622">
        <ele>284</ele>
        <time>2017-04-23T10:17:03Z</time>
      </trkpt>
      <trkpt lat="44.08998" lon="1.90639">
        <ele>283.6</ele>
        <time>2017-04-23T10:17:05Z</time>
      </trkpt>
      <trkpt lat="44.08998" lon="1.90655">
        <ele>283.3</ele>
        <time>2017-04-23T10:17:07Z</time>
      </trkpt>
      <trkpt lat="44.08999" lon="1.90671">
        <ele>283.1</ele>
        <time>2017-04-23T10:17:09Z</time>
      </trkpt>
      <trkpt lat="44.08998" lon="1.90685">
        <ele>282.9</ele>
        <time>2017-04-23T10:17:11Z</time>
      </trkpt>
      <trkpt lat="44.08998" lon="1.90698">
        <ele>282.6</ele>
        <time>2017-04-23T10:17:13Z</time>
      </trkpt>
      <trkpt lat="44.08997" lon="1.90709">
        <ele>283</ele>
        <time>2017-04-23T10:17:15Z</time>
      </trkpt>
      <trkpt lat="44.08996" lon="1.90724">
        <ele>282.5</ele>
        <time>2017-04-23T10:17:18Z</time>
      </trkpt>
      <trkpt lat="44.08996" lon="1.90738">
        <ele>281.5</ele>
        <time>2017-04-23T10:17:21Z</time>
      </trkpt>
      <trkpt lat="44.08995" lon="1.90752">
        <ele>282</ele>
        <time>2017-04-23T10:17:24Z</time>
      </trkpt>
      <trkpt lat="44.08994" lon="1.90765">
        <ele>282.6</ele>
        <time>2017-04-23T10:17:27Z</time>
      </trkpt>
      <trkpt lat="44.08992" lon="1.90778">
        <ele>282.7</ele>
        <time>2017-04-23T10:17:30Z</time>
      </trkpt>
      <trkpt lat="44.08993" lon="1.90788">
        <ele>282.6</ele>
        <time>2017-04-23T10:17:33Z</time>
      </trkpt>
      <trkpt lat="44.08993" lon="1.90801">
        <ele>281.7</ele>
        <time>2017-04-23T10:17:37Z</time>
      </trkpt>
      <trkpt lat="44.08991" lon="1.90814">
        <ele>282.3</ele>
        <time>2017-04-23T10:17:41Z</time>
      </trkpt>
      <trkpt lat="44.08988" lon="1.90827">
        <ele>281.5</ele>
        <time>2017-04-23T10:17:45Z</time>
      </trkpt>
      <trkpt lat="44.08985" lon="1.90841">
        <ele>280</ele>
        <time>2017-04-23T10:17:48Z</time>
      </trkpt>
      <trkpt lat="44.08983" lon="1.90854">
        <ele>279.5</ele>
        <time>2017-04-23T10:17:50Z</time>
      </trkpt>
      <trkpt lat="44.0898" lon="1.90866">
        <ele>278.2</ele>
        <time>2017-04-23T10:17:52Z</time>
      </trkpt>
      <trkpt lat="44.08977" lon="1.90881">
        <ele>276.9</ele>
        <time>2017-04-23T10:17:54Z</time>
      </trkpt>
      <trkpt lat="44.08975" lon="1.90897">
        <ele>276.4</ele>
        <time>2017-04-23T10:17:56Z</time>
      </trkpt>
      <trkpt lat="44.08972" lon="1.90913">
        <ele>276.1</ele>
        <time>2017-04-23T10:17:58Z</time>
      </trkpt>
      <trkpt lat="44.0897" lon="1.90926">
        <ele>275.7</ele>
        <time>2017-04-23T10:18:00Z</time>
      </trkpt>
      <trkpt lat="44.08967" lon="1.90938">
        <ele>274.3</ele>
        <time>2017-04-23T10:18:03Z</time>
      </trkpt>
      <trkpt lat="44.08964" lon="1.9095">
        <ele>274.2</ele>
        <time>2017-04-23T10:18:06Z</time>
      </trkpt>
      <trkpt lat="44.08959" lon="1.9096">
        <ele>273.7</ele>
        <time>2017-04-23T10:18:10Z</time>
      </trkpt>
      <trkpt lat="44.08953" lon="1.90969">
        <ele>273.3</ele>
        <time>2017-04-23T10:18:14Z</time>
      </trkpt>
      <trkpt lat="44.08946" lon="1.90972">
        <ele>271.9</ele>
        <time>2017-04-23T10:18:18Z</time>
      </trkpt>
      <trkpt lat="44.08938" lon="1.90976">
        <ele>271.2</ele>
        <time>2017-04-23T10:18:22Z</time>
      </trkpt>
      <trkpt lat="44.08931" lon="1.90976">
        <ele>269.3</ele>
        <time>2017-04-23T10:18:28Z</time>
      </trkpt>
      <trkpt lat="44.08924" lon="1.90976">
        <ele>267</ele>
        <time>2017-04-23T10:18:35Z</time>
      </trkpt>
      <trkpt lat="44.08923" lon="1.9098">
        <ele>266.2</ele>
        <time>2017-04-23T10:18:42Z</time>
      </trkpt>
      <trkpt lat="44.0892" lon="1.90985">
        <ele>266.6</ele>
        <time>2017-04-23T10:18:59Z</time>
      </trkpt>
      <trkpt lat="44.08921" lon="1.90992">
        <ele>266.8</ele>
        <time>2017-04-23T10:19:06Z</time>
      </trkpt>
      <trkpt lat="44.08923" lon="1.9098">
        <ele>268.7</ele>
        <time>2017-04-23T10:19:21Z</time>
      </trkpt>
      <trkpt lat="44.0892" lon="1.9099">
        <ele>270.2</ele>
        <time>2017-04-23T10:19:42Z</time>
      </trkpt>
      <trkpt lat="44.0892" lon="1.90992">
        <ele>270.4</ele>
        <time>2017-04-23T10:19:49Z</time>
      </trkpt>
      <trkpt lat="44.08917" lon="1.9098">
        <ele>271.6</ele>
        <time>2017-04-23T10:20:01Z</time>
      </trkpt>
      <trkpt lat="44.08909" lon="1.90976">
        <ele>271.2</ele>
        <time>2017-04-23T10:20:07Z</time>
      </trkpt>
      <trkpt lat="44.08901" lon="1.9098">
        <ele>271</ele>
        <time>2017-04-23T10:20:09Z</time>
      </trkpt>
      <trkpt lat="44.08892" lon="1.90982">
        <ele>270.8</ele>
        <time>2017-04-23T10:20:11Z</time>
      </trkpt>
      <trkpt lat="44.08883" lon="1.90984">
        <ele>270.6</ele>
        <time>2017-04-23T10:20:13Z</time>
      </trkpt>
      <trkpt lat="44.08874" lon="1.90987">
        <ele>270.4</ele>
        <time>2017-04-23T10:20:15Z</time>
      </trkpt>
      <trkpt lat="44.08864" lon="1.90989">
        <ele>270.2</ele>
        <time>2017-04-23T10:20:17Z</time>
      </trkpt>
      <trkpt lat="44.08856" lon="1.90989">
        <ele>270</ele>
        <time>2017-04-23T10:20:19Z</time>
      </trkpt>
      <trkpt lat="44.08847" lon="1.90988">
        <ele>269.6</ele>
        <time>2017-04-23T10:20:21Z</time>
      </trkpt>
      <trkpt lat="44.08839" lon="1.9099">
        <ele>269.1</ele>
        <time>2017-04-23T10:20:23Z</time>
      </trkpt>
      <trkpt lat="44.08831" lon="1.90991">
        <ele>268.6</ele>
        <time>2017-04-23T10:20:25Z</time>
      </trkpt>
      <trkpt lat="44.08823" lon="1.90989">
        <ele>267.5</ele>
        <time>2017-04-23T10:20:29Z</time>
      </trkpt>
      <trkpt lat="44.08816" lon="1.90989">
        <ele>268.5</ele>
        <time>2017-04-23T10:20:36Z</time>
      </trkpt>
      <trkpt lat="44.08809" lon="1.90992">
        <ele>268</ele>
        <time>2017-04-23T10:20:43Z</time>
      </trkpt>
      <trkpt lat="44.08803" lon="1.90994">
        <ele>267.7</ele>
        <time>2017-04-23T10:20:50Z</time>
      </trkpt>
      <trkpt lat="44.08799" lon="1.90993">
        <ele>267.9</ele>
        <time>2017-04-23T10:20:57Z</time>
      </trkpt>
      <trkpt lat="44.08793" lon="1.90988">
        <ele>268</ele>
        <time>2017-04-23T10:21:04Z</time>
      </trkpt>
      <trkpt lat="44.08785" lon="1.90985">
        <ele>268.6</ele>
        <time>2017-04-23T10:21:11Z</time>
      </trkpt>
      <trkpt lat="44.0878" lon="1.90984">
        <ele>269.2</ele>
        <time>2017-04-23T10:21:18Z</time>
      </trkpt>
      <trkpt lat="44.08773" lon="1.90981">
        <ele>270</ele>
        <time>2017-04-23T10:21:25Z</time>
      </trkpt>
      <trkpt lat="44.08767" lon="1.90974">
        <ele>270.8</ele>
        <time>2017-04-23T10:21:30Z</time>
      </trkpt>
      <trkpt lat="44.08763" lon="1.90965">
        <ele>271.6</ele>
        <time>2017-04-23T10:21:35Z</time>
      </trkpt>
      <trkpt lat="44.08757" lon="1.90958">
        <ele>272.7</ele>
        <time>2017-04-23T10:21:42Z</time>
      </trkpt>
      <trkpt lat="44.08749" lon="1.90962">
        <ele>273.5</ele>
        <time>2017-04-23T10:21:48Z</time>
      </trkpt>
      <trkpt lat="44.08743" lon="1.90969">
        <ele>274.3</ele>
        <time>2017-04-23T10:21:55Z</time>
      </trkpt>
      <trkpt lat="44.08737" lon="1.90976">
        <ele>275.3</ele>
        <time>2017-04-23T10:22:02Z</time>
      </trkpt>
      <trkpt lat="44.08734" lon="1.90987">
        <ele>276.5</ele>
        <time>2017-04-23T10:22:09Z</time>
      </trkpt>
      <trkpt lat="44.08732" lon="1.90997">
        <ele>277.4</ele>
        <time>2017-04-23T10:22:13Z</time>
      </trkpt>
      <trkpt lat="44.08725" lon="1.91004">
        <ele>279</ele>
        <time>2017-04-23T10:22:19Z</time>
      </trkpt>
      <trkpt lat="44.08721" lon="1.91013">
        <ele>279.5</ele>
        <time>2017-04-23T10:22:24Z</time>
      </trkpt>
      <trkpt lat="44.08719" lon="1.91024">
        <ele>280.2</ele>
        <time>2017-04-23T10:22:30Z</time>
      </trkpt>
      <trkpt lat="44.08718" lon="1.91035">
        <ele>280.7</ele>
        <time>2017-04-23T10:22:36Z</time>
      </trkpt>
      <trkpt lat="44.08711" lon="1.9104">
        <ele>281.2</ele>
        <time>2017-04-23T10:22:42Z</time>
      </trkpt>
      <trkpt lat="44.08708" lon="1.91041">
        <ele>281.1</ele>
        <time>2017-04-23T10:22:49Z</time>
      </trkpt>
      <trkpt lat="44.08701" lon="1.91044">
        <ele>285.5</ele>
        <time>2017-04-23T10:24:08Z</time>
      </trkpt>
      <trkpt lat="44.08694" lon="1.91042">
        <ele>285</ele>
        <time>2017-04-23T10:24:12Z</time>
      </trkpt>
      <trkpt lat="44.08686" lon="1.91044">
        <ele>284.7</ele>
        <time>2017-04-23T10:24:16Z</time>
      </trkpt>
      <trkpt lat="44.08678" lon="1.91049">
        <ele>284.7</ele>
        <time>2017-04-23T10:24:20Z</time>
      </trkpt>
      <trkpt lat="44.08672" lon="1.91058">
        <ele>285.1</ele>
        <time>2017-04-23T10:24:24Z</time>
      </trkpt>
      <trkpt lat="44.08666" lon="1.91066">
        <ele>285.7</ele>
        <time>2017-04-23T10:24:27Z</time>
      </trkpt>
      <trkpt lat="44.0866" lon="1.91075">
        <ele>286.2</ele>
        <time>2017-04-23T10:24:31Z</time>
      </trkpt>
      <trkpt lat="44.08657" lon="1.91086">
        <ele>286.3</ele>
        <time>2017-04-23T10:24:35Z</time>
      </trkpt>
      <trkpt lat="44.08655" lon="1.91097">
        <ele>285.6</ele>
        <time>2017-04-23T10:24:38Z</time>
      </trkpt>
      <trkpt lat="44.08652" lon="1.91106">
        <ele>285.9</ele>
        <time>2017-04-23T10:24:42Z</time>
      </trkpt>
      <trkpt lat="44.08649" lon="1.91115">
        <ele>284.7</ele>
        <time>2017-04-23T10:24:46Z</time>
      </trkpt>
      <trkpt lat="44.08647" lon="1.91126">
        <ele>284.1</ele>
        <time>2017-04-23T10:24:50Z</time>
      </trkpt>
      <trkpt lat="44.08643" lon="1.91138">
        <ele>283.5</ele>
        <time>2017-04-23T10:24:55Z</time>
      </trkpt>
      <trkpt lat="44.08638" lon="1.91146">
        <ele>283.4</ele>
        <time>2017-04-23T10:24:59Z</time>
      </trkpt>
      <trkpt lat="44.0863" lon="1.91152">
        <ele>284.3</ele>
        <time>2017-04-23T10:25:03Z</time>
      </trkpt>
      <trkpt lat="44.08624" lon="1.91157">
        <ele>284.3</ele>
        <time>2017-04-23T10:25:06Z</time>
      </trkpt>
      <trkpt lat="44.08616" lon="1.91162">
        <ele>284.3</ele>
        <time>2017-04-23T10:25:09Z</time>
      </trkpt>
      <trkpt lat="44.08608" lon="1.91166">
        <ele>284</ele>
        <time>2017-04-23T10:25:12Z</time>
      </trkpt>
      <trkpt lat="44.086" lon="1.9117">
        <ele>283.4</ele>
        <time>2017-04-23T10:25:15Z</time>
      </trkpt>
      <trkpt lat="44.0859" lon="1.91169">
        <ele>282.6</ele>
        <time>2017-04-23T10:25:19Z</time>
      </trkpt>
      <trkpt lat="44.08582" lon="1.91177">
        <ele>282.1</ele>
        <time>2017-04-23T10:25:22Z</time>
      </trkpt>
      <trkpt lat="44.08578" lon="1.91185">
        <ele>281.5</ele>
        <time>2017-04-23T10:25:25Z</time>
      </trkpt>
      <trkpt lat="44.08574" lon="1.91196">
        <ele>281.5</ele>
        <time>2017-04-23T10:25:28Z</time>
      </trkpt>
      <trkpt lat="44.08574" lon="1.91208">
        <ele>281.5</ele>
        <time>2017-04-23T10:25:31Z</time>
      </trkpt>
      <trkpt lat="44.08576" lon="1.91219">
        <ele>283.8</ele>
        <time>2017-04-23T10:25:34Z</time>
      </trkpt>
      <trkpt lat="44.08583" lon="1.91225">
        <ele>285.7</ele>
        <time>2017-04-23T10:25:38Z</time>
      </trkpt>
      <trkpt lat="44.0859" lon="1.91224">
        <ele>286.3</ele>
        <time>2017-04-23T10:25:41Z</time>
      </trkpt>
      <trkpt lat="44.08597" lon="1.91223">
        <ele>288.1</ele>
        <time>2017-04-23T10:25:44Z</time>
      </trkpt>
      <trkpt lat="44.08606" lon="1.91219">
        <ele>288.1</ele>
        <time>2017-04-23T10:25:49Z</time>
      </trkpt>
      <trkpt lat="44.08614" lon="1.9122">
        <ele>287.9</ele>
        <time>2017-04-23T10:25:52Z</time>
      </trkpt>
      <trkpt lat="44.0862" lon="1.91225">
        <ele>288.5</ele>
        <time>2017-04-23T10:25:58Z</time>
      </trkpt>
      <trkpt lat="44.08625" lon="1.91234">
        <ele>289.3</ele>
        <time>2017-04-23T10:26:04Z</time>
      </trkpt>
      <trkpt lat="44.08623" lon="1.91245">
        <ele>289.8</ele>
        <time>2017-04-23T10:26:09Z</time>
      </trkpt>
      <trkpt lat="44.08619" lon="1.91255">
        <ele>290</ele>
        <time>2017-04-23T10:26:13Z</time>
      </trkpt>
      <trkpt lat="44.08614" lon="1.91263">
        <ele>290.3</ele>
        <time>2017-04-23T10:26:17Z</time>
      </trkpt>
      <trkpt lat="44.08609" lon="1.91274">
        <ele>289.6</ele>
        <time>2017-04-23T10:26:22Z</time>
      </trkpt>
      <trkpt lat="44.08602" lon="1.91278">
        <ele>289.4</ele>
        <time>2017-04-23T10:26:26Z</time>
      </trkpt>
      <trkpt lat="44.08594" lon="1.91282">
        <ele>288.9</ele>
        <time>2017-04-23T10:26:30Z</time>
      </trkpt>
      <trkpt lat="44.08589" lon="1.9129">
        <ele>288.4</ele>
        <time>2017-04-23T10:26:33Z</time>
      </trkpt>
      <trkpt lat="44.08584" lon="1.91301">
        <ele>289.4</ele>
        <time>2017-04-23T10:26:37Z</time>
      </trkpt>
      <trkpt lat="44.0858" lon="1.91311">
        <ele>291</ele>
        <time>2017-04-23T10:26:41Z</time>
      </trkpt>
      <trkpt lat="44.08575" lon="1.91319">
        <ele>291.1</ele>
        <time>2017-04-23T10:26:45Z</time>
      </trkpt>
      <trkpt lat="44.08569" lon="1.91329">
        <ele>291.9</ele>
        <time>2017-04-23T10:26:49Z</time>
      </trkpt>
      <trkpt lat="44.08562" lon="1.91335">
        <ele>292.1</ele>
        <time>2017-04-23T10:26:53Z</time>
      </trkpt>
      <trkpt lat="44.08562" lon="1.91347">
        <ele>292.4</ele>
        <time>2017-04-23T10:26:57Z</time>
      </trkpt>
      <trkpt lat="44.08561" lon="1.91358">
        <ele>293.3</ele>
        <time>2017-04-23T10:27:01Z</time>
      </trkpt>
      <trkpt lat="44.08559" lon="1.91369">
        <ele>294</ele>
        <time>2017-04-23T10:27:07Z</time>
      </trkpt>
      <trkpt lat="44.08556" lon="1.9138">
        <ele>294.7</ele>
        <time>2017-04-23T10:27:11Z</time>
      </trkpt>
      <trkpt lat="44.08554" lon="1.91391">
        <ele>295.2</ele>
        <time>2017-04-23T10:27:15Z</time>
      </trkpt>
      <trkpt lat="44.08551" lon="1.91402">
        <ele>295.7</ele>
        <time>2017-04-23T10:27:19Z</time>
      </trkpt>
      <trkpt lat="44.0855" lon="1.91413">
        <ele>295.5</ele>
        <time>2017-04-23T10:27:24Z</time>
      </trkpt>
      <trkpt lat="44.08549" lon="1.91424">
        <ele>295.3</ele>
        <time>2017-04-23T10:27:27Z</time>
      </trkpt>
      <trkpt lat="44.08545" lon="1.91432">
        <ele>295.5</ele>
        <time>2017-04-23T10:27:30Z</time>
      </trkpt>
      <trkpt lat="44.08547" lon="1.91443">
        <ele>295.4</ele>
        <time>2017-04-23T10:27:33Z</time>
      </trkpt>
      <trkpt lat="44.08548" lon="1.91453">
        <ele>294.1</ele>
        <time>2017-04-23T10:27:36Z</time>
      </trkpt>
      <trkpt lat="44.08549" lon="1.91466">
        <ele>292.7</ele>
        <time>2017-04-23T10:27:40Z</time>
      </trkpt>
      <trkpt lat="44.0855" lon="1.91479">
        <ele>291.6</ele>
        <time>2017-04-23T10:27:43Z</time>
      </trkpt>
      <trkpt lat="44.08551" lon="1.9149">
        <ele>290.8</ele>
        <time>2017-04-23T10:27:46Z</time>
      </trkpt>
      <trkpt lat="44.08552" lon="1.915">
        <ele>290.2</ele>
        <time>2017-04-23T10:27:49Z</time>
      </trkpt>
      <trkpt lat="44.08551" lon="1.9151">
        <ele>290.2</ele>
        <time>2017-04-23T10:27:52Z</time>
      </trkpt>
      <trkpt lat="44.08547" lon="1.9152">
        <ele>289.1</ele>
        <time>2017-04-23T10:27:56Z</time>
      </trkpt>
      <trkpt lat="44.08541" lon="1.91528">
        <ele>290</ele>
        <time>2017-04-23T10:28:03Z</time>
      </trkpt>
      <trkpt lat="44.08534" lon="1.91531">
        <ele>291.7</ele>
        <time>2017-04-23T10:28:07Z</time>
      </trkpt>
      <trkpt lat="44.08526" lon="1.91536">
        <ele>292.3</ele>
        <time>2017-04-23T10:28:10Z</time>
      </trkpt>
      <trkpt lat="44.08518" lon="1.91538">
        <ele>292.7</ele>
        <time>2017-04-23T10:28:12Z</time>
      </trkpt>
      <trkpt lat="44.0851" lon="1.91542">
        <ele>293.2</ele>
        <time>2017-04-23T10:28:14Z</time>
      </trkpt>
      <trkpt lat="44.08501" lon="1.91545">
        <ele>293.3</ele>
        <time>2017-04-23T10:28:16Z</time>
      </trkpt>
      <trkpt lat="44.08491" lon="1.91546">
        <ele>293.6</ele>
        <time>2017-04-23T10:28:18Z</time>
      </trkpt>
      <trkpt lat="44.08481" lon="1.91548">
        <ele>293.4</ele>
        <time>2017-04-23T10:28:20Z</time>
      </trkpt>
      <trkpt lat="44.08471" lon="1.9155">
        <ele>293.3</ele>
        <time>2017-04-23T10:28:22Z</time>
      </trkpt>
      <trkpt lat="44.0846" lon="1.91551">
        <ele>293.3</ele>
        <time>2017-04-23T10:28:24Z</time>
      </trkpt>
      <trkpt lat="44.0845" lon="1.91551">
        <ele>293.2</ele>
        <time>2017-04-23T10:28:26Z</time>
      </trkpt>
      <trkpt lat="44.0844" lon="1.91552">
        <ele>293.5</ele>
        <time>2017-04-23T10:28:28Z</time>
      </trkpt>
      <trkpt lat="44.0843" lon="1.91553">
        <ele>293.8</ele>
        <time>2017-04-23T10:28:30Z</time>
      </trkpt>
      <trkpt lat="44.08421" lon="1.91554">
        <ele>293.8</ele>
        <time>2017-04-23T10:28:32Z</time>
      </trkpt>
      <trkpt lat="44.08413" lon="1.91554">
        <ele>294.1</ele>
        <time>2017-04-23T10:28:34Z</time>
      </trkpt>
      <trkpt lat="44.08405" lon="1.91556">
        <ele>294.7</ele>
        <time>2017-04-23T10:28:36Z</time>
      </trkpt>
      <trkpt lat="44.08397" lon="1.91559">
        <ele>294.3</ele>
        <time>2017-04-23T10:28:38Z</time>
      </trkpt>
      <trkpt lat="44.08389" lon="1.9156">
        <ele>294.2</ele>
        <time>2017-04-23T10:28:40Z</time>
      </trkpt>
      <trkpt lat="44.0838" lon="1.91562">
        <ele>294.6</ele>
        <time>2017-04-23T10:28:42Z</time>
      </trkpt>
      <trkpt lat="44.08372" lon="1.91564">
        <ele>294.4</ele>
        <time>2017-04-23T10:28:44Z</time>
      </trkpt>
      <trkpt lat="44.08362" lon="1.91566">
        <ele>294.7</ele>
        <time>2017-04-23T10:28:46Z</time>
      </trkpt>
      <trkpt lat="44.08355" lon="1.91568">
        <ele>295</ele>
        <time>2017-04-23T10:28:48Z</time>
      </trkpt>
      <trkpt lat="44.08346" lon="1.91571">
        <ele>295.2</ele>
        <time>2017-04-23T10:28:50Z</time>
      </trkpt>
      <trkpt lat="44.08338" lon="1.91573">
        <ele>294.8</ele>
        <time>2017-04-23T10:28:52Z</time>
      </trkpt>
      <trkpt lat="44.08329" lon="1.91576">
        <ele>294.4</ele>
        <time>2017-04-23T10:28:54Z</time>
      </trkpt>
      <trkpt lat="44.0832" lon="1.91578">
        <ele>294.7</ele>
        <time>2017-04-23T10:28:56Z</time>
      </trkpt>
      <trkpt lat="44.0831" lon="1.91582">
        <ele>294.9</ele>
        <time>2017-04-23T10:28:58Z</time>
      </trkpt>
      <trkpt lat="44.08303" lon="1.91583">
        <ele>295.4</ele>
        <time>2017-04-23T10:29:00Z</time>
      </trkpt>
      <trkpt lat="44.08295" lon="1.91586">
        <ele>295.5</ele>
        <time>2017-04-23T10:29:02Z</time>
      </trkpt>
      <trkpt lat="44.08287" lon="1.91588">
        <ele>295</ele>
        <time>2017-04-23T10:29:04Z</time>
      </trkpt>
      <trkpt lat="44.08279" lon="1.91591">
        <ele>294.9</ele>
        <time>2017-04-23T10:29:06Z</time>
      </trkpt>
      <trkpt lat="44.08271" lon="1.91596">
        <ele>295.4</ele>
        <time>2017-04-23T10:29:08Z</time>
      </trkpt>
      <trkpt lat="44.0826" lon="1.91602">
        <ele>296.3</ele>
        <time>2017-04-23T10:29:10Z</time>
      </trkpt>
      <trkpt lat="44.08251" lon="1.91608">
        <ele>296.3</ele>
        <time>2017-04-23T10:29:12Z</time>
      </trkpt>
      <trkpt lat="44.08241" lon="1.91615">
        <ele>297</ele>
        <time>2017-04-23T10:29:14Z</time>
      </trkpt>
      <trkpt lat="44.08232" lon="1.91624">
        <ele>297</ele>
        <time>2017-04-23T10:29:16Z</time>
      </trkpt>
      <trkpt lat="44.08224" lon="1.91632">
        <ele>297.3</ele>
        <time>2017-04-23T10:29:18Z</time>
      </trkpt>
      <trkpt lat="44.08216" lon="1.91641">
        <ele>297.8</ele>
        <time>2017-04-23T10:29:20Z</time>
      </trkpt>
      <trkpt lat="44.08208" lon="1.9165">
        <ele>297.7</ele>
        <time>2017-04-23T10:29:22Z</time>
      </trkpt>
      <trkpt lat="44.082" lon="1.9166">
        <ele>297.4</ele>
        <time>2017-04-23T10:29:24Z</time>
      </trkpt>
      <trkpt lat="44.08192" lon="1.91669">
        <ele>297.4</ele>
        <time>2017-04-23T10:29:26Z</time>
      </trkpt>
      <trkpt lat="44.08184" lon="1.91678">
        <ele>296.7</ele>
        <time>2017-04-23T10:29:28Z</time>
      </trkpt>
      <trkpt lat="44.08176" lon="1.91689">
        <ele>296.6</ele>
        <time>2017-04-23T10:29:30Z</time>
      </trkpt>
      <trkpt lat="44.08167" lon="1.91698">
        <ele>295.6</ele>
        <time>2017-04-23T10:29:32Z</time>
      </trkpt>
      <trkpt lat="44.08159" lon="1.91707">
        <ele>295.2</ele>
        <time>2017-04-23T10:29:34Z</time>
      </trkpt>
      <trkpt lat="44.08152" lon="1.91716">
        <ele>295.8</ele>
        <time>2017-04-23T10:29:36Z</time>
      </trkpt>
      <trkpt lat="44.08144" lon="1.91726">
        <ele>295.7</ele>
        <time>2017-04-23T10:29:38Z</time>
      </trkpt>
      <trkpt lat="44.08136" lon="1.91736">
        <ele>295.6</ele>
        <time>2017-04-23T10:29:40Z</time>
      </trkpt>
      <trkpt lat="44.08129" lon="1.91746">
        <ele>295.8</ele>
        <time>2017-04-23T10:29:42Z</time>
      </trkpt>
      <trkpt lat="44.08122" lon="1.91757">
        <ele>295.8</ele>
        <time>2017-04-23T10:29:44Z</time>
      </trkpt>
      <trkpt lat="44.08115" lon="1.91768">
        <ele>295.9</ele>
        <time>2017-04-23T10:29:46Z</time>
      </trkpt>
      <trkpt lat="44.08108" lon="1.91779">
        <ele>296</ele>
        <time>2017-04-23T10:29:48Z</time>
      </trkpt>
      <trkpt lat="44.08101" lon="1.9179">
        <ele>295.6</ele>
        <time>2017-04-23T10:29:50Z</time>
      </trkpt>
      <trkpt lat="44.08093" lon="1.91803">
        <ele>295.4</ele>
        <time>2017-04-23T10:29:52Z</time>
      </trkpt>
      <trkpt lat="44.08086" lon="1.91815">
        <ele>295.5</ele>
        <time>2017-04-23T10:29:54Z</time>
      </trkpt>
      <trkpt lat="44.08078" lon="1.91829">
        <ele>295.4</ele>
        <time>2017-04-23T10:29:56Z</time>
      </trkpt>
      <trkpt lat="44.08071" lon="1.91842">
        <ele>295</ele>
        <time>2017-04-23T10:29:58Z</time>
      </trkpt>
      <trkpt lat="44.08063" lon="1.91857">
        <ele>294.7</ele>
        <time>2017-04-23T10:30:00Z</time>
      </trkpt>
      <trkpt lat="44.08055" lon="1.91871">
        <ele>294.4</ele>
        <time>2017-04-23T10:30:02Z</time>
      </trkpt>
      <trkpt lat="44.08047" lon="1.91885">
        <ele>294.7</ele>
        <time>2017-04-23T10:30:05Z</time>
      </trkpt>
      <trkpt lat="44.08037" lon="1.91897">
        <ele>294.8</ele>
        <time>2017-04-23T10:30:06Z</time>
      </trkpt>
      <trkpt lat="44.0803" lon="1.91909">
        <ele>294.5</ele>
        <time>2017-04-23T10:30:08Z</time>
      </trkpt>
      <trkpt lat="44.08021" lon="1.91921">
        <ele>294.1</ele>
        <time>2017-04-23T10:30:10Z</time>
      </trkpt>
      <trkpt lat="44.08013" lon="1.91932">
        <ele>293.9</ele>
        <time>2017-04-23T10:30:12Z</time>
      </trkpt>
      <trkpt lat="44.08005" lon="1.91943">
        <ele>293.7</ele>
        <time>2017-04-23T10:30:14Z</time>
      </trkpt>
      <trkpt lat="44.07998" lon="1.91954">
        <ele>292.8</ele>
        <time>2017-04-23T10:30:16Z</time>
      </trkpt>
      <trkpt lat="44.07991" lon="1.91965">
        <ele>292.5</ele>
        <time>2017-04-23T10:30:18Z</time>
      </trkpt>
      <trkpt lat="44.07985" lon="1.91975">
        <ele>292.2</ele>
        <time>2017-04-23T10:30:20Z</time>
      </trkpt>
      <trkpt lat="44.07978" lon="1.91985">
        <ele>292.3</ele>
        <time>2017-04-23T10:30:22Z</time>
      </trkpt>
      <trkpt lat="44.07971" lon="1.91994">
        <ele>292.4</ele>
        <time>2017-04-23T10:30:24Z</time>
      </trkpt>
      <trkpt lat="44.07965" lon="1.92003">
        <ele>292</ele>
        <time>2017-04-23T10:30:26Z</time>
      </trkpt>
      <trkpt lat="44.07958" lon="1.92012">
        <ele>291.9</ele>
        <time>2017-04-23T10:30:28Z</time>
      </trkpt>
      <trkpt lat="44.07951" lon="1.92021">
        <ele>291.8</ele>
        <time>2017-04-23T10:30:30Z</time>
      </trkpt>
      <trkpt lat="44.07944" lon="1.9203">
        <ele>291.5</ele>
        <time>2017-04-23T10:30:32Z</time>
      </trkpt>
      <trkpt lat="44.07938" lon="1.92041">
        <ele>291.6</ele>
        <time>2017-04-23T10:30:34Z</time>
      </trkpt>
      <trkpt lat="44.07933" lon="1.92052">
        <ele>291.8</ele>
        <time>2017-04-23T10:30:36Z</time>
      </trkpt>
      <trkpt lat="44.07928" lon="1.92062">
        <ele>292.1</ele>
        <time>2017-04-23T10:30:38Z</time>
      </trkpt>
      <trkpt lat="44.07923" lon="1.92074">
        <ele>292.1</ele>
        <time>2017-04-23T10:30:40Z</time>
      </trkpt>
      <trkpt lat="44.07917" lon="1.92084">
        <ele>292</ele>
        <time>2017-04-23T10:30:42Z</time>
      </trkpt>
      <trkpt lat="44.07911" lon="1.92096">
        <ele>292.1</ele>
        <time>2017-04-23T10:30:44Z</time>
      </trkpt>
      <trkpt lat="44.07906" lon="1.92106">
        <ele>293</ele>
        <time>2017-04-23T10:30:46Z</time>
      </trkpt>
      <trkpt lat="44.079" lon="1.92117">
        <ele>293.6</ele>
        <time>2017-04-23T10:30:48Z</time>
      </trkpt>
      <trkpt lat="44.07898" lon="1.92127">
        <ele>293</ele>
        <time>2017-04-23T10:30:50Z</time>
      </trkpt>
      <trkpt lat="44.07895" lon="1.92139">
        <ele>292.9</ele>
        <time>2017-04-23T10:30:52Z</time>
      </trkpt>
      <trkpt lat="44.07894" lon="1.92152">
        <ele>292.8</ele>
        <time>2017-04-23T10:30:54Z</time>
      </trkpt>
      <trkpt lat="44.07892" lon="1.92164">
        <ele>293.9</ele>
        <time>2017-04-23T10:30:56Z</time>
      </trkpt>
      <trkpt lat="44.07891" lon="1.92176">
        <ele>293.5</ele>
        <time>2017-04-23T10:30:58Z</time>
      </trkpt>
      <trkpt lat="44.07889" lon="1.92189">
        <ele>293</ele>
        <time>2017-04-23T10:31:00Z</time>
      </trkpt>
      <trkpt lat="44.07886" lon="1.92202">
        <ele>292.5</ele>
        <time>2017-04-23T10:31:02Z</time>
      </trkpt>
      <trkpt lat="44.07883" lon="1.92215">
        <ele>292.5</ele>
        <time>2017-04-23T10:31:04Z</time>
      </trkpt>
      <trkpt lat="44.07881" lon="1.92226">
        <ele>292.1</ele>
        <time>2017-04-23T10:31:06Z</time>
      </trkpt>
      <trkpt lat="44.07877" lon="1.92241">
        <ele>290.7</ele>
        <time>2017-04-23T10:31:09Z</time>
      </trkpt>
      <trkpt lat="44.07874" lon="1.92251">
        <ele>289.7</ele>
        <time>2017-04-23T10:31:11Z</time>
      </trkpt>
      <trkpt lat="44.0787" lon="1.92262">
        <ele>289.2</ele>
        <time>2017-04-23T10:31:13Z</time>
      </trkpt>
      <trkpt lat="44.07866" lon="1.92272">
        <ele>289</ele>
        <time>2017-04-23T10:31:15Z</time>
      </trkpt>
      <trkpt lat="44.07862" lon="1.92286">
        <ele>288.6</ele>
        <time>2017-04-23T10:31:18Z</time>
      </trkpt>
      <trkpt lat="44.07858" lon="1.92298">
        <ele>288.9</ele>
        <time>2017-04-23T10:31:21Z</time>
      </trkpt>
      <trkpt lat="44.07854" lon="1.92309">
        <ele>288.6</ele>
        <time>2017-04-23T10:31:24Z</time>
      </trkpt>
      <trkpt lat="44.07851" lon="1.92322">
        <ele>288.5</ele>
        <time>2017-04-23T10:31:27Z</time>
      </trkpt>
      <trkpt lat="44.07847" lon="1.92335">
        <ele>288.9</ele>
        <time>2017-04-23T10:31:30Z</time>
      </trkpt>
      <trkpt lat="44.07844" lon="1.92344">
        <ele>288.6</ele>
        <time>2017-04-23T10:31:32Z</time>
      </trkpt>
      <trkpt lat="44.07839" lon="1.92357">
        <ele>289.4</ele>
        <time>2017-04-23T10:31:35Z</time>
      </trkpt>
      <trkpt lat="44.07835" lon="1.92371">
        <ele>287.2</ele>
        <time>2017-04-23T10:31:38Z</time>
      </trkpt>
      <trkpt lat="44.07833" lon="1.92381">
        <ele>286.4</ele>
        <time>2017-04-23T10:31:40Z</time>
      </trkpt>
      <trkpt lat="44.0783" lon="1.92395">
        <ele>284.7</ele>
        <time>2017-04-23T10:31:43Z</time>
      </trkpt>
      <trkpt lat="44.07828" lon="1.92408">
        <ele>283.3</ele>
        <time>2017-04-23T10:31:46Z</time>
      </trkpt>
      <trkpt lat="44.07825" lon="1.92419">
        <ele>282.4</ele>
        <time>2017-04-23T10:31:48Z</time>
      </trkpt>
      <trkpt lat="44.07821" lon="1.92428">
        <ele>280.7</ele>
        <time>2017-04-23T10:31:50Z</time>
      </trkpt>
      <trkpt lat="44.07819" lon="1.92439">
        <ele>279.2</ele>
        <time>2017-04-23T10:31:52Z</time>
      </trkpt>
      <trkpt lat="44.07816" lon="1.92451">
        <ele>277.7</ele>
        <time>2017-04-23T10:31:54Z</time>
      </trkpt>
      <trkpt lat="44.07814" lon="1.92464">
        <ele>275.8</ele>
        <time>2017-04-23T10:31:56Z</time>
      </trkpt>
      <trkpt lat="44.07812" lon="1.92479">
        <ele>273.6</ele>
        <time>2017-04-23T10:31:58Z</time>
      </trkpt>
      <trkpt lat="44.0781" lon="1.92493">
        <ele>272.5</ele>
        <time>2017-04-23T10:32:00Z</time>
      </trkpt>
      <trkpt lat="44.07809" lon="1.92506">
        <ele>270.8</ele>
        <time>2017-04-23T10:32:02Z</time>
      </trkpt>
      <trkpt lat="44.07809" lon="1.92519">
        <ele>269.1</ele>
        <time>2017-04-23T10:32:04Z</time>
      </trkpt>
      <trkpt lat="44.07809" lon="1.92532">
        <ele>266.9</ele>
        <time>2017-04-23T10:32:06Z</time>
      </trkpt>
      <trkpt lat="44.07809" lon="1.92544">
        <ele>265.3</ele>
        <time>2017-04-23T10:32:08Z</time>
      </trkpt>
      <trkpt lat="44.0781" lon="1.92556">
        <ele>262.1</ele>
        <time>2017-04-23T10:32:10Z</time>
      </trkpt>
      <trkpt lat="44.07811" lon="1.92568">
        <ele>259.9</ele>
        <time>2017-04-23T10:32:12Z</time>
      </trkpt>
      <trkpt lat="44.07811" lon="1.92578">
        <ele>258.5</ele>
        <time>2017-04-23T10:32:14Z</time>
      </trkpt>
      <trkpt lat="44.0781" lon="1.92589">
        <ele>256.9</ele>
        <time>2017-04-23T10:32:16Z</time>
      </trkpt>
      <trkpt lat="44.07808" lon="1.92601">
        <ele>256.2</ele>
        <time>2017-04-23T10:32:19Z</time>
      </trkpt>
      <trkpt lat="44.07808" lon="1.92611">
        <ele>254.5</ele>
        <time>2017-04-23T10:32:21Z</time>
      </trkpt>
      <trkpt lat="44.07807" lon="1.92624">
        <ele>253.6</ele>
        <time>2017-04-23T10:32:23Z</time>
      </trkpt>
      <trkpt lat="44.07805" lon="1.92635">
        <ele>252.3</ele>
        <time>2017-04-23T10:32:25Z</time>
      </trkpt>
      <trkpt lat="44.07804" lon="1.92645">
        <ele>251</ele>
        <time>2017-04-23T10:32:27Z</time>
      </trkpt>
      <trkpt lat="44.07803" lon="1.92655">
        <ele>249.3</ele>
        <time>2017-04-23T10:32:29Z</time>
      </trkpt>
      <trkpt lat="44.07803" lon="1.92666">
        <ele>247.9</ele>
        <time>2017-04-23T10:32:31Z</time>
      </trkpt>
      <trkpt lat="44.07803" lon="1.92676">
        <ele>246.6</ele>
        <time>2017-04-23T10:32:33Z</time>
      </trkpt>
      <trkpt lat="44.07803" lon="1.92686">
        <ele>244.8</ele>
        <time>2017-04-23T10:32:35Z</time>
      </trkpt>
      <trkpt lat="44.07802" lon="1.92696">
        <ele>243.4</ele>
        <time>2017-04-23T10:32:37Z</time>
      </trkpt>
      <trkpt lat="44.07805" lon="1.92709">
        <ele>241.1</ele>
        <time>2017-04-23T10:32:40Z</time>
      </trkpt>
      <trkpt lat="44.07809" lon="1.92719">
        <ele>239.9</ele>
        <time>2017-04-23T10:32:42Z</time>
      </trkpt>
      <trkpt lat="44.07814" lon="1.92731">
        <ele>238.8</ele>
        <time>2017-04-23T10:32:44Z</time>
      </trkpt>
      <trkpt lat="44.07819" lon="1.92742">
        <ele>237.1</ele>
        <time>2017-04-23T10:32:46Z</time>
      </trkpt>
      <trkpt lat="44.07823" lon="1.92754">
        <ele>235.7</ele>
        <time>2017-04-23T10:32:48Z</time>
      </trkpt>
      <trkpt lat="44.07826" lon="1.92766">
        <ele>234.4</ele>
        <time>2017-04-23T10:32:50Z</time>
      </trkpt>
      <trkpt lat="44.0783" lon="1.92778">
        <ele>233.2</ele>
        <time>2017-04-23T10:32:52Z</time>
      </trkpt>
      <trkpt lat="44.07832" lon="1.92788">
        <ele>231.6</ele>
        <time>2017-04-23T10:32:54Z</time>
      </trkpt>
      <trkpt lat="44.07833" lon="1.92799">
        <ele>229.5</ele>
        <time>2017-04-23T10:32:57Z</time>
      </trkpt>
      <trkpt lat="44.07834" lon="1.9281">
        <ele>227.8</ele>
        <time>2017-04-23T10:33:00Z</time>
      </trkpt>
      <trkpt lat="44.0783" lon="1.9282">
        <ele>227.6</ele>
        <time>2017-04-23T10:33:03Z</time>
      </trkpt>
      <trkpt lat="44.07827" lon="1.92833">
        <ele>227.4</ele>
        <time>2017-04-23T10:33:06Z</time>
      </trkpt>
      <trkpt lat="44.07827" lon="1.92846">
        <ele>226.4</ele>
        <time>2017-04-23T10:33:08Z</time>
      </trkpt>
      <trkpt lat="44.07826" lon="1.92864">
        <ele>225.2</ele>
        <time>2017-04-23T10:33:10Z</time>
      </trkpt>
      <trkpt lat="44.07824" lon="1.92874">
        <ele>224.9</ele>
        <time>2017-04-23T10:33:11Z</time>
      </trkpt>
      <trkpt lat="44.07822" lon="1.92884">
        <ele>223.7</ele>
        <time>2017-04-23T10:33:12Z</time>
      </trkpt>
      <trkpt lat="44.07818" lon="1.92895">
        <ele>222.8</ele>
        <time>2017-04-23T10:33:13Z</time>
      </trkpt>
      <trkpt lat="44.07814" lon="1.92905">
        <ele>222.2</ele>
        <time>2017-04-23T10:33:14Z</time>
      </trkpt>
      <trkpt lat="44.07808" lon="1.92914">
        <ele>221.5</ele>
        <time>2017-04-23T10:33:15Z</time>
      </trkpt>
      <trkpt lat="44.07802" lon="1.92923">
        <ele>220.9</ele>
        <time>2017-04-23T10:33:16Z</time>
      </trkpt>
      <trkpt lat="44.07795" lon="1.9293">
        <ele>220.5</ele>
        <time>2017-04-23T10:33:17Z</time>
      </trkpt>
      <trkpt lat="44.07787" lon="1.92938">
        <ele>219.9</ele>
        <time>2017-04-23T10:33:18Z</time>
      </trkpt>
      <trkpt lat="44.0778" lon="1.92945">
        <ele>219.4</ele>
        <time>2017-04-23T10:33:19Z</time>
      </trkpt>
      <trkpt lat="44.07773" lon="1.92952">
        <ele>218.5</ele>
        <time>2017-04-23T10:33:20Z</time>
      </trkpt>
      <trkpt lat="44.07766" lon="1.92959">
        <ele>218.1</ele>
        <time>2017-04-23T10:33:21Z</time>
      </trkpt>
      <trkpt lat="44.07759" lon="1.92967">
        <ele>218.2</ele>
        <time>2017-04-23T10:33:22Z</time>
      </trkpt>
      <trkpt lat="44.07752" lon="1.92974">
        <ele>217.6</ele>
        <time>2017-04-23T10:33:23Z</time>
      </trkpt>
      <trkpt lat="44.07745" lon="1.92981">
        <ele>217.5</ele>
        <time>2017-04-23T10:33:24Z</time>
      </trkpt>
      <trkpt lat="44.07738" lon="1.92989">
        <ele>217.1</ele>
        <time>2017-04-23T10:33:25Z</time>
      </trkpt>
      <trkpt lat="44.07732" lon="1.92997">
        <ele>216.8</ele>
        <time>2017-04-23T10:33:26Z</time>
      </trkpt>
      <trkpt lat="44.07725" lon="1.93006">
        <ele>216.2</ele>
        <time>2017-04-23T10:33:27Z</time>
      </trkpt>
      <trkpt lat="44.07719" lon="1.93015">
        <ele>215.6</ele>
        <time>2017-04-23T10:33:28Z</time>
      </trkpt>
      <trkpt lat="44.07713" lon="1.93026">
        <ele>214.6</ele>
        <time>2017-04-23T10:33:29Z</time>
      </trkpt>
      <trkpt lat="44.07708" lon="1.93038">
        <ele>213.8</ele>
        <time>2017-04-23T10:33:30Z</time>
      </trkpt>
      <trkpt lat="44.07703" lon="1.93051">
        <ele>212.8</ele>
        <time>2017-04-23T10:33:31Z</time>
      </trkpt>
      <trkpt lat="44.07698" lon="1.93064">
        <ele>211.8</ele>
        <time>2017-04-23T10:33:32Z</time>
      </trkpt>
      <trkpt lat="44.07693" lon="1.93079">
        <ele>210.6</ele>
        <time>2017-04-23T10:33:33Z</time>
      </trkpt>
      <trkpt lat="44.07688" lon="1.93094">
        <ele>209.4</ele>
        <time>2017-04-23T10:33:34Z</time>
      </trkpt>
      <trkpt lat="44.07683" lon="1.9311">
        <ele>208.1</ele>
        <time>2017-04-23T10:33:35Z</time>
      </trkpt>
      <trkpt lat="44.07677" lon="1.93125">
        <ele>206.8</ele>
        <time>2017-04-23T10:33:36Z</time>
      </trkpt>
      <trkpt lat="44.07672" lon="1.93141">
        <ele>205.5</ele>
        <time>2017-04-23T10:33:37Z</time>
      </trkpt>
      <trkpt lat="44.07667" lon="1.93156">
        <ele>204.4</ele>
        <time>2017-04-23T10:33:38Z</time>
      </trkpt>
      <trkpt lat="44.07662" lon="1.9317">
        <ele>203.4</ele>
        <time>2017-04-23T10:33:39Z</time>
      </trkpt>
      <trkpt lat="44.07657" lon="1.93185">
        <ele>202.6</ele>
        <time>2017-04-23T10:33:40Z</time>
      </trkpt>
      <trkpt lat="44.07652" lon="1.93199">
        <ele>201.7</ele>
        <time>2017-04-23T10:33:41Z</time>
      </trkpt>
      <trkpt lat="44.07646" lon="1.93213">
        <ele>200.9</ele>
        <time>2017-04-23T10:33:42Z</time>
      </trkpt>
      <trkpt lat="44.07639" lon="1.93226">
        <ele>200.3</ele>
        <time>2017-04-23T10:33:43Z</time>
      </trkpt>
      <trkpt lat="44.07631" lon="1.93238">
        <ele>199.3</ele>
        <time>2017-04-23T10:33:44Z</time>
      </trkpt>
      <trkpt lat="44.07622" lon="1.93249">
        <ele>198.3</ele>
        <time>2017-04-23T10:33:45Z</time>
      </trkpt>
      <trkpt lat="44.07612" lon="1.93259">
        <ele>197.3</ele>
        <time>2017-04-23T10:33:46Z</time>
      </trkpt>
      <trkpt lat="44.07604" lon="1.93269">
        <ele>196.3</ele>
        <time>2017-04-23T10:33:47Z</time>
      </trkpt>
      <trkpt lat="44.07594" lon="1.93279">
        <ele>195.4</ele>
        <time>2017-04-23T10:33:48Z</time>
      </trkpt>
      <trkpt lat="44.07585" lon="1.93289">
        <ele>194.1</ele>
        <time>2017-04-23T10:33:49Z</time>
      </trkpt>
      <trkpt lat="44.07577" lon="1.93299">
        <ele>193</ele>
        <time>2017-04-23T10:33:50Z</time>
      </trkpt>
      <trkpt lat="44.07569" lon="1.93308">
        <ele>192</ele>
        <time>2017-04-23T10:33:51Z</time>
      </trkpt>
      <trkpt lat="44.07563" lon="1.93317">
        <ele>190.7</ele>
        <time>2017-04-23T10:33:52Z</time>
      </trkpt>
      <trkpt lat="44.07553" lon="1.9333">
        <ele>189.8</ele>
        <time>2017-04-23T10:33:54Z</time>
      </trkpt>
      <trkpt lat="44.07546" lon="1.93336">
        <ele>188.7</ele>
        <time>2017-04-23T10:33:56Z</time>
      </trkpt>
      <trkpt lat="44.07537" lon="1.9334">
        <ele>188.1</ele>
        <time>2017-04-23T10:33:59Z</time>
      </trkpt>
      <trkpt lat="44.07529" lon="1.93346">
        <ele>186.6</ele>
        <time>2017-04-23T10:34:02Z</time>
      </trkpt>
      <trkpt lat="44.07521" lon="1.93348">
        <ele>185.4</ele>
        <time>2017-04-23T10:34:05Z</time>
      </trkpt>
      <trkpt lat="44.07513" lon="1.93349">
        <ele>183.6</ele>
        <time>2017-04-23T10:34:08Z</time>
      </trkpt>
      <trkpt lat="44.07505" lon="1.93357">
        <ele>180.8</ele>
        <time>2017-04-23T10:34:11Z</time>
      </trkpt>
      <trkpt lat="44.07498" lon="1.93367">
        <ele>177.5</ele>
        <time>2017-04-23T10:34:14Z</time>
      </trkpt>
      <trkpt lat="44.07494" lon="1.93376">
        <ele>174.8</ele>
        <time>2017-04-23T10:34:19Z</time>
      </trkpt>
      <trkpt lat="44.07488" lon="1.93382">
        <ele>173.5</ele>
        <time>2017-04-23T10:34:23Z</time>
      </trkpt>
      <trkpt lat="44.07483" lon="1.93391">
        <ele>172.6</ele>
        <time>2017-04-23T10:34:26Z</time>
      </trkpt>
      <trkpt lat="44.07479" lon="1.93399">
        <ele>171.7</ele>
        <time>2017-04-23T10:34:29Z</time>
      </trkpt>
      <trkpt lat="44.07474" lon="1.93407">
        <ele>170.3</ele>
        <time>2017-04-23T10:34:32Z</time>
      </trkpt>
      <trkpt lat="44.07468" lon="1.93415">
        <ele>169.9</ele>
        <time>2017-04-23T10:34:34Z</time>
      </trkpt>
      <trkpt lat="44.07463" lon="1.93424">
        <ele>169.6</ele>
        <time>2017-04-23T10:34:36Z</time>
      </trkpt>
      <trkpt lat="44.07456" lon="1.93432">
        <ele>169.5</ele>
        <time>2017-04-23T10:34:39Z</time>
      </trkpt>
      <trkpt lat="44.07451" lon="1.93442">
        <ele>169.1</ele>
        <time>2017-04-23T10:34:42Z</time>
      </trkpt>
      <trkpt lat="44.07445" lon="1.93451">
        <ele>168.7</ele>
        <time>2017-04-23T10:34:45Z</time>
      </trkpt>
      <trkpt lat="44.07437" lon="1.93458">
        <ele>167.6</ele>
        <time>2017-04-23T10:34:48Z</time>
      </trkpt>
      <trkpt lat="44.0743" lon="1.93464">
        <ele>166.6</ele>
        <time>2017-04-23T10:34:51Z</time>
      </trkpt>
      <trkpt lat="44.07422" lon="1.93469">
        <ele>166.3</ele>
        <time>2017-04-23T10:34:53Z</time>
      </trkpt>
      <trkpt lat="44.07415" lon="1.93473">
        <ele>166.8</ele>
        <time>2017-04-23T10:34:55Z</time>
      </trkpt>
      <trkpt lat="44.07406" lon="1.93476">
        <ele>166.1</ele>
        <time>2017-04-23T10:34:57Z</time>
      </trkpt>
      <trkpt lat="44.07397" lon="1.93479">
        <ele>165.6</ele>
        <time>2017-04-23T10:34:59Z</time>
      </trkpt>
      <trkpt lat="44.07388" lon="1.93482">
        <ele>165.1</ele>
        <time>2017-04-23T10:35:01Z</time>
      </trkpt>
      <trkpt lat="44.07379" lon="1.93483">
        <ele>165</ele>
        <time>2017-04-23T10:35:03Z</time>
      </trkpt>
      <trkpt lat="44.07371" lon="1.93483">
        <ele>163.6</ele>
        <time>2017-04-23T10:35:05Z</time>
      </trkpt>
      <trkpt lat="44.07362" lon="1.93483">
        <ele>162.6</ele>
        <time>2017-04-23T10:35:08Z</time>
      </trkpt>
      <trkpt lat="44.07353" lon="1.93482">
        <ele>161.5</ele>
        <time>2017-04-23T10:35:10Z</time>
      </trkpt>
      <trkpt lat="44.07345" lon="1.93479">
        <ele>161.4</ele>
        <time>2017-04-23T10:35:12Z</time>
      </trkpt>
      <trkpt lat="44.07337" lon="1.93478">
        <ele>161.4</ele>
        <time>2017-04-23T10:35:14Z</time>
      </trkpt>
      <trkpt lat="44.07329" lon="1.93479">
        <ele>161.2</ele>
        <time>2017-04-23T10:35:16Z</time>
      </trkpt>
      <trkpt lat="44.07321" lon="1.93482">
        <ele>160.9</ele>
        <time>2017-04-23T10:35:18Z</time>
      </trkpt>
      <trkpt lat="44.07313" lon="1.93491">
        <ele>160.3</ele>
        <time>2017-04-23T10:35:21Z</time>
      </trkpt>
      <trkpt lat="44.07309" lon="1.935">
        <ele>160.4</ele>
        <time>2017-04-23T10:35:24Z</time>
      </trkpt>
      <trkpt lat="44.07303" lon="1.93509">
        <ele>160.9</ele>
        <time>2017-04-23T10:35:28Z</time>
      </trkpt>
      <trkpt lat="44.07298" lon="1.93518">
        <ele>161.8</ele>
        <time>2017-04-23T10:35:32Z</time>
      </trkpt>
      <trkpt lat="44.07292" lon="1.93526">
        <ele>162.7</ele>
        <time>2017-04-23T10:35:36Z</time>
      </trkpt>
      <trkpt lat="44.07289" lon="1.93537">
        <ele>162.9</ele>
        <time>2017-04-23T10:35:41Z</time>
      </trkpt>
      <trkpt lat="44.07285" lon="1.93542">
        <ele>163</ele>
        <time>2017-04-23T10:35:48Z</time>
      </trkpt>
      <trkpt lat="44.07282" lon="1.93553">
        <ele>163.8</ele>
        <time>2017-04-23T10:36:01Z</time>
      </trkpt>
      <trkpt lat="44.07275" lon="1.93564">
        <ele>162.7</ele>
        <time>2017-04-23T10:36:04Z</time>
      </trkpt>
      <trkpt lat="44.0727" lon="1.93575">
        <ele>162.8</ele>
        <time>2017-04-23T10:36:07Z</time>
      </trkpt>
      <trkpt lat="44.07265" lon="1.93584">
        <ele>162.7</ele>
        <time>2017-04-23T10:36:09Z</time>
      </trkpt>
      <trkpt lat="44.0726" lon="1.93592">
        <ele>162.8</ele>
        <time>2017-04-23T10:36:11Z</time>
      </trkpt>
      <trkpt lat="44.07255" lon="1.93601">
        <ele>162.3</ele>
        <time>2017-04-23T10:36:13Z</time>
      </trkpt>
      <trkpt lat="44.0725" lon="1.93609">
        <ele>162.7</ele>
        <time>2017-04-23T10:36:15Z</time>
      </trkpt>
      <trkpt lat="44.07245" lon="1.93618">
        <ele>162.1</ele>
        <time>2017-04-23T10:36:17Z</time>
      </trkpt>
      <trkpt lat="44.0724" lon="1.93627">
        <ele>161.9</ele>
        <time>2017-04-23T10:36:20Z</time>
      </trkpt>
      <trkpt lat="44.07234" lon="1.93636">
        <ele>161.6</ele>
        <time>2017-04-23T10:36:21Z</time>
      </trkpt>
      <trkpt lat="44.07229" lon="1.93645">
        <ele>161.6</ele>
        <time>2017-04-23T10:36:23Z</time>
      </trkpt>
      <trkpt lat="44.07225" lon="1.93654">
        <ele>161.6</ele>
        <time>2017-04-23T10:36:25Z</time>
      </trkpt>
      <trkpt lat="44.07218" lon="1.93667">
        <ele>161.5</ele>
        <time>2017-04-23T10:36:29Z</time>
      </trkpt>
      <trkpt lat="44.07212" lon="1.93679">
        <ele>161.1</ele>
        <time>2017-04-23T10:36:31Z</time>
      </trkpt>
      <trkpt lat="44.07208" lon="1.93688">
        <ele>160.7</ele>
        <time>2017-04-23T10:36:33Z</time>
      </trkpt>
      <trkpt lat="44.07202" lon="1.93697">
        <ele>160.1</ele>
        <time>2017-04-23T10:36:35Z</time>
      </trkpt>
      <trkpt lat="44.07196" lon="1.93707">
        <ele>159.2</ele>
        <time>2017-04-23T10:36:37Z</time>
      </trkpt>
      <trkpt lat="44.07191" lon="1.93716">
        <ele>158.2</ele>
        <time>2017-04-23T10:36:39Z</time>
      </trkpt>
      <trkpt lat="44.07185" lon="1.93723">
        <ele>156.9</ele>
        <time>2017-04-23T10:36:41Z</time>
      </trkpt>
      <trkpt lat="44.0718" lon="1.93732">
        <ele>155.9</ele>
        <time>2017-04-23T10:36:43Z</time>
      </trkpt>
      <trkpt lat="44.07175" lon="1.93741">
        <ele>155.1</ele>
        <time>2017-04-23T10:36:45Z</time>
      </trkpt>
      <trkpt lat="44.0717" lon="1.93749">
        <ele>153.8</ele>
        <time>2017-04-23T10:36:47Z</time>
      </trkpt>
      <trkpt lat="44.07163" lon="1.93758">
        <ele>152.2</ele>
        <time>2017-04-23T10:36:49Z</time>
      </trkpt>
      <trkpt lat="44.07157" lon="1.93768">
        <ele>151.1</ele>
        <time>2017-04-23T10:36:51Z</time>
      </trkpt>
      <trkpt lat="44.0715" lon="1.93778">
        <ele>150.3</ele>
        <time>2017-04-23T10:36:53Z</time>
      </trkpt>
      <trkpt lat="44.07144" lon="1.93788">
        <ele>148.9</ele>
        <time>2017-04-23T10:36:55Z</time>
      </trkpt>
      <trkpt lat="44.07137" lon="1.93799">
        <ele>148.6</ele>
        <time>2017-04-23T10:36:57Z</time>
      </trkpt>
      <trkpt lat="44.07131" lon="1.93808">
        <ele>147.2</ele>
        <time>2017-04-23T10:36:59Z</time>
      </trkpt>
      <trkpt lat="44.07125" lon="1.93818">
        <ele>145.7</ele>
        <time>2017-04-23T10:37:01Z</time>
      </trkpt>
      <trkpt lat="44.07118" lon="1.93827">
        <ele>144.4</ele>
        <time>2017-04-23T10:37:03Z</time>
      </trkpt>
      <trkpt lat="44.07112" lon="1.93837">
        <ele>143.1</ele>
        <time>2017-04-23T10:37:05Z</time>
      </trkpt>
      <trkpt lat="44.07106" lon="1.93847">
        <ele>142.4</ele>
        <time>2017-04-23T10:37:07Z</time>
      </trkpt>
      <trkpt lat="44.071" lon="1.93857">
        <ele>141.6</ele>
        <time>2017-04-23T10:37:09Z</time>
      </trkpt>
      <trkpt lat="44.07093" lon="1.93867">
        <ele>141</ele>
        <time>2017-04-23T10:37:11Z</time>
      </trkpt>
      <trkpt lat="44.07087" lon="1.93878">
        <ele>140.6</ele>
        <time>2017-04-23T10:37:13Z</time>
      </trkpt>
      <trkpt lat="44.07082" lon="1.93887">
        <ele>140</ele>
        <time>2017-04-23T10:37:15Z</time>
      </trkpt>
      <trkpt lat="44.07076" lon="1.93898">
        <ele>140.4</ele>
        <time>2017-04-23T10:37:17Z</time>
      </trkpt>
      <trkpt lat="44.07069" lon="1.93907">
        <ele>142</ele>
        <time>2017-04-23T10:37:19Z</time>
      </trkpt>
      <trkpt lat="44.07064" lon="1.93918">
        <ele>142.7</ele>
        <time>2017-04-23T10:37:21Z</time>
      </trkpt>
      <trkpt lat="44.07058" lon="1.93928">
        <ele>144.2</ele>
        <time>2017-04-23T10:37:23Z</time>
      </trkpt>
      <trkpt lat="44.07052" lon="1.93939">
        <ele>146.3</ele>
        <time>2017-04-23T10:37:25Z</time>
      </trkpt>
      <trkpt lat="44.07047" lon="1.93949">
        <ele>147.9</ele>
        <time>2017-04-23T10:37:27Z</time>
      </trkpt>
      <trkpt lat="44.07042" lon="1.93959">
        <ele>149.2</ele>
        <time>2017-04-23T10:37:29Z</time>
      </trkpt>
      <trkpt lat="44.07038" lon="1.9397">
        <ele>150.6</ele>
        <time>2017-04-23T10:37:31Z</time>
      </trkpt>
      <trkpt lat="44.07032" lon="1.93981">
        <ele>151.5</ele>
        <time>2017-04-23T10:37:33Z</time>
      </trkpt>
      <trkpt lat="44.07028" lon="1.93992">
        <ele>153</ele>
        <time>2017-04-23T10:37:35Z</time>
      </trkpt>
      <trkpt lat="44.07024" lon="1.94001">
        <ele>154.7</ele>
        <time>2017-04-23T10:37:37Z</time>
      </trkpt>
      <trkpt lat="44.07019" lon="1.94008">
        <ele>155.4</ele>
        <time>2017-04-23T10:37:39Z</time>
      </trkpt>
      <trkpt lat="44.07014" lon="1.94017">
        <ele>156.3</ele>
        <time>2017-04-23T10:37:41Z</time>
      </trkpt>
      <trkpt lat="44.07007" lon="1.94027">
        <ele>155.2</ele>
        <time>2017-04-23T10:37:43Z</time>
      </trkpt>
      <trkpt lat="44.06998" lon="1.9404">
        <ele>153.9</ele>
        <time>2017-04-23T10:37:45Z</time>
      </trkpt>
      <trkpt lat="44.06989" lon="1.94053">
        <ele>154</ele>
        <time>2017-04-23T10:37:47Z</time>
      </trkpt>
      <trkpt lat="44.06981" lon="1.94061">
        <ele>154.2</ele>
        <time>2017-04-23T10:37:49Z</time>
      </trkpt>
      <trkpt lat="44.06975" lon="1.94068">
        <ele>155.5</ele>
        <time>2017-04-23T10:37:52Z</time>
      </trkpt>
      <trkpt lat="44.06971" lon="1.94077">
        <ele>156.8</ele>
        <time>2017-04-23T10:37:56Z</time>
      </trkpt>
      <trkpt lat="44.06969" lon="1.94088">
        <ele>158.4</ele>
        <time>2017-04-23T10:38:00Z</time>
      </trkpt>
      <trkpt lat="44.06968" lon="1.94099">
        <ele>159.3</ele>
        <time>2017-04-23T10:38:05Z</time>
      </trkpt>
      <trkpt lat="44.06962" lon="1.94109">
        <ele>161.1</ele>
        <time>2017-04-23T10:38:11Z</time>
      </trkpt>
      <trkpt lat="44.06958" lon="1.94118">
        <ele>160.6</ele>
        <time>2017-04-23T10:38:15Z</time>
      </trkpt>
      <trkpt lat="44.06952" lon="1.94129">
        <ele>161.6</ele>
        <time>2017-04-23T10:38:19Z</time>
      </trkpt>
      <trkpt lat="44.06945" lon="1.94137">
        <ele>162.7</ele>
        <time>2017-04-23T10:38:22Z</time>
      </trkpt>
      <trkpt lat="44.06941" lon="1.94147">
        <ele>164.3</ele>
        <time>2017-04-23T10:38:25Z</time>
      </trkpt>
      <trkpt lat="44.06935" lon="1.94156">
        <ele>165.2</ele>
        <time>2017-04-23T10:38:28Z</time>
      </trkpt>
      <trkpt lat="44.06931" lon="1.94165">
        <ele>166.4</ele>
        <time>2017-04-23T10:38:31Z</time>
      </trkpt>
      <trkpt lat="44.0693" lon="1.94173">
        <ele>166.6</ele>
        <time>2017-04-23T10:38:38Z</time>
      </trkpt>
      <trkpt lat="44.06923" lon="1.94182">
        <ele>166.3</ele>
        <time>2017-04-23T10:38:50Z</time>
      </trkpt>
      <trkpt lat="44.06917" lon="1.94192">
        <ele>166.4</ele>
        <time>2017-04-23T10:38:54Z</time>
      </trkpt>
      <trkpt lat="44.06912" lon="1.94203">
        <ele>166.9</ele>
        <time>2017-04-23T10:38:57Z</time>
      </trkpt>
      <trkpt lat="44.06905" lon="1.94214">
        <ele>166.8</ele>
        <time>2017-04-23T10:39:00Z</time>
      </trkpt>
      <trkpt lat="44.06899" lon="1.94225">
        <ele>167.1</ele>
        <time>2017-04-23T10:39:03Z</time>
      </trkpt>
      <trkpt lat="44.06892" lon="1.94236">
        <ele>167.4</ele>
        <time>2017-04-23T10:39:06Z</time>
      </trkpt>
      <trkpt lat="44.06886" lon="1.94246">
        <ele>167.4</ele>
        <time>2017-04-23T10:39:09Z</time>
      </trkpt>
      <trkpt lat="44.06882" lon="1.94255">
        <ele>168.9</ele>
        <time>2017-04-23T10:39:13Z</time>
      </trkpt>
      <trkpt lat="44.0688" lon="1.94244">
        <ele>168.3</ele>
        <time>2017-04-23T10:39:19Z</time>
      </trkpt>
      <trkpt lat="44.06885" lon="1.94232">
        <ele>167.6</ele>
        <time>2017-04-23T10:39:21Z</time>
      </trkpt>
      <trkpt lat="44.06888" lon="1.94223">
        <ele>166.8</ele>
        <time>2017-04-23T10:39:23Z</time>
      </trkpt>
      <trkpt lat="44.06885" lon="1.94212">
        <ele>166</ele>
        <time>2017-04-23T10:39:25Z</time>
      </trkpt>
      <trkpt lat="44.06881" lon="1.94201">
        <ele>164.4</ele>
        <time>2017-04-23T10:39:27Z</time>
      </trkpt>
      <trkpt lat="44.06879" lon="1.9419">
        <ele>163.1</ele>
        <time>2017-04-23T10:39:29Z</time>
      </trkpt>
      <trkpt lat="44.06876" lon="1.9418">
        <ele>162</ele>
        <time>2017-04-23T10:39:31Z</time>
      </trkpt>
      <trkpt lat="44.06873" lon="1.94169">
        <ele>161.8</ele>
        <time>2017-04-23T10:39:33Z</time>
      </trkpt>
      <trkpt lat="44.06867" lon="1.94157">
        <ele>160.9</ele>
        <time>2017-04-23T10:39:36Z</time>
      </trkpt>
      <trkpt lat="44.06861" lon="1.9415">
        <ele>161</ele>
        <time>2017-04-23T10:39:39Z</time>
      </trkpt>
      <trkpt lat="44.06852" lon="1.94142">
        <ele>159.9</ele>
        <time>2017-04-23T10:39:42Z</time>
      </trkpt>
      <trkpt lat="44.06845" lon="1.94137">
        <ele>159.7</ele>
        <time>2017-04-23T10:39:44Z</time>
      </trkpt>
      <trkpt lat="44.06836" lon="1.94129">
        <ele>159.1</ele>
        <time>2017-04-23T10:39:47Z</time>
      </trkpt>
      <trkpt lat="44.06828" lon="1.94121">
        <ele>158.9</ele>
        <time>2017-04-23T10:39:50Z</time>
      </trkpt>
      <trkpt lat="44.06819" lon="1.94113">
        <ele>158.5</ele>
        <time>2017-04-23T10:39:53Z</time>
      </trkpt>
      <trkpt lat="44.06814" lon="1.94107">
        <ele>158.5</ele>
        <time>2017-04-23T10:39:55Z</time>
      </trkpt>
      <trkpt lat="44.06807" lon="1.94096">
        <ele>158.2</ele>
        <time>2017-04-23T10:39:58Z</time>
      </trkpt>
      <trkpt lat="44.068" lon="1.94085">
        <ele>158</ele>
        <time>2017-04-23T10:40:01Z</time>
      </trkpt>
      <trkpt lat="44.06795" lon="1.94077">
        <ele>158.1</ele>
        <time>2017-04-23T10:40:03Z</time>
      </trkpt>
      <trkpt lat="44.0679" lon="1.94069">
        <ele>159.4</ele>
        <time>2017-04-23T10:40:05Z</time>
      </trkpt>
      <trkpt lat="44.06784" lon="1.94062">
        <ele>159.4</ele>
        <time>2017-04-23T10:40:07Z</time>
      </trkpt>
      <trkpt lat="44.06777" lon="1.94058">
        <ele>159.7</ele>
        <time>2017-04-23T10:40:09Z</time>
      </trkpt>
      <trkpt lat="44.06769" lon="1.94059">
        <ele>160.6</ele>
        <time>2017-04-23T10:40:12Z</time>
      </trkpt>
      <trkpt lat="44.06764" lon="1.94071">
        <ele>161.6</ele>
        <time>2017-04-23T10:40:15Z</time>
      </trkpt>
      <trkpt lat="44.06761" lon="1.94083">
        <ele>161.4</ele>
        <time>2017-04-23T10:40:18Z</time>
      </trkpt>
      <trkpt lat="44.06754" lon="1.94089">
        <ele>161.3</ele>
        <time>2017-04-23T10:40:21Z</time>
      </trkpt>
      <trkpt lat="44.06747" lon="1.94094">
        <ele>160.8</ele>
        <time>2017-04-23T10:40:25Z</time>
      </trkpt>
      <trkpt lat="44.0674" lon="1.94102">
        <ele>160.2</ele>
        <time>2017-04-23T10:40:30Z</time>
      </trkpt>
      <trkpt lat="44.06732" lon="1.94106">
        <ele>159.6</ele>
        <time>2017-04-23T10:40:34Z</time>
      </trkpt>
      <trkpt lat="44.06725" lon="1.9411">
        <ele>159.1</ele>
        <time>2017-04-23T10:40:37Z</time>
      </trkpt>
      <trkpt lat="44.06717" lon="1.94115">
        <ele>158.3</ele>
        <time>2017-04-23T10:40:40Z</time>
      </trkpt>
      <trkpt lat="44.06709" lon="1.94119">
        <ele>157.7</ele>
        <time>2017-04-23T10:40:43Z</time>
      </trkpt>
      <trkpt lat="44.06702" lon="1.94124">
        <ele>158</ele>
        <time>2017-04-23T10:40:46Z</time>
      </trkpt>
      <trkpt lat="44.06693" lon="1.94126">
        <ele>158.3</ele>
        <time>2017-04-23T10:40:49Z</time>
      </trkpt>
      <trkpt lat="44.06684" lon="1.94123">
        <ele>158.8</ele>
        <time>2017-04-23T10:40:51Z</time>
      </trkpt>
      <trkpt lat="44.06677" lon="1.94125">
        <ele>159</ele>
        <time>2017-04-23T10:40:57Z</time>
      </trkpt>
      <trkpt lat="44.06676" lon="1.94124">
        <ele>159.1</ele>
        <time>2017-04-23T10:41:04Z</time>
      </trkpt>
    </trkseg>
  </trk>
</gpx>